<?xml version="1.0" encoding="UTF-8" standalone="no" ?>
<gpx xmlns="http://www.topografix.com/GPX/1/1" xmlns:xsi="http://www.w3.org/2001/XMLSchema-instance" xsi:schemaLocation="http://www.topografix.com/GPX/1/1 http://www.topografix.com/GPX/1/1/gpx.xsd" version="1.1" creator="VisuGPX - https://www.visugpx.com">
  <metadata>
    <name>balade de val durance au plateau de solheillet </name>
    <desc><![CDATA[balade agreable pour se remettre en selle sans trop de deniveller positif je la conseil au personne desireuse de se remettre au velo  ]]></desc>
  </metadata>
  <trk>
    <name><![CDATA[balade de val durance au plateau de solheillet _1]]></name>
    <trkseg>
      <trkpt lat="44.23018" lon="5.91015">
        <ele>508.3</ele>
        <time>2017-01-12 13:17:39</time>
      </trkpt>
      <trkpt lat="44.23014" lon="5.91017">
        <ele>508.2</ele>
        <time>2017-01-12 13:17:40</time>
      </trkpt>
      <trkpt lat="44.23014" lon="5.91017">
        <ele>508.2</ele>
        <time>2017-01-12 13:17:41</time>
      </trkpt>
      <trkpt lat="44.23014" lon="5.91017">
        <ele>508.2</ele>
        <time>2017-01-12 13:17:42</time>
      </trkpt>
      <trkpt lat="44.23014" lon="5.91017">
        <ele>508.2</ele>
        <time>2017-01-12 13:17:43</time>
      </trkpt>
      <trkpt lat="44.23003" lon="5.91026">
        <ele>508</ele>
        <time>2017-01-12 13:17:44</time>
      </trkpt>
      <trkpt lat="44.23003" lon="5.91026">
        <ele>508</ele>
        <time>2017-01-12 13:17:45</time>
      </trkpt>
      <trkpt lat="44.23003" lon="5.91026">
        <ele>508</ele>
        <time>2017-01-12 13:17:46</time>
      </trkpt>
      <trkpt lat="44.23003" lon="5.91026">
        <ele>508</ele>
        <time>2017-01-12 13:17:47</time>
      </trkpt>
      <trkpt lat="44.22996" lon="5.91042">
        <ele>508</ele>
        <time>2017-01-12 13:17:48</time>
      </trkpt>
      <trkpt lat="44.22996" lon="5.91042">
        <ele>508</ele>
        <time>2017-01-12 13:17:49</time>
      </trkpt>
      <trkpt lat="44.22996" lon="5.91042">
        <ele>508</ele>
        <time>2017-01-12 13:17:50</time>
      </trkpt>
      <trkpt lat="44.22996" lon="5.91042">
        <ele>508</ele>
        <time>2017-01-12 13:17:51</time>
      </trkpt>
      <trkpt lat="44.22998" lon="5.91062">
        <ele>508</ele>
        <time>2017-01-12 13:17:52</time>
      </trkpt>
      <trkpt lat="44.22998" lon="5.91062">
        <ele>508</ele>
        <time>2017-01-12 13:17:53</time>
      </trkpt>
      <trkpt lat="44.22998" lon="5.91062">
        <ele>508</ele>
        <time>2017-01-12 13:17:54</time>
      </trkpt>
      <trkpt lat="44.22998" lon="5.91062">
        <ele>508</ele>
        <time>2017-01-12 13:17:55</time>
      </trkpt>
      <trkpt lat="44.23004" lon="5.91085">
        <ele>508</ele>
        <time>2017-01-12 13:17:56</time>
      </trkpt>
      <trkpt lat="44.23004" lon="5.91085">
        <ele>508</ele>
        <time>2017-01-12 13:17:57</time>
      </trkpt>
      <trkpt lat="44.23004" lon="5.91085">
        <ele>508</ele>
        <time>2017-01-12 13:17:58</time>
      </trkpt>
      <trkpt lat="44.23004" lon="5.91085">
        <ele>508</ele>
        <time>2017-01-12 13:17:59</time>
      </trkpt>
      <trkpt lat="44.23011" lon="5.91108">
        <ele>507.5</ele>
        <time>2017-01-12 13:18:00</time>
      </trkpt>
      <trkpt lat="44.23011" lon="5.91108">
        <ele>507.5</ele>
        <time>2017-01-12 13:18:01</time>
      </trkpt>
      <trkpt lat="44.23011" lon="5.91108">
        <ele>507.5</ele>
        <time>2017-01-12 13:18:02</time>
      </trkpt>
      <trkpt lat="44.23011" lon="5.91108">
        <ele>507.5</ele>
        <time>2017-01-12 13:18:03</time>
      </trkpt>
      <trkpt lat="44.23016" lon="5.9113">
        <ele>507.2</ele>
        <time>2017-01-12 13:18:04</time>
      </trkpt>
      <trkpt lat="44.23016" lon="5.9113">
        <ele>507.2</ele>
        <time>2017-01-12 13:18:05</time>
      </trkpt>
      <trkpt lat="44.23016" lon="5.9113">
        <ele>507.2</ele>
        <time>2017-01-12 13:18:06</time>
      </trkpt>
      <trkpt lat="44.23016" lon="5.9113">
        <ele>507.2</ele>
        <time>2017-01-12 13:18:07</time>
      </trkpt>
      <trkpt lat="44.23019" lon="5.91151">
        <ele>506.6</ele>
        <time>2017-01-12 13:18:08</time>
      </trkpt>
      <trkpt lat="44.23019" lon="5.91151">
        <ele>506.6</ele>
        <time>2017-01-12 13:18:09</time>
      </trkpt>
      <trkpt lat="44.23019" lon="5.91151">
        <ele>506.6</ele>
        <time>2017-01-12 13:18:10</time>
      </trkpt>
      <trkpt lat="44.23019" lon="5.91151">
        <ele>506.6</ele>
        <time>2017-01-12 13:18:11</time>
      </trkpt>
      <trkpt lat="44.23012" lon="5.91166">
        <ele>506</ele>
        <time>2017-01-12 13:18:12</time>
      </trkpt>
      <trkpt lat="44.23012" lon="5.91166">
        <ele>506</ele>
        <time>2017-01-12 13:18:13</time>
      </trkpt>
      <trkpt lat="44.23012" lon="5.91166">
        <ele>506</ele>
        <time>2017-01-12 13:18:14</time>
      </trkpt>
      <trkpt lat="44.23012" lon="5.91166">
        <ele>506</ele>
        <time>2017-01-12 13:18:15</time>
      </trkpt>
      <trkpt lat="44.22996" lon="5.9118">
        <ele>506</ele>
        <time>2017-01-12 13:18:16</time>
      </trkpt>
      <trkpt lat="44.22996" lon="5.9118">
        <ele>506</ele>
        <time>2017-01-12 13:18:17</time>
      </trkpt>
      <trkpt lat="44.22996" lon="5.9118">
        <ele>506</ele>
        <time>2017-01-12 13:18:18</time>
      </trkpt>
      <trkpt lat="44.22996" lon="5.9118">
        <ele>506</ele>
        <time>2017-01-12 13:18:19</time>
      </trkpt>
      <trkpt lat="44.2298" lon="5.91194">
        <ele>506</ele>
        <time>2017-01-12 13:18:20</time>
      </trkpt>
      <trkpt lat="44.2298" lon="5.91194">
        <ele>506</ele>
        <time>2017-01-12 13:18:21</time>
      </trkpt>
      <trkpt lat="44.2298" lon="5.91194">
        <ele>506</ele>
        <time>2017-01-12 13:18:22</time>
      </trkpt>
      <trkpt lat="44.2298" lon="5.91194">
        <ele>506</ele>
        <time>2017-01-12 13:18:23</time>
      </trkpt>
      <trkpt lat="44.22964" lon="5.91203">
        <ele>505.8</ele>
        <time>2017-01-12 13:18:24</time>
      </trkpt>
      <trkpt lat="44.22964" lon="5.91203">
        <ele>505.8</ele>
        <time>2017-01-12 13:18:25</time>
      </trkpt>
      <trkpt lat="44.22964" lon="5.91203">
        <ele>505.8</ele>
        <time>2017-01-12 13:18:26</time>
      </trkpt>
      <trkpt lat="44.22964" lon="5.91203">
        <ele>505.8</ele>
        <time>2017-01-12 13:18:27</time>
      </trkpt>
      <trkpt lat="44.22949" lon="5.9121">
        <ele>505.7</ele>
        <time>2017-01-12 13:18:28</time>
      </trkpt>
      <trkpt lat="44.22949" lon="5.9121">
        <ele>505.7</ele>
        <time>2017-01-12 13:18:29</time>
      </trkpt>
      <trkpt lat="44.22949" lon="5.9121">
        <ele>505.7</ele>
        <time>2017-01-12 13:18:30</time>
      </trkpt>
      <trkpt lat="44.22949" lon="5.9121">
        <ele>505.7</ele>
        <time>2017-01-12 13:18:31</time>
      </trkpt>
      <trkpt lat="44.22934" lon="5.91218">
        <ele>505.6</ele>
        <time>2017-01-12 13:18:32</time>
      </trkpt>
      <trkpt lat="44.22934" lon="5.91218">
        <ele>505.6</ele>
        <time>2017-01-12 13:18:33</time>
      </trkpt>
      <trkpt lat="44.22934" lon="5.91218">
        <ele>505.6</ele>
        <time>2017-01-12 13:18:34</time>
      </trkpt>
      <trkpt lat="44.22934" lon="5.91218">
        <ele>505.6</ele>
        <time>2017-01-12 13:18:35</time>
      </trkpt>
      <trkpt lat="44.22917" lon="5.91227">
        <ele>505.2</ele>
        <time>2017-01-12 13:18:36</time>
      </trkpt>
      <trkpt lat="44.22917" lon="5.91227">
        <ele>505.2</ele>
        <time>2017-01-12 13:18:37</time>
      </trkpt>
      <trkpt lat="44.22917" lon="5.91227">
        <ele>505.2</ele>
        <time>2017-01-12 13:18:38</time>
      </trkpt>
      <trkpt lat="44.22917" lon="5.91227">
        <ele>505.2</ele>
        <time>2017-01-12 13:18:39</time>
      </trkpt>
      <trkpt lat="44.22899" lon="5.91236">
        <ele>505.5</ele>
        <time>2017-01-12 13:18:40</time>
      </trkpt>
      <trkpt lat="44.22899" lon="5.91236">
        <ele>505.5</ele>
        <time>2017-01-12 13:18:41</time>
      </trkpt>
      <trkpt lat="44.22899" lon="5.91236">
        <ele>505.5</ele>
        <time>2017-01-12 13:18:42</time>
      </trkpt>
      <trkpt lat="44.22899" lon="5.91236">
        <ele>505.5</ele>
        <time>2017-01-12 13:18:43</time>
      </trkpt>
      <trkpt lat="44.22881" lon="5.91245">
        <ele>505.9</ele>
        <time>2017-01-12 13:18:44</time>
      </trkpt>
      <trkpt lat="44.22881" lon="5.91245">
        <ele>505.9</ele>
        <time>2017-01-12 13:18:45</time>
      </trkpt>
      <trkpt lat="44.22881" lon="5.91245">
        <ele>505.9</ele>
        <time>2017-01-12 13:18:46</time>
      </trkpt>
      <trkpt lat="44.22881" lon="5.91245">
        <ele>505.9</ele>
        <time>2017-01-12 13:18:47</time>
      </trkpt>
      <trkpt lat="44.22864" lon="5.91255">
        <ele>506</ele>
        <time>2017-01-12 13:18:48</time>
      </trkpt>
      <trkpt lat="44.22864" lon="5.91255">
        <ele>506</ele>
        <time>2017-01-12 13:18:49</time>
      </trkpt>
      <trkpt lat="44.22864" lon="5.91255">
        <ele>506</ele>
        <time>2017-01-12 13:18:50</time>
      </trkpt>
      <trkpt lat="44.22864" lon="5.91255">
        <ele>506</ele>
        <time>2017-01-12 13:18:51</time>
      </trkpt>
      <trkpt lat="44.22848" lon="5.91263">
        <ele>505.7</ele>
        <time>2017-01-12 13:18:52</time>
      </trkpt>
      <trkpt lat="44.22848" lon="5.91263">
        <ele>505.7</ele>
        <time>2017-01-12 13:18:53</time>
      </trkpt>
      <trkpt lat="44.22848" lon="5.91263">
        <ele>505.7</ele>
        <time>2017-01-12 13:18:54</time>
      </trkpt>
      <trkpt lat="44.22848" lon="5.91263">
        <ele>505.7</ele>
        <time>2017-01-12 13:18:55</time>
      </trkpt>
      <trkpt lat="44.22832" lon="5.91271">
        <ele>505.7</ele>
        <time>2017-01-12 13:18:56</time>
      </trkpt>
      <trkpt lat="44.22832" lon="5.91271">
        <ele>505.7</ele>
        <time>2017-01-12 13:18:57</time>
      </trkpt>
      <trkpt lat="44.22832" lon="5.91271">
        <ele>505.7</ele>
        <time>2017-01-12 13:18:58</time>
      </trkpt>
      <trkpt lat="44.22832" lon="5.91271">
        <ele>505.7</ele>
        <time>2017-01-12 13:18:59</time>
      </trkpt>
      <trkpt lat="44.22814" lon="5.91279">
        <ele>506</ele>
        <time>2017-01-12 13:19:00</time>
      </trkpt>
      <trkpt lat="44.22814" lon="5.91279">
        <ele>506</ele>
        <time>2017-01-12 13:19:01</time>
      </trkpt>
      <trkpt lat="44.22814" lon="5.91279">
        <ele>506</ele>
        <time>2017-01-12 13:19:02</time>
      </trkpt>
      <trkpt lat="44.22814" lon="5.91279">
        <ele>506</ele>
        <time>2017-01-12 13:19:03</time>
      </trkpt>
      <trkpt lat="44.22797" lon="5.91288">
        <ele>505.8</ele>
        <time>2017-01-12 13:19:04</time>
      </trkpt>
      <trkpt lat="44.22797" lon="5.91288">
        <ele>505.8</ele>
        <time>2017-01-12 13:19:05</time>
      </trkpt>
      <trkpt lat="44.22797" lon="5.91288">
        <ele>505.8</ele>
        <time>2017-01-12 13:19:06</time>
      </trkpt>
      <trkpt lat="44.22797" lon="5.91288">
        <ele>505.8</ele>
        <time>2017-01-12 13:19:07</time>
      </trkpt>
      <trkpt lat="44.2278" lon="5.91296">
        <ele>505.7</ele>
        <time>2017-01-12 13:19:08</time>
      </trkpt>
      <trkpt lat="44.2278" lon="5.91296">
        <ele>505.7</ele>
        <time>2017-01-12 13:19:09</time>
      </trkpt>
      <trkpt lat="44.2278" lon="5.91296">
        <ele>505.7</ele>
        <time>2017-01-12 13:19:10</time>
      </trkpt>
      <trkpt lat="44.2278" lon="5.91296">
        <ele>505.7</ele>
        <time>2017-01-12 13:19:11</time>
      </trkpt>
      <trkpt lat="44.22762" lon="5.91304">
        <ele>506</ele>
        <time>2017-01-12 13:19:12</time>
      </trkpt>
      <trkpt lat="44.22762" lon="5.91304">
        <ele>506</ele>
        <time>2017-01-12 13:19:13</time>
      </trkpt>
      <trkpt lat="44.22762" lon="5.91304">
        <ele>506</ele>
        <time>2017-01-12 13:19:14</time>
      </trkpt>
      <trkpt lat="44.22762" lon="5.91304">
        <ele>506</ele>
        <time>2017-01-12 13:19:15</time>
      </trkpt>
      <trkpt lat="44.22745" lon="5.9131">
        <ele>505.8</ele>
        <time>2017-01-12 13:19:16</time>
      </trkpt>
      <trkpt lat="44.22745" lon="5.9131">
        <ele>505.8</ele>
        <time>2017-01-12 13:19:17</time>
      </trkpt>
      <trkpt lat="44.22745" lon="5.9131">
        <ele>505.8</ele>
        <time>2017-01-12 13:19:18</time>
      </trkpt>
      <trkpt lat="44.22745" lon="5.9131">
        <ele>505.8</ele>
        <time>2017-01-12 13:19:19</time>
      </trkpt>
      <trkpt lat="44.22728" lon="5.91318">
        <ele>505.2</ele>
        <time>2017-01-12 13:19:20</time>
      </trkpt>
      <trkpt lat="44.22728" lon="5.91318">
        <ele>505.2</ele>
        <time>2017-01-12 13:19:21</time>
      </trkpt>
      <trkpt lat="44.22728" lon="5.91318">
        <ele>505.2</ele>
        <time>2017-01-12 13:19:22</time>
      </trkpt>
      <trkpt lat="44.22728" lon="5.91318">
        <ele>505.2</ele>
        <time>2017-01-12 13:19:23</time>
      </trkpt>
      <trkpt lat="44.2271" lon="5.91328">
        <ele>505</ele>
        <time>2017-01-12 13:19:24</time>
      </trkpt>
      <trkpt lat="44.2271" lon="5.91328">
        <ele>505</ele>
        <time>2017-01-12 13:19:25</time>
      </trkpt>
      <trkpt lat="44.2271" lon="5.91328">
        <ele>505</ele>
        <time>2017-01-12 13:19:26</time>
      </trkpt>
      <trkpt lat="44.2271" lon="5.91328">
        <ele>505</ele>
        <time>2017-01-12 13:19:27</time>
      </trkpt>
      <trkpt lat="44.22692" lon="5.91338">
        <ele>505</ele>
        <time>2017-01-12 13:19:28</time>
      </trkpt>
      <trkpt lat="44.22692" lon="5.91338">
        <ele>505</ele>
        <time>2017-01-12 13:19:29</time>
      </trkpt>
      <trkpt lat="44.22692" lon="5.91338">
        <ele>505</ele>
        <time>2017-01-12 13:19:30</time>
      </trkpt>
      <trkpt lat="44.22692" lon="5.91338">
        <ele>505</ele>
        <time>2017-01-12 13:19:31</time>
      </trkpt>
      <trkpt lat="44.22673" lon="5.91348">
        <ele>505</ele>
        <time>2017-01-12 13:19:32</time>
      </trkpt>
      <trkpt lat="44.22673" lon="5.91348">
        <ele>505</ele>
        <time>2017-01-12 13:19:33</time>
      </trkpt>
      <trkpt lat="44.22673" lon="5.91348">
        <ele>505</ele>
        <time>2017-01-12 13:19:34</time>
      </trkpt>
      <trkpt lat="44.22673" lon="5.91348">
        <ele>505</ele>
        <time>2017-01-12 13:19:35</time>
      </trkpt>
      <trkpt lat="44.22654" lon="5.91359">
        <ele>505</ele>
        <time>2017-01-12 13:19:36</time>
      </trkpt>
      <trkpt lat="44.22654" lon="5.91359">
        <ele>505</ele>
        <time>2017-01-12 13:19:37</time>
      </trkpt>
      <trkpt lat="44.22654" lon="5.91359">
        <ele>505</ele>
        <time>2017-01-12 13:19:38</time>
      </trkpt>
      <trkpt lat="44.22654" lon="5.91359">
        <ele>505</ele>
        <time>2017-01-12 13:19:39</time>
      </trkpt>
      <trkpt lat="44.22633" lon="5.91372">
        <ele>504.5</ele>
        <time>2017-01-12 13:19:40</time>
      </trkpt>
      <trkpt lat="44.22633" lon="5.91372">
        <ele>504.5</ele>
        <time>2017-01-12 13:19:41</time>
      </trkpt>
      <trkpt lat="44.22633" lon="5.91372">
        <ele>504.5</ele>
        <time>2017-01-12 13:19:42</time>
      </trkpt>
      <trkpt lat="44.22633" lon="5.91372">
        <ele>504.5</ele>
        <time>2017-01-12 13:19:43</time>
      </trkpt>
      <trkpt lat="44.22612" lon="5.91382">
        <ele>504</ele>
        <time>2017-01-12 13:19:44</time>
      </trkpt>
      <trkpt lat="44.22612" lon="5.91382">
        <ele>504</ele>
        <time>2017-01-12 13:19:45</time>
      </trkpt>
      <trkpt lat="44.22612" lon="5.91382">
        <ele>504</ele>
        <time>2017-01-12 13:19:46</time>
      </trkpt>
      <trkpt lat="44.22612" lon="5.91382">
        <ele>504</ele>
        <time>2017-01-12 13:19:47</time>
      </trkpt>
      <trkpt lat="44.22595" lon="5.91391">
        <ele>504</ele>
        <time>2017-01-12 13:19:48</time>
      </trkpt>
      <trkpt lat="44.22595" lon="5.91391">
        <ele>504</ele>
        <time>2017-01-12 13:19:49</time>
      </trkpt>
      <trkpt lat="44.22595" lon="5.91391">
        <ele>504</ele>
        <time>2017-01-12 13:19:50</time>
      </trkpt>
      <trkpt lat="44.22595" lon="5.91391">
        <ele>504</ele>
        <time>2017-01-12 13:19:51</time>
      </trkpt>
      <trkpt lat="44.22578" lon="5.91388">
        <ele>504</ele>
        <time>2017-01-12 13:19:52</time>
      </trkpt>
      <trkpt lat="44.22578" lon="5.91388">
        <ele>504</ele>
        <time>2017-01-12 13:19:53</time>
      </trkpt>
      <trkpt lat="44.22578" lon="5.91388">
        <ele>504</ele>
        <time>2017-01-12 13:19:54</time>
      </trkpt>
      <trkpt lat="44.22578" lon="5.91388">
        <ele>504</ele>
        <time>2017-01-12 13:19:55</time>
      </trkpt>
      <trkpt lat="44.22567" lon="5.91364">
        <ele>504</ele>
        <time>2017-01-12 13:19:56</time>
      </trkpt>
      <trkpt lat="44.22567" lon="5.91364">
        <ele>504</ele>
        <time>2017-01-12 13:19:57</time>
      </trkpt>
      <trkpt lat="44.22567" lon="5.91364">
        <ele>504</ele>
        <time>2017-01-12 13:19:58</time>
      </trkpt>
      <trkpt lat="44.22567" lon="5.91364">
        <ele>504</ele>
        <time>2017-01-12 13:19:59</time>
      </trkpt>
      <trkpt lat="44.22557" lon="5.9135">
        <ele>504</ele>
        <time>2017-01-12 13:20:00</time>
      </trkpt>
      <trkpt lat="44.22557" lon="5.9135">
        <ele>504</ele>
        <time>2017-01-12 13:20:01</time>
      </trkpt>
      <trkpt lat="44.22557" lon="5.9135">
        <ele>504</ele>
        <time>2017-01-12 13:20:02</time>
      </trkpt>
      <trkpt lat="44.22557" lon="5.9135">
        <ele>504</ele>
        <time>2017-01-12 13:20:03</time>
      </trkpt>
      <trkpt lat="44.22545" lon="5.91347">
        <ele>504.2</ele>
        <time>2017-01-12 13:20:04</time>
      </trkpt>
      <trkpt lat="44.22545" lon="5.91347">
        <ele>504.2</ele>
        <time>2017-01-12 13:20:05</time>
      </trkpt>
      <trkpt lat="44.22545" lon="5.91347">
        <ele>504.2</ele>
        <time>2017-01-12 13:20:06</time>
      </trkpt>
      <trkpt lat="44.22545" lon="5.91347">
        <ele>504.2</ele>
        <time>2017-01-12 13:20:07</time>
      </trkpt>
      <trkpt lat="44.22531" lon="5.91347">
        <ele>504.4</ele>
        <time>2017-01-12 13:20:08</time>
      </trkpt>
      <trkpt lat="44.22531" lon="5.91347">
        <ele>504.4</ele>
        <time>2017-01-12 13:20:09</time>
      </trkpt>
      <trkpt lat="44.22531" lon="5.91347">
        <ele>504.4</ele>
        <time>2017-01-12 13:20:10</time>
      </trkpt>
      <trkpt lat="44.22531" lon="5.91347">
        <ele>504.4</ele>
        <time>2017-01-12 13:20:11</time>
      </trkpt>
      <trkpt lat="44.22518" lon="5.91337">
        <ele>504.6</ele>
        <time>2017-01-12 13:20:12</time>
      </trkpt>
      <trkpt lat="44.22518" lon="5.91337">
        <ele>504.6</ele>
        <time>2017-01-12 13:20:13</time>
      </trkpt>
      <trkpt lat="44.22518" lon="5.91337">
        <ele>504.6</ele>
        <time>2017-01-12 13:20:14</time>
      </trkpt>
      <trkpt lat="44.22518" lon="5.91337">
        <ele>504.6</ele>
        <time>2017-01-12 13:20:15</time>
      </trkpt>
      <trkpt lat="44.22509" lon="5.91329">
        <ele>504.7</ele>
        <time>2017-01-12 13:20:16</time>
      </trkpt>
      <trkpt lat="44.22509" lon="5.91329">
        <ele>504.7</ele>
        <time>2017-01-12 13:20:17</time>
      </trkpt>
      <trkpt lat="44.22509" lon="5.91329">
        <ele>504.7</ele>
        <time>2017-01-12 13:20:18</time>
      </trkpt>
      <trkpt lat="44.22509" lon="5.91329">
        <ele>504.7</ele>
        <time>2017-01-12 13:20:19</time>
      </trkpt>
      <trkpt lat="44.22497" lon="5.91326">
        <ele>505</ele>
        <time>2017-01-12 13:20:20</time>
      </trkpt>
      <trkpt lat="44.22497" lon="5.91326">
        <ele>505</ele>
        <time>2017-01-12 13:20:21</time>
      </trkpt>
      <trkpt lat="44.22497" lon="5.91326">
        <ele>505</ele>
        <time>2017-01-12 13:20:22</time>
      </trkpt>
      <trkpt lat="44.22497" lon="5.91326">
        <ele>505</ele>
        <time>2017-01-12 13:20:23</time>
      </trkpt>
      <trkpt lat="44.22481" lon="5.91328">
        <ele>504.9</ele>
        <time>2017-01-12 13:20:24</time>
      </trkpt>
      <trkpt lat="44.22481" lon="5.91328">
        <ele>504.9</ele>
        <time>2017-01-12 13:20:25</time>
      </trkpt>
      <trkpt lat="44.22481" lon="5.91328">
        <ele>504.9</ele>
        <time>2017-01-12 13:20:26</time>
      </trkpt>
      <trkpt lat="44.22481" lon="5.91328">
        <ele>504.9</ele>
        <time>2017-01-12 13:20:27</time>
      </trkpt>
      <trkpt lat="44.22469" lon="5.91329">
        <ele>504.8</ele>
        <time>2017-01-12 13:20:28</time>
      </trkpt>
      <trkpt lat="44.22469" lon="5.91329">
        <ele>504.8</ele>
        <time>2017-01-12 13:20:29</time>
      </trkpt>
      <trkpt lat="44.22469" lon="5.91329">
        <ele>504.8</ele>
        <time>2017-01-12 13:20:30</time>
      </trkpt>
      <trkpt lat="44.22469" lon="5.91329">
        <ele>504.8</ele>
        <time>2017-01-12 13:20:31</time>
      </trkpt>
      <trkpt lat="44.22454" lon="5.91336">
        <ele>504.3</ele>
        <time>2017-01-12 13:20:32</time>
      </trkpt>
      <trkpt lat="44.22454" lon="5.91336">
        <ele>504.3</ele>
        <time>2017-01-12 13:20:33</time>
      </trkpt>
      <trkpt lat="44.22454" lon="5.91336">
        <ele>504.3</ele>
        <time>2017-01-12 13:20:34</time>
      </trkpt>
      <trkpt lat="44.22454" lon="5.91336">
        <ele>504.3</ele>
        <time>2017-01-12 13:20:35</time>
      </trkpt>
      <trkpt lat="44.2244" lon="5.91353">
        <ele>503.9</ele>
        <time>2017-01-12 13:20:36</time>
      </trkpt>
      <trkpt lat="44.2244" lon="5.91353">
        <ele>503.9</ele>
        <time>2017-01-12 13:20:37</time>
      </trkpt>
      <trkpt lat="44.2244" lon="5.91353">
        <ele>503.9</ele>
        <time>2017-01-12 13:20:38</time>
      </trkpt>
      <trkpt lat="44.2244" lon="5.91353">
        <ele>503.9</ele>
        <time>2017-01-12 13:20:39</time>
      </trkpt>
      <trkpt lat="44.22425" lon="5.9137">
        <ele>503.5</ele>
        <time>2017-01-12 13:20:40</time>
      </trkpt>
      <trkpt lat="44.22425" lon="5.9137">
        <ele>503.5</ele>
        <time>2017-01-12 13:20:41</time>
      </trkpt>
      <trkpt lat="44.22425" lon="5.9137">
        <ele>503.5</ele>
        <time>2017-01-12 13:20:42</time>
      </trkpt>
      <trkpt lat="44.22425" lon="5.9137">
        <ele>503.5</ele>
        <time>2017-01-12 13:20:43</time>
      </trkpt>
      <trkpt lat="44.2241" lon="5.91385">
        <ele>503.7</ele>
        <time>2017-01-12 13:20:44</time>
      </trkpt>
      <trkpt lat="44.2241" lon="5.91385">
        <ele>503.7</ele>
        <time>2017-01-12 13:20:45</time>
      </trkpt>
      <trkpt lat="44.2241" lon="5.91385">
        <ele>503.7</ele>
        <time>2017-01-12 13:20:46</time>
      </trkpt>
      <trkpt lat="44.2241" lon="5.91385">
        <ele>503.7</ele>
        <time>2017-01-12 13:20:47</time>
      </trkpt>
      <trkpt lat="44.22395" lon="5.91399">
        <ele>503.1</ele>
        <time>2017-01-12 13:20:48</time>
      </trkpt>
      <trkpt lat="44.22395" lon="5.91399">
        <ele>503.1</ele>
        <time>2017-01-12 13:20:49</time>
      </trkpt>
      <trkpt lat="44.22395" lon="5.91399">
        <ele>503.1</ele>
        <time>2017-01-12 13:20:50</time>
      </trkpt>
      <trkpt lat="44.22395" lon="5.91399">
        <ele>503.1</ele>
        <time>2017-01-12 13:20:51</time>
      </trkpt>
      <trkpt lat="44.22381" lon="5.91415">
        <ele>503</ele>
        <time>2017-01-12 13:20:52</time>
      </trkpt>
      <trkpt lat="44.22381" lon="5.91415">
        <ele>503</ele>
        <time>2017-01-12 13:20:53</time>
      </trkpt>
      <trkpt lat="44.22381" lon="5.91415">
        <ele>503</ele>
        <time>2017-01-12 13:20:54</time>
      </trkpt>
      <trkpt lat="44.22381" lon="5.91415">
        <ele>503</ele>
        <time>2017-01-12 13:20:55</time>
      </trkpt>
      <trkpt lat="44.22369" lon="5.9143">
        <ele>502.9</ele>
        <time>2017-01-12 13:20:56</time>
      </trkpt>
      <trkpt lat="44.22369" lon="5.9143">
        <ele>502.9</ele>
        <time>2017-01-12 13:20:57</time>
      </trkpt>
      <trkpt lat="44.22369" lon="5.9143">
        <ele>502.9</ele>
        <time>2017-01-12 13:20:58</time>
      </trkpt>
      <trkpt lat="44.22369" lon="5.9143">
        <ele>502.9</ele>
        <time>2017-01-12 13:20:59</time>
      </trkpt>
      <trkpt lat="44.22356" lon="5.91444">
        <ele>503</ele>
        <time>2017-01-12 13:21:00</time>
      </trkpt>
      <trkpt lat="44.22356" lon="5.91444">
        <ele>503</ele>
        <time>2017-01-12 13:21:01</time>
      </trkpt>
      <trkpt lat="44.22356" lon="5.91444">
        <ele>503</ele>
        <time>2017-01-12 13:21:02</time>
      </trkpt>
      <trkpt lat="44.22356" lon="5.91444">
        <ele>503</ele>
        <time>2017-01-12 13:21:03</time>
      </trkpt>
      <trkpt lat="44.22346" lon="5.91456">
        <ele>502.8</ele>
        <time>2017-01-12 13:21:04</time>
      </trkpt>
      <trkpt lat="44.22346" lon="5.91456">
        <ele>502.8</ele>
        <time>2017-01-12 13:21:05</time>
      </trkpt>
      <trkpt lat="44.22346" lon="5.91456">
        <ele>502.8</ele>
        <time>2017-01-12 13:21:06</time>
      </trkpt>
      <trkpt lat="44.22346" lon="5.91456">
        <ele>502.8</ele>
        <time>2017-01-12 13:21:07</time>
      </trkpt>
      <trkpt lat="44.22335" lon="5.91467">
        <ele>502.9</ele>
        <time>2017-01-12 13:21:08</time>
      </trkpt>
      <trkpt lat="44.22335" lon="5.91467">
        <ele>502.9</ele>
        <time>2017-01-12 13:21:09</time>
      </trkpt>
      <trkpt lat="44.22335" lon="5.91467">
        <ele>502.9</ele>
        <time>2017-01-12 13:21:10</time>
      </trkpt>
      <trkpt lat="44.22335" lon="5.91467">
        <ele>502.9</ele>
        <time>2017-01-12 13:21:11</time>
      </trkpt>
      <trkpt lat="44.22322" lon="5.91481">
        <ele>503.1</ele>
        <time>2017-01-12 13:21:12</time>
      </trkpt>
      <trkpt lat="44.22322" lon="5.91481">
        <ele>503.1</ele>
        <time>2017-01-12 13:21:13</time>
      </trkpt>
      <trkpt lat="44.22322" lon="5.91481">
        <ele>503.1</ele>
        <time>2017-01-12 13:21:14</time>
      </trkpt>
      <trkpt lat="44.22322" lon="5.91481">
        <ele>503.1</ele>
        <time>2017-01-12 13:21:15</time>
      </trkpt>
      <trkpt lat="44.22307" lon="5.91494">
        <ele>503.1</ele>
        <time>2017-01-12 13:21:16</time>
      </trkpt>
      <trkpt lat="44.22307" lon="5.91494">
        <ele>503.1</ele>
        <time>2017-01-12 13:21:17</time>
      </trkpt>
      <trkpt lat="44.22307" lon="5.91494">
        <ele>503.1</ele>
        <time>2017-01-12 13:21:18</time>
      </trkpt>
      <trkpt lat="44.22307" lon="5.91494">
        <ele>503.1</ele>
        <time>2017-01-12 13:21:19</time>
      </trkpt>
      <trkpt lat="44.22296" lon="5.91506">
        <ele>503.1</ele>
        <time>2017-01-12 13:21:20</time>
      </trkpt>
      <trkpt lat="44.22296" lon="5.91506">
        <ele>503.1</ele>
        <time>2017-01-12 13:21:21</time>
      </trkpt>
      <trkpt lat="44.22296" lon="5.91506">
        <ele>503.1</ele>
        <time>2017-01-12 13:21:22</time>
      </trkpt>
      <trkpt lat="44.22296" lon="5.91506">
        <ele>503.1</ele>
        <time>2017-01-12 13:21:23</time>
      </trkpt>
      <trkpt lat="44.22285" lon="5.91517">
        <ele>502.7</ele>
        <time>2017-01-12 13:21:24</time>
      </trkpt>
      <trkpt lat="44.22285" lon="5.91517">
        <ele>502.7</ele>
        <time>2017-01-12 13:21:25</time>
      </trkpt>
      <trkpt lat="44.22285" lon="5.91517">
        <ele>502.7</ele>
        <time>2017-01-12 13:21:26</time>
      </trkpt>
      <trkpt lat="44.22285" lon="5.91517">
        <ele>502.7</ele>
        <time>2017-01-12 13:21:27</time>
      </trkpt>
      <trkpt lat="44.22275" lon="5.91528">
        <ele>502.2</ele>
        <time>2017-01-12 13:21:28</time>
      </trkpt>
      <trkpt lat="44.22275" lon="5.91528">
        <ele>502.2</ele>
        <time>2017-01-12 13:21:29</time>
      </trkpt>
      <trkpt lat="44.22275" lon="5.91528">
        <ele>502.2</ele>
        <time>2017-01-12 13:21:30</time>
      </trkpt>
      <trkpt lat="44.22275" lon="5.91528">
        <ele>502.2</ele>
        <time>2017-01-12 13:21:31</time>
      </trkpt>
      <trkpt lat="44.22265" lon="5.91539">
        <ele>502.5</ele>
        <time>2017-01-12 13:21:32</time>
      </trkpt>
      <trkpt lat="44.22265" lon="5.91539">
        <ele>502.5</ele>
        <time>2017-01-12 13:21:33</time>
      </trkpt>
      <trkpt lat="44.22265" lon="5.91539">
        <ele>502.5</ele>
        <time>2017-01-12 13:21:34</time>
      </trkpt>
      <trkpt lat="44.22265" lon="5.91539">
        <ele>502.5</ele>
        <time>2017-01-12 13:21:35</time>
      </trkpt>
      <trkpt lat="44.22255" lon="5.91551">
        <ele>502.3</ele>
        <time>2017-01-12 13:21:36</time>
      </trkpt>
      <trkpt lat="44.22255" lon="5.91551">
        <ele>502.3</ele>
        <time>2017-01-12 13:21:37</time>
      </trkpt>
      <trkpt lat="44.22255" lon="5.91551">
        <ele>502.3</ele>
        <time>2017-01-12 13:21:38</time>
      </trkpt>
      <trkpt lat="44.22255" lon="5.91551">
        <ele>502.3</ele>
        <time>2017-01-12 13:21:39</time>
      </trkpt>
      <trkpt lat="44.22245" lon="5.91562">
        <ele>502.3</ele>
        <time>2017-01-12 13:21:40</time>
      </trkpt>
      <trkpt lat="44.22245" lon="5.91562">
        <ele>502.3</ele>
        <time>2017-01-12 13:21:41</time>
      </trkpt>
      <trkpt lat="44.22245" lon="5.91562">
        <ele>502.3</ele>
        <time>2017-01-12 13:21:42</time>
      </trkpt>
      <trkpt lat="44.22245" lon="5.91562">
        <ele>502.3</ele>
        <time>2017-01-12 13:21:43</time>
      </trkpt>
      <trkpt lat="44.22233" lon="5.91575">
        <ele>502.4</ele>
        <time>2017-01-12 13:21:44</time>
      </trkpt>
      <trkpt lat="44.22233" lon="5.91575">
        <ele>502.4</ele>
        <time>2017-01-12 13:21:45</time>
      </trkpt>
      <trkpt lat="44.22233" lon="5.91575">
        <ele>502.4</ele>
        <time>2017-01-12 13:21:46</time>
      </trkpt>
      <trkpt lat="44.22233" lon="5.91575">
        <ele>502.4</ele>
        <time>2017-01-12 13:21:47</time>
      </trkpt>
      <trkpt lat="44.22221" lon="5.91587">
        <ele>502.2</ele>
        <time>2017-01-12 13:21:48</time>
      </trkpt>
      <trkpt lat="44.22221" lon="5.91587">
        <ele>502.2</ele>
        <time>2017-01-12 13:21:49</time>
      </trkpt>
      <trkpt lat="44.22221" lon="5.91587">
        <ele>502.2</ele>
        <time>2017-01-12 13:21:50</time>
      </trkpt>
      <trkpt lat="44.22221" lon="5.91587">
        <ele>502.2</ele>
        <time>2017-01-12 13:21:51</time>
      </trkpt>
      <trkpt lat="44.2221" lon="5.916">
        <ele>502.5</ele>
        <time>2017-01-12 13:21:52</time>
      </trkpt>
      <trkpt lat="44.2221" lon="5.916">
        <ele>502.5</ele>
        <time>2017-01-12 13:21:53</time>
      </trkpt>
      <trkpt lat="44.2221" lon="5.916">
        <ele>502.5</ele>
        <time>2017-01-12 13:21:54</time>
      </trkpt>
      <trkpt lat="44.2221" lon="5.916">
        <ele>502.5</ele>
        <time>2017-01-12 13:21:55</time>
      </trkpt>
      <trkpt lat="44.22198" lon="5.91613">
        <ele>502.2</ele>
        <time>2017-01-12 13:21:56</time>
      </trkpt>
      <trkpt lat="44.22198" lon="5.91613">
        <ele>502.2</ele>
        <time>2017-01-12 13:21:57</time>
      </trkpt>
      <trkpt lat="44.22198" lon="5.91613">
        <ele>502.2</ele>
        <time>2017-01-12 13:21:58</time>
      </trkpt>
      <trkpt lat="44.22198" lon="5.91613">
        <ele>502.2</ele>
        <time>2017-01-12 13:21:59</time>
      </trkpt>
      <trkpt lat="44.22187" lon="5.91626">
        <ele>502.5</ele>
        <time>2017-01-12 13:22:00</time>
      </trkpt>
      <trkpt lat="44.22187" lon="5.91626">
        <ele>502.5</ele>
        <time>2017-01-12 13:22:01</time>
      </trkpt>
      <trkpt lat="44.22187" lon="5.91626">
        <ele>502.5</ele>
        <time>2017-01-12 13:22:02</time>
      </trkpt>
      <trkpt lat="44.22187" lon="5.91626">
        <ele>502.5</ele>
        <time>2017-01-12 13:22:03</time>
      </trkpt>
      <trkpt lat="44.22174" lon="5.91639">
        <ele>502.3</ele>
        <time>2017-01-12 13:22:04</time>
      </trkpt>
      <trkpt lat="44.22174" lon="5.91639">
        <ele>502.3</ele>
        <time>2017-01-12 13:22:05</time>
      </trkpt>
      <trkpt lat="44.22174" lon="5.91639">
        <ele>502.3</ele>
        <time>2017-01-12 13:22:06</time>
      </trkpt>
      <trkpt lat="44.22174" lon="5.91639">
        <ele>502.3</ele>
        <time>2017-01-12 13:22:07</time>
      </trkpt>
      <trkpt lat="44.22163" lon="5.91653">
        <ele>502.4</ele>
        <time>2017-01-12 13:22:08</time>
      </trkpt>
      <trkpt lat="44.22163" lon="5.91653">
        <ele>502.4</ele>
        <time>2017-01-12 13:22:09</time>
      </trkpt>
      <trkpt lat="44.22163" lon="5.91653">
        <ele>502.4</ele>
        <time>2017-01-12 13:22:10</time>
      </trkpt>
      <trkpt lat="44.22163" lon="5.91653">
        <ele>502.4</ele>
        <time>2017-01-12 13:22:11</time>
      </trkpt>
      <trkpt lat="44.22151" lon="5.91666">
        <ele>501.9</ele>
        <time>2017-01-12 13:22:12</time>
      </trkpt>
      <trkpt lat="44.22151" lon="5.91666">
        <ele>501.9</ele>
        <time>2017-01-12 13:22:13</time>
      </trkpt>
      <trkpt lat="44.22151" lon="5.91666">
        <ele>501.9</ele>
        <time>2017-01-12 13:22:14</time>
      </trkpt>
      <trkpt lat="44.22151" lon="5.91666">
        <ele>501.9</ele>
        <time>2017-01-12 13:22:15</time>
      </trkpt>
      <trkpt lat="44.22139" lon="5.91679">
        <ele>501.4</ele>
        <time>2017-01-12 13:22:16</time>
      </trkpt>
      <trkpt lat="44.22139" lon="5.91679">
        <ele>501.4</ele>
        <time>2017-01-12 13:22:17</time>
      </trkpt>
      <trkpt lat="44.22139" lon="5.91679">
        <ele>501.4</ele>
        <time>2017-01-12 13:22:18</time>
      </trkpt>
      <trkpt lat="44.22139" lon="5.91679">
        <ele>501.4</ele>
        <time>2017-01-12 13:22:19</time>
      </trkpt>
      <trkpt lat="44.22127" lon="5.91691">
        <ele>502</ele>
        <time>2017-01-12 13:22:20</time>
      </trkpt>
      <trkpt lat="44.22127" lon="5.91691">
        <ele>502</ele>
        <time>2017-01-12 13:22:21</time>
      </trkpt>
      <trkpt lat="44.22127" lon="5.91691">
        <ele>502</ele>
        <time>2017-01-12 13:22:22</time>
      </trkpt>
      <trkpt lat="44.22127" lon="5.91691">
        <ele>502</ele>
        <time>2017-01-12 13:22:23</time>
      </trkpt>
      <trkpt lat="44.22115" lon="5.91703">
        <ele>502.3</ele>
        <time>2017-01-12 13:22:24</time>
      </trkpt>
      <trkpt lat="44.22115" lon="5.91703">
        <ele>502.3</ele>
        <time>2017-01-12 13:22:25</time>
      </trkpt>
      <trkpt lat="44.22115" lon="5.91703">
        <ele>502.3</ele>
        <time>2017-01-12 13:22:26</time>
      </trkpt>
      <trkpt lat="44.22115" lon="5.91703">
        <ele>502.3</ele>
        <time>2017-01-12 13:22:27</time>
      </trkpt>
      <trkpt lat="44.22104" lon="5.91716">
        <ele>502.4</ele>
        <time>2017-01-12 13:22:28</time>
      </trkpt>
      <trkpt lat="44.22104" lon="5.91716">
        <ele>502.4</ele>
        <time>2017-01-12 13:22:29</time>
      </trkpt>
      <trkpt lat="44.22104" lon="5.91716">
        <ele>502.4</ele>
        <time>2017-01-12 13:22:30</time>
      </trkpt>
      <trkpt lat="44.22104" lon="5.91716">
        <ele>502.4</ele>
        <time>2017-01-12 13:22:31</time>
      </trkpt>
      <trkpt lat="44.22093" lon="5.91727">
        <ele>501.7</ele>
        <time>2017-01-12 13:22:32</time>
      </trkpt>
      <trkpt lat="44.22093" lon="5.91727">
        <ele>501.7</ele>
        <time>2017-01-12 13:22:33</time>
      </trkpt>
      <trkpt lat="44.22093" lon="5.91727">
        <ele>501.7</ele>
        <time>2017-01-12 13:22:34</time>
      </trkpt>
      <trkpt lat="44.22093" lon="5.91727">
        <ele>501.7</ele>
        <time>2017-01-12 13:22:35</time>
      </trkpt>
      <trkpt lat="44.22082" lon="5.91739">
        <ele>501.6</ele>
        <time>2017-01-12 13:22:36</time>
      </trkpt>
      <trkpt lat="44.22082" lon="5.91739">
        <ele>501.6</ele>
        <time>2017-01-12 13:22:37</time>
      </trkpt>
      <trkpt lat="44.22082" lon="5.91739">
        <ele>501.6</ele>
        <time>2017-01-12 13:22:38</time>
      </trkpt>
      <trkpt lat="44.22082" lon="5.91739">
        <ele>501.6</ele>
        <time>2017-01-12 13:22:39</time>
      </trkpt>
      <trkpt lat="44.22072" lon="5.91751">
        <ele>502</ele>
        <time>2017-01-12 13:22:40</time>
      </trkpt>
      <trkpt lat="44.22072" lon="5.91751">
        <ele>502</ele>
        <time>2017-01-12 13:22:41</time>
      </trkpt>
      <trkpt lat="44.22072" lon="5.91751">
        <ele>502</ele>
        <time>2017-01-12 13:22:42</time>
      </trkpt>
      <trkpt lat="44.22072" lon="5.91751">
        <ele>502</ele>
        <time>2017-01-12 13:22:43</time>
      </trkpt>
      <trkpt lat="44.22062" lon="5.91762">
        <ele>502</ele>
        <time>2017-01-12 13:22:44</time>
      </trkpt>
      <trkpt lat="44.22062" lon="5.91762">
        <ele>502</ele>
        <time>2017-01-12 13:22:45</time>
      </trkpt>
      <trkpt lat="44.22062" lon="5.91762">
        <ele>502</ele>
        <time>2017-01-12 13:22:46</time>
      </trkpt>
      <trkpt lat="44.22062" lon="5.91762">
        <ele>502</ele>
        <time>2017-01-12 13:22:47</time>
      </trkpt>
      <trkpt lat="44.22051" lon="5.91773">
        <ele>502</ele>
        <time>2017-01-12 13:22:48</time>
      </trkpt>
      <trkpt lat="44.22051" lon="5.91773">
        <ele>502</ele>
        <time>2017-01-12 13:22:49</time>
      </trkpt>
      <trkpt lat="44.22051" lon="5.91773">
        <ele>502</ele>
        <time>2017-01-12 13:22:50</time>
      </trkpt>
      <trkpt lat="44.22051" lon="5.91773">
        <ele>502</ele>
        <time>2017-01-12 13:22:51</time>
      </trkpt>
      <trkpt lat="44.22041" lon="5.91784">
        <ele>502</ele>
        <time>2017-01-12 13:22:52</time>
      </trkpt>
      <trkpt lat="44.22041" lon="5.91784">
        <ele>502</ele>
        <time>2017-01-12 13:22:53</time>
      </trkpt>
      <trkpt lat="44.22041" lon="5.91784">
        <ele>502</ele>
        <time>2017-01-12 13:22:54</time>
      </trkpt>
      <trkpt lat="44.22041" lon="5.91784">
        <ele>502</ele>
        <time>2017-01-12 13:22:55</time>
      </trkpt>
      <trkpt lat="44.22031" lon="5.91795">
        <ele>502</ele>
        <time>2017-01-12 13:22:56</time>
      </trkpt>
      <trkpt lat="44.22031" lon="5.91795">
        <ele>502</ele>
        <time>2017-01-12 13:22:57</time>
      </trkpt>
      <trkpt lat="44.22031" lon="5.91795">
        <ele>502</ele>
        <time>2017-01-12 13:22:58</time>
      </trkpt>
      <trkpt lat="44.22031" lon="5.91795">
        <ele>502</ele>
        <time>2017-01-12 13:22:59</time>
      </trkpt>
      <trkpt lat="44.22021" lon="5.91805">
        <ele>502</ele>
        <time>2017-01-12 13:23:00</time>
      </trkpt>
      <trkpt lat="44.22021" lon="5.91805">
        <ele>502</ele>
        <time>2017-01-12 13:23:01</time>
      </trkpt>
      <trkpt lat="44.22021" lon="5.91805">
        <ele>502</ele>
        <time>2017-01-12 13:23:02</time>
      </trkpt>
      <trkpt lat="44.22021" lon="5.91805">
        <ele>502</ele>
        <time>2017-01-12 13:23:03</time>
      </trkpt>
      <trkpt lat="44.22013" lon="5.91812">
        <ele>502</ele>
        <time>2017-01-12 13:23:04</time>
      </trkpt>
      <trkpt lat="44.22013" lon="5.91812">
        <ele>502</ele>
        <time>2017-01-12 13:23:05</time>
      </trkpt>
      <trkpt lat="44.22013" lon="5.91812">
        <ele>502</ele>
        <time>2017-01-12 13:23:06</time>
      </trkpt>
      <trkpt lat="44.22013" lon="5.91812">
        <ele>502</ele>
        <time>2017-01-12 13:23:07</time>
      </trkpt>
      <trkpt lat="44.22005" lon="5.91821">
        <ele>502</ele>
        <time>2017-01-12 13:23:08</time>
      </trkpt>
      <trkpt lat="44.22005" lon="5.91821">
        <ele>502</ele>
        <time>2017-01-12 13:23:09</time>
      </trkpt>
      <trkpt lat="44.22005" lon="5.91821">
        <ele>502</ele>
        <time>2017-01-12 13:23:10</time>
      </trkpt>
      <trkpt lat="44.22005" lon="5.91821">
        <ele>502</ele>
        <time>2017-01-12 13:23:11</time>
      </trkpt>
      <trkpt lat="44.21999" lon="5.91828">
        <ele>502</ele>
        <time>2017-01-12 13:23:12</time>
      </trkpt>
      <trkpt lat="44.21999" lon="5.91828">
        <ele>502</ele>
        <time>2017-01-12 13:23:13</time>
      </trkpt>
      <trkpt lat="44.21999" lon="5.91828">
        <ele>502</ele>
        <time>2017-01-12 13:23:14</time>
      </trkpt>
      <trkpt lat="44.21999" lon="5.91828">
        <ele>502</ele>
        <time>2017-01-12 13:23:15</time>
      </trkpt>
      <trkpt lat="44.21994" lon="5.91834">
        <ele>502</ele>
        <time>2017-01-12 13:23:16</time>
      </trkpt>
      <trkpt lat="44.21994" lon="5.91834">
        <ele>502</ele>
        <time>2017-01-12 13:23:17</time>
      </trkpt>
      <trkpt lat="44.21994" lon="5.91834">
        <ele>502</ele>
        <time>2017-01-12 13:23:18</time>
      </trkpt>
      <trkpt lat="44.21994" lon="5.91834">
        <ele>502</ele>
        <time>2017-01-12 13:23:19</time>
      </trkpt>
      <trkpt lat="44.2199" lon="5.9184">
        <ele>501.8</ele>
        <time>2017-01-12 13:23:20</time>
      </trkpt>
      <trkpt lat="44.2199" lon="5.9184">
        <ele>501.8</ele>
        <time>2017-01-12 13:23:21</time>
      </trkpt>
      <trkpt lat="44.2199" lon="5.9184">
        <ele>501.8</ele>
        <time>2017-01-12 13:23:22</time>
      </trkpt>
      <trkpt lat="44.2199" lon="5.9184">
        <ele>501.8</ele>
        <time>2017-01-12 13:23:23</time>
      </trkpt>
      <trkpt lat="44.21988" lon="5.91842">
        <ele>501.8</ele>
        <time>2017-01-12 13:23:24</time>
      </trkpt>
      <trkpt lat="44.21988" lon="5.91842">
        <ele>501.8</ele>
        <time>2017-01-12 13:23:25</time>
      </trkpt>
      <trkpt lat="44.21988" lon="5.91842">
        <ele>501.8</ele>
        <time>2017-01-12 13:23:26</time>
      </trkpt>
      <trkpt lat="44.21988" lon="5.91842">
        <ele>501.8</ele>
        <time>2017-01-12 13:23:27</time>
      </trkpt>
      <trkpt lat="44.21985" lon="5.91847">
        <ele>501.8</ele>
        <time>2017-01-12 13:23:28</time>
      </trkpt>
      <trkpt lat="44.21985" lon="5.91847">
        <ele>501.8</ele>
        <time>2017-01-12 13:23:29</time>
      </trkpt>
      <trkpt lat="44.21985" lon="5.91847">
        <ele>501.8</ele>
        <time>2017-01-12 13:23:30</time>
      </trkpt>
      <trkpt lat="44.21985" lon="5.91847">
        <ele>501.8</ele>
        <time>2017-01-12 13:23:31</time>
      </trkpt>
      <trkpt lat="44.21977" lon="5.91853">
        <ele>501.9</ele>
        <time>2017-01-12 13:23:32</time>
      </trkpt>
      <trkpt lat="44.21977" lon="5.91853">
        <ele>501.9</ele>
        <time>2017-01-12 13:23:33</time>
      </trkpt>
      <trkpt lat="44.21977" lon="5.91853">
        <ele>501.9</ele>
        <time>2017-01-12 13:23:34</time>
      </trkpt>
      <trkpt lat="44.21977" lon="5.91853">
        <ele>501.9</ele>
        <time>2017-01-12 13:23:35</time>
      </trkpt>
      <trkpt lat="44.21966" lon="5.91863">
        <ele>501.9</ele>
        <time>2017-01-12 13:23:36</time>
      </trkpt>
      <trkpt lat="44.21966" lon="5.91863">
        <ele>501.9</ele>
        <time>2017-01-12 13:23:37</time>
      </trkpt>
      <trkpt lat="44.21966" lon="5.91863">
        <ele>501.9</ele>
        <time>2017-01-12 13:23:38</time>
      </trkpt>
      <trkpt lat="44.21966" lon="5.91863">
        <ele>501.9</ele>
        <time>2017-01-12 13:23:39</time>
      </trkpt>
      <trkpt lat="44.21959" lon="5.91868">
        <ele>501.6</ele>
        <time>2017-01-12 13:23:40</time>
      </trkpt>
      <trkpt lat="44.21959" lon="5.91868">
        <ele>501.6</ele>
        <time>2017-01-12 13:23:41</time>
      </trkpt>
      <trkpt lat="44.21959" lon="5.91868">
        <ele>501.6</ele>
        <time>2017-01-12 13:23:42</time>
      </trkpt>
      <trkpt lat="44.21959" lon="5.91868">
        <ele>501.6</ele>
        <time>2017-01-12 13:23:43</time>
      </trkpt>
      <trkpt lat="44.21951" lon="5.91875">
        <ele>501.4</ele>
        <time>2017-01-12 13:23:44</time>
      </trkpt>
      <trkpt lat="44.21951" lon="5.91875">
        <ele>501.4</ele>
        <time>2017-01-12 13:23:45</time>
      </trkpt>
      <trkpt lat="44.21951" lon="5.91875">
        <ele>501.4</ele>
        <time>2017-01-12 13:23:46</time>
      </trkpt>
      <trkpt lat="44.21951" lon="5.91875">
        <ele>501.4</ele>
        <time>2017-01-12 13:23:47</time>
      </trkpt>
      <trkpt lat="44.21942" lon="5.91885">
        <ele>501.2</ele>
        <time>2017-01-12 13:23:48</time>
      </trkpt>
      <trkpt lat="44.21942" lon="5.91885">
        <ele>501.2</ele>
        <time>2017-01-12 13:23:49</time>
      </trkpt>
      <trkpt lat="44.21942" lon="5.91885">
        <ele>501.2</ele>
        <time>2017-01-12 13:23:50</time>
      </trkpt>
      <trkpt lat="44.21942" lon="5.91885">
        <ele>501.2</ele>
        <time>2017-01-12 13:23:51</time>
      </trkpt>
      <trkpt lat="44.21932" lon="5.91895">
        <ele>501.2</ele>
        <time>2017-01-12 13:23:52</time>
      </trkpt>
      <trkpt lat="44.21932" lon="5.91895">
        <ele>501.2</ele>
        <time>2017-01-12 13:23:53</time>
      </trkpt>
      <trkpt lat="44.21932" lon="5.91895">
        <ele>501.2</ele>
        <time>2017-01-12 13:23:54</time>
      </trkpt>
      <trkpt lat="44.21932" lon="5.91895">
        <ele>501.2</ele>
        <time>2017-01-12 13:23:55</time>
      </trkpt>
      <trkpt lat="44.21922" lon="5.91905">
        <ele>501.6</ele>
        <time>2017-01-12 13:23:56</time>
      </trkpt>
      <trkpt lat="44.21922" lon="5.91905">
        <ele>501.6</ele>
        <time>2017-01-12 13:23:57</time>
      </trkpt>
      <trkpt lat="44.21922" lon="5.91905">
        <ele>501.6</ele>
        <time>2017-01-12 13:23:58</time>
      </trkpt>
      <trkpt lat="44.21922" lon="5.91905">
        <ele>501.6</ele>
        <time>2017-01-12 13:23:59</time>
      </trkpt>
      <trkpt lat="44.21911" lon="5.91917">
        <ele>501.8</ele>
        <time>2017-01-12 13:24:00</time>
      </trkpt>
      <trkpt lat="44.21911" lon="5.91917">
        <ele>501.8</ele>
        <time>2017-01-12 13:24:01</time>
      </trkpt>
      <trkpt lat="44.21911" lon="5.91917">
        <ele>501.8</ele>
        <time>2017-01-12 13:24:02</time>
      </trkpt>
      <trkpt lat="44.21911" lon="5.91917">
        <ele>501.8</ele>
        <time>2017-01-12 13:24:03</time>
      </trkpt>
      <trkpt lat="44.21899" lon="5.91931">
        <ele>501.7</ele>
        <time>2017-01-12 13:24:04</time>
      </trkpt>
      <trkpt lat="44.21899" lon="5.91931">
        <ele>501.7</ele>
        <time>2017-01-12 13:24:05</time>
      </trkpt>
      <trkpt lat="44.21899" lon="5.91931">
        <ele>501.7</ele>
        <time>2017-01-12 13:24:06</time>
      </trkpt>
      <trkpt lat="44.21899" lon="5.91931">
        <ele>501.7</ele>
        <time>2017-01-12 13:24:07</time>
      </trkpt>
      <trkpt lat="44.21887" lon="5.91943">
        <ele>501.9</ele>
        <time>2017-01-12 13:24:08</time>
      </trkpt>
      <trkpt lat="44.21887" lon="5.91943">
        <ele>501.9</ele>
        <time>2017-01-12 13:24:09</time>
      </trkpt>
      <trkpt lat="44.21887" lon="5.91943">
        <ele>501.9</ele>
        <time>2017-01-12 13:24:10</time>
      </trkpt>
      <trkpt lat="44.21887" lon="5.91943">
        <ele>501.9</ele>
        <time>2017-01-12 13:24:11</time>
      </trkpt>
      <trkpt lat="44.21875" lon="5.91955">
        <ele>501.5</ele>
        <time>2017-01-12 13:24:12</time>
      </trkpt>
      <trkpt lat="44.21875" lon="5.91955">
        <ele>501.5</ele>
        <time>2017-01-12 13:24:13</time>
      </trkpt>
      <trkpt lat="44.21875" lon="5.91955">
        <ele>501.5</ele>
        <time>2017-01-12 13:24:14</time>
      </trkpt>
      <trkpt lat="44.21875" lon="5.91955">
        <ele>501.5</ele>
        <time>2017-01-12 13:24:15</time>
      </trkpt>
      <trkpt lat="44.21863" lon="5.9197">
        <ele>501.1</ele>
        <time>2017-01-12 13:24:16</time>
      </trkpt>
      <trkpt lat="44.21863" lon="5.9197">
        <ele>501.1</ele>
        <time>2017-01-12 13:24:17</time>
      </trkpt>
      <trkpt lat="44.21863" lon="5.9197">
        <ele>501.1</ele>
        <time>2017-01-12 13:24:18</time>
      </trkpt>
      <trkpt lat="44.21863" lon="5.9197">
        <ele>501.1</ele>
        <time>2017-01-12 13:24:19</time>
      </trkpt>
      <trkpt lat="44.21851" lon="5.91985">
        <ele>501.3</ele>
        <time>2017-01-12 13:24:20</time>
      </trkpt>
      <trkpt lat="44.21851" lon="5.91985">
        <ele>501.3</ele>
        <time>2017-01-12 13:24:21</time>
      </trkpt>
      <trkpt lat="44.21851" lon="5.91985">
        <ele>501.3</ele>
        <time>2017-01-12 13:24:22</time>
      </trkpt>
      <trkpt lat="44.21851" lon="5.91985">
        <ele>501.3</ele>
        <time>2017-01-12 13:24:23</time>
      </trkpt>
      <trkpt lat="44.2184" lon="5.91997">
        <ele>501.2</ele>
        <time>2017-01-12 13:24:24</time>
      </trkpt>
      <trkpt lat="44.2184" lon="5.91997">
        <ele>501.2</ele>
        <time>2017-01-12 13:24:25</time>
      </trkpt>
      <trkpt lat="44.2184" lon="5.91997">
        <ele>501.2</ele>
        <time>2017-01-12 13:24:26</time>
      </trkpt>
      <trkpt lat="44.2184" lon="5.91997">
        <ele>501.2</ele>
        <time>2017-01-12 13:24:27</time>
      </trkpt>
      <trkpt lat="44.21828" lon="5.92009">
        <ele>501</ele>
        <time>2017-01-12 13:24:28</time>
      </trkpt>
      <trkpt lat="44.21828" lon="5.92009">
        <ele>501</ele>
        <time>2017-01-12 13:24:29</time>
      </trkpt>
      <trkpt lat="44.21828" lon="5.92009">
        <ele>501</ele>
        <time>2017-01-12 13:24:30</time>
      </trkpt>
      <trkpt lat="44.21828" lon="5.92009">
        <ele>501</ele>
        <time>2017-01-12 13:24:31</time>
      </trkpt>
      <trkpt lat="44.21816" lon="5.92021">
        <ele>501</ele>
        <time>2017-01-12 13:24:32</time>
      </trkpt>
      <trkpt lat="44.21816" lon="5.92021">
        <ele>501</ele>
        <time>2017-01-12 13:24:33</time>
      </trkpt>
      <trkpt lat="44.21816" lon="5.92021">
        <ele>501</ele>
        <time>2017-01-12 13:24:34</time>
      </trkpt>
      <trkpt lat="44.21816" lon="5.92021">
        <ele>501</ele>
        <time>2017-01-12 13:24:35</time>
      </trkpt>
      <trkpt lat="44.21805" lon="5.92034">
        <ele>501.2</ele>
        <time>2017-01-12 13:24:36</time>
      </trkpt>
      <trkpt lat="44.21805" lon="5.92034">
        <ele>501.2</ele>
        <time>2017-01-12 13:24:37</time>
      </trkpt>
      <trkpt lat="44.21805" lon="5.92034">
        <ele>501.2</ele>
        <time>2017-01-12 13:24:38</time>
      </trkpt>
      <trkpt lat="44.21805" lon="5.92034">
        <ele>501.2</ele>
        <time>2017-01-12 13:24:39</time>
      </trkpt>
      <trkpt lat="44.21796" lon="5.92046">
        <ele>501.2</ele>
        <time>2017-01-12 13:24:40</time>
      </trkpt>
      <trkpt lat="44.21796" lon="5.92046">
        <ele>501.2</ele>
        <time>2017-01-12 13:24:41</time>
      </trkpt>
      <trkpt lat="44.21796" lon="5.92046">
        <ele>501.2</ele>
        <time>2017-01-12 13:24:42</time>
      </trkpt>
      <trkpt lat="44.21796" lon="5.92046">
        <ele>501.2</ele>
        <time>2017-01-12 13:24:43</time>
      </trkpt>
      <trkpt lat="44.21787" lon="5.92058">
        <ele>500.7</ele>
        <time>2017-01-12 13:24:44</time>
      </trkpt>
      <trkpt lat="44.21787" lon="5.92058">
        <ele>500.7</ele>
        <time>2017-01-12 13:24:45</time>
      </trkpt>
      <trkpt lat="44.21787" lon="5.92058">
        <ele>500.7</ele>
        <time>2017-01-12 13:24:46</time>
      </trkpt>
      <trkpt lat="44.21787" lon="5.92058">
        <ele>500.7</ele>
        <time>2017-01-12 13:24:47</time>
      </trkpt>
      <trkpt lat="44.21778" lon="5.9207">
        <ele>500.5</ele>
        <time>2017-01-12 13:24:48</time>
      </trkpt>
      <trkpt lat="44.21778" lon="5.9207">
        <ele>500.5</ele>
        <time>2017-01-12 13:24:49</time>
      </trkpt>
      <trkpt lat="44.21778" lon="5.9207">
        <ele>500.5</ele>
        <time>2017-01-12 13:24:50</time>
      </trkpt>
      <trkpt lat="44.21778" lon="5.9207">
        <ele>500.5</ele>
        <time>2017-01-12 13:24:51</time>
      </trkpt>
      <trkpt lat="44.21769" lon="5.92082">
        <ele>500.7</ele>
        <time>2017-01-12 13:24:52</time>
      </trkpt>
      <trkpt lat="44.21769" lon="5.92082">
        <ele>500.7</ele>
        <time>2017-01-12 13:24:53</time>
      </trkpt>
      <trkpt lat="44.21769" lon="5.92082">
        <ele>500.7</ele>
        <time>2017-01-12 13:24:54</time>
      </trkpt>
      <trkpt lat="44.21769" lon="5.92082">
        <ele>500.7</ele>
        <time>2017-01-12 13:24:55</time>
      </trkpt>
      <trkpt lat="44.21761" lon="5.92092">
        <ele>500.4</ele>
        <time>2017-01-12 13:24:56</time>
      </trkpt>
      <trkpt lat="44.21761" lon="5.92092">
        <ele>500.4</ele>
        <time>2017-01-12 13:24:57</time>
      </trkpt>
      <trkpt lat="44.21761" lon="5.92092">
        <ele>500.4</ele>
        <time>2017-01-12 13:24:58</time>
      </trkpt>
      <trkpt lat="44.21761" lon="5.92092">
        <ele>500.4</ele>
        <time>2017-01-12 13:24:59</time>
      </trkpt>
      <trkpt lat="44.21752" lon="5.92104">
        <ele>500.1</ele>
        <time>2017-01-12 13:25:00</time>
      </trkpt>
      <trkpt lat="44.21752" lon="5.92104">
        <ele>500.1</ele>
        <time>2017-01-12 13:25:01</time>
      </trkpt>
      <trkpt lat="44.21752" lon="5.92104">
        <ele>500.1</ele>
        <time>2017-01-12 13:25:02</time>
      </trkpt>
      <trkpt lat="44.21752" lon="5.92104">
        <ele>500.1</ele>
        <time>2017-01-12 13:25:03</time>
      </trkpt>
      <trkpt lat="44.2174" lon="5.92107">
        <ele>500.3</ele>
        <time>2017-01-12 13:25:04</time>
      </trkpt>
      <trkpt lat="44.2174" lon="5.92107">
        <ele>500.3</ele>
        <time>2017-01-12 13:25:05</time>
      </trkpt>
      <trkpt lat="44.2174" lon="5.92107">
        <ele>500.3</ele>
        <time>2017-01-12 13:25:06</time>
      </trkpt>
      <trkpt lat="44.2174" lon="5.92107">
        <ele>500.3</ele>
        <time>2017-01-12 13:25:07</time>
      </trkpt>
      <trkpt lat="44.21736" lon="5.92089">
        <ele>500.5</ele>
        <time>2017-01-12 13:25:08</time>
      </trkpt>
      <trkpt lat="44.21736" lon="5.92089">
        <ele>500.5</ele>
        <time>2017-01-12 13:25:09</time>
      </trkpt>
      <trkpt lat="44.21736" lon="5.92089">
        <ele>500.5</ele>
        <time>2017-01-12 13:25:10</time>
      </trkpt>
      <trkpt lat="44.21736" lon="5.92089">
        <ele>500.5</ele>
        <time>2017-01-12 13:25:11</time>
      </trkpt>
      <trkpt lat="44.21735" lon="5.92067">
        <ele>500.5</ele>
        <time>2017-01-12 13:25:12</time>
      </trkpt>
      <trkpt lat="44.21735" lon="5.92067">
        <ele>500.5</ele>
        <time>2017-01-12 13:25:13</time>
      </trkpt>
      <trkpt lat="44.21735" lon="5.92067">
        <ele>500.5</ele>
        <time>2017-01-12 13:25:14</time>
      </trkpt>
      <trkpt lat="44.21735" lon="5.92067">
        <ele>500.5</ele>
        <time>2017-01-12 13:25:15</time>
      </trkpt>
      <trkpt lat="44.21734" lon="5.92042">
        <ele>500.2</ele>
        <time>2017-01-12 13:25:16</time>
      </trkpt>
      <trkpt lat="44.21734" lon="5.92042">
        <ele>500.2</ele>
        <time>2017-01-12 13:25:17</time>
      </trkpt>
      <trkpt lat="44.21734" lon="5.92042">
        <ele>500.2</ele>
        <time>2017-01-12 13:25:18</time>
      </trkpt>
      <trkpt lat="44.21734" lon="5.92042">
        <ele>500.2</ele>
        <time>2017-01-12 13:25:19</time>
      </trkpt>
      <trkpt lat="44.21733" lon="5.92018">
        <ele>500.2</ele>
        <time>2017-01-12 13:25:20</time>
      </trkpt>
      <trkpt lat="44.21733" lon="5.92018">
        <ele>500.2</ele>
        <time>2017-01-12 13:25:21</time>
      </trkpt>
      <trkpt lat="44.21733" lon="5.92018">
        <ele>500.2</ele>
        <time>2017-01-12 13:25:22</time>
      </trkpt>
      <trkpt lat="44.21733" lon="5.92018">
        <ele>500.2</ele>
        <time>2017-01-12 13:25:23</time>
      </trkpt>
      <trkpt lat="44.21733" lon="5.91998">
        <ele>500.6</ele>
        <time>2017-01-12 13:25:24</time>
      </trkpt>
      <trkpt lat="44.21733" lon="5.91998">
        <ele>500.6</ele>
        <time>2017-01-12 13:25:25</time>
      </trkpt>
      <trkpt lat="44.21733" lon="5.91998">
        <ele>500.6</ele>
        <time>2017-01-12 13:25:26</time>
      </trkpt>
      <trkpt lat="44.21733" lon="5.91998">
        <ele>500.6</ele>
        <time>2017-01-12 13:25:27</time>
      </trkpt>
      <trkpt lat="44.21734" lon="5.91976">
        <ele>500.6</ele>
        <time>2017-01-12 13:25:28</time>
      </trkpt>
      <trkpt lat="44.21734" lon="5.91976">
        <ele>500.6</ele>
        <time>2017-01-12 13:25:29</time>
      </trkpt>
      <trkpt lat="44.21734" lon="5.91976">
        <ele>500.6</ele>
        <time>2017-01-12 13:25:30</time>
      </trkpt>
      <trkpt lat="44.21734" lon="5.91976">
        <ele>500.6</ele>
        <time>2017-01-12 13:25:31</time>
      </trkpt>
      <trkpt lat="44.21733" lon="5.91956">
        <ele>500.6</ele>
        <time>2017-01-12 13:25:32</time>
      </trkpt>
      <trkpt lat="44.21733" lon="5.91956">
        <ele>500.6</ele>
        <time>2017-01-12 13:25:33</time>
      </trkpt>
      <trkpt lat="44.21733" lon="5.91956">
        <ele>500.6</ele>
        <time>2017-01-12 13:25:34</time>
      </trkpt>
      <trkpt lat="44.21733" lon="5.91956">
        <ele>500.6</ele>
        <time>2017-01-12 13:25:35</time>
      </trkpt>
      <trkpt lat="44.21726" lon="5.9194">
        <ele>500.9</ele>
        <time>2017-01-12 13:25:36</time>
      </trkpt>
      <trkpt lat="44.21726" lon="5.9194">
        <ele>500.9</ele>
        <time>2017-01-12 13:25:37</time>
      </trkpt>
      <trkpt lat="44.21726" lon="5.9194">
        <ele>500.9</ele>
        <time>2017-01-12 13:25:38</time>
      </trkpt>
      <trkpt lat="44.21726" lon="5.9194">
        <ele>500.9</ele>
        <time>2017-01-12 13:25:39</time>
      </trkpt>
      <trkpt lat="44.21712" lon="5.91936">
        <ele>500.6</ele>
        <time>2017-01-12 13:25:40</time>
      </trkpt>
      <trkpt lat="44.21712" lon="5.91936">
        <ele>500.6</ele>
        <time>2017-01-12 13:25:41</time>
      </trkpt>
      <trkpt lat="44.21712" lon="5.91936">
        <ele>500.6</ele>
        <time>2017-01-12 13:25:42</time>
      </trkpt>
      <trkpt lat="44.21712" lon="5.91936">
        <ele>500.6</ele>
        <time>2017-01-12 13:25:43</time>
      </trkpt>
      <trkpt lat="44.21694" lon="5.91939">
        <ele>500</ele>
        <time>2017-01-12 13:25:44</time>
      </trkpt>
      <trkpt lat="44.21694" lon="5.91939">
        <ele>500</ele>
        <time>2017-01-12 13:25:45</time>
      </trkpt>
      <trkpt lat="44.21694" lon="5.91939">
        <ele>500</ele>
        <time>2017-01-12 13:25:46</time>
      </trkpt>
      <trkpt lat="44.21694" lon="5.91939">
        <ele>500</ele>
        <time>2017-01-12 13:25:47</time>
      </trkpt>
      <trkpt lat="44.2168" lon="5.91942">
        <ele>499.9</ele>
        <time>2017-01-12 13:25:48</time>
      </trkpt>
      <trkpt lat="44.2168" lon="5.91942">
        <ele>499.9</ele>
        <time>2017-01-12 13:25:49</time>
      </trkpt>
      <trkpt lat="44.2168" lon="5.91942">
        <ele>499.9</ele>
        <time>2017-01-12 13:25:50</time>
      </trkpt>
      <trkpt lat="44.2168" lon="5.91942">
        <ele>499.9</ele>
        <time>2017-01-12 13:25:51</time>
      </trkpt>
      <trkpt lat="44.21666" lon="5.91946">
        <ele>500</ele>
        <time>2017-01-12 13:25:52</time>
      </trkpt>
      <trkpt lat="44.21666" lon="5.91946">
        <ele>500</ele>
        <time>2017-01-12 13:25:53</time>
      </trkpt>
      <trkpt lat="44.21666" lon="5.91946">
        <ele>500</ele>
        <time>2017-01-12 13:25:54</time>
      </trkpt>
      <trkpt lat="44.21666" lon="5.91946">
        <ele>500</ele>
        <time>2017-01-12 13:25:55</time>
      </trkpt>
      <trkpt lat="44.21651" lon="5.91955">
        <ele>500</ele>
        <time>2017-01-12 13:25:56</time>
      </trkpt>
      <trkpt lat="44.21651" lon="5.91955">
        <ele>500</ele>
        <time>2017-01-12 13:25:57</time>
      </trkpt>
      <trkpt lat="44.21651" lon="5.91955">
        <ele>500</ele>
        <time>2017-01-12 13:25:58</time>
      </trkpt>
      <trkpt lat="44.21651" lon="5.91955">
        <ele>500</ele>
        <time>2017-01-12 13:25:59</time>
      </trkpt>
      <trkpt lat="44.21637" lon="5.91965">
        <ele>500</ele>
        <time>2017-01-12 13:26:00</time>
      </trkpt>
      <trkpt lat="44.21637" lon="5.91965">
        <ele>500</ele>
        <time>2017-01-12 13:26:01</time>
      </trkpt>
      <trkpt lat="44.21637" lon="5.91965">
        <ele>500</ele>
        <time>2017-01-12 13:26:02</time>
      </trkpt>
      <trkpt lat="44.21637" lon="5.91965">
        <ele>500</ele>
        <time>2017-01-12 13:26:03</time>
      </trkpt>
      <trkpt lat="44.21624" lon="5.91973">
        <ele>500</ele>
        <time>2017-01-12 13:26:04</time>
      </trkpt>
      <trkpt lat="44.21624" lon="5.91973">
        <ele>500</ele>
        <time>2017-01-12 13:26:05</time>
      </trkpt>
      <trkpt lat="44.21624" lon="5.91973">
        <ele>500</ele>
        <time>2017-01-12 13:26:06</time>
      </trkpt>
      <trkpt lat="44.21624" lon="5.91973">
        <ele>500</ele>
        <time>2017-01-12 13:26:07</time>
      </trkpt>
      <trkpt lat="44.21611" lon="5.91981">
        <ele>500.3</ele>
        <time>2017-01-12 13:26:08</time>
      </trkpt>
      <trkpt lat="44.21611" lon="5.91981">
        <ele>500.3</ele>
        <time>2017-01-12 13:26:09</time>
      </trkpt>
      <trkpt lat="44.21611" lon="5.91981">
        <ele>500.3</ele>
        <time>2017-01-12 13:26:10</time>
      </trkpt>
      <trkpt lat="44.21611" lon="5.91981">
        <ele>500.3</ele>
        <time>2017-01-12 13:26:11</time>
      </trkpt>
      <trkpt lat="44.21597" lon="5.9199">
        <ele>500.3</ele>
        <time>2017-01-12 13:26:12</time>
      </trkpt>
      <trkpt lat="44.21597" lon="5.9199">
        <ele>500.3</ele>
        <time>2017-01-12 13:26:13</time>
      </trkpt>
      <trkpt lat="44.21597" lon="5.9199">
        <ele>500.3</ele>
        <time>2017-01-12 13:26:14</time>
      </trkpt>
      <trkpt lat="44.21597" lon="5.9199">
        <ele>500.3</ele>
        <time>2017-01-12 13:26:15</time>
      </trkpt>
      <trkpt lat="44.21582" lon="5.91998">
        <ele>500</ele>
        <time>2017-01-12 13:26:16</time>
      </trkpt>
      <trkpt lat="44.21582" lon="5.91998">
        <ele>500</ele>
        <time>2017-01-12 13:26:17</time>
      </trkpt>
      <trkpt lat="44.21582" lon="5.91998">
        <ele>500</ele>
        <time>2017-01-12 13:26:18</time>
      </trkpt>
      <trkpt lat="44.21582" lon="5.91998">
        <ele>500</ele>
        <time>2017-01-12 13:26:19</time>
      </trkpt>
      <trkpt lat="44.21567" lon="5.92007">
        <ele>500.1</ele>
        <time>2017-01-12 13:26:20</time>
      </trkpt>
      <trkpt lat="44.21567" lon="5.92007">
        <ele>500.1</ele>
        <time>2017-01-12 13:26:21</time>
      </trkpt>
      <trkpt lat="44.21567" lon="5.92007">
        <ele>500.1</ele>
        <time>2017-01-12 13:26:22</time>
      </trkpt>
      <trkpt lat="44.21567" lon="5.92007">
        <ele>500.1</ele>
        <time>2017-01-12 13:26:23</time>
      </trkpt>
      <trkpt lat="44.21553" lon="5.92018">
        <ele>500</ele>
        <time>2017-01-12 13:26:24</time>
      </trkpt>
      <trkpt lat="44.21553" lon="5.92018">
        <ele>500</ele>
        <time>2017-01-12 13:26:25</time>
      </trkpt>
      <trkpt lat="44.21553" lon="5.92018">
        <ele>500</ele>
        <time>2017-01-12 13:26:26</time>
      </trkpt>
      <trkpt lat="44.21553" lon="5.92018">
        <ele>500</ele>
        <time>2017-01-12 13:26:27</time>
      </trkpt>
      <trkpt lat="44.21539" lon="5.92027">
        <ele>500</ele>
        <time>2017-01-12 13:26:28</time>
      </trkpt>
      <trkpt lat="44.21539" lon="5.92027">
        <ele>500</ele>
        <time>2017-01-12 13:26:29</time>
      </trkpt>
      <trkpt lat="44.21539" lon="5.92027">
        <ele>500</ele>
        <time>2017-01-12 13:26:30</time>
      </trkpt>
      <trkpt lat="44.21539" lon="5.92027">
        <ele>500</ele>
        <time>2017-01-12 13:26:31</time>
      </trkpt>
      <trkpt lat="44.21524" lon="5.92035">
        <ele>500</ele>
        <time>2017-01-12 13:26:32</time>
      </trkpt>
      <trkpt lat="44.21524" lon="5.92035">
        <ele>500</ele>
        <time>2017-01-12 13:26:33</time>
      </trkpt>
      <trkpt lat="44.21524" lon="5.92035">
        <ele>500</ele>
        <time>2017-01-12 13:26:34</time>
      </trkpt>
      <trkpt lat="44.21524" lon="5.92035">
        <ele>500</ele>
        <time>2017-01-12 13:26:35</time>
      </trkpt>
      <trkpt lat="44.21509" lon="5.92045">
        <ele>500</ele>
        <time>2017-01-12 13:26:36</time>
      </trkpt>
      <trkpt lat="44.21509" lon="5.92045">
        <ele>500</ele>
        <time>2017-01-12 13:26:37</time>
      </trkpt>
      <trkpt lat="44.21509" lon="5.92045">
        <ele>500</ele>
        <time>2017-01-12 13:26:38</time>
      </trkpt>
      <trkpt lat="44.21509" lon="5.92045">
        <ele>500</ele>
        <time>2017-01-12 13:26:39</time>
      </trkpt>
      <trkpt lat="44.21493" lon="5.92055">
        <ele>500</ele>
        <time>2017-01-12 13:26:40</time>
      </trkpt>
      <trkpt lat="44.21493" lon="5.92055">
        <ele>500</ele>
        <time>2017-01-12 13:26:41</time>
      </trkpt>
      <trkpt lat="44.21493" lon="5.92055">
        <ele>500</ele>
        <time>2017-01-12 13:26:42</time>
      </trkpt>
      <trkpt lat="44.21493" lon="5.92055">
        <ele>500</ele>
        <time>2017-01-12 13:26:43</time>
      </trkpt>
      <trkpt lat="44.21478" lon="5.92064">
        <ele>500</ele>
        <time>2017-01-12 13:26:44</time>
      </trkpt>
      <trkpt lat="44.21478" lon="5.92064">
        <ele>500</ele>
        <time>2017-01-12 13:26:45</time>
      </trkpt>
      <trkpt lat="44.21478" lon="5.92064">
        <ele>500</ele>
        <time>2017-01-12 13:26:46</time>
      </trkpt>
      <trkpt lat="44.21478" lon="5.92064">
        <ele>500</ele>
        <time>2017-01-12 13:26:47</time>
      </trkpt>
      <trkpt lat="44.21464" lon="5.92073">
        <ele>500</ele>
        <time>2017-01-12 13:26:48</time>
      </trkpt>
      <trkpt lat="44.21464" lon="5.92073">
        <ele>500</ele>
        <time>2017-01-12 13:26:49</time>
      </trkpt>
      <trkpt lat="44.21464" lon="5.92073">
        <ele>500</ele>
        <time>2017-01-12 13:26:50</time>
      </trkpt>
      <trkpt lat="44.21464" lon="5.92073">
        <ele>500</ele>
        <time>2017-01-12 13:26:51</time>
      </trkpt>
      <trkpt lat="44.2145" lon="5.92083">
        <ele>500</ele>
        <time>2017-01-12 13:26:52</time>
      </trkpt>
      <trkpt lat="44.2145" lon="5.92083">
        <ele>500</ele>
        <time>2017-01-12 13:26:53</time>
      </trkpt>
      <trkpt lat="44.2145" lon="5.92083">
        <ele>500</ele>
        <time>2017-01-12 13:26:54</time>
      </trkpt>
      <trkpt lat="44.2145" lon="5.92083">
        <ele>500</ele>
        <time>2017-01-12 13:26:55</time>
      </trkpt>
      <trkpt lat="44.21435" lon="5.92091">
        <ele>499.7</ele>
        <time>2017-01-12 13:26:56</time>
      </trkpt>
      <trkpt lat="44.21435" lon="5.92091">
        <ele>499.7</ele>
        <time>2017-01-12 13:26:57</time>
      </trkpt>
      <trkpt lat="44.21435" lon="5.92091">
        <ele>499.7</ele>
        <time>2017-01-12 13:26:58</time>
      </trkpt>
      <trkpt lat="44.21435" lon="5.92091">
        <ele>499.7</ele>
        <time>2017-01-12 13:26:59</time>
      </trkpt>
      <trkpt lat="44.21421" lon="5.92089">
        <ele>499.8</ele>
        <time>2017-01-12 13:27:00</time>
      </trkpt>
      <trkpt lat="44.21421" lon="5.92089">
        <ele>499.8</ele>
        <time>2017-01-12 13:27:01</time>
      </trkpt>
      <trkpt lat="44.21421" lon="5.92089">
        <ele>499.8</ele>
        <time>2017-01-12 13:27:02</time>
      </trkpt>
      <trkpt lat="44.21421" lon="5.92089">
        <ele>499.8</ele>
        <time>2017-01-12 13:27:03</time>
      </trkpt>
      <trkpt lat="44.21414" lon="5.92072">
        <ele>499.9</ele>
        <time>2017-01-12 13:27:04</time>
      </trkpt>
      <trkpt lat="44.21414" lon="5.92072">
        <ele>499.9</ele>
        <time>2017-01-12 13:27:05</time>
      </trkpt>
      <trkpt lat="44.21414" lon="5.92072">
        <ele>499.9</ele>
        <time>2017-01-12 13:27:06</time>
      </trkpt>
      <trkpt lat="44.21414" lon="5.92072">
        <ele>499.9</ele>
        <time>2017-01-12 13:27:07</time>
      </trkpt>
      <trkpt lat="44.21414" lon="5.92054">
        <ele>499.9</ele>
        <time>2017-01-12 13:27:08</time>
      </trkpt>
      <trkpt lat="44.21414" lon="5.92054">
        <ele>499.9</ele>
        <time>2017-01-12 13:27:09</time>
      </trkpt>
      <trkpt lat="44.21414" lon="5.92054">
        <ele>499.9</ele>
        <time>2017-01-12 13:27:10</time>
      </trkpt>
      <trkpt lat="44.21414" lon="5.92054">
        <ele>499.9</ele>
        <time>2017-01-12 13:27:11</time>
      </trkpt>
      <trkpt lat="44.21415" lon="5.92036">
        <ele>500</ele>
        <time>2017-01-12 13:27:12</time>
      </trkpt>
      <trkpt lat="44.21415" lon="5.92036">
        <ele>500</ele>
        <time>2017-01-12 13:27:13</time>
      </trkpt>
      <trkpt lat="44.21415" lon="5.92036">
        <ele>500</ele>
        <time>2017-01-12 13:27:14</time>
      </trkpt>
      <trkpt lat="44.21415" lon="5.92036">
        <ele>500</ele>
        <time>2017-01-12 13:27:15</time>
      </trkpt>
      <trkpt lat="44.21417" lon="5.92017">
        <ele>500</ele>
        <time>2017-01-12 13:27:16</time>
      </trkpt>
      <trkpt lat="44.21417" lon="5.92017">
        <ele>500</ele>
        <time>2017-01-12 13:27:17</time>
      </trkpt>
      <trkpt lat="44.21417" lon="5.92017">
        <ele>500</ele>
        <time>2017-01-12 13:27:18</time>
      </trkpt>
      <trkpt lat="44.21417" lon="5.92017">
        <ele>500</ele>
        <time>2017-01-12 13:27:19</time>
      </trkpt>
      <trkpt lat="44.21418" lon="5.91996">
        <ele>499.9</ele>
        <time>2017-01-12 13:27:20</time>
      </trkpt>
      <trkpt lat="44.21418" lon="5.91996">
        <ele>499.9</ele>
        <time>2017-01-12 13:27:21</time>
      </trkpt>
      <trkpt lat="44.21418" lon="5.91996">
        <ele>499.9</ele>
        <time>2017-01-12 13:27:22</time>
      </trkpt>
      <trkpt lat="44.21418" lon="5.91996">
        <ele>499.9</ele>
        <time>2017-01-12 13:27:23</time>
      </trkpt>
      <trkpt lat="44.21419" lon="5.91976">
        <ele>499.9</ele>
        <time>2017-01-12 13:27:24</time>
      </trkpt>
      <trkpt lat="44.21419" lon="5.91976">
        <ele>499.9</ele>
        <time>2017-01-12 13:27:25</time>
      </trkpt>
      <trkpt lat="44.21419" lon="5.91976">
        <ele>499.9</ele>
        <time>2017-01-12 13:27:26</time>
      </trkpt>
      <trkpt lat="44.21419" lon="5.91976">
        <ele>499.9</ele>
        <time>2017-01-12 13:27:27</time>
      </trkpt>
      <trkpt lat="44.2142" lon="5.91956">
        <ele>499.9</ele>
        <time>2017-01-12 13:27:28</time>
      </trkpt>
      <trkpt lat="44.2142" lon="5.91956">
        <ele>499.9</ele>
        <time>2017-01-12 13:27:29</time>
      </trkpt>
      <trkpt lat="44.2142" lon="5.91956">
        <ele>499.9</ele>
        <time>2017-01-12 13:27:30</time>
      </trkpt>
      <trkpt lat="44.2142" lon="5.91956">
        <ele>499.9</ele>
        <time>2017-01-12 13:27:31</time>
      </trkpt>
      <trkpt lat="44.2142" lon="5.91938">
        <ele>500.1</ele>
        <time>2017-01-12 13:27:32</time>
      </trkpt>
      <trkpt lat="44.2142" lon="5.91938">
        <ele>500.1</ele>
        <time>2017-01-12 13:27:33</time>
      </trkpt>
      <trkpt lat="44.2142" lon="5.91938">
        <ele>500.1</ele>
        <time>2017-01-12 13:27:34</time>
      </trkpt>
      <trkpt lat="44.2142" lon="5.91938">
        <ele>500.1</ele>
        <time>2017-01-12 13:27:35</time>
      </trkpt>
      <trkpt lat="44.21421" lon="5.91923">
        <ele>500.5</ele>
        <time>2017-01-12 13:27:36</time>
      </trkpt>
      <trkpt lat="44.21421" lon="5.91923">
        <ele>500.5</ele>
        <time>2017-01-12 13:27:37</time>
      </trkpt>
      <trkpt lat="44.21421" lon="5.91923">
        <ele>500.5</ele>
        <time>2017-01-12 13:27:38</time>
      </trkpt>
      <trkpt lat="44.21421" lon="5.91923">
        <ele>500.5</ele>
        <time>2017-01-12 13:27:39</time>
      </trkpt>
      <trkpt lat="44.21421" lon="5.91909">
        <ele>501.1</ele>
        <time>2017-01-12 13:27:40</time>
      </trkpt>
      <trkpt lat="44.21421" lon="5.91909">
        <ele>501.1</ele>
        <time>2017-01-12 13:27:41</time>
      </trkpt>
      <trkpt lat="44.21421" lon="5.91909">
        <ele>501.1</ele>
        <time>2017-01-12 13:27:42</time>
      </trkpt>
      <trkpt lat="44.21421" lon="5.91909">
        <ele>501.1</ele>
        <time>2017-01-12 13:27:43</time>
      </trkpt>
      <trkpt lat="44.21422" lon="5.91898">
        <ele>501.7</ele>
        <time>2017-01-12 13:27:44</time>
      </trkpt>
      <trkpt lat="44.21422" lon="5.91898">
        <ele>501.7</ele>
        <time>2017-01-12 13:27:45</time>
      </trkpt>
      <trkpt lat="44.21422" lon="5.91898">
        <ele>501.7</ele>
        <time>2017-01-12 13:27:46</time>
      </trkpt>
      <trkpt lat="44.21422" lon="5.91898">
        <ele>501.7</ele>
        <time>2017-01-12 13:27:47</time>
      </trkpt>
      <trkpt lat="44.21423" lon="5.91888">
        <ele>502.2</ele>
        <time>2017-01-12 13:27:48</time>
      </trkpt>
      <trkpt lat="44.21423" lon="5.91888">
        <ele>502.2</ele>
        <time>2017-01-12 13:27:49</time>
      </trkpt>
      <trkpt lat="44.21423" lon="5.91888">
        <ele>502.2</ele>
        <time>2017-01-12 13:27:50</time>
      </trkpt>
      <trkpt lat="44.21423" lon="5.91888">
        <ele>502.2</ele>
        <time>2017-01-12 13:27:51</time>
      </trkpt>
      <trkpt lat="44.21423" lon="5.91876">
        <ele>502.8</ele>
        <time>2017-01-12 13:27:52</time>
      </trkpt>
      <trkpt lat="44.21423" lon="5.91876">
        <ele>502.8</ele>
        <time>2017-01-12 13:27:53</time>
      </trkpt>
      <trkpt lat="44.21423" lon="5.91876">
        <ele>502.8</ele>
        <time>2017-01-12 13:27:54</time>
      </trkpt>
      <trkpt lat="44.21423" lon="5.91876">
        <ele>502.8</ele>
        <time>2017-01-12 13:27:55</time>
      </trkpt>
      <trkpt lat="44.21424" lon="5.91865">
        <ele>503.1</ele>
        <time>2017-01-12 13:27:56</time>
      </trkpt>
      <trkpt lat="44.21424" lon="5.91865">
        <ele>503.1</ele>
        <time>2017-01-12 13:27:57</time>
      </trkpt>
      <trkpt lat="44.21424" lon="5.91865">
        <ele>503.1</ele>
        <time>2017-01-12 13:27:58</time>
      </trkpt>
      <trkpt lat="44.21424" lon="5.91865">
        <ele>503.1</ele>
        <time>2017-01-12 13:27:59</time>
      </trkpt>
      <trkpt lat="44.21424" lon="5.91853">
        <ele>503.8</ele>
        <time>2017-01-12 13:28:00</time>
      </trkpt>
      <trkpt lat="44.21424" lon="5.91853">
        <ele>503.8</ele>
        <time>2017-01-12 13:28:01</time>
      </trkpt>
      <trkpt lat="44.21424" lon="5.91853">
        <ele>503.8</ele>
        <time>2017-01-12 13:28:02</time>
      </trkpt>
      <trkpt lat="44.21424" lon="5.91853">
        <ele>503.8</ele>
        <time>2017-01-12 13:28:03</time>
      </trkpt>
      <trkpt lat="44.21425" lon="5.91843">
        <ele>504.4</ele>
        <time>2017-01-12 13:28:04</time>
      </trkpt>
      <trkpt lat="44.21425" lon="5.91843">
        <ele>504.4</ele>
        <time>2017-01-12 13:28:05</time>
      </trkpt>
      <trkpt lat="44.21425" lon="5.91843">
        <ele>504.4</ele>
        <time>2017-01-12 13:28:06</time>
      </trkpt>
      <trkpt lat="44.21425" lon="5.91843">
        <ele>504.4</ele>
        <time>2017-01-12 13:28:07</time>
      </trkpt>
      <trkpt lat="44.21426" lon="5.91832">
        <ele>504.8</ele>
        <time>2017-01-12 13:28:08</time>
      </trkpt>
      <trkpt lat="44.21426" lon="5.91832">
        <ele>504.8</ele>
        <time>2017-01-12 13:28:09</time>
      </trkpt>
      <trkpt lat="44.21426" lon="5.91832">
        <ele>504.8</ele>
        <time>2017-01-12 13:28:10</time>
      </trkpt>
      <trkpt lat="44.21426" lon="5.91832">
        <ele>504.8</ele>
        <time>2017-01-12 13:28:11</time>
      </trkpt>
      <trkpt lat="44.21427" lon="5.91822">
        <ele>505.3</ele>
        <time>2017-01-12 13:28:12</time>
      </trkpt>
      <trkpt lat="44.21427" lon="5.91822">
        <ele>505.3</ele>
        <time>2017-01-12 13:28:13</time>
      </trkpt>
      <trkpt lat="44.21427" lon="5.91822">
        <ele>505.3</ele>
        <time>2017-01-12 13:28:14</time>
      </trkpt>
      <trkpt lat="44.21427" lon="5.91822">
        <ele>505.3</ele>
        <time>2017-01-12 13:28:15</time>
      </trkpt>
      <trkpt lat="44.21428" lon="5.91812">
        <ele>505.7</ele>
        <time>2017-01-12 13:28:16</time>
      </trkpt>
      <trkpt lat="44.21428" lon="5.91812">
        <ele>505.7</ele>
        <time>2017-01-12 13:28:17</time>
      </trkpt>
      <trkpt lat="44.21428" lon="5.91812">
        <ele>505.7</ele>
        <time>2017-01-12 13:28:18</time>
      </trkpt>
      <trkpt lat="44.21428" lon="5.91812">
        <ele>505.7</ele>
        <time>2017-01-12 13:28:19</time>
      </trkpt>
      <trkpt lat="44.2143" lon="5.91802">
        <ele>506.2</ele>
        <time>2017-01-12 13:28:20</time>
      </trkpt>
      <trkpt lat="44.2143" lon="5.91802">
        <ele>506.2</ele>
        <time>2017-01-12 13:28:21</time>
      </trkpt>
      <trkpt lat="44.2143" lon="5.91802">
        <ele>506.2</ele>
        <time>2017-01-12 13:28:22</time>
      </trkpt>
      <trkpt lat="44.2143" lon="5.91802">
        <ele>506.2</ele>
        <time>2017-01-12 13:28:23</time>
      </trkpt>
      <trkpt lat="44.21432" lon="5.91794">
        <ele>506.9</ele>
        <time>2017-01-12 13:28:24</time>
      </trkpt>
      <trkpt lat="44.21432" lon="5.91794">
        <ele>506.9</ele>
        <time>2017-01-12 13:28:25</time>
      </trkpt>
      <trkpt lat="44.21432" lon="5.91794">
        <ele>506.9</ele>
        <time>2017-01-12 13:28:26</time>
      </trkpt>
      <trkpt lat="44.21432" lon="5.91794">
        <ele>506.9</ele>
        <time>2017-01-12 13:28:27</time>
      </trkpt>
      <trkpt lat="44.21436" lon="5.91784">
        <ele>507.9</ele>
        <time>2017-01-12 13:28:28</time>
      </trkpt>
      <trkpt lat="44.21436" lon="5.91784">
        <ele>507.9</ele>
        <time>2017-01-12 13:28:29</time>
      </trkpt>
      <trkpt lat="44.21436" lon="5.91784">
        <ele>507.9</ele>
        <time>2017-01-12 13:28:30</time>
      </trkpt>
      <trkpt lat="44.21436" lon="5.91784">
        <ele>507.9</ele>
        <time>2017-01-12 13:28:31</time>
      </trkpt>
      <trkpt lat="44.21439" lon="5.91774">
        <ele>509.1</ele>
        <time>2017-01-12 13:28:32</time>
      </trkpt>
      <trkpt lat="44.21439" lon="5.91774">
        <ele>509.1</ele>
        <time>2017-01-12 13:28:33</time>
      </trkpt>
      <trkpt lat="44.21439" lon="5.91774">
        <ele>509.1</ele>
        <time>2017-01-12 13:28:34</time>
      </trkpt>
      <trkpt lat="44.21439" lon="5.91774">
        <ele>509.1</ele>
        <time>2017-01-12 13:28:35</time>
      </trkpt>
      <trkpt lat="44.21443" lon="5.91765">
        <ele>509.7</ele>
        <time>2017-01-12 13:28:36</time>
      </trkpt>
      <trkpt lat="44.21443" lon="5.91765">
        <ele>509.7</ele>
        <time>2017-01-12 13:28:37</time>
      </trkpt>
      <trkpt lat="44.21443" lon="5.91765">
        <ele>509.7</ele>
        <time>2017-01-12 13:28:38</time>
      </trkpt>
      <trkpt lat="44.21443" lon="5.91765">
        <ele>509.7</ele>
        <time>2017-01-12 13:28:39</time>
      </trkpt>
      <trkpt lat="44.21448" lon="5.91756">
        <ele>510.1</ele>
        <time>2017-01-12 13:28:40</time>
      </trkpt>
      <trkpt lat="44.21448" lon="5.91756">
        <ele>510.1</ele>
        <time>2017-01-12 13:28:41</time>
      </trkpt>
      <trkpt lat="44.21448" lon="5.91756">
        <ele>510.1</ele>
        <time>2017-01-12 13:28:42</time>
      </trkpt>
      <trkpt lat="44.21448" lon="5.91756">
        <ele>510.1</ele>
        <time>2017-01-12 13:28:43</time>
      </trkpt>
      <trkpt lat="44.21453" lon="5.91748">
        <ele>510.9</ele>
        <time>2017-01-12 13:28:44</time>
      </trkpt>
      <trkpt lat="44.21453" lon="5.91748">
        <ele>510.9</ele>
        <time>2017-01-12 13:28:45</time>
      </trkpt>
      <trkpt lat="44.21453" lon="5.91748">
        <ele>510.9</ele>
        <time>2017-01-12 13:28:46</time>
      </trkpt>
      <trkpt lat="44.21453" lon="5.91748">
        <ele>510.9</ele>
        <time>2017-01-12 13:28:47</time>
      </trkpt>
      <trkpt lat="44.21458" lon="5.91739">
        <ele>511.8</ele>
        <time>2017-01-12 13:28:48</time>
      </trkpt>
      <trkpt lat="44.21458" lon="5.91739">
        <ele>511.8</ele>
        <time>2017-01-12 13:28:49</time>
      </trkpt>
      <trkpt lat="44.21458" lon="5.91739">
        <ele>511.8</ele>
        <time>2017-01-12 13:28:50</time>
      </trkpt>
      <trkpt lat="44.21458" lon="5.91739">
        <ele>511.8</ele>
        <time>2017-01-12 13:28:51</time>
      </trkpt>
      <trkpt lat="44.21464" lon="5.91732">
        <ele>512.2</ele>
        <time>2017-01-12 13:28:52</time>
      </trkpt>
      <trkpt lat="44.21464" lon="5.91732">
        <ele>512.2</ele>
        <time>2017-01-12 13:28:53</time>
      </trkpt>
      <trkpt lat="44.21464" lon="5.91732">
        <ele>512.2</ele>
        <time>2017-01-12 13:28:54</time>
      </trkpt>
      <trkpt lat="44.21464" lon="5.91732">
        <ele>512.2</ele>
        <time>2017-01-12 13:28:55</time>
      </trkpt>
      <trkpt lat="44.2147" lon="5.91724">
        <ele>512.1</ele>
        <time>2017-01-12 13:28:56</time>
      </trkpt>
      <trkpt lat="44.2147" lon="5.91724">
        <ele>512.1</ele>
        <time>2017-01-12 13:28:57</time>
      </trkpt>
      <trkpt lat="44.2147" lon="5.91724">
        <ele>512.1</ele>
        <time>2017-01-12 13:28:58</time>
      </trkpt>
      <trkpt lat="44.2147" lon="5.91724">
        <ele>512.1</ele>
        <time>2017-01-12 13:28:59</time>
      </trkpt>
      <trkpt lat="44.21477" lon="5.91716">
        <ele>512.5</ele>
        <time>2017-01-12 13:29:00</time>
      </trkpt>
      <trkpt lat="44.21477" lon="5.91716">
        <ele>512.5</ele>
        <time>2017-01-12 13:29:01</time>
      </trkpt>
      <trkpt lat="44.21477" lon="5.91716">
        <ele>512.5</ele>
        <time>2017-01-12 13:29:02</time>
      </trkpt>
      <trkpt lat="44.21477" lon="5.91716">
        <ele>512.5</ele>
        <time>2017-01-12 13:29:03</time>
      </trkpt>
      <trkpt lat="44.21484" lon="5.91708">
        <ele>512.8</ele>
        <time>2017-01-12 13:29:04</time>
      </trkpt>
      <trkpt lat="44.21484" lon="5.91708">
        <ele>512.8</ele>
        <time>2017-01-12 13:29:05</time>
      </trkpt>
      <trkpt lat="44.21484" lon="5.91708">
        <ele>512.8</ele>
        <time>2017-01-12 13:29:06</time>
      </trkpt>
      <trkpt lat="44.21484" lon="5.91708">
        <ele>512.8</ele>
        <time>2017-01-12 13:29:07</time>
      </trkpt>
      <trkpt lat="44.21491" lon="5.91701">
        <ele>512.7</ele>
        <time>2017-01-12 13:29:08</time>
      </trkpt>
      <trkpt lat="44.21491" lon="5.91701">
        <ele>512.7</ele>
        <time>2017-01-12 13:29:09</time>
      </trkpt>
      <trkpt lat="44.21491" lon="5.91701">
        <ele>512.7</ele>
        <time>2017-01-12 13:29:10</time>
      </trkpt>
      <trkpt lat="44.21491" lon="5.91701">
        <ele>512.7</ele>
        <time>2017-01-12 13:29:11</time>
      </trkpt>
      <trkpt lat="44.21498" lon="5.91693">
        <ele>512.7</ele>
        <time>2017-01-12 13:29:12</time>
      </trkpt>
      <trkpt lat="44.21498" lon="5.91693">
        <ele>512.7</ele>
        <time>2017-01-12 13:29:13</time>
      </trkpt>
      <trkpt lat="44.21498" lon="5.91693">
        <ele>512.7</ele>
        <time>2017-01-12 13:29:14</time>
      </trkpt>
      <trkpt lat="44.21498" lon="5.91693">
        <ele>512.7</ele>
        <time>2017-01-12 13:29:15</time>
      </trkpt>
      <trkpt lat="44.21505" lon="5.91684">
        <ele>512.8</ele>
        <time>2017-01-12 13:29:16</time>
      </trkpt>
      <trkpt lat="44.21505" lon="5.91684">
        <ele>512.8</ele>
        <time>2017-01-12 13:29:17</time>
      </trkpt>
      <trkpt lat="44.21505" lon="5.91684">
        <ele>512.8</ele>
        <time>2017-01-12 13:29:18</time>
      </trkpt>
      <trkpt lat="44.21505" lon="5.91684">
        <ele>512.8</ele>
        <time>2017-01-12 13:29:19</time>
      </trkpt>
      <trkpt lat="44.21512" lon="5.91677">
        <ele>513.1</ele>
        <time>2017-01-12 13:29:20</time>
      </trkpt>
      <trkpt lat="44.21512" lon="5.91677">
        <ele>513.1</ele>
        <time>2017-01-12 13:29:21</time>
      </trkpt>
      <trkpt lat="44.21512" lon="5.91677">
        <ele>513.1</ele>
        <time>2017-01-12 13:29:22</time>
      </trkpt>
      <trkpt lat="44.21512" lon="5.91677">
        <ele>513.1</ele>
        <time>2017-01-12 13:29:23</time>
      </trkpt>
      <trkpt lat="44.21518" lon="5.91671">
        <ele>513.4</ele>
        <time>2017-01-12 13:29:24</time>
      </trkpt>
      <trkpt lat="44.21518" lon="5.91671">
        <ele>513.4</ele>
        <time>2017-01-12 13:29:25</time>
      </trkpt>
      <trkpt lat="44.21518" lon="5.91671">
        <ele>513.4</ele>
        <time>2017-01-12 13:29:26</time>
      </trkpt>
      <trkpt lat="44.21518" lon="5.91671">
        <ele>513.4</ele>
        <time>2017-01-12 13:29:27</time>
      </trkpt>
      <trkpt lat="44.21524" lon="5.91663">
        <ele>514</ele>
        <time>2017-01-12 13:29:28</time>
      </trkpt>
      <trkpt lat="44.21524" lon="5.91663">
        <ele>514</ele>
        <time>2017-01-12 13:29:29</time>
      </trkpt>
      <trkpt lat="44.21524" lon="5.91663">
        <ele>514</ele>
        <time>2017-01-12 13:29:30</time>
      </trkpt>
      <trkpt lat="44.21524" lon="5.91663">
        <ele>514</ele>
        <time>2017-01-12 13:29:31</time>
      </trkpt>
      <trkpt lat="44.21529" lon="5.91656">
        <ele>514.3</ele>
        <time>2017-01-12 13:29:32</time>
      </trkpt>
      <trkpt lat="44.21529" lon="5.91656">
        <ele>514.3</ele>
        <time>2017-01-12 13:29:33</time>
      </trkpt>
      <trkpt lat="44.21529" lon="5.91656">
        <ele>514.3</ele>
        <time>2017-01-12 13:29:34</time>
      </trkpt>
      <trkpt lat="44.21529" lon="5.91656">
        <ele>514.3</ele>
        <time>2017-01-12 13:29:35</time>
      </trkpt>
      <trkpt lat="44.21534" lon="5.91648">
        <ele>514.5</ele>
        <time>2017-01-12 13:29:36</time>
      </trkpt>
      <trkpt lat="44.21534" lon="5.91648">
        <ele>514.5</ele>
        <time>2017-01-12 13:29:37</time>
      </trkpt>
      <trkpt lat="44.21534" lon="5.91648">
        <ele>514.5</ele>
        <time>2017-01-12 13:29:38</time>
      </trkpt>
      <trkpt lat="44.21534" lon="5.91648">
        <ele>514.5</ele>
        <time>2017-01-12 13:29:39</time>
      </trkpt>
      <trkpt lat="44.21538" lon="5.9164">
        <ele>515</ele>
        <time>2017-01-12 13:29:40</time>
      </trkpt>
      <trkpt lat="44.21538" lon="5.9164">
        <ele>515</ele>
        <time>2017-01-12 13:29:41</time>
      </trkpt>
      <trkpt lat="44.21538" lon="5.9164">
        <ele>515</ele>
        <time>2017-01-12 13:29:42</time>
      </trkpt>
      <trkpt lat="44.21538" lon="5.9164">
        <ele>515</ele>
        <time>2017-01-12 13:29:43</time>
      </trkpt>
      <trkpt lat="44.21541" lon="5.9163">
        <ele>515.4</ele>
        <time>2017-01-12 13:29:44</time>
      </trkpt>
      <trkpt lat="44.21541" lon="5.9163">
        <ele>515.4</ele>
        <time>2017-01-12 13:29:45</time>
      </trkpt>
      <trkpt lat="44.21541" lon="5.9163">
        <ele>515.4</ele>
        <time>2017-01-12 13:29:46</time>
      </trkpt>
      <trkpt lat="44.21541" lon="5.9163">
        <ele>515.4</ele>
        <time>2017-01-12 13:29:47</time>
      </trkpt>
      <trkpt lat="44.21542" lon="5.91619">
        <ele>516.1</ele>
        <time>2017-01-12 13:29:48</time>
      </trkpt>
      <trkpt lat="44.21542" lon="5.91619">
        <ele>516.1</ele>
        <time>2017-01-12 13:29:49</time>
      </trkpt>
      <trkpt lat="44.21542" lon="5.91619">
        <ele>516.1</ele>
        <time>2017-01-12 13:29:50</time>
      </trkpt>
      <trkpt lat="44.21542" lon="5.91619">
        <ele>516.1</ele>
        <time>2017-01-12 13:29:51</time>
      </trkpt>
      <trkpt lat="44.21539" lon="5.91611">
        <ele>517.6</ele>
        <time>2017-01-12 13:29:52</time>
      </trkpt>
      <trkpt lat="44.21539" lon="5.91611">
        <ele>517.6</ele>
        <time>2017-01-12 13:29:53</time>
      </trkpt>
      <trkpt lat="44.21539" lon="5.91611">
        <ele>517.6</ele>
        <time>2017-01-12 13:29:54</time>
      </trkpt>
      <trkpt lat="44.21539" lon="5.91611">
        <ele>517.6</ele>
        <time>2017-01-12 13:29:55</time>
      </trkpt>
      <trkpt lat="44.21533" lon="5.91607">
        <ele>520.1</ele>
        <time>2017-01-12 13:29:56</time>
      </trkpt>
      <trkpt lat="44.21533" lon="5.91607">
        <ele>520.1</ele>
        <time>2017-01-12 13:29:57</time>
      </trkpt>
      <trkpt lat="44.21533" lon="5.91607">
        <ele>520.1</ele>
        <time>2017-01-12 13:29:58</time>
      </trkpt>
      <trkpt lat="44.21533" lon="5.91607">
        <ele>520.1</ele>
        <time>2017-01-12 13:29:59</time>
      </trkpt>
      <trkpt lat="44.21526" lon="5.91606">
        <ele>521.9</ele>
        <time>2017-01-12 13:30:00</time>
      </trkpt>
      <trkpt lat="44.21526" lon="5.91606">
        <ele>521.9</ele>
        <time>2017-01-12 13:30:01</time>
      </trkpt>
      <trkpt lat="44.21526" lon="5.91606">
        <ele>521.9</ele>
        <time>2017-01-12 13:30:02</time>
      </trkpt>
      <trkpt lat="44.21526" lon="5.91606">
        <ele>521.9</ele>
        <time>2017-01-12 13:30:03</time>
      </trkpt>
      <trkpt lat="44.21519" lon="5.9161">
        <ele>522.5</ele>
        <time>2017-01-12 13:30:04</time>
      </trkpt>
      <trkpt lat="44.21519" lon="5.9161">
        <ele>522.5</ele>
        <time>2017-01-12 13:30:05</time>
      </trkpt>
      <trkpt lat="44.21519" lon="5.9161">
        <ele>522.5</ele>
        <time>2017-01-12 13:30:06</time>
      </trkpt>
      <trkpt lat="44.21519" lon="5.9161">
        <ele>522.5</ele>
        <time>2017-01-12 13:30:07</time>
      </trkpt>
      <trkpt lat="44.21514" lon="5.91613">
        <ele>523.2</ele>
        <time>2017-01-12 13:30:08</time>
      </trkpt>
      <trkpt lat="44.21514" lon="5.91613">
        <ele>523.2</ele>
        <time>2017-01-12 13:30:09</time>
      </trkpt>
      <trkpt lat="44.21514" lon="5.91613">
        <ele>523.2</ele>
        <time>2017-01-12 13:30:10</time>
      </trkpt>
      <trkpt lat="44.21514" lon="5.91613">
        <ele>523.2</ele>
        <time>2017-01-12 13:30:11</time>
      </trkpt>
      <trkpt lat="44.21509" lon="5.91619">
        <ele>523.4</ele>
        <time>2017-01-12 13:30:12</time>
      </trkpt>
      <trkpt lat="44.21509" lon="5.91619">
        <ele>523.4</ele>
        <time>2017-01-12 13:30:13</time>
      </trkpt>
      <trkpt lat="44.21509" lon="5.91619">
        <ele>523.4</ele>
        <time>2017-01-12 13:30:14</time>
      </trkpt>
      <trkpt lat="44.21509" lon="5.91619">
        <ele>523.4</ele>
        <time>2017-01-12 13:30:15</time>
      </trkpt>
      <trkpt lat="44.21504" lon="5.91626">
        <ele>523.4</ele>
        <time>2017-01-12 13:30:16</time>
      </trkpt>
      <trkpt lat="44.21504" lon="5.91626">
        <ele>523.4</ele>
        <time>2017-01-12 13:30:17</time>
      </trkpt>
      <trkpt lat="44.21504" lon="5.91626">
        <ele>523.4</ele>
        <time>2017-01-12 13:30:18</time>
      </trkpt>
      <trkpt lat="44.21504" lon="5.91626">
        <ele>523.4</ele>
        <time>2017-01-12 13:30:19</time>
      </trkpt>
      <trkpt lat="44.21501" lon="5.9163">
        <ele>523.3</ele>
        <time>2017-01-12 13:30:20</time>
      </trkpt>
      <trkpt lat="44.21501" lon="5.9163">
        <ele>523.3</ele>
        <time>2017-01-12 13:30:21</time>
      </trkpt>
      <trkpt lat="44.21501" lon="5.9163">
        <ele>523.3</ele>
        <time>2017-01-12 13:30:22</time>
      </trkpt>
      <trkpt lat="44.21501" lon="5.9163">
        <ele>523.3</ele>
        <time>2017-01-12 13:30:23</time>
      </trkpt>
      <trkpt lat="44.21498" lon="5.91635">
        <ele>523.7</ele>
        <time>2017-01-12 13:30:24</time>
      </trkpt>
      <trkpt lat="44.21498" lon="5.91635">
        <ele>523.7</ele>
        <time>2017-01-12 13:30:25</time>
      </trkpt>
      <trkpt lat="44.21498" lon="5.91635">
        <ele>523.7</ele>
        <time>2017-01-12 13:30:26</time>
      </trkpt>
      <trkpt lat="44.21498" lon="5.91635">
        <ele>523.7</ele>
        <time>2017-01-12 13:30:27</time>
      </trkpt>
      <trkpt lat="44.21493" lon="5.91641">
        <ele>524.2</ele>
        <time>2017-01-12 13:30:28</time>
      </trkpt>
      <trkpt lat="44.21493" lon="5.91641">
        <ele>524.2</ele>
        <time>2017-01-12 13:30:29</time>
      </trkpt>
      <trkpt lat="44.21493" lon="5.91641">
        <ele>524.2</ele>
        <time>2017-01-12 13:30:30</time>
      </trkpt>
      <trkpt lat="44.21493" lon="5.91641">
        <ele>524.2</ele>
        <time>2017-01-12 13:30:31</time>
      </trkpt>
      <trkpt lat="44.21489" lon="5.91646">
        <ele>524.7</ele>
        <time>2017-01-12 13:30:32</time>
      </trkpt>
      <trkpt lat="44.21489" lon="5.91646">
        <ele>524.7</ele>
        <time>2017-01-12 13:30:33</time>
      </trkpt>
      <trkpt lat="44.21489" lon="5.91646">
        <ele>524.7</ele>
        <time>2017-01-12 13:30:34</time>
      </trkpt>
      <trkpt lat="44.21489" lon="5.91646">
        <ele>524.7</ele>
        <time>2017-01-12 13:30:35</time>
      </trkpt>
      <trkpt lat="44.21484" lon="5.91651">
        <ele>525.4</ele>
        <time>2017-01-12 13:30:36</time>
      </trkpt>
      <trkpt lat="44.21484" lon="5.91651">
        <ele>525.4</ele>
        <time>2017-01-12 13:30:37</time>
      </trkpt>
      <trkpt lat="44.21484" lon="5.91651">
        <ele>525.4</ele>
        <time>2017-01-12 13:30:38</time>
      </trkpt>
      <trkpt lat="44.21484" lon="5.91651">
        <ele>525.4</ele>
        <time>2017-01-12 13:30:39</time>
      </trkpt>
      <trkpt lat="44.2148" lon="5.91657">
        <ele>525.4</ele>
        <time>2017-01-12 13:30:40</time>
      </trkpt>
      <trkpt lat="44.2148" lon="5.91657">
        <ele>525.4</ele>
        <time>2017-01-12 13:30:41</time>
      </trkpt>
      <trkpt lat="44.2148" lon="5.91657">
        <ele>525.4</ele>
        <time>2017-01-12 13:30:42</time>
      </trkpt>
      <trkpt lat="44.2148" lon="5.91657">
        <ele>525.4</ele>
        <time>2017-01-12 13:30:43</time>
      </trkpt>
      <trkpt lat="44.21476" lon="5.91662">
        <ele>526</ele>
        <time>2017-01-12 13:30:44</time>
      </trkpt>
      <trkpt lat="44.21476" lon="5.91662">
        <ele>526</ele>
        <time>2017-01-12 13:30:45</time>
      </trkpt>
      <trkpt lat="44.21476" lon="5.91662">
        <ele>526</ele>
        <time>2017-01-12 13:30:46</time>
      </trkpt>
      <trkpt lat="44.21476" lon="5.91662">
        <ele>526</ele>
        <time>2017-01-12 13:30:47</time>
      </trkpt>
      <trkpt lat="44.21471" lon="5.91666">
        <ele>526.4</ele>
        <time>2017-01-12 13:30:48</time>
      </trkpt>
      <trkpt lat="44.21471" lon="5.91666">
        <ele>526.4</ele>
        <time>2017-01-12 13:30:49</time>
      </trkpt>
      <trkpt lat="44.21471" lon="5.91666">
        <ele>526.4</ele>
        <time>2017-01-12 13:30:50</time>
      </trkpt>
      <trkpt lat="44.21471" lon="5.91666">
        <ele>526.4</ele>
        <time>2017-01-12 13:30:51</time>
      </trkpt>
      <trkpt lat="44.21467" lon="5.91671">
        <ele>526.1</ele>
        <time>2017-01-12 13:30:52</time>
      </trkpt>
      <trkpt lat="44.21467" lon="5.91671">
        <ele>526.1</ele>
        <time>2017-01-12 13:30:53</time>
      </trkpt>
      <trkpt lat="44.21467" lon="5.91671">
        <ele>526.1</ele>
        <time>2017-01-12 13:30:54</time>
      </trkpt>
      <trkpt lat="44.21467" lon="5.91671">
        <ele>526.1</ele>
        <time>2017-01-12 13:30:55</time>
      </trkpt>
      <trkpt lat="44.21463" lon="5.91677">
        <ele>525.5</ele>
        <time>2017-01-12 13:30:56</time>
      </trkpt>
      <trkpt lat="44.21463" lon="5.91677">
        <ele>525.5</ele>
        <time>2017-01-12 13:30:57</time>
      </trkpt>
      <trkpt lat="44.21463" lon="5.91677">
        <ele>525.5</ele>
        <time>2017-01-12 13:30:58</time>
      </trkpt>
      <trkpt lat="44.21463" lon="5.91677">
        <ele>525.5</ele>
        <time>2017-01-12 13:30:59</time>
      </trkpt>
      <trkpt lat="44.21458" lon="5.91683">
        <ele>525.5</ele>
        <time>2017-01-12 13:31:00</time>
      </trkpt>
      <trkpt lat="44.21458" lon="5.91683">
        <ele>525.5</ele>
        <time>2017-01-12 13:31:01</time>
      </trkpt>
      <trkpt lat="44.21458" lon="5.91683">
        <ele>525.5</ele>
        <time>2017-01-12 13:31:02</time>
      </trkpt>
      <trkpt lat="44.21458" lon="5.91683">
        <ele>525.5</ele>
        <time>2017-01-12 13:31:03</time>
      </trkpt>
      <trkpt lat="44.21452" lon="5.91688">
        <ele>526</ele>
        <time>2017-01-12 13:31:04</time>
      </trkpt>
      <trkpt lat="44.21452" lon="5.91688">
        <ele>526</ele>
        <time>2017-01-12 13:31:05</time>
      </trkpt>
      <trkpt lat="44.21452" lon="5.91688">
        <ele>526</ele>
        <time>2017-01-12 13:31:06</time>
      </trkpt>
      <trkpt lat="44.21452" lon="5.91688">
        <ele>526</ele>
        <time>2017-01-12 13:31:07</time>
      </trkpt>
      <trkpt lat="44.21446" lon="5.9169">
        <ele>527.4</ele>
        <time>2017-01-12 13:31:08</time>
      </trkpt>
      <trkpt lat="44.21446" lon="5.9169">
        <ele>527.4</ele>
        <time>2017-01-12 13:31:09</time>
      </trkpt>
      <trkpt lat="44.21446" lon="5.9169">
        <ele>527.4</ele>
        <time>2017-01-12 13:31:10</time>
      </trkpt>
      <trkpt lat="44.21446" lon="5.9169">
        <ele>527.4</ele>
        <time>2017-01-12 13:31:11</time>
      </trkpt>
      <trkpt lat="44.21441" lon="5.91693">
        <ele>528.1</ele>
        <time>2017-01-12 13:31:12</time>
      </trkpt>
      <trkpt lat="44.21441" lon="5.91693">
        <ele>528.1</ele>
        <time>2017-01-12 13:31:13</time>
      </trkpt>
      <trkpt lat="44.21441" lon="5.91693">
        <ele>528.1</ele>
        <time>2017-01-12 13:31:14</time>
      </trkpt>
      <trkpt lat="44.21441" lon="5.91693">
        <ele>528.1</ele>
        <time>2017-01-12 13:31:15</time>
      </trkpt>
      <trkpt lat="44.21436" lon="5.91697">
        <ele>528.2</ele>
        <time>2017-01-12 13:31:16</time>
      </trkpt>
      <trkpt lat="44.21436" lon="5.91697">
        <ele>528.2</ele>
        <time>2017-01-12 13:31:17</time>
      </trkpt>
      <trkpt lat="44.21436" lon="5.91697">
        <ele>528.2</ele>
        <time>2017-01-12 13:31:18</time>
      </trkpt>
      <trkpt lat="44.21436" lon="5.91697">
        <ele>528.2</ele>
        <time>2017-01-12 13:31:19</time>
      </trkpt>
      <trkpt lat="44.21431" lon="5.91699">
        <ele>528.9</ele>
        <time>2017-01-12 13:31:20</time>
      </trkpt>
      <trkpt lat="44.21431" lon="5.91699">
        <ele>528.9</ele>
        <time>2017-01-12 13:31:21</time>
      </trkpt>
      <trkpt lat="44.21431" lon="5.91699">
        <ele>528.9</ele>
        <time>2017-01-12 13:31:22</time>
      </trkpt>
      <trkpt lat="44.21431" lon="5.91699">
        <ele>528.9</ele>
        <time>2017-01-12 13:31:23</time>
      </trkpt>
      <trkpt lat="44.21427" lon="5.91699">
        <ele>530.1</ele>
        <time>2017-01-12 13:31:24</time>
      </trkpt>
      <trkpt lat="44.21427" lon="5.91699">
        <ele>530.1</ele>
        <time>2017-01-12 13:31:25</time>
      </trkpt>
      <trkpt lat="44.21427" lon="5.91699">
        <ele>530.1</ele>
        <time>2017-01-12 13:31:26</time>
      </trkpt>
      <trkpt lat="44.21427" lon="5.91699">
        <ele>530.1</ele>
        <time>2017-01-12 13:31:27</time>
      </trkpt>
      <trkpt lat="44.21423" lon="5.917">
        <ele>530.8</ele>
        <time>2017-01-12 13:31:28</time>
      </trkpt>
      <trkpt lat="44.21423" lon="5.917">
        <ele>530.8</ele>
        <time>2017-01-12 13:31:29</time>
      </trkpt>
      <trkpt lat="44.21423" lon="5.917">
        <ele>530.8</ele>
        <time>2017-01-12 13:31:30</time>
      </trkpt>
      <trkpt lat="44.21423" lon="5.917">
        <ele>530.8</ele>
        <time>2017-01-12 13:31:31</time>
      </trkpt>
      <trkpt lat="44.21419" lon="5.91703">
        <ele>531.1</ele>
        <time>2017-01-12 13:31:32</time>
      </trkpt>
      <trkpt lat="44.21419" lon="5.91703">
        <ele>531.1</ele>
        <time>2017-01-12 13:31:33</time>
      </trkpt>
      <trkpt lat="44.21419" lon="5.91703">
        <ele>531.1</ele>
        <time>2017-01-12 13:31:34</time>
      </trkpt>
      <trkpt lat="44.21419" lon="5.91703">
        <ele>531.1</ele>
        <time>2017-01-12 13:31:35</time>
      </trkpt>
      <trkpt lat="44.21415" lon="5.91706">
        <ele>531.3</ele>
        <time>2017-01-12 13:31:36</time>
      </trkpt>
      <trkpt lat="44.21415" lon="5.91706">
        <ele>531.3</ele>
        <time>2017-01-12 13:31:37</time>
      </trkpt>
      <trkpt lat="44.21415" lon="5.91706">
        <ele>531.3</ele>
        <time>2017-01-12 13:31:38</time>
      </trkpt>
      <trkpt lat="44.21415" lon="5.91706">
        <ele>531.3</ele>
        <time>2017-01-12 13:31:39</time>
      </trkpt>
      <trkpt lat="44.2141" lon="5.91708">
        <ele>532.3</ele>
        <time>2017-01-12 13:31:40</time>
      </trkpt>
      <trkpt lat="44.2141" lon="5.91708">
        <ele>532.3</ele>
        <time>2017-01-12 13:31:41</time>
      </trkpt>
      <trkpt lat="44.2141" lon="5.91708">
        <ele>532.3</ele>
        <time>2017-01-12 13:31:42</time>
      </trkpt>
      <trkpt lat="44.2141" lon="5.91708">
        <ele>532.3</ele>
        <time>2017-01-12 13:31:43</time>
      </trkpt>
      <trkpt lat="44.21407" lon="5.91711">
        <ele>532.8</ele>
        <time>2017-01-12 13:31:44</time>
      </trkpt>
      <trkpt lat="44.21407" lon="5.91711">
        <ele>532.8</ele>
        <time>2017-01-12 13:31:45</time>
      </trkpt>
      <trkpt lat="44.21407" lon="5.91711">
        <ele>532.8</ele>
        <time>2017-01-12 13:31:46</time>
      </trkpt>
      <trkpt lat="44.21407" lon="5.91711">
        <ele>532.8</ele>
        <time>2017-01-12 13:31:47</time>
      </trkpt>
      <trkpt lat="44.21403" lon="5.91713">
        <ele>533.4</ele>
        <time>2017-01-12 13:31:48</time>
      </trkpt>
      <trkpt lat="44.21403" lon="5.91713">
        <ele>533.4</ele>
        <time>2017-01-12 13:31:49</time>
      </trkpt>
      <trkpt lat="44.21403" lon="5.91713">
        <ele>533.4</ele>
        <time>2017-01-12 13:31:50</time>
      </trkpt>
      <trkpt lat="44.21403" lon="5.91713">
        <ele>533.4</ele>
        <time>2017-01-12 13:31:51</time>
      </trkpt>
      <trkpt lat="44.21399" lon="5.91715">
        <ele>534.3</ele>
        <time>2017-01-12 13:31:52</time>
      </trkpt>
      <trkpt lat="44.21399" lon="5.91715">
        <ele>534.3</ele>
        <time>2017-01-12 13:31:53</time>
      </trkpt>
      <trkpt lat="44.21399" lon="5.91715">
        <ele>534.3</ele>
        <time>2017-01-12 13:31:54</time>
      </trkpt>
      <trkpt lat="44.21399" lon="5.91715">
        <ele>534.3</ele>
        <time>2017-01-12 13:31:55</time>
      </trkpt>
      <trkpt lat="44.21395" lon="5.91718">
        <ele>534.8</ele>
        <time>2017-01-12 13:31:56</time>
      </trkpt>
      <trkpt lat="44.21395" lon="5.91718">
        <ele>534.8</ele>
        <time>2017-01-12 13:31:57</time>
      </trkpt>
      <trkpt lat="44.21395" lon="5.91718">
        <ele>534.8</ele>
        <time>2017-01-12 13:31:58</time>
      </trkpt>
      <trkpt lat="44.21395" lon="5.91718">
        <ele>534.8</ele>
        <time>2017-01-12 13:31:59</time>
      </trkpt>
      <trkpt lat="44.21392" lon="5.91721">
        <ele>535.2</ele>
        <time>2017-01-12 13:32:00</time>
      </trkpt>
      <trkpt lat="44.21392" lon="5.91721">
        <ele>535.2</ele>
        <time>2017-01-12 13:32:01</time>
      </trkpt>
      <trkpt lat="44.21392" lon="5.91721">
        <ele>535.2</ele>
        <time>2017-01-12 13:32:02</time>
      </trkpt>
      <trkpt lat="44.21392" lon="5.91721">
        <ele>535.2</ele>
        <time>2017-01-12 13:32:03</time>
      </trkpt>
      <trkpt lat="44.21389" lon="5.91723">
        <ele>535.4</ele>
        <time>2017-01-12 13:32:04</time>
      </trkpt>
      <trkpt lat="44.21389" lon="5.91723">
        <ele>535.4</ele>
        <time>2017-01-12 13:32:05</time>
      </trkpt>
      <trkpt lat="44.21389" lon="5.91723">
        <ele>535.4</ele>
        <time>2017-01-12 13:32:06</time>
      </trkpt>
      <trkpt lat="44.21389" lon="5.91723">
        <ele>535.4</ele>
        <time>2017-01-12 13:32:07</time>
      </trkpt>
      <trkpt lat="44.21385" lon="5.91724">
        <ele>536.5</ele>
        <time>2017-01-12 13:32:08</time>
      </trkpt>
      <trkpt lat="44.21385" lon="5.91724">
        <ele>536.5</ele>
        <time>2017-01-12 13:32:09</time>
      </trkpt>
      <trkpt lat="44.21385" lon="5.91724">
        <ele>536.5</ele>
        <time>2017-01-12 13:32:10</time>
      </trkpt>
      <trkpt lat="44.21385" lon="5.91724">
        <ele>536.5</ele>
        <time>2017-01-12 13:32:11</time>
      </trkpt>
      <trkpt lat="44.21381" lon="5.91728">
        <ele>536.7</ele>
        <time>2017-01-12 13:32:12</time>
      </trkpt>
      <trkpt lat="44.21381" lon="5.91728">
        <ele>536.7</ele>
        <time>2017-01-12 13:32:13</time>
      </trkpt>
      <trkpt lat="44.21381" lon="5.91728">
        <ele>536.7</ele>
        <time>2017-01-12 13:32:14</time>
      </trkpt>
      <trkpt lat="44.21381" lon="5.91728">
        <ele>536.7</ele>
        <time>2017-01-12 13:32:15</time>
      </trkpt>
      <trkpt lat="44.21376" lon="5.91731">
        <ele>537.2</ele>
        <time>2017-01-12 13:32:16</time>
      </trkpt>
      <trkpt lat="44.21376" lon="5.91731">
        <ele>537.2</ele>
        <time>2017-01-12 13:32:17</time>
      </trkpt>
      <trkpt lat="44.21376" lon="5.91731">
        <ele>537.2</ele>
        <time>2017-01-12 13:32:18</time>
      </trkpt>
      <trkpt lat="44.21376" lon="5.91731">
        <ele>537.2</ele>
        <time>2017-01-12 13:32:19</time>
      </trkpt>
      <trkpt lat="44.21371" lon="5.91736">
        <ele>537.4</ele>
        <time>2017-01-12 13:32:20</time>
      </trkpt>
      <trkpt lat="44.21371" lon="5.91736">
        <ele>537.4</ele>
        <time>2017-01-12 13:32:21</time>
      </trkpt>
      <trkpt lat="44.21371" lon="5.91736">
        <ele>537.4</ele>
        <time>2017-01-12 13:32:22</time>
      </trkpt>
      <trkpt lat="44.21371" lon="5.91736">
        <ele>537.4</ele>
        <time>2017-01-12 13:32:23</time>
      </trkpt>
      <trkpt lat="44.21366" lon="5.9174">
        <ele>538</ele>
        <time>2017-01-12 13:32:24</time>
      </trkpt>
      <trkpt lat="44.21366" lon="5.9174">
        <ele>538</ele>
        <time>2017-01-12 13:32:25</time>
      </trkpt>
      <trkpt lat="44.21366" lon="5.9174">
        <ele>538</ele>
        <time>2017-01-12 13:32:26</time>
      </trkpt>
      <trkpt lat="44.21366" lon="5.9174">
        <ele>538</ele>
        <time>2017-01-12 13:32:27</time>
      </trkpt>
      <trkpt lat="44.21361" lon="5.91744">
        <ele>538.8</ele>
        <time>2017-01-12 13:32:28</time>
      </trkpt>
      <trkpt lat="44.21361" lon="5.91744">
        <ele>538.8</ele>
        <time>2017-01-12 13:32:29</time>
      </trkpt>
      <trkpt lat="44.21361" lon="5.91744">
        <ele>538.8</ele>
        <time>2017-01-12 13:32:30</time>
      </trkpt>
      <trkpt lat="44.21361" lon="5.91744">
        <ele>538.8</ele>
        <time>2017-01-12 13:32:31</time>
      </trkpt>
      <trkpt lat="44.21356" lon="5.91749">
        <ele>539.3</ele>
        <time>2017-01-12 13:32:32</time>
      </trkpt>
      <trkpt lat="44.21356" lon="5.91749">
        <ele>539.3</ele>
        <time>2017-01-12 13:32:33</time>
      </trkpt>
      <trkpt lat="44.21356" lon="5.91749">
        <ele>539.3</ele>
        <time>2017-01-12 13:32:34</time>
      </trkpt>
      <trkpt lat="44.21356" lon="5.91749">
        <ele>539.3</ele>
        <time>2017-01-12 13:32:35</time>
      </trkpt>
      <trkpt lat="44.21351" lon="5.91752">
        <ele>539.9</ele>
        <time>2017-01-12 13:32:36</time>
      </trkpt>
      <trkpt lat="44.21351" lon="5.91752">
        <ele>539.9</ele>
        <time>2017-01-12 13:32:37</time>
      </trkpt>
      <trkpt lat="44.21351" lon="5.91752">
        <ele>539.9</ele>
        <time>2017-01-12 13:32:38</time>
      </trkpt>
      <trkpt lat="44.21351" lon="5.91752">
        <ele>539.9</ele>
        <time>2017-01-12 13:32:39</time>
      </trkpt>
      <trkpt lat="44.21347" lon="5.91756">
        <ele>540.5</ele>
        <time>2017-01-12 13:32:40</time>
      </trkpt>
      <trkpt lat="44.21347" lon="5.91756">
        <ele>540.5</ele>
        <time>2017-01-12 13:32:41</time>
      </trkpt>
      <trkpt lat="44.21347" lon="5.91756">
        <ele>540.5</ele>
        <time>2017-01-12 13:32:42</time>
      </trkpt>
      <trkpt lat="44.21347" lon="5.91756">
        <ele>540.5</ele>
        <time>2017-01-12 13:32:43</time>
      </trkpt>
      <trkpt lat="44.21342" lon="5.9176">
        <ele>541.1</ele>
        <time>2017-01-12 13:32:44</time>
      </trkpt>
      <trkpt lat="44.21342" lon="5.9176">
        <ele>541.1</ele>
        <time>2017-01-12 13:32:45</time>
      </trkpt>
      <trkpt lat="44.21342" lon="5.9176">
        <ele>541.1</ele>
        <time>2017-01-12 13:32:46</time>
      </trkpt>
      <trkpt lat="44.21342" lon="5.9176">
        <ele>541.1</ele>
        <time>2017-01-12 13:32:47</time>
      </trkpt>
      <trkpt lat="44.21338" lon="5.91763">
        <ele>541.8</ele>
        <time>2017-01-12 13:32:48</time>
      </trkpt>
      <trkpt lat="44.21338" lon="5.91763">
        <ele>541.8</ele>
        <time>2017-01-12 13:32:49</time>
      </trkpt>
      <trkpt lat="44.21338" lon="5.91763">
        <ele>541.8</ele>
        <time>2017-01-12 13:32:50</time>
      </trkpt>
      <trkpt lat="44.21338" lon="5.91763">
        <ele>541.8</ele>
        <time>2017-01-12 13:32:51</time>
      </trkpt>
      <trkpt lat="44.21335" lon="5.91767">
        <ele>542.2</ele>
        <time>2017-01-12 13:32:52</time>
      </trkpt>
      <trkpt lat="44.21335" lon="5.91767">
        <ele>542.2</ele>
        <time>2017-01-12 13:32:53</time>
      </trkpt>
      <trkpt lat="44.21335" lon="5.91767">
        <ele>542.2</ele>
        <time>2017-01-12 13:32:54</time>
      </trkpt>
      <trkpt lat="44.21335" lon="5.91767">
        <ele>542.2</ele>
        <time>2017-01-12 13:32:55</time>
      </trkpt>
      <trkpt lat="44.2133" lon="5.9177">
        <ele>543.1</ele>
        <time>2017-01-12 13:32:56</time>
      </trkpt>
      <trkpt lat="44.2133" lon="5.9177">
        <ele>543.1</ele>
        <time>2017-01-12 13:32:57</time>
      </trkpt>
      <trkpt lat="44.2133" lon="5.9177">
        <ele>543.1</ele>
        <time>2017-01-12 13:32:58</time>
      </trkpt>
      <trkpt lat="44.2133" lon="5.9177">
        <ele>543.1</ele>
        <time>2017-01-12 13:32:59</time>
      </trkpt>
      <trkpt lat="44.21326" lon="5.91774">
        <ele>543.4</ele>
        <time>2017-01-12 13:33:00</time>
      </trkpt>
      <trkpt lat="44.21326" lon="5.91774">
        <ele>543.4</ele>
        <time>2017-01-12 13:33:01</time>
      </trkpt>
      <trkpt lat="44.21326" lon="5.91774">
        <ele>543.4</ele>
        <time>2017-01-12 13:33:02</time>
      </trkpt>
      <trkpt lat="44.21326" lon="5.91774">
        <ele>543.4</ele>
        <time>2017-01-12 13:33:03</time>
      </trkpt>
      <trkpt lat="44.21323" lon="5.91778">
        <ele>543.4</ele>
        <time>2017-01-12 13:33:04</time>
      </trkpt>
      <trkpt lat="44.21323" lon="5.91778">
        <ele>543.4</ele>
        <time>2017-01-12 13:33:05</time>
      </trkpt>
      <trkpt lat="44.21323" lon="5.91778">
        <ele>543.4</ele>
        <time>2017-01-12 13:33:06</time>
      </trkpt>
      <trkpt lat="44.21323" lon="5.91778">
        <ele>543.4</ele>
        <time>2017-01-12 13:33:07</time>
      </trkpt>
      <trkpt lat="44.21319" lon="5.91783">
        <ele>543.1</ele>
        <time>2017-01-12 13:33:08</time>
      </trkpt>
      <trkpt lat="44.21319" lon="5.91783">
        <ele>543.1</ele>
        <time>2017-01-12 13:33:09</time>
      </trkpt>
      <trkpt lat="44.21319" lon="5.91783">
        <ele>543.1</ele>
        <time>2017-01-12 13:33:10</time>
      </trkpt>
      <trkpt lat="44.21319" lon="5.91783">
        <ele>543.1</ele>
        <time>2017-01-12 13:33:11</time>
      </trkpt>
      <trkpt lat="44.21316" lon="5.91788">
        <ele>542.9</ele>
        <time>2017-01-12 13:33:12</time>
      </trkpt>
      <trkpt lat="44.21316" lon="5.91788">
        <ele>542.9</ele>
        <time>2017-01-12 13:33:13</time>
      </trkpt>
      <trkpt lat="44.21316" lon="5.91788">
        <ele>542.9</ele>
        <time>2017-01-12 13:33:14</time>
      </trkpt>
      <trkpt lat="44.21316" lon="5.91788">
        <ele>542.9</ele>
        <time>2017-01-12 13:33:15</time>
      </trkpt>
      <trkpt lat="44.21312" lon="5.91791">
        <ele>544.1</ele>
        <time>2017-01-12 13:33:16</time>
      </trkpt>
      <trkpt lat="44.21312" lon="5.91791">
        <ele>544.1</ele>
        <time>2017-01-12 13:33:17</time>
      </trkpt>
      <trkpt lat="44.21312" lon="5.91791">
        <ele>544.1</ele>
        <time>2017-01-12 13:33:18</time>
      </trkpt>
      <trkpt lat="44.21312" lon="5.91791">
        <ele>544.1</ele>
        <time>2017-01-12 13:33:19</time>
      </trkpt>
      <trkpt lat="44.21308" lon="5.91796">
        <ele>544.7</ele>
        <time>2017-01-12 13:33:20</time>
      </trkpt>
      <trkpt lat="44.21308" lon="5.91796">
        <ele>544.7</ele>
        <time>2017-01-12 13:33:21</time>
      </trkpt>
      <trkpt lat="44.21308" lon="5.91796">
        <ele>544.7</ele>
        <time>2017-01-12 13:33:22</time>
      </trkpt>
      <trkpt lat="44.21308" lon="5.91796">
        <ele>544.7</ele>
        <time>2017-01-12 13:33:23</time>
      </trkpt>
      <trkpt lat="44.21304" lon="5.91801">
        <ele>545.4</ele>
        <time>2017-01-12 13:33:24</time>
      </trkpt>
      <trkpt lat="44.21304" lon="5.91801">
        <ele>545.4</ele>
        <time>2017-01-12 13:33:25</time>
      </trkpt>
      <trkpt lat="44.21304" lon="5.91801">
        <ele>545.4</ele>
        <time>2017-01-12 13:33:26</time>
      </trkpt>
      <trkpt lat="44.21304" lon="5.91801">
        <ele>545.4</ele>
        <time>2017-01-12 13:33:27</time>
      </trkpt>
      <trkpt lat="44.213" lon="5.91806">
        <ele>545.9</ele>
        <time>2017-01-12 13:33:28</time>
      </trkpt>
      <trkpt lat="44.213" lon="5.91806">
        <ele>545.9</ele>
        <time>2017-01-12 13:33:29</time>
      </trkpt>
      <trkpt lat="44.213" lon="5.91806">
        <ele>545.9</ele>
        <time>2017-01-12 13:33:30</time>
      </trkpt>
      <trkpt lat="44.213" lon="5.91806">
        <ele>545.9</ele>
        <time>2017-01-12 13:33:31</time>
      </trkpt>
      <trkpt lat="44.21296" lon="5.91811">
        <ele>546.1</ele>
        <time>2017-01-12 13:33:32</time>
      </trkpt>
      <trkpt lat="44.21296" lon="5.91811">
        <ele>546.1</ele>
        <time>2017-01-12 13:33:33</time>
      </trkpt>
      <trkpt lat="44.21296" lon="5.91811">
        <ele>546.1</ele>
        <time>2017-01-12 13:33:34</time>
      </trkpt>
      <trkpt lat="44.21296" lon="5.91811">
        <ele>546.1</ele>
        <time>2017-01-12 13:33:35</time>
      </trkpt>
      <trkpt lat="44.21291" lon="5.91817">
        <ele>546.5</ele>
        <time>2017-01-12 13:33:36</time>
      </trkpt>
      <trkpt lat="44.21291" lon="5.91817">
        <ele>546.5</ele>
        <time>2017-01-12 13:33:37</time>
      </trkpt>
      <trkpt lat="44.21291" lon="5.91817">
        <ele>546.5</ele>
        <time>2017-01-12 13:33:38</time>
      </trkpt>
      <trkpt lat="44.21291" lon="5.91817">
        <ele>546.5</ele>
        <time>2017-01-12 13:33:39</time>
      </trkpt>
      <trkpt lat="44.21286" lon="5.91821">
        <ele>547.3</ele>
        <time>2017-01-12 13:33:40</time>
      </trkpt>
      <trkpt lat="44.21286" lon="5.91821">
        <ele>547.3</ele>
        <time>2017-01-12 13:33:41</time>
      </trkpt>
      <trkpt lat="44.21286" lon="5.91821">
        <ele>547.3</ele>
        <time>2017-01-12 13:33:42</time>
      </trkpt>
      <trkpt lat="44.21286" lon="5.91821">
        <ele>547.3</ele>
        <time>2017-01-12 13:33:43</time>
      </trkpt>
      <trkpt lat="44.21282" lon="5.91824">
        <ele>548.3</ele>
        <time>2017-01-12 13:33:44</time>
      </trkpt>
      <trkpt lat="44.21282" lon="5.91824">
        <ele>548.3</ele>
        <time>2017-01-12 13:33:45</time>
      </trkpt>
      <trkpt lat="44.21282" lon="5.91824">
        <ele>548.3</ele>
        <time>2017-01-12 13:33:46</time>
      </trkpt>
      <trkpt lat="44.21282" lon="5.91824">
        <ele>548.3</ele>
        <time>2017-01-12 13:33:47</time>
      </trkpt>
      <trkpt lat="44.21278" lon="5.91828">
        <ele>549.5</ele>
        <time>2017-01-12 13:33:48</time>
      </trkpt>
      <trkpt lat="44.21278" lon="5.91828">
        <ele>549.5</ele>
        <time>2017-01-12 13:33:49</time>
      </trkpt>
      <trkpt lat="44.21278" lon="5.91828">
        <ele>549.5</ele>
        <time>2017-01-12 13:33:50</time>
      </trkpt>
      <trkpt lat="44.21278" lon="5.91828">
        <ele>549.5</ele>
        <time>2017-01-12 13:33:51</time>
      </trkpt>
      <trkpt lat="44.21273" lon="5.9183">
        <ele>550</ele>
        <time>2017-01-12 13:33:52</time>
      </trkpt>
      <trkpt lat="44.21273" lon="5.9183">
        <ele>550</ele>
        <time>2017-01-12 13:33:53</time>
      </trkpt>
      <trkpt lat="44.21273" lon="5.9183">
        <ele>550</ele>
        <time>2017-01-12 13:33:54</time>
      </trkpt>
      <trkpt lat="44.21273" lon="5.9183">
        <ele>550</ele>
        <time>2017-01-12 13:33:55</time>
      </trkpt>
      <trkpt lat="44.21269" lon="5.91832">
        <ele>550.5</ele>
        <time>2017-01-12 13:33:56</time>
      </trkpt>
      <trkpt lat="44.21269" lon="5.91832">
        <ele>550.5</ele>
        <time>2017-01-12 13:33:57</time>
      </trkpt>
      <trkpt lat="44.21269" lon="5.91832">
        <ele>550.5</ele>
        <time>2017-01-12 13:33:58</time>
      </trkpt>
      <trkpt lat="44.21269" lon="5.91832">
        <ele>550.5</ele>
        <time>2017-01-12 13:33:59</time>
      </trkpt>
      <trkpt lat="44.21266" lon="5.91836">
        <ele>550.2</ele>
        <time>2017-01-12 13:34:00</time>
      </trkpt>
      <trkpt lat="44.21266" lon="5.91836">
        <ele>550.2</ele>
        <time>2017-01-12 13:34:01</time>
      </trkpt>
      <trkpt lat="44.21266" lon="5.91836">
        <ele>550.2</ele>
        <time>2017-01-12 13:34:02</time>
      </trkpt>
      <trkpt lat="44.21266" lon="5.91836">
        <ele>550.2</ele>
        <time>2017-01-12 13:34:03</time>
      </trkpt>
      <trkpt lat="44.21263" lon="5.91836">
        <ele>550.9</ele>
        <time>2017-01-12 13:34:04</time>
      </trkpt>
      <trkpt lat="44.21263" lon="5.91836">
        <ele>550.9</ele>
        <time>2017-01-12 13:34:05</time>
      </trkpt>
      <trkpt lat="44.21263" lon="5.91836">
        <ele>550.9</ele>
        <time>2017-01-12 13:34:06</time>
      </trkpt>
      <trkpt lat="44.21263" lon="5.91836">
        <ele>550.9</ele>
        <time>2017-01-12 13:34:07</time>
      </trkpt>
      <trkpt lat="44.2126" lon="5.91838">
        <ele>551.1</ele>
        <time>2017-01-12 13:34:08</time>
      </trkpt>
      <trkpt lat="44.2126" lon="5.91838">
        <ele>551.1</ele>
        <time>2017-01-12 13:34:09</time>
      </trkpt>
      <trkpt lat="44.2126" lon="5.91838">
        <ele>551.1</ele>
        <time>2017-01-12 13:34:10</time>
      </trkpt>
      <trkpt lat="44.2126" lon="5.91838">
        <ele>551.1</ele>
        <time>2017-01-12 13:34:11</time>
      </trkpt>
      <trkpt lat="44.21257" lon="5.9184">
        <ele>551.3</ele>
        <time>2017-01-12 13:34:12</time>
      </trkpt>
      <trkpt lat="44.21257" lon="5.9184">
        <ele>551.3</ele>
        <time>2017-01-12 13:34:13</time>
      </trkpt>
      <trkpt lat="44.21257" lon="5.9184">
        <ele>551.3</ele>
        <time>2017-01-12 13:34:14</time>
      </trkpt>
      <trkpt lat="44.21257" lon="5.9184">
        <ele>551.3</ele>
        <time>2017-01-12 13:34:15</time>
      </trkpt>
      <trkpt lat="44.21252" lon="5.91845">
        <ele>551.4</ele>
        <time>2017-01-12 13:34:16</time>
      </trkpt>
      <trkpt lat="44.21252" lon="5.91845">
        <ele>551.4</ele>
        <time>2017-01-12 13:34:17</time>
      </trkpt>
      <trkpt lat="44.21252" lon="5.91845">
        <ele>551.4</ele>
        <time>2017-01-12 13:34:18</time>
      </trkpt>
      <trkpt lat="44.21252" lon="5.91845">
        <ele>551.4</ele>
        <time>2017-01-12 13:34:19</time>
      </trkpt>
      <trkpt lat="44.21247" lon="5.91848">
        <ele>552.2</ele>
        <time>2017-01-12 13:34:20</time>
      </trkpt>
      <trkpt lat="44.21247" lon="5.91848">
        <ele>552.2</ele>
        <time>2017-01-12 13:34:21</time>
      </trkpt>
      <trkpt lat="44.21247" lon="5.91848">
        <ele>552.2</ele>
        <time>2017-01-12 13:34:22</time>
      </trkpt>
      <trkpt lat="44.21247" lon="5.91848">
        <ele>552.2</ele>
        <time>2017-01-12 13:34:23</time>
      </trkpt>
      <trkpt lat="44.21243" lon="5.91853">
        <ele>552.7</ele>
        <time>2017-01-12 13:34:24</time>
      </trkpt>
      <trkpt lat="44.21243" lon="5.91853">
        <ele>552.7</ele>
        <time>2017-01-12 13:34:25</time>
      </trkpt>
      <trkpt lat="44.21243" lon="5.91853">
        <ele>552.7</ele>
        <time>2017-01-12 13:34:26</time>
      </trkpt>
      <trkpt lat="44.21243" lon="5.91853">
        <ele>552.7</ele>
        <time>2017-01-12 13:34:27</time>
      </trkpt>
      <trkpt lat="44.21239" lon="5.91856">
        <ele>553.7</ele>
        <time>2017-01-12 13:34:28</time>
      </trkpt>
      <trkpt lat="44.21239" lon="5.91856">
        <ele>553.7</ele>
        <time>2017-01-12 13:34:29</time>
      </trkpt>
      <trkpt lat="44.21239" lon="5.91856">
        <ele>553.7</ele>
        <time>2017-01-12 13:34:30</time>
      </trkpt>
      <trkpt lat="44.21239" lon="5.91856">
        <ele>553.7</ele>
        <time>2017-01-12 13:34:31</time>
      </trkpt>
      <trkpt lat="44.21234" lon="5.9186">
        <ele>554.5</ele>
        <time>2017-01-12 13:34:32</time>
      </trkpt>
      <trkpt lat="44.21234" lon="5.9186">
        <ele>554.5</ele>
        <time>2017-01-12 13:34:33</time>
      </trkpt>
      <trkpt lat="44.21234" lon="5.9186">
        <ele>554.5</ele>
        <time>2017-01-12 13:34:34</time>
      </trkpt>
      <trkpt lat="44.21234" lon="5.9186">
        <ele>554.5</ele>
        <time>2017-01-12 13:34:35</time>
      </trkpt>
      <trkpt lat="44.21229" lon="5.91865">
        <ele>555.2</ele>
        <time>2017-01-12 13:34:36</time>
      </trkpt>
      <trkpt lat="44.21229" lon="5.91865">
        <ele>555.2</ele>
        <time>2017-01-12 13:34:37</time>
      </trkpt>
      <trkpt lat="44.21229" lon="5.91865">
        <ele>555.2</ele>
        <time>2017-01-12 13:34:38</time>
      </trkpt>
      <trkpt lat="44.21229" lon="5.91865">
        <ele>555.2</ele>
        <time>2017-01-12 13:34:39</time>
      </trkpt>
      <trkpt lat="44.21225" lon="5.9187">
        <ele>555.6</ele>
        <time>2017-01-12 13:34:40</time>
      </trkpt>
      <trkpt lat="44.21225" lon="5.9187">
        <ele>555.6</ele>
        <time>2017-01-12 13:34:41</time>
      </trkpt>
      <trkpt lat="44.21225" lon="5.9187">
        <ele>555.6</ele>
        <time>2017-01-12 13:34:42</time>
      </trkpt>
      <trkpt lat="44.21225" lon="5.9187">
        <ele>555.6</ele>
        <time>2017-01-12 13:34:43</time>
      </trkpt>
      <trkpt lat="44.21221" lon="5.91874">
        <ele>556.3</ele>
        <time>2017-01-12 13:34:44</time>
      </trkpt>
      <trkpt lat="44.21221" lon="5.91874">
        <ele>556.3</ele>
        <time>2017-01-12 13:34:45</time>
      </trkpt>
      <trkpt lat="44.21221" lon="5.91874">
        <ele>556.3</ele>
        <time>2017-01-12 13:34:46</time>
      </trkpt>
      <trkpt lat="44.21221" lon="5.91874">
        <ele>556.3</ele>
        <time>2017-01-12 13:34:47</time>
      </trkpt>
      <trkpt lat="44.21217" lon="5.91877">
        <ele>557.1</ele>
        <time>2017-01-12 13:34:48</time>
      </trkpt>
      <trkpt lat="44.21217" lon="5.91877">
        <ele>557.1</ele>
        <time>2017-01-12 13:34:49</time>
      </trkpt>
      <trkpt lat="44.21217" lon="5.91877">
        <ele>557.1</ele>
        <time>2017-01-12 13:34:50</time>
      </trkpt>
      <trkpt lat="44.21217" lon="5.91877">
        <ele>557.1</ele>
        <time>2017-01-12 13:34:51</time>
      </trkpt>
      <trkpt lat="44.21214" lon="5.91879">
        <ele>557.6</ele>
        <time>2017-01-12 13:34:52</time>
      </trkpt>
      <trkpt lat="44.21214" lon="5.91879">
        <ele>557.6</ele>
        <time>2017-01-12 13:34:53</time>
      </trkpt>
      <trkpt lat="44.21214" lon="5.91879">
        <ele>557.6</ele>
        <time>2017-01-12 13:34:54</time>
      </trkpt>
      <trkpt lat="44.21214" lon="5.91879">
        <ele>557.6</ele>
        <time>2017-01-12 13:34:55</time>
      </trkpt>
      <trkpt lat="44.2121" lon="5.91883">
        <ele>558.3</ele>
        <time>2017-01-12 13:34:56</time>
      </trkpt>
      <trkpt lat="44.2121" lon="5.91883">
        <ele>558.3</ele>
        <time>2017-01-12 13:34:57</time>
      </trkpt>
      <trkpt lat="44.2121" lon="5.91883">
        <ele>558.3</ele>
        <time>2017-01-12 13:34:58</time>
      </trkpt>
      <trkpt lat="44.2121" lon="5.91883">
        <ele>558.3</ele>
        <time>2017-01-12 13:34:59</time>
      </trkpt>
      <trkpt lat="44.21205" lon="5.91887">
        <ele>559.2</ele>
        <time>2017-01-12 13:35:00</time>
      </trkpt>
      <trkpt lat="44.21205" lon="5.91887">
        <ele>559.2</ele>
        <time>2017-01-12 13:35:01</time>
      </trkpt>
      <trkpt lat="44.21205" lon="5.91887">
        <ele>559.2</ele>
        <time>2017-01-12 13:35:02</time>
      </trkpt>
      <trkpt lat="44.21205" lon="5.91887">
        <ele>559.2</ele>
        <time>2017-01-12 13:35:03</time>
      </trkpt>
      <trkpt lat="44.212" lon="5.91892">
        <ele>559.7</ele>
        <time>2017-01-12 13:35:04</time>
      </trkpt>
      <trkpt lat="44.212" lon="5.91892">
        <ele>559.7</ele>
        <time>2017-01-12 13:35:05</time>
      </trkpt>
      <trkpt lat="44.212" lon="5.91892">
        <ele>559.7</ele>
        <time>2017-01-12 13:35:06</time>
      </trkpt>
      <trkpt lat="44.212" lon="5.91892">
        <ele>559.7</ele>
        <time>2017-01-12 13:35:07</time>
      </trkpt>
      <trkpt lat="44.21197" lon="5.91896">
        <ele>560.1</ele>
        <time>2017-01-12 13:35:08</time>
      </trkpt>
      <trkpt lat="44.21197" lon="5.91896">
        <ele>560.1</ele>
        <time>2017-01-12 13:35:09</time>
      </trkpt>
      <trkpt lat="44.21197" lon="5.91896">
        <ele>560.1</ele>
        <time>2017-01-12 13:35:10</time>
      </trkpt>
      <trkpt lat="44.21197" lon="5.91896">
        <ele>560.1</ele>
        <time>2017-01-12 13:35:11</time>
      </trkpt>
      <trkpt lat="44.21193" lon="5.919">
        <ele>560.4</ele>
        <time>2017-01-12 13:35:12</time>
      </trkpt>
      <trkpt lat="44.21193" lon="5.919">
        <ele>560.4</ele>
        <time>2017-01-12 13:35:13</time>
      </trkpt>
      <trkpt lat="44.21193" lon="5.919">
        <ele>560.4</ele>
        <time>2017-01-12 13:35:14</time>
      </trkpt>
      <trkpt lat="44.21193" lon="5.919">
        <ele>560.4</ele>
        <time>2017-01-12 13:35:15</time>
      </trkpt>
      <trkpt lat="44.21189" lon="5.91901">
        <ele>561.2</ele>
        <time>2017-01-12 13:35:16</time>
      </trkpt>
      <trkpt lat="44.21189" lon="5.91901">
        <ele>561.2</ele>
        <time>2017-01-12 13:35:17</time>
      </trkpt>
      <trkpt lat="44.21189" lon="5.91901">
        <ele>561.2</ele>
        <time>2017-01-12 13:35:18</time>
      </trkpt>
      <trkpt lat="44.21189" lon="5.91901">
        <ele>561.2</ele>
        <time>2017-01-12 13:35:19</time>
      </trkpt>
      <trkpt lat="44.21186" lon="5.91904">
        <ele>561.3</ele>
        <time>2017-01-12 13:35:20</time>
      </trkpt>
      <trkpt lat="44.21186" lon="5.91904">
        <ele>561.3</ele>
        <time>2017-01-12 13:35:21</time>
      </trkpt>
      <trkpt lat="44.21186" lon="5.91904">
        <ele>561.3</ele>
        <time>2017-01-12 13:35:22</time>
      </trkpt>
      <trkpt lat="44.21186" lon="5.91904">
        <ele>561.3</ele>
        <time>2017-01-12 13:35:23</time>
      </trkpt>
      <trkpt lat="44.21182" lon="5.91907">
        <ele>562</ele>
        <time>2017-01-12 13:35:24</time>
      </trkpt>
      <trkpt lat="44.21182" lon="5.91907">
        <ele>562</ele>
        <time>2017-01-12 13:35:25</time>
      </trkpt>
      <trkpt lat="44.21182" lon="5.91907">
        <ele>562</ele>
        <time>2017-01-12 13:35:26</time>
      </trkpt>
      <trkpt lat="44.21182" lon="5.91907">
        <ele>562</ele>
        <time>2017-01-12 13:35:27</time>
      </trkpt>
      <trkpt lat="44.21178" lon="5.9191">
        <ele>563</ele>
        <time>2017-01-12 13:35:28</time>
      </trkpt>
      <trkpt lat="44.21178" lon="5.9191">
        <ele>563</ele>
        <time>2017-01-12 13:35:29</time>
      </trkpt>
      <trkpt lat="44.21178" lon="5.9191">
        <ele>563</ele>
        <time>2017-01-12 13:35:30</time>
      </trkpt>
      <trkpt lat="44.21178" lon="5.9191">
        <ele>563</ele>
        <time>2017-01-12 13:35:31</time>
      </trkpt>
      <trkpt lat="44.21174" lon="5.91915">
        <ele>563.4</ele>
        <time>2017-01-12 13:35:32</time>
      </trkpt>
      <trkpt lat="44.21174" lon="5.91915">
        <ele>563.4</ele>
        <time>2017-01-12 13:35:33</time>
      </trkpt>
      <trkpt lat="44.21174" lon="5.91915">
        <ele>563.4</ele>
        <time>2017-01-12 13:35:34</time>
      </trkpt>
      <trkpt lat="44.21174" lon="5.91915">
        <ele>563.4</ele>
        <time>2017-01-12 13:35:35</time>
      </trkpt>
      <trkpt lat="44.21172" lon="5.91919">
        <ele>563.2</ele>
        <time>2017-01-12 13:35:36</time>
      </trkpt>
      <trkpt lat="44.21172" lon="5.91919">
        <ele>563.2</ele>
        <time>2017-01-12 13:35:37</time>
      </trkpt>
      <trkpt lat="44.21172" lon="5.91919">
        <ele>563.2</ele>
        <time>2017-01-12 13:35:38</time>
      </trkpt>
      <trkpt lat="44.21172" lon="5.91919">
        <ele>563.2</ele>
        <time>2017-01-12 13:35:39</time>
      </trkpt>
      <trkpt lat="44.21167" lon="5.91923">
        <ele>564.1</ele>
        <time>2017-01-12 13:35:40</time>
      </trkpt>
      <trkpt lat="44.21167" lon="5.91923">
        <ele>564.1</ele>
        <time>2017-01-12 13:35:41</time>
      </trkpt>
      <trkpt lat="44.21167" lon="5.91923">
        <ele>564.1</ele>
        <time>2017-01-12 13:35:42</time>
      </trkpt>
      <trkpt lat="44.21167" lon="5.91923">
        <ele>564.1</ele>
        <time>2017-01-12 13:35:43</time>
      </trkpt>
      <trkpt lat="44.21162" lon="5.91927">
        <ele>564.6</ele>
        <time>2017-01-12 13:35:44</time>
      </trkpt>
      <trkpt lat="44.21162" lon="5.91927">
        <ele>564.6</ele>
        <time>2017-01-12 13:35:45</time>
      </trkpt>
      <trkpt lat="44.21162" lon="5.91927">
        <ele>564.6</ele>
        <time>2017-01-12 13:35:46</time>
      </trkpt>
      <trkpt lat="44.21162" lon="5.91927">
        <ele>564.6</ele>
        <time>2017-01-12 13:35:47</time>
      </trkpt>
      <trkpt lat="44.21158" lon="5.91931">
        <ele>565</ele>
        <time>2017-01-12 13:35:48</time>
      </trkpt>
      <trkpt lat="44.21158" lon="5.91931">
        <ele>565</ele>
        <time>2017-01-12 13:35:49</time>
      </trkpt>
      <trkpt lat="44.21158" lon="5.91931">
        <ele>565</ele>
        <time>2017-01-12 13:35:50</time>
      </trkpt>
      <trkpt lat="44.21158" lon="5.91931">
        <ele>565</ele>
        <time>2017-01-12 13:35:51</time>
      </trkpt>
      <trkpt lat="44.21153" lon="5.91934">
        <ele>565.8</ele>
        <time>2017-01-12 13:35:52</time>
      </trkpt>
      <trkpt lat="44.21153" lon="5.91934">
        <ele>565.8</ele>
        <time>2017-01-12 13:35:53</time>
      </trkpt>
      <trkpt lat="44.21153" lon="5.91934">
        <ele>565.8</ele>
        <time>2017-01-12 13:35:54</time>
      </trkpt>
      <trkpt lat="44.21153" lon="5.91934">
        <ele>565.8</ele>
        <time>2017-01-12 13:35:55</time>
      </trkpt>
      <trkpt lat="44.2115" lon="5.91939">
        <ele>566.3</ele>
        <time>2017-01-12 13:35:56</time>
      </trkpt>
      <trkpt lat="44.2115" lon="5.91939">
        <ele>566.3</ele>
        <time>2017-01-12 13:35:57</time>
      </trkpt>
      <trkpt lat="44.2115" lon="5.91939">
        <ele>566.3</ele>
        <time>2017-01-12 13:35:58</time>
      </trkpt>
      <trkpt lat="44.2115" lon="5.91939">
        <ele>566.3</ele>
        <time>2017-01-12 13:35:59</time>
      </trkpt>
      <trkpt lat="44.21146" lon="5.91942">
        <ele>567.3</ele>
        <time>2017-01-12 13:36:00</time>
      </trkpt>
      <trkpt lat="44.21146" lon="5.91942">
        <ele>567.3</ele>
        <time>2017-01-12 13:36:01</time>
      </trkpt>
      <trkpt lat="44.21146" lon="5.91942">
        <ele>567.3</ele>
        <time>2017-01-12 13:36:02</time>
      </trkpt>
      <trkpt lat="44.21146" lon="5.91942">
        <ele>567.3</ele>
        <time>2017-01-12 13:36:03</time>
      </trkpt>
      <trkpt lat="44.21142" lon="5.91945">
        <ele>568.7</ele>
        <time>2017-01-12 13:36:04</time>
      </trkpt>
      <trkpt lat="44.21142" lon="5.91945">
        <ele>568.7</ele>
        <time>2017-01-12 13:36:05</time>
      </trkpt>
      <trkpt lat="44.21142" lon="5.91945">
        <ele>568.7</ele>
        <time>2017-01-12 13:36:06</time>
      </trkpt>
      <trkpt lat="44.21142" lon="5.91945">
        <ele>568.7</ele>
        <time>2017-01-12 13:36:07</time>
      </trkpt>
      <trkpt lat="44.21137" lon="5.9195">
        <ele>568.8</ele>
        <time>2017-01-12 13:36:08</time>
      </trkpt>
      <trkpt lat="44.21137" lon="5.9195">
        <ele>568.8</ele>
        <time>2017-01-12 13:36:09</time>
      </trkpt>
      <trkpt lat="44.21137" lon="5.9195">
        <ele>568.8</ele>
        <time>2017-01-12 13:36:10</time>
      </trkpt>
      <trkpt lat="44.21137" lon="5.9195">
        <ele>568.8</ele>
        <time>2017-01-12 13:36:11</time>
      </trkpt>
      <trkpt lat="44.21133" lon="5.91955">
        <ele>568.6</ele>
        <time>2017-01-12 13:36:12</time>
      </trkpt>
      <trkpt lat="44.21133" lon="5.91955">
        <ele>568.6</ele>
        <time>2017-01-12 13:36:13</time>
      </trkpt>
      <trkpt lat="44.21133" lon="5.91955">
        <ele>568.6</ele>
        <time>2017-01-12 13:36:14</time>
      </trkpt>
      <trkpt lat="44.21133" lon="5.91955">
        <ele>568.6</ele>
        <time>2017-01-12 13:36:15</time>
      </trkpt>
      <trkpt lat="44.2113" lon="5.91958">
        <ele>568.6</ele>
        <time>2017-01-12 13:36:16</time>
      </trkpt>
      <trkpt lat="44.2113" lon="5.91958">
        <ele>568.6</ele>
        <time>2017-01-12 13:36:17</time>
      </trkpt>
      <trkpt lat="44.2113" lon="5.91958">
        <ele>568.6</ele>
        <time>2017-01-12 13:36:18</time>
      </trkpt>
      <trkpt lat="44.2113" lon="5.91958">
        <ele>568.6</ele>
        <time>2017-01-12 13:36:19</time>
      </trkpt>
      <trkpt lat="44.21126" lon="5.91963">
        <ele>568.9</ele>
        <time>2017-01-12 13:36:20</time>
      </trkpt>
      <trkpt lat="44.21126" lon="5.91963">
        <ele>568.9</ele>
        <time>2017-01-12 13:36:21</time>
      </trkpt>
      <trkpt lat="44.21126" lon="5.91963">
        <ele>568.9</ele>
        <time>2017-01-12 13:36:22</time>
      </trkpt>
      <trkpt lat="44.21126" lon="5.91963">
        <ele>568.9</ele>
        <time>2017-01-12 13:36:23</time>
      </trkpt>
      <trkpt lat="44.21122" lon="5.91964">
        <ele>570.1</ele>
        <time>2017-01-12 13:36:24</time>
      </trkpt>
      <trkpt lat="44.21122" lon="5.91964">
        <ele>570.1</ele>
        <time>2017-01-12 13:36:25</time>
      </trkpt>
      <trkpt lat="44.21122" lon="5.91964">
        <ele>570.1</ele>
        <time>2017-01-12 13:36:26</time>
      </trkpt>
      <trkpt lat="44.21122" lon="5.91964">
        <ele>570.1</ele>
        <time>2017-01-12 13:36:27</time>
      </trkpt>
      <trkpt lat="44.21118" lon="5.9197">
        <ele>570.5</ele>
        <time>2017-01-12 13:36:28</time>
      </trkpt>
      <trkpt lat="44.21118" lon="5.9197">
        <ele>570.5</ele>
        <time>2017-01-12 13:36:29</time>
      </trkpt>
      <trkpt lat="44.21118" lon="5.9197">
        <ele>570.5</ele>
        <time>2017-01-12 13:36:30</time>
      </trkpt>
      <trkpt lat="44.21118" lon="5.9197">
        <ele>570.5</ele>
        <time>2017-01-12 13:36:31</time>
      </trkpt>
      <trkpt lat="44.21113" lon="5.9197">
        <ele>572.5</ele>
        <time>2017-01-12 13:36:32</time>
      </trkpt>
      <trkpt lat="44.21113" lon="5.9197">
        <ele>572.5</ele>
        <time>2017-01-12 13:36:33</time>
      </trkpt>
      <trkpt lat="44.21113" lon="5.9197">
        <ele>572.5</ele>
        <time>2017-01-12 13:36:34</time>
      </trkpt>
      <trkpt lat="44.21113" lon="5.9197">
        <ele>572.5</ele>
        <time>2017-01-12 13:36:35</time>
      </trkpt>
      <trkpt lat="44.2111" lon="5.91975">
        <ele>572</ele>
        <time>2017-01-12 13:36:36</time>
      </trkpt>
      <trkpt lat="44.2111" lon="5.91975">
        <ele>572</ele>
        <time>2017-01-12 13:36:37</time>
      </trkpt>
      <trkpt lat="44.2111" lon="5.91975">
        <ele>572</ele>
        <time>2017-01-12 13:36:38</time>
      </trkpt>
      <trkpt lat="44.2111" lon="5.91975">
        <ele>572</ele>
        <time>2017-01-12 13:36:39</time>
      </trkpt>
      <trkpt lat="44.21105" lon="5.91975">
        <ele>572.8</ele>
        <time>2017-01-12 13:36:40</time>
      </trkpt>
      <trkpt lat="44.21105" lon="5.91975">
        <ele>572.8</ele>
        <time>2017-01-12 13:36:41</time>
      </trkpt>
      <trkpt lat="44.21105" lon="5.91975">
        <ele>572.8</ele>
        <time>2017-01-12 13:36:42</time>
      </trkpt>
      <trkpt lat="44.21105" lon="5.91975">
        <ele>572.8</ele>
        <time>2017-01-12 13:36:43</time>
      </trkpt>
      <trkpt lat="44.21099" lon="5.91975">
        <ele>573.6</ele>
        <time>2017-01-12 13:36:44</time>
      </trkpt>
      <trkpt lat="44.21099" lon="5.91975">
        <ele>573.6</ele>
        <time>2017-01-12 13:36:45</time>
      </trkpt>
      <trkpt lat="44.21099" lon="5.91975">
        <ele>573.6</ele>
        <time>2017-01-12 13:36:46</time>
      </trkpt>
      <trkpt lat="44.21099" lon="5.91975">
        <ele>573.6</ele>
        <time>2017-01-12 13:36:47</time>
      </trkpt>
      <trkpt lat="44.21096" lon="5.91971">
        <ele>574.6</ele>
        <time>2017-01-12 13:36:48</time>
      </trkpt>
      <trkpt lat="44.21096" lon="5.91971">
        <ele>574.6</ele>
        <time>2017-01-12 13:36:49</time>
      </trkpt>
      <trkpt lat="44.21096" lon="5.91971">
        <ele>574.6</ele>
        <time>2017-01-12 13:36:50</time>
      </trkpt>
      <trkpt lat="44.21096" lon="5.91971">
        <ele>574.6</ele>
        <time>2017-01-12 13:36:51</time>
      </trkpt>
      <trkpt lat="44.21098" lon="5.91965">
        <ele>574.6</ele>
        <time>2017-01-12 13:36:52</time>
      </trkpt>
      <trkpt lat="44.21098" lon="5.91965">
        <ele>574.6</ele>
        <time>2017-01-12 13:36:53</time>
      </trkpt>
      <trkpt lat="44.21098" lon="5.91965">
        <ele>574.6</ele>
        <time>2017-01-12 13:36:54</time>
      </trkpt>
      <trkpt lat="44.21098" lon="5.91965">
        <ele>574.6</ele>
        <time>2017-01-12 13:36:55</time>
      </trkpt>
      <trkpt lat="44.21103" lon="5.9196">
        <ele>574.5</ele>
        <time>2017-01-12 13:36:56</time>
      </trkpt>
      <trkpt lat="44.21103" lon="5.9196">
        <ele>574.5</ele>
        <time>2017-01-12 13:36:57</time>
      </trkpt>
      <trkpt lat="44.21103" lon="5.9196">
        <ele>574.5</ele>
        <time>2017-01-12 13:36:58</time>
      </trkpt>
      <trkpt lat="44.21103" lon="5.9196">
        <ele>574.5</ele>
        <time>2017-01-12 13:36:59</time>
      </trkpt>
      <trkpt lat="44.21108" lon="5.91955">
        <ele>574.4</ele>
        <time>2017-01-12 13:37:00</time>
      </trkpt>
      <trkpt lat="44.21108" lon="5.91955">
        <ele>574.4</ele>
        <time>2017-01-12 13:37:01</time>
      </trkpt>
      <trkpt lat="44.21108" lon="5.91955">
        <ele>574.4</ele>
        <time>2017-01-12 13:37:02</time>
      </trkpt>
      <trkpt lat="44.21108" lon="5.91955">
        <ele>574.4</ele>
        <time>2017-01-12 13:37:03</time>
      </trkpt>
      <trkpt lat="44.21115" lon="5.91949">
        <ele>573.9</ele>
        <time>2017-01-12 13:37:04</time>
      </trkpt>
      <trkpt lat="44.21115" lon="5.91949">
        <ele>573.9</ele>
        <time>2017-01-12 13:37:05</time>
      </trkpt>
      <trkpt lat="44.21115" lon="5.91949">
        <ele>573.9</ele>
        <time>2017-01-12 13:37:06</time>
      </trkpt>
      <trkpt lat="44.21115" lon="5.91949">
        <ele>573.9</ele>
        <time>2017-01-12 13:37:07</time>
      </trkpt>
      <trkpt lat="44.21123" lon="5.91941">
        <ele>572.9</ele>
        <time>2017-01-12 13:37:08</time>
      </trkpt>
      <trkpt lat="44.21123" lon="5.91941">
        <ele>572.9</ele>
        <time>2017-01-12 13:37:09</time>
      </trkpt>
      <trkpt lat="44.21123" lon="5.91941">
        <ele>572.9</ele>
        <time>2017-01-12 13:37:10</time>
      </trkpt>
      <trkpt lat="44.21123" lon="5.91941">
        <ele>572.9</ele>
        <time>2017-01-12 13:37:11</time>
      </trkpt>
      <trkpt lat="44.21133" lon="5.91931">
        <ele>572</ele>
        <time>2017-01-12 13:37:12</time>
      </trkpt>
      <trkpt lat="44.21133" lon="5.91931">
        <ele>572</ele>
        <time>2017-01-12 13:37:13</time>
      </trkpt>
      <trkpt lat="44.21133" lon="5.91931">
        <ele>572</ele>
        <time>2017-01-12 13:37:14</time>
      </trkpt>
      <trkpt lat="44.21133" lon="5.91931">
        <ele>572</ele>
        <time>2017-01-12 13:37:15</time>
      </trkpt>
      <trkpt lat="44.21144" lon="5.91919">
        <ele>571.6</ele>
        <time>2017-01-12 13:37:16</time>
      </trkpt>
      <trkpt lat="44.21144" lon="5.91919">
        <ele>571.6</ele>
        <time>2017-01-12 13:37:17</time>
      </trkpt>
      <trkpt lat="44.21144" lon="5.91919">
        <ele>571.6</ele>
        <time>2017-01-12 13:37:18</time>
      </trkpt>
      <trkpt lat="44.21144" lon="5.91919">
        <ele>571.6</ele>
        <time>2017-01-12 13:37:19</time>
      </trkpt>
      <trkpt lat="44.21155" lon="5.91904">
        <ele>570</ele>
        <time>2017-01-12 13:37:20</time>
      </trkpt>
      <trkpt lat="44.21155" lon="5.91904">
        <ele>570</ele>
        <time>2017-01-12 13:37:21</time>
      </trkpt>
      <trkpt lat="44.21155" lon="5.91904">
        <ele>570</ele>
        <time>2017-01-12 13:37:22</time>
      </trkpt>
      <trkpt lat="44.21155" lon="5.91904">
        <ele>570</ele>
        <time>2017-01-12 13:37:23</time>
      </trkpt>
      <trkpt lat="44.21168" lon="5.91889">
        <ele>570.5</ele>
        <time>2017-01-12 13:37:24</time>
      </trkpt>
      <trkpt lat="44.21168" lon="5.91889">
        <ele>570.5</ele>
        <time>2017-01-12 13:37:25</time>
      </trkpt>
      <trkpt lat="44.21168" lon="5.91889">
        <ele>570.5</ele>
        <time>2017-01-12 13:37:26</time>
      </trkpt>
      <trkpt lat="44.21168" lon="5.91889">
        <ele>570.5</ele>
        <time>2017-01-12 13:37:27</time>
      </trkpt>
      <trkpt lat="44.21181" lon="5.91874">
        <ele>568.4</ele>
        <time>2017-01-12 13:37:28</time>
      </trkpt>
      <trkpt lat="44.21181" lon="5.91874">
        <ele>568.4</ele>
        <time>2017-01-12 13:37:29</time>
      </trkpt>
      <trkpt lat="44.21181" lon="5.91874">
        <ele>568.4</ele>
        <time>2017-01-12 13:37:30</time>
      </trkpt>
      <trkpt lat="44.21181" lon="5.91874">
        <ele>568.4</ele>
        <time>2017-01-12 13:37:31</time>
      </trkpt>
      <trkpt lat="44.21192" lon="5.91858">
        <ele>569.1</ele>
        <time>2017-01-12 13:37:32</time>
      </trkpt>
      <trkpt lat="44.21192" lon="5.91858">
        <ele>569.1</ele>
        <time>2017-01-12 13:37:33</time>
      </trkpt>
      <trkpt lat="44.21192" lon="5.91858">
        <ele>569.1</ele>
        <time>2017-01-12 13:37:34</time>
      </trkpt>
      <trkpt lat="44.21192" lon="5.91858">
        <ele>569.1</ele>
        <time>2017-01-12 13:37:35</time>
      </trkpt>
      <trkpt lat="44.21204" lon="5.9184">
        <ele>567.4</ele>
        <time>2017-01-12 13:37:36</time>
      </trkpt>
      <trkpt lat="44.21204" lon="5.9184">
        <ele>567.4</ele>
        <time>2017-01-12 13:37:37</time>
      </trkpt>
      <trkpt lat="44.21204" lon="5.9184">
        <ele>567.4</ele>
        <time>2017-01-12 13:37:38</time>
      </trkpt>
      <trkpt lat="44.21204" lon="5.9184">
        <ele>567.4</ele>
        <time>2017-01-12 13:37:39</time>
      </trkpt>
      <trkpt lat="44.21216" lon="5.91824">
        <ele>567.3</ele>
        <time>2017-01-12 13:37:40</time>
      </trkpt>
      <trkpt lat="44.21216" lon="5.91824">
        <ele>567.3</ele>
        <time>2017-01-12 13:37:41</time>
      </trkpt>
      <trkpt lat="44.21216" lon="5.91824">
        <ele>567.3</ele>
        <time>2017-01-12 13:37:42</time>
      </trkpt>
      <trkpt lat="44.21216" lon="5.91824">
        <ele>567.3</ele>
        <time>2017-01-12 13:37:43</time>
      </trkpt>
      <trkpt lat="44.21227" lon="5.91808">
        <ele>566.8</ele>
        <time>2017-01-12 13:37:44</time>
      </trkpt>
      <trkpt lat="44.21227" lon="5.91808">
        <ele>566.8</ele>
        <time>2017-01-12 13:37:45</time>
      </trkpt>
      <trkpt lat="44.21227" lon="5.91808">
        <ele>566.8</ele>
        <time>2017-01-12 13:37:46</time>
      </trkpt>
      <trkpt lat="44.21227" lon="5.91808">
        <ele>566.8</ele>
        <time>2017-01-12 13:37:47</time>
      </trkpt>
      <trkpt lat="44.21237" lon="5.91794">
        <ele>566.8</ele>
        <time>2017-01-12 13:37:48</time>
      </trkpt>
      <trkpt lat="44.21237" lon="5.91794">
        <ele>566.8</ele>
        <time>2017-01-12 13:37:49</time>
      </trkpt>
      <trkpt lat="44.21237" lon="5.91794">
        <ele>566.8</ele>
        <time>2017-01-12 13:37:50</time>
      </trkpt>
      <trkpt lat="44.21237" lon="5.91794">
        <ele>566.8</ele>
        <time>2017-01-12 13:37:51</time>
      </trkpt>
      <trkpt lat="44.21246" lon="5.91784">
        <ele>567.8</ele>
        <time>2017-01-12 13:37:52</time>
      </trkpt>
      <trkpt lat="44.21246" lon="5.91784">
        <ele>567.8</ele>
        <time>2017-01-12 13:37:53</time>
      </trkpt>
      <trkpt lat="44.21246" lon="5.91784">
        <ele>567.8</ele>
        <time>2017-01-12 13:37:54</time>
      </trkpt>
      <trkpt lat="44.21246" lon="5.91784">
        <ele>567.8</ele>
        <time>2017-01-12 13:37:55</time>
      </trkpt>
      <trkpt lat="44.21255" lon="5.91774">
        <ele>568.2</ele>
        <time>2017-01-12 13:37:56</time>
      </trkpt>
      <trkpt lat="44.21255" lon="5.91774">
        <ele>568.2</ele>
        <time>2017-01-12 13:37:57</time>
      </trkpt>
      <trkpt lat="44.21255" lon="5.91774">
        <ele>568.2</ele>
        <time>2017-01-12 13:37:58</time>
      </trkpt>
      <trkpt lat="44.21255" lon="5.91774">
        <ele>568.2</ele>
        <time>2017-01-12 13:37:59</time>
      </trkpt>
      <trkpt lat="44.21263" lon="5.91764">
        <ele>567.9</ele>
        <time>2017-01-12 13:38:00</time>
      </trkpt>
      <trkpt lat="44.21263" lon="5.91764">
        <ele>567.9</ele>
        <time>2017-01-12 13:38:01</time>
      </trkpt>
      <trkpt lat="44.21263" lon="5.91764">
        <ele>567.9</ele>
        <time>2017-01-12 13:38:02</time>
      </trkpt>
      <trkpt lat="44.21263" lon="5.91764">
        <ele>567.9</ele>
        <time>2017-01-12 13:38:03</time>
      </trkpt>
      <trkpt lat="44.21271" lon="5.91753">
        <ele>568.7</ele>
        <time>2017-01-12 13:38:04</time>
      </trkpt>
      <trkpt lat="44.21271" lon="5.91753">
        <ele>568.7</ele>
        <time>2017-01-12 13:38:05</time>
      </trkpt>
      <trkpt lat="44.21271" lon="5.91753">
        <ele>568.7</ele>
        <time>2017-01-12 13:38:06</time>
      </trkpt>
      <trkpt lat="44.21271" lon="5.91753">
        <ele>568.7</ele>
        <time>2017-01-12 13:38:07</time>
      </trkpt>
      <trkpt lat="44.21279" lon="5.91743">
        <ele>569.1</ele>
        <time>2017-01-12 13:38:08</time>
      </trkpt>
      <trkpt lat="44.21279" lon="5.91743">
        <ele>569.1</ele>
        <time>2017-01-12 13:38:09</time>
      </trkpt>
      <trkpt lat="44.21279" lon="5.91743">
        <ele>569.1</ele>
        <time>2017-01-12 13:38:10</time>
      </trkpt>
      <trkpt lat="44.21279" lon="5.91743">
        <ele>569.1</ele>
        <time>2017-01-12 13:38:11</time>
      </trkpt>
      <trkpt lat="44.21286" lon="5.91733">
        <ele>568.9</ele>
        <time>2017-01-12 13:38:12</time>
      </trkpt>
      <trkpt lat="44.21286" lon="5.91733">
        <ele>568.9</ele>
        <time>2017-01-12 13:38:13</time>
      </trkpt>
      <trkpt lat="44.21286" lon="5.91733">
        <ele>568.9</ele>
        <time>2017-01-12 13:38:14</time>
      </trkpt>
      <trkpt lat="44.21286" lon="5.91733">
        <ele>568.9</ele>
        <time>2017-01-12 13:38:15</time>
      </trkpt>
      <trkpt lat="44.2129" lon="5.91722">
        <ele>570.2</ele>
        <time>2017-01-12 13:38:16</time>
      </trkpt>
      <trkpt lat="44.2129" lon="5.91722">
        <ele>570.2</ele>
        <time>2017-01-12 13:38:17</time>
      </trkpt>
      <trkpt lat="44.2129" lon="5.91722">
        <ele>570.2</ele>
        <time>2017-01-12 13:38:18</time>
      </trkpt>
      <trkpt lat="44.2129" lon="5.91722">
        <ele>570.2</ele>
        <time>2017-01-12 13:38:19</time>
      </trkpt>
      <trkpt lat="44.21295" lon="5.91712">
        <ele>570.7</ele>
        <time>2017-01-12 13:38:20</time>
      </trkpt>
      <trkpt lat="44.21295" lon="5.91712">
        <ele>570.7</ele>
        <time>2017-01-12 13:38:21</time>
      </trkpt>
      <trkpt lat="44.21295" lon="5.91712">
        <ele>570.7</ele>
        <time>2017-01-12 13:38:22</time>
      </trkpt>
      <trkpt lat="44.21295" lon="5.91712">
        <ele>570.7</ele>
        <time>2017-01-12 13:38:23</time>
      </trkpt>
      <trkpt lat="44.21301" lon="5.91706">
        <ele>571</ele>
        <time>2017-01-12 13:38:24</time>
      </trkpt>
      <trkpt lat="44.21301" lon="5.91706">
        <ele>571</ele>
        <time>2017-01-12 13:38:25</time>
      </trkpt>
      <trkpt lat="44.21301" lon="5.91706">
        <ele>571</ele>
        <time>2017-01-12 13:38:26</time>
      </trkpt>
      <trkpt lat="44.21301" lon="5.91706">
        <ele>571</ele>
        <time>2017-01-12 13:38:27</time>
      </trkpt>
      <trkpt lat="44.21307" lon="5.91699">
        <ele>571.3</ele>
        <time>2017-01-12 13:38:28</time>
      </trkpt>
      <trkpt lat="44.21307" lon="5.91699">
        <ele>571.3</ele>
        <time>2017-01-12 13:38:29</time>
      </trkpt>
      <trkpt lat="44.21307" lon="5.91699">
        <ele>571.3</ele>
        <time>2017-01-12 13:38:30</time>
      </trkpt>
      <trkpt lat="44.21307" lon="5.91699">
        <ele>571.3</ele>
        <time>2017-01-12 13:38:31</time>
      </trkpt>
      <trkpt lat="44.21314" lon="5.91692">
        <ele>571</ele>
        <time>2017-01-12 13:38:32</time>
      </trkpt>
      <trkpt lat="44.21314" lon="5.91692">
        <ele>571</ele>
        <time>2017-01-12 13:38:33</time>
      </trkpt>
      <trkpt lat="44.21314" lon="5.91692">
        <ele>571</ele>
        <time>2017-01-12 13:38:34</time>
      </trkpt>
      <trkpt lat="44.21314" lon="5.91692">
        <ele>571</ele>
        <time>2017-01-12 13:38:35</time>
      </trkpt>
      <trkpt lat="44.21321" lon="5.91683">
        <ele>570.9</ele>
        <time>2017-01-12 13:38:36</time>
      </trkpt>
      <trkpt lat="44.21321" lon="5.91683">
        <ele>570.9</ele>
        <time>2017-01-12 13:38:37</time>
      </trkpt>
      <trkpt lat="44.21321" lon="5.91683">
        <ele>570.9</ele>
        <time>2017-01-12 13:38:38</time>
      </trkpt>
      <trkpt lat="44.21321" lon="5.91683">
        <ele>570.9</ele>
        <time>2017-01-12 13:38:39</time>
      </trkpt>
      <trkpt lat="44.21328" lon="5.91673">
        <ele>571.3</ele>
        <time>2017-01-12 13:38:40</time>
      </trkpt>
      <trkpt lat="44.21328" lon="5.91673">
        <ele>571.3</ele>
        <time>2017-01-12 13:38:41</time>
      </trkpt>
      <trkpt lat="44.21328" lon="5.91673">
        <ele>571.3</ele>
        <time>2017-01-12 13:38:42</time>
      </trkpt>
      <trkpt lat="44.21328" lon="5.91673">
        <ele>571.3</ele>
        <time>2017-01-12 13:38:43</time>
      </trkpt>
      <trkpt lat="44.21336" lon="5.91664">
        <ele>571.5</ele>
        <time>2017-01-12 13:38:44</time>
      </trkpt>
      <trkpt lat="44.21336" lon="5.91664">
        <ele>571.5</ele>
        <time>2017-01-12 13:38:45</time>
      </trkpt>
      <trkpt lat="44.21336" lon="5.91664">
        <ele>571.5</ele>
        <time>2017-01-12 13:38:46</time>
      </trkpt>
      <trkpt lat="44.21336" lon="5.91664">
        <ele>571.5</ele>
        <time>2017-01-12 13:38:47</time>
      </trkpt>
      <trkpt lat="44.21345" lon="5.91655">
        <ele>570.7</ele>
        <time>2017-01-12 13:38:48</time>
      </trkpt>
      <trkpt lat="44.21345" lon="5.91655">
        <ele>570.7</ele>
        <time>2017-01-12 13:38:49</time>
      </trkpt>
      <trkpt lat="44.21345" lon="5.91655">
        <ele>570.7</ele>
        <time>2017-01-12 13:38:50</time>
      </trkpt>
      <trkpt lat="44.21345" lon="5.91655">
        <ele>570.7</ele>
        <time>2017-01-12 13:38:51</time>
      </trkpt>
      <trkpt lat="44.21354" lon="5.91645">
        <ele>570.7</ele>
        <time>2017-01-12 13:38:52</time>
      </trkpt>
      <trkpt lat="44.21354" lon="5.91645">
        <ele>570.7</ele>
        <time>2017-01-12 13:38:53</time>
      </trkpt>
      <trkpt lat="44.21354" lon="5.91645">
        <ele>570.7</ele>
        <time>2017-01-12 13:38:54</time>
      </trkpt>
      <trkpt lat="44.21354" lon="5.91645">
        <ele>570.7</ele>
        <time>2017-01-12 13:38:55</time>
      </trkpt>
      <trkpt lat="44.21364" lon="5.91634">
        <ele>570.4</ele>
        <time>2017-01-12 13:38:56</time>
      </trkpt>
      <trkpt lat="44.21364" lon="5.91634">
        <ele>570.4</ele>
        <time>2017-01-12 13:38:57</time>
      </trkpt>
      <trkpt lat="44.21364" lon="5.91634">
        <ele>570.4</ele>
        <time>2017-01-12 13:38:58</time>
      </trkpt>
      <trkpt lat="44.21364" lon="5.91634">
        <ele>570.4</ele>
        <time>2017-01-12 13:38:59</time>
      </trkpt>
      <trkpt lat="44.21374" lon="5.91623">
        <ele>569.3</ele>
        <time>2017-01-12 13:39:00</time>
      </trkpt>
      <trkpt lat="44.21374" lon="5.91623">
        <ele>569.3</ele>
        <time>2017-01-12 13:39:01</time>
      </trkpt>
      <trkpt lat="44.21374" lon="5.91623">
        <ele>569.3</ele>
        <time>2017-01-12 13:39:02</time>
      </trkpt>
      <trkpt lat="44.21374" lon="5.91623">
        <ele>569.3</ele>
        <time>2017-01-12 13:39:03</time>
      </trkpt>
      <trkpt lat="44.21384" lon="5.9161">
        <ele>570.2</ele>
        <time>2017-01-12 13:39:04</time>
      </trkpt>
      <trkpt lat="44.21384" lon="5.9161">
        <ele>570.2</ele>
        <time>2017-01-12 13:39:05</time>
      </trkpt>
      <trkpt lat="44.21384" lon="5.9161">
        <ele>570.2</ele>
        <time>2017-01-12 13:39:06</time>
      </trkpt>
      <trkpt lat="44.21384" lon="5.9161">
        <ele>570.2</ele>
        <time>2017-01-12 13:39:07</time>
      </trkpt>
      <trkpt lat="44.21394" lon="5.91598">
        <ele>569.7</ele>
        <time>2017-01-12 13:39:08</time>
      </trkpt>
      <trkpt lat="44.21394" lon="5.91598">
        <ele>569.7</ele>
        <time>2017-01-12 13:39:09</time>
      </trkpt>
      <trkpt lat="44.21394" lon="5.91598">
        <ele>569.7</ele>
        <time>2017-01-12 13:39:10</time>
      </trkpt>
      <trkpt lat="44.21394" lon="5.91598">
        <ele>569.7</ele>
        <time>2017-01-12 13:39:11</time>
      </trkpt>
      <trkpt lat="44.21405" lon="5.91585">
        <ele>569.7</ele>
        <time>2017-01-12 13:39:12</time>
      </trkpt>
      <trkpt lat="44.21405" lon="5.91585">
        <ele>569.7</ele>
        <time>2017-01-12 13:39:13</time>
      </trkpt>
      <trkpt lat="44.21405" lon="5.91585">
        <ele>569.7</ele>
        <time>2017-01-12 13:39:14</time>
      </trkpt>
      <trkpt lat="44.21405" lon="5.91585">
        <ele>569.7</ele>
        <time>2017-01-12 13:39:15</time>
      </trkpt>
      <trkpt lat="44.21416" lon="5.9157">
        <ele>569.5</ele>
        <time>2017-01-12 13:39:16</time>
      </trkpt>
      <trkpt lat="44.21416" lon="5.9157">
        <ele>569.5</ele>
        <time>2017-01-12 13:39:17</time>
      </trkpt>
      <trkpt lat="44.21416" lon="5.9157">
        <ele>569.5</ele>
        <time>2017-01-12 13:39:18</time>
      </trkpt>
      <trkpt lat="44.21416" lon="5.9157">
        <ele>569.5</ele>
        <time>2017-01-12 13:39:19</time>
      </trkpt>
      <trkpt lat="44.21426" lon="5.91554">
        <ele>569.4</ele>
        <time>2017-01-12 13:39:20</time>
      </trkpt>
      <trkpt lat="44.21426" lon="5.91554">
        <ele>569.4</ele>
        <time>2017-01-12 13:39:21</time>
      </trkpt>
      <trkpt lat="44.21426" lon="5.91554">
        <ele>569.4</ele>
        <time>2017-01-12 13:39:22</time>
      </trkpt>
      <trkpt lat="44.21426" lon="5.91554">
        <ele>569.4</ele>
        <time>2017-01-12 13:39:23</time>
      </trkpt>
      <trkpt lat="44.21435" lon="5.91537">
        <ele>569.1</ele>
        <time>2017-01-12 13:39:24</time>
      </trkpt>
      <trkpt lat="44.21435" lon="5.91537">
        <ele>569.1</ele>
        <time>2017-01-12 13:39:25</time>
      </trkpt>
      <trkpt lat="44.21435" lon="5.91537">
        <ele>569.1</ele>
        <time>2017-01-12 13:39:26</time>
      </trkpt>
      <trkpt lat="44.21435" lon="5.91537">
        <ele>569.1</ele>
        <time>2017-01-12 13:39:27</time>
      </trkpt>
      <trkpt lat="44.21444" lon="5.91521">
        <ele>569.3</ele>
        <time>2017-01-12 13:39:28</time>
      </trkpt>
      <trkpt lat="44.21444" lon="5.91521">
        <ele>569.3</ele>
        <time>2017-01-12 13:39:29</time>
      </trkpt>
      <trkpt lat="44.21444" lon="5.91521">
        <ele>569.3</ele>
        <time>2017-01-12 13:39:30</time>
      </trkpt>
      <trkpt lat="44.21444" lon="5.91521">
        <ele>569.3</ele>
        <time>2017-01-12 13:39:31</time>
      </trkpt>
      <trkpt lat="44.21452" lon="5.91504">
        <ele>569.3</ele>
        <time>2017-01-12 13:39:32</time>
      </trkpt>
      <trkpt lat="44.21452" lon="5.91504">
        <ele>569.3</ele>
        <time>2017-01-12 13:39:33</time>
      </trkpt>
      <trkpt lat="44.21452" lon="5.91504">
        <ele>569.3</ele>
        <time>2017-01-12 13:39:34</time>
      </trkpt>
      <trkpt lat="44.21452" lon="5.91504">
        <ele>569.3</ele>
        <time>2017-01-12 13:39:35</time>
      </trkpt>
      <trkpt lat="44.21458" lon="5.91488">
        <ele>569.2</ele>
        <time>2017-01-12 13:39:36</time>
      </trkpt>
      <trkpt lat="44.21458" lon="5.91488">
        <ele>569.2</ele>
        <time>2017-01-12 13:39:37</time>
      </trkpt>
      <trkpt lat="44.21458" lon="5.91488">
        <ele>569.2</ele>
        <time>2017-01-12 13:39:38</time>
      </trkpt>
      <trkpt lat="44.21458" lon="5.91488">
        <ele>569.2</ele>
        <time>2017-01-12 13:39:39</time>
      </trkpt>
      <trkpt lat="44.21463" lon="5.91473">
        <ele>569.3</ele>
        <time>2017-01-12 13:39:40</time>
      </trkpt>
      <trkpt lat="44.21463" lon="5.91473">
        <ele>569.3</ele>
        <time>2017-01-12 13:39:41</time>
      </trkpt>
      <trkpt lat="44.21463" lon="5.91473">
        <ele>569.3</ele>
        <time>2017-01-12 13:39:42</time>
      </trkpt>
      <trkpt lat="44.21463" lon="5.91473">
        <ele>569.3</ele>
        <time>2017-01-12 13:39:43</time>
      </trkpt>
      <trkpt lat="44.21468" lon="5.9146">
        <ele>569.8</ele>
        <time>2017-01-12 13:39:44</time>
      </trkpt>
      <trkpt lat="44.21468" lon="5.9146">
        <ele>569.8</ele>
        <time>2017-01-12 13:39:45</time>
      </trkpt>
      <trkpt lat="44.21468" lon="5.9146">
        <ele>569.8</ele>
        <time>2017-01-12 13:39:46</time>
      </trkpt>
      <trkpt lat="44.21468" lon="5.9146">
        <ele>569.8</ele>
        <time>2017-01-12 13:39:47</time>
      </trkpt>
      <trkpt lat="44.21476" lon="5.91452">
        <ele>569.6</ele>
        <time>2017-01-12 13:39:48</time>
      </trkpt>
      <trkpt lat="44.21476" lon="5.91452">
        <ele>569.6</ele>
        <time>2017-01-12 13:39:49</time>
      </trkpt>
      <trkpt lat="44.21476" lon="5.91452">
        <ele>569.6</ele>
        <time>2017-01-12 13:39:50</time>
      </trkpt>
      <trkpt lat="44.21476" lon="5.91452">
        <ele>569.6</ele>
        <time>2017-01-12 13:39:51</time>
      </trkpt>
      <trkpt lat="44.21483" lon="5.91443">
        <ele>569.7</ele>
        <time>2017-01-12 13:39:52</time>
      </trkpt>
      <trkpt lat="44.21483" lon="5.91443">
        <ele>569.7</ele>
        <time>2017-01-12 13:39:53</time>
      </trkpt>
      <trkpt lat="44.21483" lon="5.91443">
        <ele>569.7</ele>
        <time>2017-01-12 13:39:54</time>
      </trkpt>
      <trkpt lat="44.21483" lon="5.91443">
        <ele>569.7</ele>
        <time>2017-01-12 13:39:55</time>
      </trkpt>
      <trkpt lat="44.21491" lon="5.91434">
        <ele>570.4</ele>
        <time>2017-01-12 13:39:56</time>
      </trkpt>
      <trkpt lat="44.21491" lon="5.91434">
        <ele>570.4</ele>
        <time>2017-01-12 13:39:57</time>
      </trkpt>
      <trkpt lat="44.21491" lon="5.91434">
        <ele>570.4</ele>
        <time>2017-01-12 13:39:58</time>
      </trkpt>
      <trkpt lat="44.21491" lon="5.91434">
        <ele>570.4</ele>
        <time>2017-01-12 13:39:59</time>
      </trkpt>
      <trkpt lat="44.21498" lon="5.91423">
        <ele>570.7</ele>
        <time>2017-01-12 13:40:00</time>
      </trkpt>
      <trkpt lat="44.21498" lon="5.91423">
        <ele>570.7</ele>
        <time>2017-01-12 13:40:01</time>
      </trkpt>
      <trkpt lat="44.21498" lon="5.91423">
        <ele>570.7</ele>
        <time>2017-01-12 13:40:02</time>
      </trkpt>
      <trkpt lat="44.21498" lon="5.91423">
        <ele>570.7</ele>
        <time>2017-01-12 13:40:03</time>
      </trkpt>
      <trkpt lat="44.21506" lon="5.91412">
        <ele>571.1</ele>
        <time>2017-01-12 13:40:04</time>
      </trkpt>
      <trkpt lat="44.21506" lon="5.91412">
        <ele>571.1</ele>
        <time>2017-01-12 13:40:05</time>
      </trkpt>
      <trkpt lat="44.21506" lon="5.91412">
        <ele>571.1</ele>
        <time>2017-01-12 13:40:06</time>
      </trkpt>
      <trkpt lat="44.21506" lon="5.91412">
        <ele>571.1</ele>
        <time>2017-01-12 13:40:07</time>
      </trkpt>
      <trkpt lat="44.21514" lon="5.91401">
        <ele>571.4</ele>
        <time>2017-01-12 13:40:08</time>
      </trkpt>
      <trkpt lat="44.21514" lon="5.91401">
        <ele>571.4</ele>
        <time>2017-01-12 13:40:09</time>
      </trkpt>
      <trkpt lat="44.21514" lon="5.91401">
        <ele>571.4</ele>
        <time>2017-01-12 13:40:10</time>
      </trkpt>
      <trkpt lat="44.21514" lon="5.91401">
        <ele>571.4</ele>
        <time>2017-01-12 13:40:11</time>
      </trkpt>
      <trkpt lat="44.21521" lon="5.9139">
        <ele>571.4</ele>
        <time>2017-01-12 13:40:12</time>
      </trkpt>
      <trkpt lat="44.21521" lon="5.9139">
        <ele>571.4</ele>
        <time>2017-01-12 13:40:13</time>
      </trkpt>
      <trkpt lat="44.21521" lon="5.9139">
        <ele>571.4</ele>
        <time>2017-01-12 13:40:14</time>
      </trkpt>
      <trkpt lat="44.21521" lon="5.9139">
        <ele>571.4</ele>
        <time>2017-01-12 13:40:15</time>
      </trkpt>
      <trkpt lat="44.21529" lon="5.9138">
        <ele>571.3</ele>
        <time>2017-01-12 13:40:16</time>
      </trkpt>
      <trkpt lat="44.21529" lon="5.9138">
        <ele>571.3</ele>
        <time>2017-01-12 13:40:17</time>
      </trkpt>
      <trkpt lat="44.21529" lon="5.9138">
        <ele>571.3</ele>
        <time>2017-01-12 13:40:18</time>
      </trkpt>
      <trkpt lat="44.21529" lon="5.9138">
        <ele>571.3</ele>
        <time>2017-01-12 13:40:19</time>
      </trkpt>
      <trkpt lat="44.21536" lon="5.91368">
        <ele>571.2</ele>
        <time>2017-01-12 13:40:20</time>
      </trkpt>
      <trkpt lat="44.21536" lon="5.91368">
        <ele>571.2</ele>
        <time>2017-01-12 13:40:21</time>
      </trkpt>
      <trkpt lat="44.21536" lon="5.91368">
        <ele>571.2</ele>
        <time>2017-01-12 13:40:22</time>
      </trkpt>
      <trkpt lat="44.21536" lon="5.91368">
        <ele>571.2</ele>
        <time>2017-01-12 13:40:23</time>
      </trkpt>
      <trkpt lat="44.21544" lon="5.91356">
        <ele>571.2</ele>
        <time>2017-01-12 13:40:24</time>
      </trkpt>
      <trkpt lat="44.21544" lon="5.91356">
        <ele>571.2</ele>
        <time>2017-01-12 13:40:25</time>
      </trkpt>
      <trkpt lat="44.21544" lon="5.91356">
        <ele>571.2</ele>
        <time>2017-01-12 13:40:26</time>
      </trkpt>
      <trkpt lat="44.21544" lon="5.91356">
        <ele>571.2</ele>
        <time>2017-01-12 13:40:27</time>
      </trkpt>
      <trkpt lat="44.21552" lon="5.91343">
        <ele>571.1</ele>
        <time>2017-01-12 13:40:28</time>
      </trkpt>
      <trkpt lat="44.21552" lon="5.91343">
        <ele>571.1</ele>
        <time>2017-01-12 13:40:29</time>
      </trkpt>
      <trkpt lat="44.21552" lon="5.91343">
        <ele>571.1</ele>
        <time>2017-01-12 13:40:30</time>
      </trkpt>
      <trkpt lat="44.21552" lon="5.91343">
        <ele>571.1</ele>
        <time>2017-01-12 13:40:31</time>
      </trkpt>
      <trkpt lat="44.21559" lon="5.91332">
        <ele>570.9</ele>
        <time>2017-01-12 13:40:32</time>
      </trkpt>
      <trkpt lat="44.21559" lon="5.91332">
        <ele>570.9</ele>
        <time>2017-01-12 13:40:33</time>
      </trkpt>
      <trkpt lat="44.21559" lon="5.91332">
        <ele>570.9</ele>
        <time>2017-01-12 13:40:34</time>
      </trkpt>
      <trkpt lat="44.21559" lon="5.91332">
        <ele>570.9</ele>
        <time>2017-01-12 13:40:35</time>
      </trkpt>
      <trkpt lat="44.21566" lon="5.91321">
        <ele>571</ele>
        <time>2017-01-12 13:40:36</time>
      </trkpt>
      <trkpt lat="44.21566" lon="5.91321">
        <ele>571</ele>
        <time>2017-01-12 13:40:37</time>
      </trkpt>
      <trkpt lat="44.21566" lon="5.91321">
        <ele>571</ele>
        <time>2017-01-12 13:40:38</time>
      </trkpt>
      <trkpt lat="44.21566" lon="5.91321">
        <ele>571</ele>
        <time>2017-01-12 13:40:39</time>
      </trkpt>
      <trkpt lat="44.21573" lon="5.91309">
        <ele>570.9</ele>
        <time>2017-01-12 13:40:40</time>
      </trkpt>
      <trkpt lat="44.21573" lon="5.91309">
        <ele>570.9</ele>
        <time>2017-01-12 13:40:41</time>
      </trkpt>
      <trkpt lat="44.21573" lon="5.91309">
        <ele>570.9</ele>
        <time>2017-01-12 13:40:42</time>
      </trkpt>
      <trkpt lat="44.21573" lon="5.91309">
        <ele>570.9</ele>
        <time>2017-01-12 13:40:43</time>
      </trkpt>
      <trkpt lat="44.2158" lon="5.91297">
        <ele>570.7</ele>
        <time>2017-01-12 13:40:44</time>
      </trkpt>
      <trkpt lat="44.2158" lon="5.91297">
        <ele>570.7</ele>
        <time>2017-01-12 13:40:45</time>
      </trkpt>
      <trkpt lat="44.2158" lon="5.91297">
        <ele>570.7</ele>
        <time>2017-01-12 13:40:46</time>
      </trkpt>
      <trkpt lat="44.2158" lon="5.91297">
        <ele>570.7</ele>
        <time>2017-01-12 13:40:47</time>
      </trkpt>
      <trkpt lat="44.21588" lon="5.91283">
        <ele>570.4</ele>
        <time>2017-01-12 13:40:48</time>
      </trkpt>
      <trkpt lat="44.21588" lon="5.91283">
        <ele>570.4</ele>
        <time>2017-01-12 13:40:49</time>
      </trkpt>
      <trkpt lat="44.21588" lon="5.91283">
        <ele>570.4</ele>
        <time>2017-01-12 13:40:50</time>
      </trkpt>
      <trkpt lat="44.21588" lon="5.91283">
        <ele>570.4</ele>
        <time>2017-01-12 13:40:51</time>
      </trkpt>
      <trkpt lat="44.21594" lon="5.9127">
        <ele>570.5</ele>
        <time>2017-01-12 13:40:52</time>
      </trkpt>
      <trkpt lat="44.21594" lon="5.9127">
        <ele>570.5</ele>
        <time>2017-01-12 13:40:53</time>
      </trkpt>
      <trkpt lat="44.21594" lon="5.9127">
        <ele>570.5</ele>
        <time>2017-01-12 13:40:54</time>
      </trkpt>
      <trkpt lat="44.21594" lon="5.9127">
        <ele>570.5</ele>
        <time>2017-01-12 13:40:55</time>
      </trkpt>
      <trkpt lat="44.21601" lon="5.91256">
        <ele>570.5</ele>
        <time>2017-01-12 13:40:56</time>
      </trkpt>
      <trkpt lat="44.21601" lon="5.91256">
        <ele>570.5</ele>
        <time>2017-01-12 13:40:57</time>
      </trkpt>
      <trkpt lat="44.21601" lon="5.91256">
        <ele>570.5</ele>
        <time>2017-01-12 13:40:58</time>
      </trkpt>
      <trkpt lat="44.21601" lon="5.91256">
        <ele>570.5</ele>
        <time>2017-01-12 13:40:59</time>
      </trkpt>
      <trkpt lat="44.21608" lon="5.91242">
        <ele>569.9</ele>
        <time>2017-01-12 13:41:00</time>
      </trkpt>
      <trkpt lat="44.21608" lon="5.91242">
        <ele>569.9</ele>
        <time>2017-01-12 13:41:01</time>
      </trkpt>
      <trkpt lat="44.21608" lon="5.91242">
        <ele>569.9</ele>
        <time>2017-01-12 13:41:02</time>
      </trkpt>
      <trkpt lat="44.21608" lon="5.91242">
        <ele>569.9</ele>
        <time>2017-01-12 13:41:03</time>
      </trkpt>
      <trkpt lat="44.21615" lon="5.91227">
        <ele>569.6</ele>
        <time>2017-01-12 13:41:04</time>
      </trkpt>
      <trkpt lat="44.21615" lon="5.91227">
        <ele>569.6</ele>
        <time>2017-01-12 13:41:05</time>
      </trkpt>
      <trkpt lat="44.21615" lon="5.91227">
        <ele>569.6</ele>
        <time>2017-01-12 13:41:06</time>
      </trkpt>
      <trkpt lat="44.21615" lon="5.91227">
        <ele>569.6</ele>
        <time>2017-01-12 13:41:07</time>
      </trkpt>
      <trkpt lat="44.21622" lon="5.91212">
        <ele>569.7</ele>
        <time>2017-01-12 13:41:08</time>
      </trkpt>
      <trkpt lat="44.21622" lon="5.91212">
        <ele>569.7</ele>
        <time>2017-01-12 13:41:09</time>
      </trkpt>
      <trkpt lat="44.21622" lon="5.91212">
        <ele>569.7</ele>
        <time>2017-01-12 13:41:10</time>
      </trkpt>
      <trkpt lat="44.21622" lon="5.91212">
        <ele>569.7</ele>
        <time>2017-01-12 13:41:11</time>
      </trkpt>
      <trkpt lat="44.21629" lon="5.91196">
        <ele>569.4</ele>
        <time>2017-01-12 13:41:12</time>
      </trkpt>
      <trkpt lat="44.21629" lon="5.91196">
        <ele>569.4</ele>
        <time>2017-01-12 13:41:13</time>
      </trkpt>
      <trkpt lat="44.21629" lon="5.91196">
        <ele>569.4</ele>
        <time>2017-01-12 13:41:14</time>
      </trkpt>
      <trkpt lat="44.21629" lon="5.91196">
        <ele>569.4</ele>
        <time>2017-01-12 13:41:15</time>
      </trkpt>
      <trkpt lat="44.21636" lon="5.91179">
        <ele>568.6</ele>
        <time>2017-01-12 13:41:16</time>
      </trkpt>
      <trkpt lat="44.21636" lon="5.91179">
        <ele>568.6</ele>
        <time>2017-01-12 13:41:17</time>
      </trkpt>
      <trkpt lat="44.21636" lon="5.91179">
        <ele>568.6</ele>
        <time>2017-01-12 13:41:18</time>
      </trkpt>
      <trkpt lat="44.21636" lon="5.91179">
        <ele>568.6</ele>
        <time>2017-01-12 13:41:19</time>
      </trkpt>
      <trkpt lat="44.21643" lon="5.91161">
        <ele>567.9</ele>
        <time>2017-01-12 13:41:20</time>
      </trkpt>
      <trkpt lat="44.21643" lon="5.91161">
        <ele>567.9</ele>
        <time>2017-01-12 13:41:21</time>
      </trkpt>
      <trkpt lat="44.21643" lon="5.91161">
        <ele>567.9</ele>
        <time>2017-01-12 13:41:22</time>
      </trkpt>
      <trkpt lat="44.21643" lon="5.91161">
        <ele>567.9</ele>
        <time>2017-01-12 13:41:23</time>
      </trkpt>
      <trkpt lat="44.21648" lon="5.91144">
        <ele>567.9</ele>
        <time>2017-01-12 13:41:24</time>
      </trkpt>
      <trkpt lat="44.21648" lon="5.91144">
        <ele>567.9</ele>
        <time>2017-01-12 13:41:25</time>
      </trkpt>
      <trkpt lat="44.21648" lon="5.91144">
        <ele>567.9</ele>
        <time>2017-01-12 13:41:26</time>
      </trkpt>
      <trkpt lat="44.21648" lon="5.91144">
        <ele>567.9</ele>
        <time>2017-01-12 13:41:27</time>
      </trkpt>
      <trkpt lat="44.21653" lon="5.91126">
        <ele>568.4</ele>
        <time>2017-01-12 13:41:28</time>
      </trkpt>
      <trkpt lat="44.21653" lon="5.91126">
        <ele>568.4</ele>
        <time>2017-01-12 13:41:29</time>
      </trkpt>
      <trkpt lat="44.21653" lon="5.91126">
        <ele>568.4</ele>
        <time>2017-01-12 13:41:30</time>
      </trkpt>
      <trkpt lat="44.21653" lon="5.91126">
        <ele>568.4</ele>
        <time>2017-01-12 13:41:31</time>
      </trkpt>
      <trkpt lat="44.21657" lon="5.91109">
        <ele>568.8</ele>
        <time>2017-01-12 13:41:32</time>
      </trkpt>
      <trkpt lat="44.21657" lon="5.91109">
        <ele>568.8</ele>
        <time>2017-01-12 13:41:33</time>
      </trkpt>
      <trkpt lat="44.21657" lon="5.91109">
        <ele>568.8</ele>
        <time>2017-01-12 13:41:34</time>
      </trkpt>
      <trkpt lat="44.21657" lon="5.91109">
        <ele>568.8</ele>
        <time>2017-01-12 13:41:35</time>
      </trkpt>
      <trkpt lat="44.21663" lon="5.91091">
        <ele>568.6</ele>
        <time>2017-01-12 13:41:36</time>
      </trkpt>
      <trkpt lat="44.21663" lon="5.91091">
        <ele>568.6</ele>
        <time>2017-01-12 13:41:37</time>
      </trkpt>
      <trkpt lat="44.21663" lon="5.91091">
        <ele>568.6</ele>
        <time>2017-01-12 13:41:38</time>
      </trkpt>
      <trkpt lat="44.21663" lon="5.91091">
        <ele>568.6</ele>
        <time>2017-01-12 13:41:39</time>
      </trkpt>
      <trkpt lat="44.21668" lon="5.91073">
        <ele>567.9</ele>
        <time>2017-01-12 13:41:40</time>
      </trkpt>
      <trkpt lat="44.21668" lon="5.91073">
        <ele>567.9</ele>
        <time>2017-01-12 13:41:41</time>
      </trkpt>
      <trkpt lat="44.21668" lon="5.91073">
        <ele>567.9</ele>
        <time>2017-01-12 13:41:42</time>
      </trkpt>
      <trkpt lat="44.21668" lon="5.91073">
        <ele>567.9</ele>
        <time>2017-01-12 13:41:43</time>
      </trkpt>
      <trkpt lat="44.21673" lon="5.91055">
        <ele>567.6</ele>
        <time>2017-01-12 13:41:44</time>
      </trkpt>
      <trkpt lat="44.21673" lon="5.91055">
        <ele>567.6</ele>
        <time>2017-01-12 13:41:45</time>
      </trkpt>
      <trkpt lat="44.21673" lon="5.91055">
        <ele>567.6</ele>
        <time>2017-01-12 13:41:46</time>
      </trkpt>
      <trkpt lat="44.21673" lon="5.91055">
        <ele>567.6</ele>
        <time>2017-01-12 13:41:47</time>
      </trkpt>
      <trkpt lat="44.21678" lon="5.91036">
        <ele>567.9</ele>
        <time>2017-01-12 13:41:48</time>
      </trkpt>
      <trkpt lat="44.21678" lon="5.91036">
        <ele>567.9</ele>
        <time>2017-01-12 13:41:49</time>
      </trkpt>
      <trkpt lat="44.21678" lon="5.91036">
        <ele>567.9</ele>
        <time>2017-01-12 13:41:50</time>
      </trkpt>
      <trkpt lat="44.21678" lon="5.91036">
        <ele>567.9</ele>
        <time>2017-01-12 13:41:51</time>
      </trkpt>
      <trkpt lat="44.21683" lon="5.91018">
        <ele>568.3</ele>
        <time>2017-01-12 13:41:52</time>
      </trkpt>
      <trkpt lat="44.21683" lon="5.91018">
        <ele>568.3</ele>
        <time>2017-01-12 13:41:53</time>
      </trkpt>
      <trkpt lat="44.21683" lon="5.91018">
        <ele>568.3</ele>
        <time>2017-01-12 13:41:54</time>
      </trkpt>
      <trkpt lat="44.21683" lon="5.91018">
        <ele>568.3</ele>
        <time>2017-01-12 13:41:55</time>
      </trkpt>
      <trkpt lat="44.21687" lon="5.91">
        <ele>568.4</ele>
        <time>2017-01-12 13:41:56</time>
      </trkpt>
      <trkpt lat="44.21687" lon="5.91">
        <ele>568.4</ele>
        <time>2017-01-12 13:41:57</time>
      </trkpt>
      <trkpt lat="44.21687" lon="5.91">
        <ele>568.4</ele>
        <time>2017-01-12 13:41:58</time>
      </trkpt>
      <trkpt lat="44.21687" lon="5.91">
        <ele>568.4</ele>
        <time>2017-01-12 13:41:59</time>
      </trkpt>
      <trkpt lat="44.21689" lon="5.9098">
        <ele>568.4</ele>
        <time>2017-01-12 13:42:00</time>
      </trkpt>
      <trkpt lat="44.21689" lon="5.9098">
        <ele>568.4</ele>
        <time>2017-01-12 13:42:01</time>
      </trkpt>
      <trkpt lat="44.21689" lon="5.9098">
        <ele>568.4</ele>
        <time>2017-01-12 13:42:02</time>
      </trkpt>
      <trkpt lat="44.21689" lon="5.9098">
        <ele>568.4</ele>
        <time>2017-01-12 13:42:03</time>
      </trkpt>
      <trkpt lat="44.21689" lon="5.90962">
        <ele>569</ele>
        <time>2017-01-12 13:42:04</time>
      </trkpt>
      <trkpt lat="44.21689" lon="5.90962">
        <ele>569</ele>
        <time>2017-01-12 13:42:05</time>
      </trkpt>
      <trkpt lat="44.21689" lon="5.90962">
        <ele>569</ele>
        <time>2017-01-12 13:42:06</time>
      </trkpt>
      <trkpt lat="44.21689" lon="5.90962">
        <ele>569</ele>
        <time>2017-01-12 13:42:07</time>
      </trkpt>
      <trkpt lat="44.21689" lon="5.90947">
        <ele>569.5</ele>
        <time>2017-01-12 13:42:08</time>
      </trkpt>
      <trkpt lat="44.21689" lon="5.90947">
        <ele>569.5</ele>
        <time>2017-01-12 13:42:09</time>
      </trkpt>
      <trkpt lat="44.21689" lon="5.90947">
        <ele>569.5</ele>
        <time>2017-01-12 13:42:10</time>
      </trkpt>
      <trkpt lat="44.21689" lon="5.90947">
        <ele>569.5</ele>
        <time>2017-01-12 13:42:11</time>
      </trkpt>
      <trkpt lat="44.2169" lon="5.90933">
        <ele>569.4</ele>
        <time>2017-01-12 13:42:12</time>
      </trkpt>
      <trkpt lat="44.2169" lon="5.90933">
        <ele>569.4</ele>
        <time>2017-01-12 13:42:13</time>
      </trkpt>
      <trkpt lat="44.2169" lon="5.90933">
        <ele>569.4</ele>
        <time>2017-01-12 13:42:14</time>
      </trkpt>
      <trkpt lat="44.2169" lon="5.90933">
        <ele>569.4</ele>
        <time>2017-01-12 13:42:15</time>
      </trkpt>
      <trkpt lat="44.21692" lon="5.90918">
        <ele>569.3</ele>
        <time>2017-01-12 13:42:16</time>
      </trkpt>
      <trkpt lat="44.21692" lon="5.90918">
        <ele>569.3</ele>
        <time>2017-01-12 13:42:17</time>
      </trkpt>
      <trkpt lat="44.21692" lon="5.90918">
        <ele>569.3</ele>
        <time>2017-01-12 13:42:18</time>
      </trkpt>
      <trkpt lat="44.21692" lon="5.90918">
        <ele>569.3</ele>
        <time>2017-01-12 13:42:19</time>
      </trkpt>
      <trkpt lat="44.21695" lon="5.90906">
        <ele>569.8</ele>
        <time>2017-01-12 13:42:20</time>
      </trkpt>
      <trkpt lat="44.21695" lon="5.90906">
        <ele>569.8</ele>
        <time>2017-01-12 13:42:21</time>
      </trkpt>
      <trkpt lat="44.21695" lon="5.90906">
        <ele>569.8</ele>
        <time>2017-01-12 13:42:22</time>
      </trkpt>
      <trkpt lat="44.21695" lon="5.90906">
        <ele>569.8</ele>
        <time>2017-01-12 13:42:23</time>
      </trkpt>
      <trkpt lat="44.21696" lon="5.90895">
        <ele>570.4</ele>
        <time>2017-01-12 13:42:24</time>
      </trkpt>
      <trkpt lat="44.21696" lon="5.90895">
        <ele>570.4</ele>
        <time>2017-01-12 13:42:25</time>
      </trkpt>
      <trkpt lat="44.21696" lon="5.90895">
        <ele>570.4</ele>
        <time>2017-01-12 13:42:26</time>
      </trkpt>
      <trkpt lat="44.21696" lon="5.90895">
        <ele>570.4</ele>
        <time>2017-01-12 13:42:27</time>
      </trkpt>
      <trkpt lat="44.21698" lon="5.90884">
        <ele>571</ele>
        <time>2017-01-12 13:42:28</time>
      </trkpt>
      <trkpt lat="44.21698" lon="5.90884">
        <ele>571</ele>
        <time>2017-01-12 13:42:29</time>
      </trkpt>
      <trkpt lat="44.21698" lon="5.90884">
        <ele>571</ele>
        <time>2017-01-12 13:42:30</time>
      </trkpt>
      <trkpt lat="44.21698" lon="5.90884">
        <ele>571</ele>
        <time>2017-01-12 13:42:31</time>
      </trkpt>
      <trkpt lat="44.21699" lon="5.90873">
        <ele>571.6</ele>
        <time>2017-01-12 13:42:32</time>
      </trkpt>
      <trkpt lat="44.21699" lon="5.90873">
        <ele>571.6</ele>
        <time>2017-01-12 13:42:33</time>
      </trkpt>
      <trkpt lat="44.21699" lon="5.90873">
        <ele>571.6</ele>
        <time>2017-01-12 13:42:34</time>
      </trkpt>
      <trkpt lat="44.21699" lon="5.90873">
        <ele>571.6</ele>
        <time>2017-01-12 13:42:35</time>
      </trkpt>
      <trkpt lat="44.21701" lon="5.90862">
        <ele>572.2</ele>
        <time>2017-01-12 13:42:36</time>
      </trkpt>
      <trkpt lat="44.21701" lon="5.90862">
        <ele>572.2</ele>
        <time>2017-01-12 13:42:37</time>
      </trkpt>
      <trkpt lat="44.21701" lon="5.90862">
        <ele>572.2</ele>
        <time>2017-01-12 13:42:38</time>
      </trkpt>
      <trkpt lat="44.21701" lon="5.90862">
        <ele>572.2</ele>
        <time>2017-01-12 13:42:39</time>
      </trkpt>
      <trkpt lat="44.21703" lon="5.90853">
        <ele>572.8</ele>
        <time>2017-01-12 13:42:40</time>
      </trkpt>
      <trkpt lat="44.21703" lon="5.90853">
        <ele>572.8</ele>
        <time>2017-01-12 13:42:41</time>
      </trkpt>
      <trkpt lat="44.21703" lon="5.90853">
        <ele>572.8</ele>
        <time>2017-01-12 13:42:42</time>
      </trkpt>
      <trkpt lat="44.21703" lon="5.90853">
        <ele>572.8</ele>
        <time>2017-01-12 13:42:43</time>
      </trkpt>
      <trkpt lat="44.21706" lon="5.90843">
        <ele>573.3</ele>
        <time>2017-01-12 13:42:44</time>
      </trkpt>
      <trkpt lat="44.21706" lon="5.90843">
        <ele>573.3</ele>
        <time>2017-01-12 13:42:45</time>
      </trkpt>
      <trkpt lat="44.21706" lon="5.90843">
        <ele>573.3</ele>
        <time>2017-01-12 13:42:46</time>
      </trkpt>
      <trkpt lat="44.21706" lon="5.90843">
        <ele>573.3</ele>
        <time>2017-01-12 13:42:47</time>
      </trkpt>
      <trkpt lat="44.21709" lon="5.90834">
        <ele>573.9</ele>
        <time>2017-01-12 13:42:48</time>
      </trkpt>
      <trkpt lat="44.21709" lon="5.90834">
        <ele>573.9</ele>
        <time>2017-01-12 13:42:49</time>
      </trkpt>
      <trkpt lat="44.21709" lon="5.90834">
        <ele>573.9</ele>
        <time>2017-01-12 13:42:50</time>
      </trkpt>
      <trkpt lat="44.21709" lon="5.90834">
        <ele>573.9</ele>
        <time>2017-01-12 13:42:51</time>
      </trkpt>
      <trkpt lat="44.21713" lon="5.90826">
        <ele>574.2</ele>
        <time>2017-01-12 13:42:52</time>
      </trkpt>
      <trkpt lat="44.21713" lon="5.90826">
        <ele>574.2</ele>
        <time>2017-01-12 13:42:53</time>
      </trkpt>
      <trkpt lat="44.21713" lon="5.90826">
        <ele>574.2</ele>
        <time>2017-01-12 13:42:54</time>
      </trkpt>
      <trkpt lat="44.21713" lon="5.90826">
        <ele>574.2</ele>
        <time>2017-01-12 13:42:55</time>
      </trkpt>
      <trkpt lat="44.21716" lon="5.90818">
        <ele>574.8</ele>
        <time>2017-01-12 13:42:56</time>
      </trkpt>
      <trkpt lat="44.21716" lon="5.90818">
        <ele>574.8</ele>
        <time>2017-01-12 13:42:57</time>
      </trkpt>
      <trkpt lat="44.21716" lon="5.90818">
        <ele>574.8</ele>
        <time>2017-01-12 13:42:58</time>
      </trkpt>
      <trkpt lat="44.21716" lon="5.90818">
        <ele>574.8</ele>
        <time>2017-01-12 13:42:59</time>
      </trkpt>
      <trkpt lat="44.21719" lon="5.9081">
        <ele>575.5</ele>
        <time>2017-01-12 13:43:00</time>
      </trkpt>
      <trkpt lat="44.21719" lon="5.9081">
        <ele>575.5</ele>
        <time>2017-01-12 13:43:01</time>
      </trkpt>
      <trkpt lat="44.21719" lon="5.9081">
        <ele>575.5</ele>
        <time>2017-01-12 13:43:02</time>
      </trkpt>
      <trkpt lat="44.21719" lon="5.9081">
        <ele>575.5</ele>
        <time>2017-01-12 13:43:03</time>
      </trkpt>
      <trkpt lat="44.21723" lon="5.90802">
        <ele>575.9</ele>
        <time>2017-01-12 13:43:04</time>
      </trkpt>
      <trkpt lat="44.21723" lon="5.90802">
        <ele>575.9</ele>
        <time>2017-01-12 13:43:05</time>
      </trkpt>
      <trkpt lat="44.21723" lon="5.90802">
        <ele>575.9</ele>
        <time>2017-01-12 13:43:06</time>
      </trkpt>
      <trkpt lat="44.21723" lon="5.90802">
        <ele>575.9</ele>
        <time>2017-01-12 13:43:07</time>
      </trkpt>
      <trkpt lat="44.21726" lon="5.90794">
        <ele>575.4</ele>
        <time>2017-01-12 13:43:08</time>
      </trkpt>
      <trkpt lat="44.21726" lon="5.90794">
        <ele>575.4</ele>
        <time>2017-01-12 13:43:09</time>
      </trkpt>
      <trkpt lat="44.21726" lon="5.90794">
        <ele>575.4</ele>
        <time>2017-01-12 13:43:10</time>
      </trkpt>
      <trkpt lat="44.21726" lon="5.90794">
        <ele>575.4</ele>
        <time>2017-01-12 13:43:11</time>
      </trkpt>
      <trkpt lat="44.2173" lon="5.90785">
        <ele>575.1</ele>
        <time>2017-01-12 13:43:12</time>
      </trkpt>
      <trkpt lat="44.2173" lon="5.90785">
        <ele>575.1</ele>
        <time>2017-01-12 13:43:13</time>
      </trkpt>
      <trkpt lat="44.2173" lon="5.90785">
        <ele>575.1</ele>
        <time>2017-01-12 13:43:14</time>
      </trkpt>
      <trkpt lat="44.2173" lon="5.90785">
        <ele>575.1</ele>
        <time>2017-01-12 13:43:15</time>
      </trkpt>
      <trkpt lat="44.21733" lon="5.90775">
        <ele>574.9</ele>
        <time>2017-01-12 13:43:16</time>
      </trkpt>
      <trkpt lat="44.21733" lon="5.90775">
        <ele>574.9</ele>
        <time>2017-01-12 13:43:17</time>
      </trkpt>
      <trkpt lat="44.21733" lon="5.90775">
        <ele>574.9</ele>
        <time>2017-01-12 13:43:18</time>
      </trkpt>
      <trkpt lat="44.21733" lon="5.90775">
        <ele>574.9</ele>
        <time>2017-01-12 13:43:19</time>
      </trkpt>
      <trkpt lat="44.21736" lon="5.90766">
        <ele>574.7</ele>
        <time>2017-01-12 13:43:20</time>
      </trkpt>
      <trkpt lat="44.21736" lon="5.90766">
        <ele>574.7</ele>
        <time>2017-01-12 13:43:21</time>
      </trkpt>
      <trkpt lat="44.21736" lon="5.90766">
        <ele>574.7</ele>
        <time>2017-01-12 13:43:22</time>
      </trkpt>
      <trkpt lat="44.21736" lon="5.90766">
        <ele>574.7</ele>
        <time>2017-01-12 13:43:23</time>
      </trkpt>
      <trkpt lat="44.2174" lon="5.90756">
        <ele>574.8</ele>
        <time>2017-01-12 13:43:24</time>
      </trkpt>
      <trkpt lat="44.2174" lon="5.90756">
        <ele>574.8</ele>
        <time>2017-01-12 13:43:25</time>
      </trkpt>
      <trkpt lat="44.2174" lon="5.90756">
        <ele>574.8</ele>
        <time>2017-01-12 13:43:26</time>
      </trkpt>
      <trkpt lat="44.2174" lon="5.90756">
        <ele>574.8</ele>
        <time>2017-01-12 13:43:27</time>
      </trkpt>
      <trkpt lat="44.21743" lon="5.90745">
        <ele>575.2</ele>
        <time>2017-01-12 13:43:28</time>
      </trkpt>
      <trkpt lat="44.21743" lon="5.90745">
        <ele>575.2</ele>
        <time>2017-01-12 13:43:29</time>
      </trkpt>
      <trkpt lat="44.21743" lon="5.90745">
        <ele>575.2</ele>
        <time>2017-01-12 13:43:30</time>
      </trkpt>
      <trkpt lat="44.21743" lon="5.90745">
        <ele>575.2</ele>
        <time>2017-01-12 13:43:31</time>
      </trkpt>
      <trkpt lat="44.21747" lon="5.90734">
        <ele>576</ele>
        <time>2017-01-12 13:43:32</time>
      </trkpt>
      <trkpt lat="44.21747" lon="5.90734">
        <ele>576</ele>
        <time>2017-01-12 13:43:33</time>
      </trkpt>
      <trkpt lat="44.21747" lon="5.90734">
        <ele>576</ele>
        <time>2017-01-12 13:43:34</time>
      </trkpt>
      <trkpt lat="44.21747" lon="5.90734">
        <ele>576</ele>
        <time>2017-01-12 13:43:35</time>
      </trkpt>
      <trkpt lat="44.21752" lon="5.90722">
        <ele>576.8</ele>
        <time>2017-01-12 13:43:36</time>
      </trkpt>
      <trkpt lat="44.21752" lon="5.90722">
        <ele>576.8</ele>
        <time>2017-01-12 13:43:37</time>
      </trkpt>
      <trkpt lat="44.21752" lon="5.90722">
        <ele>576.8</ele>
        <time>2017-01-12 13:43:38</time>
      </trkpt>
      <trkpt lat="44.21752" lon="5.90722">
        <ele>576.8</ele>
        <time>2017-01-12 13:43:39</time>
      </trkpt>
      <trkpt lat="44.21758" lon="5.9071">
        <ele>576.3</ele>
        <time>2017-01-12 13:43:40</time>
      </trkpt>
      <trkpt lat="44.21758" lon="5.9071">
        <ele>576.3</ele>
        <time>2017-01-12 13:43:41</time>
      </trkpt>
      <trkpt lat="44.21758" lon="5.9071">
        <ele>576.3</ele>
        <time>2017-01-12 13:43:42</time>
      </trkpt>
      <trkpt lat="44.21758" lon="5.9071">
        <ele>576.3</ele>
        <time>2017-01-12 13:43:43</time>
      </trkpt>
      <trkpt lat="44.21763" lon="5.90699">
        <ele>576</ele>
        <time>2017-01-12 13:43:44</time>
      </trkpt>
      <trkpt lat="44.21763" lon="5.90699">
        <ele>576</ele>
        <time>2017-01-12 13:43:45</time>
      </trkpt>
      <trkpt lat="44.21763" lon="5.90699">
        <ele>576</ele>
        <time>2017-01-12 13:43:46</time>
      </trkpt>
      <trkpt lat="44.21763" lon="5.90699">
        <ele>576</ele>
        <time>2017-01-12 13:43:47</time>
      </trkpt>
      <trkpt lat="44.21769" lon="5.90687">
        <ele>576</ele>
        <time>2017-01-12 13:43:48</time>
      </trkpt>
      <trkpt lat="44.21769" lon="5.90687">
        <ele>576</ele>
        <time>2017-01-12 13:43:49</time>
      </trkpt>
      <trkpt lat="44.21769" lon="5.90687">
        <ele>576</ele>
        <time>2017-01-12 13:43:50</time>
      </trkpt>
      <trkpt lat="44.21769" lon="5.90687">
        <ele>576</ele>
        <time>2017-01-12 13:43:51</time>
      </trkpt>
      <trkpt lat="44.21777" lon="5.90675">
        <ele>576.6</ele>
        <time>2017-01-12 13:43:52</time>
      </trkpt>
      <trkpt lat="44.21777" lon="5.90675">
        <ele>576.6</ele>
        <time>2017-01-12 13:43:53</time>
      </trkpt>
      <trkpt lat="44.21777" lon="5.90675">
        <ele>576.6</ele>
        <time>2017-01-12 13:43:54</time>
      </trkpt>
      <trkpt lat="44.21777" lon="5.90675">
        <ele>576.6</ele>
        <time>2017-01-12 13:43:55</time>
      </trkpt>
      <trkpt lat="44.21784" lon="5.90663">
        <ele>576.7</ele>
        <time>2017-01-12 13:43:56</time>
      </trkpt>
      <trkpt lat="44.21784" lon="5.90663">
        <ele>576.7</ele>
        <time>2017-01-12 13:43:57</time>
      </trkpt>
      <trkpt lat="44.21784" lon="5.90663">
        <ele>576.7</ele>
        <time>2017-01-12 13:43:58</time>
      </trkpt>
      <trkpt lat="44.21784" lon="5.90663">
        <ele>576.7</ele>
        <time>2017-01-12 13:43:59</time>
      </trkpt>
      <trkpt lat="44.21791" lon="5.90652">
        <ele>576.5</ele>
        <time>2017-01-12 13:44:00</time>
      </trkpt>
      <trkpt lat="44.21791" lon="5.90652">
        <ele>576.5</ele>
        <time>2017-01-12 13:44:01</time>
      </trkpt>
      <trkpt lat="44.21791" lon="5.90652">
        <ele>576.5</ele>
        <time>2017-01-12 13:44:02</time>
      </trkpt>
      <trkpt lat="44.21791" lon="5.90652">
        <ele>576.5</ele>
        <time>2017-01-12 13:44:03</time>
      </trkpt>
      <trkpt lat="44.21797" lon="5.9064">
        <ele>576.7</ele>
        <time>2017-01-12 13:44:04</time>
      </trkpt>
      <trkpt lat="44.21797" lon="5.9064">
        <ele>576.7</ele>
        <time>2017-01-12 13:44:05</time>
      </trkpt>
      <trkpt lat="44.21797" lon="5.9064">
        <ele>576.7</ele>
        <time>2017-01-12 13:44:06</time>
      </trkpt>
      <trkpt lat="44.21797" lon="5.9064">
        <ele>576.7</ele>
        <time>2017-01-12 13:44:07</time>
      </trkpt>
      <trkpt lat="44.21803" lon="5.90627">
        <ele>577.2</ele>
        <time>2017-01-12 13:44:08</time>
      </trkpt>
      <trkpt lat="44.21803" lon="5.90627">
        <ele>577.2</ele>
        <time>2017-01-12 13:44:09</time>
      </trkpt>
      <trkpt lat="44.21803" lon="5.90627">
        <ele>577.2</ele>
        <time>2017-01-12 13:44:10</time>
      </trkpt>
      <trkpt lat="44.21803" lon="5.90627">
        <ele>577.2</ele>
        <time>2017-01-12 13:44:11</time>
      </trkpt>
      <trkpt lat="44.21809" lon="5.90614">
        <ele>577.7</ele>
        <time>2017-01-12 13:44:12</time>
      </trkpt>
      <trkpt lat="44.21809" lon="5.90614">
        <ele>577.7</ele>
        <time>2017-01-12 13:44:13</time>
      </trkpt>
      <trkpt lat="44.21809" lon="5.90614">
        <ele>577.7</ele>
        <time>2017-01-12 13:44:14</time>
      </trkpt>
      <trkpt lat="44.21809" lon="5.90614">
        <ele>577.7</ele>
        <time>2017-01-12 13:44:15</time>
      </trkpt>
      <trkpt lat="44.21816" lon="5.90601">
        <ele>577</ele>
        <time>2017-01-12 13:44:16</time>
      </trkpt>
      <trkpt lat="44.21816" lon="5.90601">
        <ele>577</ele>
        <time>2017-01-12 13:44:17</time>
      </trkpt>
      <trkpt lat="44.21816" lon="5.90601">
        <ele>577</ele>
        <time>2017-01-12 13:44:18</time>
      </trkpt>
      <trkpt lat="44.21816" lon="5.90601">
        <ele>577</ele>
        <time>2017-01-12 13:44:19</time>
      </trkpt>
      <trkpt lat="44.21823" lon="5.90587">
        <ele>576.4</ele>
        <time>2017-01-12 13:44:20</time>
      </trkpt>
      <trkpt lat="44.21823" lon="5.90587">
        <ele>576.4</ele>
        <time>2017-01-12 13:44:21</time>
      </trkpt>
      <trkpt lat="44.21823" lon="5.90587">
        <ele>576.4</ele>
        <time>2017-01-12 13:44:22</time>
      </trkpt>
      <trkpt lat="44.21823" lon="5.90587">
        <ele>576.4</ele>
        <time>2017-01-12 13:44:23</time>
      </trkpt>
      <trkpt lat="44.21831" lon="5.90571">
        <ele>576.8</ele>
        <time>2017-01-12 13:44:24</time>
      </trkpt>
      <trkpt lat="44.21831" lon="5.90571">
        <ele>576.8</ele>
        <time>2017-01-12 13:44:25</time>
      </trkpt>
      <trkpt lat="44.21831" lon="5.90571">
        <ele>576.8</ele>
        <time>2017-01-12 13:44:26</time>
      </trkpt>
      <trkpt lat="44.21831" lon="5.90571">
        <ele>576.8</ele>
        <time>2017-01-12 13:44:27</time>
      </trkpt>
      <trkpt lat="44.21838" lon="5.90555">
        <ele>576.6</ele>
        <time>2017-01-12 13:44:28</time>
      </trkpt>
      <trkpt lat="44.21838" lon="5.90555">
        <ele>576.6</ele>
        <time>2017-01-12 13:44:29</time>
      </trkpt>
      <trkpt lat="44.21838" lon="5.90555">
        <ele>576.6</ele>
        <time>2017-01-12 13:44:30</time>
      </trkpt>
      <trkpt lat="44.21838" lon="5.90555">
        <ele>576.6</ele>
        <time>2017-01-12 13:44:31</time>
      </trkpt>
      <trkpt lat="44.21847" lon="5.90537">
        <ele>575.3</ele>
        <time>2017-01-12 13:44:32</time>
      </trkpt>
      <trkpt lat="44.21847" lon="5.90537">
        <ele>575.3</ele>
        <time>2017-01-12 13:44:33</time>
      </trkpt>
      <trkpt lat="44.21847" lon="5.90537">
        <ele>575.3</ele>
        <time>2017-01-12 13:44:34</time>
      </trkpt>
      <trkpt lat="44.21847" lon="5.90537">
        <ele>575.3</ele>
        <time>2017-01-12 13:44:35</time>
      </trkpt>
      <trkpt lat="44.21855" lon="5.9052">
        <ele>575.2</ele>
        <time>2017-01-12 13:44:36</time>
      </trkpt>
      <trkpt lat="44.21855" lon="5.9052">
        <ele>575.2</ele>
        <time>2017-01-12 13:44:37</time>
      </trkpt>
      <trkpt lat="44.21855" lon="5.9052">
        <ele>575.2</ele>
        <time>2017-01-12 13:44:38</time>
      </trkpt>
      <trkpt lat="44.21855" lon="5.9052">
        <ele>575.2</ele>
        <time>2017-01-12 13:44:39</time>
      </trkpt>
      <trkpt lat="44.21863" lon="5.90505">
        <ele>575.7</ele>
        <time>2017-01-12 13:44:40</time>
      </trkpt>
      <trkpt lat="44.21863" lon="5.90505">
        <ele>575.7</ele>
        <time>2017-01-12 13:44:41</time>
      </trkpt>
      <trkpt lat="44.21863" lon="5.90505">
        <ele>575.7</ele>
        <time>2017-01-12 13:44:42</time>
      </trkpt>
      <trkpt lat="44.21863" lon="5.90505">
        <ele>575.7</ele>
        <time>2017-01-12 13:44:43</time>
      </trkpt>
      <trkpt lat="44.21872" lon="5.90488">
        <ele>574.7</ele>
        <time>2017-01-12 13:44:44</time>
      </trkpt>
      <trkpt lat="44.21872" lon="5.90488">
        <ele>574.7</ele>
        <time>2017-01-12 13:44:45</time>
      </trkpt>
      <trkpt lat="44.21872" lon="5.90488">
        <ele>574.7</ele>
        <time>2017-01-12 13:44:46</time>
      </trkpt>
      <trkpt lat="44.21872" lon="5.90488">
        <ele>574.7</ele>
        <time>2017-01-12 13:44:47</time>
      </trkpt>
      <trkpt lat="44.21881" lon="5.90471">
        <ele>574.1</ele>
        <time>2017-01-12 13:44:48</time>
      </trkpt>
      <trkpt lat="44.21881" lon="5.90471">
        <ele>574.1</ele>
        <time>2017-01-12 13:44:49</time>
      </trkpt>
      <trkpt lat="44.21881" lon="5.90471">
        <ele>574.1</ele>
        <time>2017-01-12 13:44:50</time>
      </trkpt>
      <trkpt lat="44.21881" lon="5.90471">
        <ele>574.1</ele>
        <time>2017-01-12 13:44:51</time>
      </trkpt>
      <trkpt lat="44.21891" lon="5.90456">
        <ele>575.2</ele>
        <time>2017-01-12 13:44:52</time>
      </trkpt>
      <trkpt lat="44.21891" lon="5.90456">
        <ele>575.2</ele>
        <time>2017-01-12 13:44:53</time>
      </trkpt>
      <trkpt lat="44.21891" lon="5.90456">
        <ele>575.2</ele>
        <time>2017-01-12 13:44:54</time>
      </trkpt>
      <trkpt lat="44.21891" lon="5.90456">
        <ele>575.2</ele>
        <time>2017-01-12 13:44:55</time>
      </trkpt>
      <trkpt lat="44.21899" lon="5.90445">
        <ele>575.6</ele>
        <time>2017-01-12 13:44:56</time>
      </trkpt>
      <trkpt lat="44.21899" lon="5.90445">
        <ele>575.6</ele>
        <time>2017-01-12 13:44:57</time>
      </trkpt>
      <trkpt lat="44.21899" lon="5.90445">
        <ele>575.6</ele>
        <time>2017-01-12 13:44:58</time>
      </trkpt>
      <trkpt lat="44.21899" lon="5.90445">
        <ele>575.6</ele>
        <time>2017-01-12 13:44:59</time>
      </trkpt>
      <trkpt lat="44.21904" lon="5.90435">
        <ele>575.5</ele>
        <time>2017-01-12 13:45:00</time>
      </trkpt>
      <trkpt lat="44.21904" lon="5.90435">
        <ele>575.5</ele>
        <time>2017-01-12 13:45:01</time>
      </trkpt>
      <trkpt lat="44.21904" lon="5.90435">
        <ele>575.5</ele>
        <time>2017-01-12 13:45:02</time>
      </trkpt>
      <trkpt lat="44.21904" lon="5.90435">
        <ele>575.5</ele>
        <time>2017-01-12 13:45:03</time>
      </trkpt>
      <trkpt lat="44.21911" lon="5.90423">
        <ele>576.1</ele>
        <time>2017-01-12 13:45:04</time>
      </trkpt>
      <trkpt lat="44.21911" lon="5.90423">
        <ele>576.1</ele>
        <time>2017-01-12 13:45:05</time>
      </trkpt>
      <trkpt lat="44.21911" lon="5.90423">
        <ele>576.1</ele>
        <time>2017-01-12 13:45:06</time>
      </trkpt>
      <trkpt lat="44.21911" lon="5.90423">
        <ele>576.1</ele>
        <time>2017-01-12 13:45:07</time>
      </trkpt>
      <trkpt lat="44.21917" lon="5.9041">
        <ele>576.7</ele>
        <time>2017-01-12 13:45:08</time>
      </trkpt>
      <trkpt lat="44.21917" lon="5.9041">
        <ele>576.7</ele>
        <time>2017-01-12 13:45:09</time>
      </trkpt>
      <trkpt lat="44.21917" lon="5.9041">
        <ele>576.7</ele>
        <time>2017-01-12 13:45:10</time>
      </trkpt>
      <trkpt lat="44.21917" lon="5.9041">
        <ele>576.7</ele>
        <time>2017-01-12 13:45:11</time>
      </trkpt>
      <trkpt lat="44.21925" lon="5.90398">
        <ele>576.1</ele>
        <time>2017-01-12 13:45:12</time>
      </trkpt>
      <trkpt lat="44.21925" lon="5.90398">
        <ele>576.1</ele>
        <time>2017-01-12 13:45:13</time>
      </trkpt>
      <trkpt lat="44.21925" lon="5.90398">
        <ele>576.1</ele>
        <time>2017-01-12 13:45:14</time>
      </trkpt>
      <trkpt lat="44.21925" lon="5.90398">
        <ele>576.1</ele>
        <time>2017-01-12 13:45:15</time>
      </trkpt>
      <trkpt lat="44.2193" lon="5.90388">
        <ele>576</ele>
        <time>2017-01-12 13:45:16</time>
      </trkpt>
      <trkpt lat="44.2193" lon="5.90388">
        <ele>576</ele>
        <time>2017-01-12 13:45:17</time>
      </trkpt>
      <trkpt lat="44.2193" lon="5.90388">
        <ele>576</ele>
        <time>2017-01-12 13:45:18</time>
      </trkpt>
      <trkpt lat="44.2193" lon="5.90388">
        <ele>576</ele>
        <time>2017-01-12 13:45:19</time>
      </trkpt>
      <trkpt lat="44.21937" lon="5.9038">
        <ele>576.3</ele>
        <time>2017-01-12 13:45:20</time>
      </trkpt>
      <trkpt lat="44.21937" lon="5.9038">
        <ele>576.3</ele>
        <time>2017-01-12 13:45:21</time>
      </trkpt>
      <trkpt lat="44.21937" lon="5.9038">
        <ele>576.3</ele>
        <time>2017-01-12 13:45:22</time>
      </trkpt>
      <trkpt lat="44.21937" lon="5.9038">
        <ele>576.3</ele>
        <time>2017-01-12 13:45:23</time>
      </trkpt>
      <trkpt lat="44.21945" lon="5.9037">
        <ele>577.4</ele>
        <time>2017-01-12 13:45:24</time>
      </trkpt>
      <trkpt lat="44.21945" lon="5.9037">
        <ele>577.4</ele>
        <time>2017-01-12 13:45:25</time>
      </trkpt>
      <trkpt lat="44.21945" lon="5.9037">
        <ele>577.4</ele>
        <time>2017-01-12 13:45:26</time>
      </trkpt>
      <trkpt lat="44.21945" lon="5.9037">
        <ele>577.4</ele>
        <time>2017-01-12 13:45:27</time>
      </trkpt>
      <trkpt lat="44.21952" lon="5.90358">
        <ele>577.3</ele>
        <time>2017-01-12 13:45:28</time>
      </trkpt>
      <trkpt lat="44.21952" lon="5.90358">
        <ele>577.3</ele>
        <time>2017-01-12 13:45:29</time>
      </trkpt>
      <trkpt lat="44.21952" lon="5.90358">
        <ele>577.3</ele>
        <time>2017-01-12 13:45:30</time>
      </trkpt>
      <trkpt lat="44.21952" lon="5.90358">
        <ele>577.3</ele>
        <time>2017-01-12 13:45:31</time>
      </trkpt>
      <trkpt lat="44.21959" lon="5.90345">
        <ele>576.7</ele>
        <time>2017-01-12 13:45:32</time>
      </trkpt>
      <trkpt lat="44.21959" lon="5.90345">
        <ele>576.7</ele>
        <time>2017-01-12 13:45:33</time>
      </trkpt>
      <trkpt lat="44.21959" lon="5.90345">
        <ele>576.7</ele>
        <time>2017-01-12 13:45:34</time>
      </trkpt>
      <trkpt lat="44.21959" lon="5.90345">
        <ele>576.7</ele>
        <time>2017-01-12 13:45:35</time>
      </trkpt>
      <trkpt lat="44.21967" lon="5.90333">
        <ele>577.4</ele>
        <time>2017-01-12 13:45:36</time>
      </trkpt>
      <trkpt lat="44.21967" lon="5.90333">
        <ele>577.4</ele>
        <time>2017-01-12 13:45:37</time>
      </trkpt>
      <trkpt lat="44.21967" lon="5.90333">
        <ele>577.4</ele>
        <time>2017-01-12 13:45:38</time>
      </trkpt>
      <trkpt lat="44.21967" lon="5.90333">
        <ele>577.4</ele>
        <time>2017-01-12 13:45:39</time>
      </trkpt>
      <trkpt lat="44.21974" lon="5.9032">
        <ele>577.5</ele>
        <time>2017-01-12 13:45:40</time>
      </trkpt>
      <trkpt lat="44.21974" lon="5.9032">
        <ele>577.5</ele>
        <time>2017-01-12 13:45:41</time>
      </trkpt>
      <trkpt lat="44.21974" lon="5.9032">
        <ele>577.5</ele>
        <time>2017-01-12 13:45:42</time>
      </trkpt>
      <trkpt lat="44.21974" lon="5.9032">
        <ele>577.5</ele>
        <time>2017-01-12 13:45:43</time>
      </trkpt>
      <trkpt lat="44.21982" lon="5.90307">
        <ele>577</ele>
        <time>2017-01-12 13:45:44</time>
      </trkpt>
      <trkpt lat="44.21982" lon="5.90307">
        <ele>577</ele>
        <time>2017-01-12 13:45:45</time>
      </trkpt>
      <trkpt lat="44.21982" lon="5.90307">
        <ele>577</ele>
        <time>2017-01-12 13:45:46</time>
      </trkpt>
      <trkpt lat="44.21982" lon="5.90307">
        <ele>577</ele>
        <time>2017-01-12 13:45:47</time>
      </trkpt>
      <trkpt lat="44.2199" lon="5.90294">
        <ele>577.1</ele>
        <time>2017-01-12 13:45:48</time>
      </trkpt>
      <trkpt lat="44.2199" lon="5.90294">
        <ele>577.1</ele>
        <time>2017-01-12 13:45:49</time>
      </trkpt>
      <trkpt lat="44.2199" lon="5.90294">
        <ele>577.1</ele>
        <time>2017-01-12 13:45:50</time>
      </trkpt>
      <trkpt lat="44.2199" lon="5.90294">
        <ele>577.1</ele>
        <time>2017-01-12 13:45:51</time>
      </trkpt>
      <trkpt lat="44.21997" lon="5.90282">
        <ele>578.2</ele>
        <time>2017-01-12 13:45:52</time>
      </trkpt>
      <trkpt lat="44.21997" lon="5.90282">
        <ele>578.2</ele>
        <time>2017-01-12 13:45:53</time>
      </trkpt>
      <trkpt lat="44.21997" lon="5.90282">
        <ele>578.2</ele>
        <time>2017-01-12 13:45:54</time>
      </trkpt>
      <trkpt lat="44.21997" lon="5.90282">
        <ele>578.2</ele>
        <time>2017-01-12 13:45:55</time>
      </trkpt>
      <trkpt lat="44.22004" lon="5.9027">
        <ele>578.4</ele>
        <time>2017-01-12 13:45:56</time>
      </trkpt>
      <trkpt lat="44.22004" lon="5.9027">
        <ele>578.4</ele>
        <time>2017-01-12 13:45:57</time>
      </trkpt>
      <trkpt lat="44.22004" lon="5.9027">
        <ele>578.4</ele>
        <time>2017-01-12 13:45:58</time>
      </trkpt>
      <trkpt lat="44.22004" lon="5.9027">
        <ele>578.4</ele>
        <time>2017-01-12 13:45:59</time>
      </trkpt>
      <trkpt lat="44.22011" lon="5.90259">
        <ele>578</ele>
        <time>2017-01-12 13:46:00</time>
      </trkpt>
      <trkpt lat="44.22011" lon="5.90259">
        <ele>578</ele>
        <time>2017-01-12 13:46:01</time>
      </trkpt>
      <trkpt lat="44.22011" lon="5.90259">
        <ele>578</ele>
        <time>2017-01-12 13:46:02</time>
      </trkpt>
      <trkpt lat="44.22011" lon="5.90259">
        <ele>578</ele>
        <time>2017-01-12 13:46:03</time>
      </trkpt>
      <trkpt lat="44.22017" lon="5.90247">
        <ele>578.2</ele>
        <time>2017-01-12 13:46:04</time>
      </trkpt>
      <trkpt lat="44.22017" lon="5.90247">
        <ele>578.2</ele>
        <time>2017-01-12 13:46:05</time>
      </trkpt>
      <trkpt lat="44.22017" lon="5.90247">
        <ele>578.2</ele>
        <time>2017-01-12 13:46:06</time>
      </trkpt>
      <trkpt lat="44.22017" lon="5.90247">
        <ele>578.2</ele>
        <time>2017-01-12 13:46:07</time>
      </trkpt>
      <trkpt lat="44.22025" lon="5.90235">
        <ele>579.1</ele>
        <time>2017-01-12 13:46:08</time>
      </trkpt>
      <trkpt lat="44.22025" lon="5.90235">
        <ele>579.1</ele>
        <time>2017-01-12 13:46:09</time>
      </trkpt>
      <trkpt lat="44.22025" lon="5.90235">
        <ele>579.1</ele>
        <time>2017-01-12 13:46:10</time>
      </trkpt>
      <trkpt lat="44.22025" lon="5.90235">
        <ele>579.1</ele>
        <time>2017-01-12 13:46:11</time>
      </trkpt>
      <trkpt lat="44.22032" lon="5.90223">
        <ele>580</ele>
        <time>2017-01-12 13:46:12</time>
      </trkpt>
      <trkpt lat="44.22032" lon="5.90223">
        <ele>580</ele>
        <time>2017-01-12 13:46:13</time>
      </trkpt>
      <trkpt lat="44.22032" lon="5.90223">
        <ele>580</ele>
        <time>2017-01-12 13:46:14</time>
      </trkpt>
      <trkpt lat="44.22032" lon="5.90223">
        <ele>580</ele>
        <time>2017-01-12 13:46:15</time>
      </trkpt>
      <trkpt lat="44.22039" lon="5.90211">
        <ele>579.2</ele>
        <time>2017-01-12 13:46:16</time>
      </trkpt>
      <trkpt lat="44.22039" lon="5.90211">
        <ele>579.2</ele>
        <time>2017-01-12 13:46:17</time>
      </trkpt>
      <trkpt lat="44.22039" lon="5.90211">
        <ele>579.2</ele>
        <time>2017-01-12 13:46:18</time>
      </trkpt>
      <trkpt lat="44.22039" lon="5.90211">
        <ele>579.2</ele>
        <time>2017-01-12 13:46:19</time>
      </trkpt>
      <trkpt lat="44.22047" lon="5.90199">
        <ele>579.5</ele>
        <time>2017-01-12 13:46:20</time>
      </trkpt>
      <trkpt lat="44.22047" lon="5.90199">
        <ele>579.5</ele>
        <time>2017-01-12 13:46:21</time>
      </trkpt>
      <trkpt lat="44.22047" lon="5.90199">
        <ele>579.5</ele>
        <time>2017-01-12 13:46:22</time>
      </trkpt>
      <trkpt lat="44.22047" lon="5.90199">
        <ele>579.5</ele>
        <time>2017-01-12 13:46:23</time>
      </trkpt>
      <trkpt lat="44.22054" lon="5.90188">
        <ele>580.7</ele>
        <time>2017-01-12 13:46:24</time>
      </trkpt>
      <trkpt lat="44.22054" lon="5.90188">
        <ele>580.7</ele>
        <time>2017-01-12 13:46:25</time>
      </trkpt>
      <trkpt lat="44.22054" lon="5.90188">
        <ele>580.7</ele>
        <time>2017-01-12 13:46:26</time>
      </trkpt>
      <trkpt lat="44.22054" lon="5.90188">
        <ele>580.7</ele>
        <time>2017-01-12 13:46:27</time>
      </trkpt>
      <trkpt lat="44.22061" lon="5.90177">
        <ele>581.1</ele>
        <time>2017-01-12 13:46:28</time>
      </trkpt>
      <trkpt lat="44.22061" lon="5.90177">
        <ele>581.1</ele>
        <time>2017-01-12 13:46:29</time>
      </trkpt>
      <trkpt lat="44.22061" lon="5.90177">
        <ele>581.1</ele>
        <time>2017-01-12 13:46:30</time>
      </trkpt>
      <trkpt lat="44.22061" lon="5.90177">
        <ele>581.1</ele>
        <time>2017-01-12 13:46:31</time>
      </trkpt>
      <trkpt lat="44.22067" lon="5.90167">
        <ele>581.4</ele>
        <time>2017-01-12 13:46:32</time>
      </trkpt>
      <trkpt lat="44.22067" lon="5.90167">
        <ele>581.4</ele>
        <time>2017-01-12 13:46:33</time>
      </trkpt>
      <trkpt lat="44.22067" lon="5.90167">
        <ele>581.4</ele>
        <time>2017-01-12 13:46:34</time>
      </trkpt>
      <trkpt lat="44.22067" lon="5.90167">
        <ele>581.4</ele>
        <time>2017-01-12 13:46:35</time>
      </trkpt>
      <trkpt lat="44.22073" lon="5.90157">
        <ele>580.9</ele>
        <time>2017-01-12 13:46:36</time>
      </trkpt>
      <trkpt lat="44.22073" lon="5.90157">
        <ele>580.9</ele>
        <time>2017-01-12 13:46:37</time>
      </trkpt>
      <trkpt lat="44.22073" lon="5.90157">
        <ele>580.9</ele>
        <time>2017-01-12 13:46:38</time>
      </trkpt>
      <trkpt lat="44.22073" lon="5.90157">
        <ele>580.9</ele>
        <time>2017-01-12 13:46:39</time>
      </trkpt>
      <trkpt lat="44.22078" lon="5.9015">
        <ele>580.8</ele>
        <time>2017-01-12 13:46:40</time>
      </trkpt>
      <trkpt lat="44.22078" lon="5.9015">
        <ele>580.8</ele>
        <time>2017-01-12 13:46:41</time>
      </trkpt>
      <trkpt lat="44.22078" lon="5.9015">
        <ele>580.8</ele>
        <time>2017-01-12 13:46:42</time>
      </trkpt>
      <trkpt lat="44.22078" lon="5.9015">
        <ele>580.8</ele>
        <time>2017-01-12 13:46:43</time>
      </trkpt>
      <trkpt lat="44.22083" lon="5.90141">
        <ele>581.1</ele>
        <time>2017-01-12 13:46:44</time>
      </trkpt>
      <trkpt lat="44.22083" lon="5.90141">
        <ele>581.1</ele>
        <time>2017-01-12 13:46:45</time>
      </trkpt>
      <trkpt lat="44.22083" lon="5.90141">
        <ele>581.1</ele>
        <time>2017-01-12 13:46:46</time>
      </trkpt>
      <trkpt lat="44.22083" lon="5.90141">
        <ele>581.1</ele>
        <time>2017-01-12 13:46:47</time>
      </trkpt>
      <trkpt lat="44.22089" lon="5.90133">
        <ele>580.6</ele>
        <time>2017-01-12 13:46:48</time>
      </trkpt>
      <trkpt lat="44.22089" lon="5.90133">
        <ele>580.6</ele>
        <time>2017-01-12 13:46:49</time>
      </trkpt>
      <trkpt lat="44.22089" lon="5.90133">
        <ele>580.6</ele>
        <time>2017-01-12 13:46:50</time>
      </trkpt>
      <trkpt lat="44.22089" lon="5.90133">
        <ele>580.6</ele>
        <time>2017-01-12 13:46:51</time>
      </trkpt>
      <trkpt lat="44.22095" lon="5.90125">
        <ele>580.1</ele>
        <time>2017-01-12 13:46:52</time>
      </trkpt>
      <trkpt lat="44.22095" lon="5.90125">
        <ele>580.1</ele>
        <time>2017-01-12 13:46:53</time>
      </trkpt>
      <trkpt lat="44.22095" lon="5.90125">
        <ele>580.1</ele>
        <time>2017-01-12 13:46:54</time>
      </trkpt>
      <trkpt lat="44.22095" lon="5.90125">
        <ele>580.1</ele>
        <time>2017-01-12 13:46:55</time>
      </trkpt>
      <trkpt lat="44.22101" lon="5.90116">
        <ele>580</ele>
        <time>2017-01-12 13:46:56</time>
      </trkpt>
      <trkpt lat="44.22101" lon="5.90116">
        <ele>580</ele>
        <time>2017-01-12 13:46:57</time>
      </trkpt>
      <trkpt lat="44.22101" lon="5.90116">
        <ele>580</ele>
        <time>2017-01-12 13:46:58</time>
      </trkpt>
      <trkpt lat="44.22101" lon="5.90116">
        <ele>580</ele>
        <time>2017-01-12 13:46:59</time>
      </trkpt>
      <trkpt lat="44.22106" lon="5.90107">
        <ele>580.3</ele>
        <time>2017-01-12 13:47:00</time>
      </trkpt>
      <trkpt lat="44.22106" lon="5.90107">
        <ele>580.3</ele>
        <time>2017-01-12 13:47:01</time>
      </trkpt>
      <trkpt lat="44.22106" lon="5.90107">
        <ele>580.3</ele>
        <time>2017-01-12 13:47:02</time>
      </trkpt>
      <trkpt lat="44.22106" lon="5.90107">
        <ele>580.3</ele>
        <time>2017-01-12 13:47:03</time>
      </trkpt>
      <trkpt lat="44.22112" lon="5.90099">
        <ele>580.5</ele>
        <time>2017-01-12 13:47:04</time>
      </trkpt>
      <trkpt lat="44.22112" lon="5.90099">
        <ele>580.5</ele>
        <time>2017-01-12 13:47:05</time>
      </trkpt>
      <trkpt lat="44.22112" lon="5.90099">
        <ele>580.5</ele>
        <time>2017-01-12 13:47:06</time>
      </trkpt>
      <trkpt lat="44.22112" lon="5.90099">
        <ele>580.5</ele>
        <time>2017-01-12 13:47:07</time>
      </trkpt>
      <trkpt lat="44.22118" lon="5.90092">
        <ele>580.6</ele>
        <time>2017-01-12 13:47:08</time>
      </trkpt>
      <trkpt lat="44.22118" lon="5.90092">
        <ele>580.6</ele>
        <time>2017-01-12 13:47:09</time>
      </trkpt>
      <trkpt lat="44.22118" lon="5.90092">
        <ele>580.6</ele>
        <time>2017-01-12 13:47:10</time>
      </trkpt>
      <trkpt lat="44.22118" lon="5.90092">
        <ele>580.6</ele>
        <time>2017-01-12 13:47:11</time>
      </trkpt>
      <trkpt lat="44.22123" lon="5.90084">
        <ele>581</ele>
        <time>2017-01-12 13:47:12</time>
      </trkpt>
      <trkpt lat="44.22123" lon="5.90084">
        <ele>581</ele>
        <time>2017-01-12 13:47:13</time>
      </trkpt>
      <trkpt lat="44.22123" lon="5.90084">
        <ele>581</ele>
        <time>2017-01-12 13:47:14</time>
      </trkpt>
      <trkpt lat="44.22123" lon="5.90084">
        <ele>581</ele>
        <time>2017-01-12 13:47:15</time>
      </trkpt>
      <trkpt lat="44.22128" lon="5.90076">
        <ele>581.6</ele>
        <time>2017-01-12 13:47:16</time>
      </trkpt>
      <trkpt lat="44.22128" lon="5.90076">
        <ele>581.6</ele>
        <time>2017-01-12 13:47:17</time>
      </trkpt>
      <trkpt lat="44.22128" lon="5.90076">
        <ele>581.6</ele>
        <time>2017-01-12 13:47:18</time>
      </trkpt>
      <trkpt lat="44.22128" lon="5.90076">
        <ele>581.6</ele>
        <time>2017-01-12 13:47:19</time>
      </trkpt>
      <trkpt lat="44.22134" lon="5.90067">
        <ele>582.3</ele>
        <time>2017-01-12 13:47:20</time>
      </trkpt>
      <trkpt lat="44.22134" lon="5.90067">
        <ele>582.3</ele>
        <time>2017-01-12 13:47:21</time>
      </trkpt>
      <trkpt lat="44.22134" lon="5.90067">
        <ele>582.3</ele>
        <time>2017-01-12 13:47:22</time>
      </trkpt>
      <trkpt lat="44.22134" lon="5.90067">
        <ele>582.3</ele>
        <time>2017-01-12 13:47:23</time>
      </trkpt>
      <trkpt lat="44.22139" lon="5.90057">
        <ele>583.2</ele>
        <time>2017-01-12 13:47:24</time>
      </trkpt>
      <trkpt lat="44.22139" lon="5.90057">
        <ele>583.2</ele>
        <time>2017-01-12 13:47:25</time>
      </trkpt>
      <trkpt lat="44.22139" lon="5.90057">
        <ele>583.2</ele>
        <time>2017-01-12 13:47:26</time>
      </trkpt>
      <trkpt lat="44.22139" lon="5.90057">
        <ele>583.2</ele>
        <time>2017-01-12 13:47:27</time>
      </trkpt>
      <trkpt lat="44.22145" lon="5.90047">
        <ele>582.3</ele>
        <time>2017-01-12 13:47:28</time>
      </trkpt>
      <trkpt lat="44.22145" lon="5.90047">
        <ele>582.3</ele>
        <time>2017-01-12 13:47:29</time>
      </trkpt>
      <trkpt lat="44.22145" lon="5.90047">
        <ele>582.3</ele>
        <time>2017-01-12 13:47:30</time>
      </trkpt>
      <trkpt lat="44.22145" lon="5.90047">
        <ele>582.3</ele>
        <time>2017-01-12 13:47:31</time>
      </trkpt>
      <trkpt lat="44.22151" lon="5.90037">
        <ele>582.1</ele>
        <time>2017-01-12 13:47:32</time>
      </trkpt>
      <trkpt lat="44.22151" lon="5.90037">
        <ele>582.1</ele>
        <time>2017-01-12 13:47:33</time>
      </trkpt>
      <trkpt lat="44.22151" lon="5.90037">
        <ele>582.1</ele>
        <time>2017-01-12 13:47:34</time>
      </trkpt>
      <trkpt lat="44.22151" lon="5.90037">
        <ele>582.1</ele>
        <time>2017-01-12 13:47:35</time>
      </trkpt>
      <trkpt lat="44.22157" lon="5.90027">
        <ele>582.6</ele>
        <time>2017-01-12 13:47:36</time>
      </trkpt>
      <trkpt lat="44.22157" lon="5.90027">
        <ele>582.6</ele>
        <time>2017-01-12 13:47:37</time>
      </trkpt>
      <trkpt lat="44.22157" lon="5.90027">
        <ele>582.6</ele>
        <time>2017-01-12 13:47:38</time>
      </trkpt>
      <trkpt lat="44.22157" lon="5.90027">
        <ele>582.6</ele>
        <time>2017-01-12 13:47:39</time>
      </trkpt>
      <trkpt lat="44.22163" lon="5.90016">
        <ele>583.8</ele>
        <time>2017-01-12 13:47:40</time>
      </trkpt>
      <trkpt lat="44.22163" lon="5.90016">
        <ele>583.8</ele>
        <time>2017-01-12 13:47:41</time>
      </trkpt>
      <trkpt lat="44.22163" lon="5.90016">
        <ele>583.8</ele>
        <time>2017-01-12 13:47:42</time>
      </trkpt>
      <trkpt lat="44.22163" lon="5.90016">
        <ele>583.8</ele>
        <time>2017-01-12 13:47:43</time>
      </trkpt>
      <trkpt lat="44.22168" lon="5.90004">
        <ele>584.5</ele>
        <time>2017-01-12 13:47:44</time>
      </trkpt>
      <trkpt lat="44.22168" lon="5.90004">
        <ele>584.5</ele>
        <time>2017-01-12 13:47:45</time>
      </trkpt>
      <trkpt lat="44.22168" lon="5.90004">
        <ele>584.5</ele>
        <time>2017-01-12 13:47:46</time>
      </trkpt>
      <trkpt lat="44.22168" lon="5.90004">
        <ele>584.5</ele>
        <time>2017-01-12 13:47:47</time>
      </trkpt>
      <trkpt lat="44.22175" lon="5.89993">
        <ele>583.7</ele>
        <time>2017-01-12 13:47:48</time>
      </trkpt>
      <trkpt lat="44.22175" lon="5.89993">
        <ele>583.7</ele>
        <time>2017-01-12 13:47:49</time>
      </trkpt>
      <trkpt lat="44.22175" lon="5.89993">
        <ele>583.7</ele>
        <time>2017-01-12 13:47:50</time>
      </trkpt>
      <trkpt lat="44.22175" lon="5.89993">
        <ele>583.7</ele>
        <time>2017-01-12 13:47:51</time>
      </trkpt>
      <trkpt lat="44.22182" lon="5.8998">
        <ele>582.9</ele>
        <time>2017-01-12 13:47:52</time>
      </trkpt>
      <trkpt lat="44.22182" lon="5.8998">
        <ele>582.9</ele>
        <time>2017-01-12 13:47:53</time>
      </trkpt>
      <trkpt lat="44.22182" lon="5.8998">
        <ele>582.9</ele>
        <time>2017-01-12 13:47:54</time>
      </trkpt>
      <trkpt lat="44.22182" lon="5.8998">
        <ele>582.9</ele>
        <time>2017-01-12 13:47:55</time>
      </trkpt>
      <trkpt lat="44.22189" lon="5.89966">
        <ele>583</ele>
        <time>2017-01-12 13:47:56</time>
      </trkpt>
      <trkpt lat="44.22189" lon="5.89966">
        <ele>583</ele>
        <time>2017-01-12 13:47:57</time>
      </trkpt>
      <trkpt lat="44.22189" lon="5.89966">
        <ele>583</ele>
        <time>2017-01-12 13:47:58</time>
      </trkpt>
      <trkpt lat="44.22189" lon="5.89966">
        <ele>583</ele>
        <time>2017-01-12 13:47:59</time>
      </trkpt>
      <trkpt lat="44.22196" lon="5.8995">
        <ele>583.6</ele>
        <time>2017-01-12 13:48:00</time>
      </trkpt>
      <trkpt lat="44.22196" lon="5.8995">
        <ele>583.6</ele>
        <time>2017-01-12 13:48:01</time>
      </trkpt>
      <trkpt lat="44.22196" lon="5.8995">
        <ele>583.6</ele>
        <time>2017-01-12 13:48:02</time>
      </trkpt>
      <trkpt lat="44.22196" lon="5.8995">
        <ele>583.6</ele>
        <time>2017-01-12 13:48:03</time>
      </trkpt>
      <trkpt lat="44.22204" lon="5.89933">
        <ele>582.6</ele>
        <time>2017-01-12 13:48:04</time>
      </trkpt>
      <trkpt lat="44.22204" lon="5.89933">
        <ele>582.6</ele>
        <time>2017-01-12 13:48:05</time>
      </trkpt>
      <trkpt lat="44.22204" lon="5.89933">
        <ele>582.6</ele>
        <time>2017-01-12 13:48:06</time>
      </trkpt>
      <trkpt lat="44.22204" lon="5.89933">
        <ele>582.6</ele>
        <time>2017-01-12 13:48:07</time>
      </trkpt>
      <trkpt lat="44.22211" lon="5.89916">
        <ele>581.9</ele>
        <time>2017-01-12 13:48:08</time>
      </trkpt>
      <trkpt lat="44.22211" lon="5.89916">
        <ele>581.9</ele>
        <time>2017-01-12 13:48:09</time>
      </trkpt>
      <trkpt lat="44.22211" lon="5.89916">
        <ele>581.9</ele>
        <time>2017-01-12 13:48:10</time>
      </trkpt>
      <trkpt lat="44.22211" lon="5.89916">
        <ele>581.9</ele>
        <time>2017-01-12 13:48:11</time>
      </trkpt>
      <trkpt lat="44.22218" lon="5.899">
        <ele>581.3</ele>
        <time>2017-01-12 13:48:12</time>
      </trkpt>
      <trkpt lat="44.22218" lon="5.899">
        <ele>581.3</ele>
        <time>2017-01-12 13:48:13</time>
      </trkpt>
      <trkpt lat="44.22218" lon="5.899">
        <ele>581.3</ele>
        <time>2017-01-12 13:48:14</time>
      </trkpt>
      <trkpt lat="44.22218" lon="5.899">
        <ele>581.3</ele>
        <time>2017-01-12 13:48:15</time>
      </trkpt>
      <trkpt lat="44.22226" lon="5.89885">
        <ele>580.8</ele>
        <time>2017-01-12 13:48:16</time>
      </trkpt>
      <trkpt lat="44.22226" lon="5.89885">
        <ele>580.8</ele>
        <time>2017-01-12 13:48:17</time>
      </trkpt>
      <trkpt lat="44.22226" lon="5.89885">
        <ele>580.8</ele>
        <time>2017-01-12 13:48:18</time>
      </trkpt>
      <trkpt lat="44.22226" lon="5.89885">
        <ele>580.8</ele>
        <time>2017-01-12 13:48:19</time>
      </trkpt>
      <trkpt lat="44.22234" lon="5.89868">
        <ele>579.9</ele>
        <time>2017-01-12 13:48:20</time>
      </trkpt>
      <trkpt lat="44.22234" lon="5.89868">
        <ele>579.9</ele>
        <time>2017-01-12 13:48:21</time>
      </trkpt>
      <trkpt lat="44.22234" lon="5.89868">
        <ele>579.9</ele>
        <time>2017-01-12 13:48:22</time>
      </trkpt>
      <trkpt lat="44.22234" lon="5.89868">
        <ele>579.9</ele>
        <time>2017-01-12 13:48:23</time>
      </trkpt>
      <trkpt lat="44.22243" lon="5.89853">
        <ele>579.8</ele>
        <time>2017-01-12 13:48:24</time>
      </trkpt>
      <trkpt lat="44.22243" lon="5.89853">
        <ele>579.8</ele>
        <time>2017-01-12 13:48:25</time>
      </trkpt>
      <trkpt lat="44.22243" lon="5.89853">
        <ele>579.8</ele>
        <time>2017-01-12 13:48:26</time>
      </trkpt>
      <trkpt lat="44.22243" lon="5.89853">
        <ele>579.8</ele>
        <time>2017-01-12 13:48:27</time>
      </trkpt>
      <trkpt lat="44.22252" lon="5.89835">
        <ele>579.4</ele>
        <time>2017-01-12 13:48:28</time>
      </trkpt>
      <trkpt lat="44.22252" lon="5.89835">
        <ele>579.4</ele>
        <time>2017-01-12 13:48:29</time>
      </trkpt>
      <trkpt lat="44.22252" lon="5.89835">
        <ele>579.4</ele>
        <time>2017-01-12 13:48:30</time>
      </trkpt>
      <trkpt lat="44.22252" lon="5.89835">
        <ele>579.4</ele>
        <time>2017-01-12 13:48:31</time>
      </trkpt>
      <trkpt lat="44.2226" lon="5.89818">
        <ele>578.7</ele>
        <time>2017-01-12 13:48:32</time>
      </trkpt>
      <trkpt lat="44.2226" lon="5.89818">
        <ele>578.7</ele>
        <time>2017-01-12 13:48:33</time>
      </trkpt>
      <trkpt lat="44.2226" lon="5.89818">
        <ele>578.7</ele>
        <time>2017-01-12 13:48:34</time>
      </trkpt>
      <trkpt lat="44.2226" lon="5.89818">
        <ele>578.7</ele>
        <time>2017-01-12 13:48:35</time>
      </trkpt>
      <trkpt lat="44.22269" lon="5.89801">
        <ele>578.4</ele>
        <time>2017-01-12 13:48:36</time>
      </trkpt>
      <trkpt lat="44.22269" lon="5.89801">
        <ele>578.4</ele>
        <time>2017-01-12 13:48:37</time>
      </trkpt>
      <trkpt lat="44.22269" lon="5.89801">
        <ele>578.4</ele>
        <time>2017-01-12 13:48:38</time>
      </trkpt>
      <trkpt lat="44.22269" lon="5.89801">
        <ele>578.4</ele>
        <time>2017-01-12 13:48:39</time>
      </trkpt>
      <trkpt lat="44.22277" lon="5.89784">
        <ele>578.4</ele>
        <time>2017-01-12 13:48:40</time>
      </trkpt>
      <trkpt lat="44.22277" lon="5.89784">
        <ele>578.4</ele>
        <time>2017-01-12 13:48:41</time>
      </trkpt>
      <trkpt lat="44.22277" lon="5.89784">
        <ele>578.4</ele>
        <time>2017-01-12 13:48:42</time>
      </trkpt>
      <trkpt lat="44.22277" lon="5.89784">
        <ele>578.4</ele>
        <time>2017-01-12 13:48:43</time>
      </trkpt>
      <trkpt lat="44.22287" lon="5.89768">
        <ele>578.3</ele>
        <time>2017-01-12 13:48:44</time>
      </trkpt>
      <trkpt lat="44.22287" lon="5.89768">
        <ele>578.3</ele>
        <time>2017-01-12 13:48:45</time>
      </trkpt>
      <trkpt lat="44.22287" lon="5.89768">
        <ele>578.3</ele>
        <time>2017-01-12 13:48:46</time>
      </trkpt>
      <trkpt lat="44.22287" lon="5.89768">
        <ele>578.3</ele>
        <time>2017-01-12 13:48:47</time>
      </trkpt>
      <trkpt lat="44.22295" lon="5.89753">
        <ele>578.1</ele>
        <time>2017-01-12 13:48:48</time>
      </trkpt>
      <trkpt lat="44.22295" lon="5.89753">
        <ele>578.1</ele>
        <time>2017-01-12 13:48:49</time>
      </trkpt>
      <trkpt lat="44.22295" lon="5.89753">
        <ele>578.1</ele>
        <time>2017-01-12 13:48:50</time>
      </trkpt>
      <trkpt lat="44.22295" lon="5.89753">
        <ele>578.1</ele>
        <time>2017-01-12 13:48:51</time>
      </trkpt>
      <trkpt lat="44.22305" lon="5.89735">
        <ele>578.4</ele>
        <time>2017-01-12 13:48:52</time>
      </trkpt>
      <trkpt lat="44.22305" lon="5.89735">
        <ele>578.4</ele>
        <time>2017-01-12 13:48:53</time>
      </trkpt>
      <trkpt lat="44.22305" lon="5.89735">
        <ele>578.4</ele>
        <time>2017-01-12 13:48:54</time>
      </trkpt>
      <trkpt lat="44.22305" lon="5.89735">
        <ele>578.4</ele>
        <time>2017-01-12 13:48:55</time>
      </trkpt>
      <trkpt lat="44.22314" lon="5.89718">
        <ele>577.9</ele>
        <time>2017-01-12 13:48:56</time>
      </trkpt>
      <trkpt lat="44.22314" lon="5.89718">
        <ele>577.9</ele>
        <time>2017-01-12 13:48:57</time>
      </trkpt>
      <trkpt lat="44.22314" lon="5.89718">
        <ele>577.9</ele>
        <time>2017-01-12 13:48:58</time>
      </trkpt>
      <trkpt lat="44.22314" lon="5.89718">
        <ele>577.9</ele>
        <time>2017-01-12 13:48:59</time>
      </trkpt>
      <trkpt lat="44.22326" lon="5.89702">
        <ele>577.6</ele>
        <time>2017-01-12 13:49:00</time>
      </trkpt>
      <trkpt lat="44.22326" lon="5.89702">
        <ele>577.6</ele>
        <time>2017-01-12 13:49:01</time>
      </trkpt>
      <trkpt lat="44.22326" lon="5.89702">
        <ele>577.6</ele>
        <time>2017-01-12 13:49:02</time>
      </trkpt>
      <trkpt lat="44.22326" lon="5.89702">
        <ele>577.6</ele>
        <time>2017-01-12 13:49:03</time>
      </trkpt>
      <trkpt lat="44.22334" lon="5.89685">
        <ele>577.3</ele>
        <time>2017-01-12 13:49:04</time>
      </trkpt>
      <trkpt lat="44.22334" lon="5.89685">
        <ele>577.3</ele>
        <time>2017-01-12 13:49:05</time>
      </trkpt>
      <trkpt lat="44.22334" lon="5.89685">
        <ele>577.3</ele>
        <time>2017-01-12 13:49:06</time>
      </trkpt>
      <trkpt lat="44.22334" lon="5.89685">
        <ele>577.3</ele>
        <time>2017-01-12 13:49:07</time>
      </trkpt>
      <trkpt lat="44.22341" lon="5.89666">
        <ele>576.5</ele>
        <time>2017-01-12 13:49:08</time>
      </trkpt>
      <trkpt lat="44.22341" lon="5.89666">
        <ele>576.5</ele>
        <time>2017-01-12 13:49:09</time>
      </trkpt>
      <trkpt lat="44.22341" lon="5.89666">
        <ele>576.5</ele>
        <time>2017-01-12 13:49:10</time>
      </trkpt>
      <trkpt lat="44.22341" lon="5.89666">
        <ele>576.5</ele>
        <time>2017-01-12 13:49:11</time>
      </trkpt>
      <trkpt lat="44.22349" lon="5.89647">
        <ele>575.8</ele>
        <time>2017-01-12 13:49:12</time>
      </trkpt>
      <trkpt lat="44.22349" lon="5.89647">
        <ele>575.8</ele>
        <time>2017-01-12 13:49:13</time>
      </trkpt>
      <trkpt lat="44.22349" lon="5.89647">
        <ele>575.8</ele>
        <time>2017-01-12 13:49:14</time>
      </trkpt>
      <trkpt lat="44.22349" lon="5.89647">
        <ele>575.8</ele>
        <time>2017-01-12 13:49:15</time>
      </trkpt>
      <trkpt lat="44.22359" lon="5.89628">
        <ele>575.5</ele>
        <time>2017-01-12 13:49:16</time>
      </trkpt>
      <trkpt lat="44.22359" lon="5.89628">
        <ele>575.5</ele>
        <time>2017-01-12 13:49:17</time>
      </trkpt>
      <trkpt lat="44.22359" lon="5.89628">
        <ele>575.5</ele>
        <time>2017-01-12 13:49:18</time>
      </trkpt>
      <trkpt lat="44.22359" lon="5.89628">
        <ele>575.5</ele>
        <time>2017-01-12 13:49:19</time>
      </trkpt>
      <trkpt lat="44.22369" lon="5.89608">
        <ele>574.9</ele>
        <time>2017-01-12 13:49:20</time>
      </trkpt>
      <trkpt lat="44.22369" lon="5.89608">
        <ele>574.9</ele>
        <time>2017-01-12 13:49:21</time>
      </trkpt>
      <trkpt lat="44.22369" lon="5.89608">
        <ele>574.9</ele>
        <time>2017-01-12 13:49:22</time>
      </trkpt>
      <trkpt lat="44.22369" lon="5.89608">
        <ele>574.9</ele>
        <time>2017-01-12 13:49:23</time>
      </trkpt>
      <trkpt lat="44.22375" lon="5.89598">
        <ele>574.3</ele>
        <time>2017-01-12 13:49:24</time>
      </trkpt>
      <trkpt lat="44.22375" lon="5.89598">
        <ele>574.3</ele>
        <time>2017-01-12 13:49:25</time>
      </trkpt>
      <trkpt lat="44.22375" lon="5.89598">
        <ele>574.3</ele>
        <time>2017-01-12 13:49:26</time>
      </trkpt>
      <trkpt lat="44.22375" lon="5.89598">
        <ele>574.3</ele>
        <time>2017-01-12 13:49:27</time>
      </trkpt>
      <trkpt lat="44.22373" lon="5.89591">
        <ele>574</ele>
        <time>2017-01-12 13:49:28</time>
      </trkpt>
      <trkpt lat="44.22373" lon="5.89591">
        <ele>574</ele>
        <time>2017-01-12 13:49:29</time>
      </trkpt>
      <trkpt lat="44.22373" lon="5.89591">
        <ele>574</ele>
        <time>2017-01-12 13:49:30</time>
      </trkpt>
      <trkpt lat="44.22373" lon="5.89591">
        <ele>574</ele>
        <time>2017-01-12 13:49:31</time>
      </trkpt>
      <trkpt lat="44.22371" lon="5.89588">
        <ele>573.9</ele>
        <time>2017-01-12 13:49:32</time>
      </trkpt>
      <trkpt lat="44.22371" lon="5.89588">
        <ele>573.9</ele>
        <time>2017-01-12 13:49:33</time>
      </trkpt>
      <trkpt lat="44.22371" lon="5.89588">
        <ele>573.9</ele>
        <time>2017-01-12 13:49:34</time>
      </trkpt>
      <trkpt lat="44.22371" lon="5.89588">
        <ele>573.9</ele>
        <time>2017-01-12 13:49:35</time>
      </trkpt>
      <trkpt lat="44.2237" lon="5.89584">
        <ele>573.7</ele>
        <time>2017-01-12 13:49:36</time>
      </trkpt>
      <trkpt lat="44.2237" lon="5.89584">
        <ele>573.7</ele>
        <time>2017-01-12 13:49:37</time>
      </trkpt>
      <trkpt lat="44.2237" lon="5.89584">
        <ele>573.7</ele>
        <time>2017-01-12 13:49:38</time>
      </trkpt>
      <trkpt lat="44.2237" lon="5.89584">
        <ele>573.7</ele>
        <time>2017-01-12 13:49:39</time>
      </trkpt>
      <trkpt lat="44.2237" lon="5.89583">
        <ele>573.7</ele>
        <time>2017-01-12 13:49:40</time>
      </trkpt>
      <trkpt lat="44.2237" lon="5.89583">
        <ele>573.7</ele>
        <time>2017-01-12 13:49:41</time>
      </trkpt>
      <trkpt lat="44.2237" lon="5.89583">
        <ele>573.7</ele>
        <time>2017-01-12 13:49:42</time>
      </trkpt>
      <trkpt lat="44.2237" lon="5.89583">
        <ele>573.7</ele>
        <time>2017-01-12 13:49:43</time>
      </trkpt>
      <trkpt lat="44.22374" lon="5.89575">
        <ele>573.7</ele>
        <time>2017-01-12 13:49:44</time>
      </trkpt>
      <trkpt lat="44.22374" lon="5.89575">
        <ele>573.7</ele>
        <time>2017-01-12 13:49:45</time>
      </trkpt>
      <trkpt lat="44.22374" lon="5.89575">
        <ele>573.7</ele>
        <time>2017-01-12 13:49:46</time>
      </trkpt>
      <trkpt lat="44.22374" lon="5.89575">
        <ele>573.7</ele>
        <time>2017-01-12 13:49:47</time>
      </trkpt>
      <trkpt lat="44.2238" lon="5.89564">
        <ele>573.8</ele>
        <time>2017-01-12 13:49:48</time>
      </trkpt>
      <trkpt lat="44.2238" lon="5.89564">
        <ele>573.8</ele>
        <time>2017-01-12 13:49:49</time>
      </trkpt>
      <trkpt lat="44.2238" lon="5.89564">
        <ele>573.8</ele>
        <time>2017-01-12 13:49:50</time>
      </trkpt>
      <trkpt lat="44.2238" lon="5.89564">
        <ele>573.8</ele>
        <time>2017-01-12 13:49:51</time>
      </trkpt>
      <trkpt lat="44.22386" lon="5.89553">
        <ele>574</ele>
        <time>2017-01-12 13:49:52</time>
      </trkpt>
      <trkpt lat="44.22386" lon="5.89553">
        <ele>574</ele>
        <time>2017-01-12 13:49:53</time>
      </trkpt>
      <trkpt lat="44.22386" lon="5.89553">
        <ele>574</ele>
        <time>2017-01-12 13:49:54</time>
      </trkpt>
      <trkpt lat="44.22386" lon="5.89553">
        <ele>574</ele>
        <time>2017-01-12 13:49:55</time>
      </trkpt>
      <trkpt lat="44.22391" lon="5.89544">
        <ele>573.8</ele>
        <time>2017-01-12 13:49:56</time>
      </trkpt>
      <trkpt lat="44.22391" lon="5.89544">
        <ele>573.8</ele>
        <time>2017-01-12 13:49:57</time>
      </trkpt>
      <trkpt lat="44.22391" lon="5.89544">
        <ele>573.8</ele>
        <time>2017-01-12 13:49:58</time>
      </trkpt>
      <trkpt lat="44.22391" lon="5.89544">
        <ele>573.8</ele>
        <time>2017-01-12 13:49:59</time>
      </trkpt>
      <trkpt lat="44.22397" lon="5.89533">
        <ele>573.1</ele>
        <time>2017-01-12 13:50:00</time>
      </trkpt>
      <trkpt lat="44.22397" lon="5.89533">
        <ele>573.1</ele>
        <time>2017-01-12 13:50:01</time>
      </trkpt>
      <trkpt lat="44.22397" lon="5.89533">
        <ele>573.1</ele>
        <time>2017-01-12 13:50:02</time>
      </trkpt>
      <trkpt lat="44.22397" lon="5.89533">
        <ele>573.1</ele>
        <time>2017-01-12 13:50:03</time>
      </trkpt>
      <trkpt lat="44.22403" lon="5.89521">
        <ele>572.8</ele>
        <time>2017-01-12 13:50:04</time>
      </trkpt>
      <trkpt lat="44.22403" lon="5.89521">
        <ele>572.8</ele>
        <time>2017-01-12 13:50:05</time>
      </trkpt>
      <trkpt lat="44.22403" lon="5.89521">
        <ele>572.8</ele>
        <time>2017-01-12 13:50:06</time>
      </trkpt>
      <trkpt lat="44.22403" lon="5.89521">
        <ele>572.8</ele>
        <time>2017-01-12 13:50:07</time>
      </trkpt>
      <trkpt lat="44.2241" lon="5.8951">
        <ele>573.2</ele>
        <time>2017-01-12 13:50:08</time>
      </trkpt>
      <trkpt lat="44.2241" lon="5.8951">
        <ele>573.2</ele>
        <time>2017-01-12 13:50:09</time>
      </trkpt>
      <trkpt lat="44.2241" lon="5.8951">
        <ele>573.2</ele>
        <time>2017-01-12 13:50:10</time>
      </trkpt>
      <trkpt lat="44.2241" lon="5.8951">
        <ele>573.2</ele>
        <time>2017-01-12 13:50:11</time>
      </trkpt>
      <trkpt lat="44.22416" lon="5.89499">
        <ele>574</ele>
        <time>2017-01-12 13:50:12</time>
      </trkpt>
      <trkpt lat="44.22416" lon="5.89499">
        <ele>574</ele>
        <time>2017-01-12 13:50:13</time>
      </trkpt>
      <trkpt lat="44.22416" lon="5.89499">
        <ele>574</ele>
        <time>2017-01-12 13:50:14</time>
      </trkpt>
      <trkpt lat="44.22416" lon="5.89499">
        <ele>574</ele>
        <time>2017-01-12 13:50:15</time>
      </trkpt>
      <trkpt lat="44.22423" lon="5.89487">
        <ele>573.3</ele>
        <time>2017-01-12 13:50:16</time>
      </trkpt>
      <trkpt lat="44.22423" lon="5.89487">
        <ele>573.3</ele>
        <time>2017-01-12 13:50:17</time>
      </trkpt>
      <trkpt lat="44.22423" lon="5.89487">
        <ele>573.3</ele>
        <time>2017-01-12 13:50:18</time>
      </trkpt>
      <trkpt lat="44.22423" lon="5.89487">
        <ele>573.3</ele>
        <time>2017-01-12 13:50:19</time>
      </trkpt>
      <trkpt lat="44.22429" lon="5.89474">
        <ele>572.6</ele>
        <time>2017-01-12 13:50:20</time>
      </trkpt>
      <trkpt lat="44.22429" lon="5.89474">
        <ele>572.6</ele>
        <time>2017-01-12 13:50:21</time>
      </trkpt>
      <trkpt lat="44.22429" lon="5.89474">
        <ele>572.6</ele>
        <time>2017-01-12 13:50:22</time>
      </trkpt>
      <trkpt lat="44.22429" lon="5.89474">
        <ele>572.6</ele>
        <time>2017-01-12 13:50:23</time>
      </trkpt>
      <trkpt lat="44.22436" lon="5.89462">
        <ele>572.7</ele>
        <time>2017-01-12 13:50:24</time>
      </trkpt>
      <trkpt lat="44.22436" lon="5.89462">
        <ele>572.7</ele>
        <time>2017-01-12 13:50:25</time>
      </trkpt>
      <trkpt lat="44.22436" lon="5.89462">
        <ele>572.7</ele>
        <time>2017-01-12 13:50:26</time>
      </trkpt>
      <trkpt lat="44.22436" lon="5.89462">
        <ele>572.7</ele>
        <time>2017-01-12 13:50:27</time>
      </trkpt>
      <trkpt lat="44.22442" lon="5.8945">
        <ele>573.5</ele>
        <time>2017-01-12 13:50:28</time>
      </trkpt>
      <trkpt lat="44.22442" lon="5.8945">
        <ele>573.5</ele>
        <time>2017-01-12 13:50:29</time>
      </trkpt>
      <trkpt lat="44.22442" lon="5.8945">
        <ele>573.5</ele>
        <time>2017-01-12 13:50:30</time>
      </trkpt>
      <trkpt lat="44.22442" lon="5.8945">
        <ele>573.5</ele>
        <time>2017-01-12 13:50:31</time>
      </trkpt>
      <trkpt lat="44.22449" lon="5.89438">
        <ele>573.4</ele>
        <time>2017-01-12 13:50:32</time>
      </trkpt>
      <trkpt lat="44.22449" lon="5.89438">
        <ele>573.4</ele>
        <time>2017-01-12 13:50:33</time>
      </trkpt>
      <trkpt lat="44.22449" lon="5.89438">
        <ele>573.4</ele>
        <time>2017-01-12 13:50:34</time>
      </trkpt>
      <trkpt lat="44.22449" lon="5.89438">
        <ele>573.4</ele>
        <time>2017-01-12 13:50:35</time>
      </trkpt>
      <trkpt lat="44.22456" lon="5.89425">
        <ele>572.9</ele>
        <time>2017-01-12 13:50:36</time>
      </trkpt>
      <trkpt lat="44.22456" lon="5.89425">
        <ele>572.9</ele>
        <time>2017-01-12 13:50:37</time>
      </trkpt>
      <trkpt lat="44.22456" lon="5.89425">
        <ele>572.9</ele>
        <time>2017-01-12 13:50:38</time>
      </trkpt>
      <trkpt lat="44.22456" lon="5.89425">
        <ele>572.9</ele>
        <time>2017-01-12 13:50:39</time>
      </trkpt>
      <trkpt lat="44.22463" lon="5.89413">
        <ele>572.8</ele>
        <time>2017-01-12 13:50:40</time>
      </trkpt>
      <trkpt lat="44.22463" lon="5.89413">
        <ele>572.8</ele>
        <time>2017-01-12 13:50:41</time>
      </trkpt>
      <trkpt lat="44.22463" lon="5.89413">
        <ele>572.8</ele>
        <time>2017-01-12 13:50:42</time>
      </trkpt>
      <trkpt lat="44.22463" lon="5.89413">
        <ele>572.8</ele>
        <time>2017-01-12 13:50:43</time>
      </trkpt>
      <trkpt lat="44.22471" lon="5.894">
        <ele>573.3</ele>
        <time>2017-01-12 13:50:44</time>
      </trkpt>
      <trkpt lat="44.22471" lon="5.894">
        <ele>573.3</ele>
        <time>2017-01-12 13:50:45</time>
      </trkpt>
      <trkpt lat="44.22471" lon="5.894">
        <ele>573.3</ele>
        <time>2017-01-12 13:50:46</time>
      </trkpt>
      <trkpt lat="44.22471" lon="5.894">
        <ele>573.3</ele>
        <time>2017-01-12 13:50:47</time>
      </trkpt>
      <trkpt lat="44.22478" lon="5.89387">
        <ele>573.2</ele>
        <time>2017-01-12 13:50:48</time>
      </trkpt>
      <trkpt lat="44.22478" lon="5.89387">
        <ele>573.2</ele>
        <time>2017-01-12 13:50:49</time>
      </trkpt>
      <trkpt lat="44.22478" lon="5.89387">
        <ele>573.2</ele>
        <time>2017-01-12 13:50:50</time>
      </trkpt>
      <trkpt lat="44.22478" lon="5.89387">
        <ele>573.2</ele>
        <time>2017-01-12 13:50:51</time>
      </trkpt>
      <trkpt lat="44.22485" lon="5.89374">
        <ele>572.9</ele>
        <time>2017-01-12 13:50:52</time>
      </trkpt>
      <trkpt lat="44.22485" lon="5.89374">
        <ele>572.9</ele>
        <time>2017-01-12 13:50:53</time>
      </trkpt>
      <trkpt lat="44.22485" lon="5.89374">
        <ele>572.9</ele>
        <time>2017-01-12 13:50:54</time>
      </trkpt>
      <trkpt lat="44.22485" lon="5.89374">
        <ele>572.9</ele>
        <time>2017-01-12 13:50:55</time>
      </trkpt>
      <trkpt lat="44.22492" lon="5.89362">
        <ele>573.2</ele>
        <time>2017-01-12 13:50:56</time>
      </trkpt>
      <trkpt lat="44.22492" lon="5.89362">
        <ele>573.2</ele>
        <time>2017-01-12 13:50:57</time>
      </trkpt>
      <trkpt lat="44.22492" lon="5.89362">
        <ele>573.2</ele>
        <time>2017-01-12 13:50:58</time>
      </trkpt>
      <trkpt lat="44.22492" lon="5.89362">
        <ele>573.2</ele>
        <time>2017-01-12 13:50:59</time>
      </trkpt>
      <trkpt lat="44.22499" lon="5.8935">
        <ele>573.4</ele>
        <time>2017-01-12 13:51:00</time>
      </trkpt>
      <trkpt lat="44.22499" lon="5.8935">
        <ele>573.4</ele>
        <time>2017-01-12 13:51:01</time>
      </trkpt>
      <trkpt lat="44.22499" lon="5.8935">
        <ele>573.4</ele>
        <time>2017-01-12 13:51:02</time>
      </trkpt>
      <trkpt lat="44.22499" lon="5.8935">
        <ele>573.4</ele>
        <time>2017-01-12 13:51:03</time>
      </trkpt>
      <trkpt lat="44.22506" lon="5.89338">
        <ele>573.6</ele>
        <time>2017-01-12 13:51:04</time>
      </trkpt>
      <trkpt lat="44.22506" lon="5.89338">
        <ele>573.6</ele>
        <time>2017-01-12 13:51:05</time>
      </trkpt>
      <trkpt lat="44.22506" lon="5.89338">
        <ele>573.6</ele>
        <time>2017-01-12 13:51:06</time>
      </trkpt>
      <trkpt lat="44.22506" lon="5.89338">
        <ele>573.6</ele>
        <time>2017-01-12 13:51:07</time>
      </trkpt>
      <trkpt lat="44.22511" lon="5.89329">
        <ele>573.7</ele>
        <time>2017-01-12 13:51:08</time>
      </trkpt>
      <trkpt lat="44.22511" lon="5.89329">
        <ele>573.7</ele>
        <time>2017-01-12 13:51:09</time>
      </trkpt>
      <trkpt lat="44.22511" lon="5.89329">
        <ele>573.7</ele>
        <time>2017-01-12 13:51:10</time>
      </trkpt>
      <trkpt lat="44.22511" lon="5.89329">
        <ele>573.7</ele>
        <time>2017-01-12 13:51:11</time>
      </trkpt>
      <trkpt lat="44.22514" lon="5.89321">
        <ele>573.7</ele>
        <time>2017-01-12 13:51:12</time>
      </trkpt>
      <trkpt lat="44.22514" lon="5.89321">
        <ele>573.7</ele>
        <time>2017-01-12 13:51:13</time>
      </trkpt>
      <trkpt lat="44.22514" lon="5.89321">
        <ele>573.7</ele>
        <time>2017-01-12 13:51:14</time>
      </trkpt>
      <trkpt lat="44.22514" lon="5.89321">
        <ele>573.7</ele>
        <time>2017-01-12 13:51:15</time>
      </trkpt>
      <trkpt lat="44.22518" lon="5.89315">
        <ele>573.8</ele>
        <time>2017-01-12 13:51:16</time>
      </trkpt>
      <trkpt lat="44.22518" lon="5.89315">
        <ele>573.8</ele>
        <time>2017-01-12 13:51:17</time>
      </trkpt>
      <trkpt lat="44.22518" lon="5.89315">
        <ele>573.8</ele>
        <time>2017-01-12 13:51:18</time>
      </trkpt>
      <trkpt lat="44.22518" lon="5.89315">
        <ele>573.8</ele>
        <time>2017-01-12 13:51:19</time>
      </trkpt>
      <trkpt lat="44.22522" lon="5.89315">
        <ele>573.7</ele>
        <time>2017-01-12 13:51:20</time>
      </trkpt>
      <trkpt lat="44.22522" lon="5.89315">
        <ele>573.7</ele>
        <time>2017-01-12 13:51:21</time>
      </trkpt>
      <trkpt lat="44.22522" lon="5.89315">
        <ele>573.7</ele>
        <time>2017-01-12 13:51:22</time>
      </trkpt>
      <trkpt lat="44.22522" lon="5.89315">
        <ele>573.7</ele>
        <time>2017-01-12 13:51:23</time>
      </trkpt>
      <trkpt lat="44.22523" lon="5.89317">
        <ele>573.7</ele>
        <time>2017-01-12 13:51:24</time>
      </trkpt>
      <trkpt lat="44.22523" lon="5.89317">
        <ele>573.7</ele>
        <time>2017-01-12 13:51:25</time>
      </trkpt>
      <trkpt lat="44.22523" lon="5.89317">
        <ele>573.7</ele>
        <time>2017-01-12 13:51:26</time>
      </trkpt>
      <trkpt lat="44.22523" lon="5.89317">
        <ele>573.7</ele>
        <time>2017-01-12 13:51:27</time>
      </trkpt>
      <trkpt lat="44.22527" lon="5.89314">
        <ele>573.7</ele>
        <time>2017-01-12 13:51:28</time>
      </trkpt>
      <trkpt lat="44.22527" lon="5.89314">
        <ele>573.7</ele>
        <time>2017-01-12 13:51:29</time>
      </trkpt>
      <trkpt lat="44.22527" lon="5.89314">
        <ele>573.7</ele>
        <time>2017-01-12 13:51:30</time>
      </trkpt>
      <trkpt lat="44.22527" lon="5.89314">
        <ele>573.7</ele>
        <time>2017-01-12 13:51:31</time>
      </trkpt>
      <trkpt lat="44.2253" lon="5.89306">
        <ele>573.7</ele>
        <time>2017-01-12 13:51:32</time>
      </trkpt>
      <trkpt lat="44.2253" lon="5.89306">
        <ele>573.7</ele>
        <time>2017-01-12 13:51:33</time>
      </trkpt>
      <trkpt lat="44.2253" lon="5.89306">
        <ele>573.7</ele>
        <time>2017-01-12 13:51:34</time>
      </trkpt>
      <trkpt lat="44.2253" lon="5.89306">
        <ele>573.7</ele>
        <time>2017-01-12 13:51:35</time>
      </trkpt>
      <trkpt lat="44.22529" lon="5.89302">
        <ele>573.8</ele>
        <time>2017-01-12 13:51:36</time>
      </trkpt>
      <trkpt lat="44.22529" lon="5.89302">
        <ele>573.8</ele>
        <time>2017-01-12 13:51:37</time>
      </trkpt>
      <trkpt lat="44.22529" lon="5.89302">
        <ele>573.8</ele>
        <time>2017-01-12 13:51:38</time>
      </trkpt>
      <trkpt lat="44.22529" lon="5.89302">
        <ele>573.8</ele>
        <time>2017-01-12 13:51:39</time>
      </trkpt>
      <trkpt lat="44.22529" lon="5.89299">
        <ele>573.9</ele>
        <time>2017-01-12 13:51:40</time>
      </trkpt>
      <trkpt lat="44.22529" lon="5.89299">
        <ele>573.9</ele>
        <time>2017-01-12 13:51:41</time>
      </trkpt>
      <trkpt lat="44.22529" lon="5.89299">
        <ele>573.9</ele>
        <time>2017-01-12 13:51:42</time>
      </trkpt>
      <trkpt lat="44.22529" lon="5.89299">
        <ele>573.9</ele>
        <time>2017-01-12 13:51:43</time>
      </trkpt>
      <trkpt lat="44.22532" lon="5.8929">
        <ele>573.5</ele>
        <time>2017-01-12 13:51:44</time>
      </trkpt>
      <trkpt lat="44.22532" lon="5.8929">
        <ele>573.5</ele>
        <time>2017-01-12 13:51:45</time>
      </trkpt>
      <trkpt lat="44.22532" lon="5.8929">
        <ele>573.5</ele>
        <time>2017-01-12 13:51:46</time>
      </trkpt>
      <trkpt lat="44.22532" lon="5.8929">
        <ele>573.5</ele>
        <time>2017-01-12 13:51:47</time>
      </trkpt>
      <trkpt lat="44.22538" lon="5.89282">
        <ele>572.9</ele>
        <time>2017-01-12 13:51:48</time>
      </trkpt>
      <trkpt lat="44.22538" lon="5.89282">
        <ele>572.9</ele>
        <time>2017-01-12 13:51:49</time>
      </trkpt>
      <trkpt lat="44.22538" lon="5.89282">
        <ele>572.9</ele>
        <time>2017-01-12 13:51:50</time>
      </trkpt>
      <trkpt lat="44.22538" lon="5.89282">
        <ele>572.9</ele>
        <time>2017-01-12 13:51:51</time>
      </trkpt>
      <trkpt lat="44.22542" lon="5.89274">
        <ele>572.6</ele>
        <time>2017-01-12 13:51:52</time>
      </trkpt>
      <trkpt lat="44.22542" lon="5.89274">
        <ele>572.6</ele>
        <time>2017-01-12 13:51:53</time>
      </trkpt>
      <trkpt lat="44.22542" lon="5.89274">
        <ele>572.6</ele>
        <time>2017-01-12 13:51:54</time>
      </trkpt>
      <trkpt lat="44.22542" lon="5.89274">
        <ele>572.6</ele>
        <time>2017-01-12 13:51:55</time>
      </trkpt>
      <trkpt lat="44.22547" lon="5.89265">
        <ele>572.6</ele>
        <time>2017-01-12 13:51:56</time>
      </trkpt>
      <trkpt lat="44.22547" lon="5.89265">
        <ele>572.6</ele>
        <time>2017-01-12 13:51:57</time>
      </trkpt>
      <trkpt lat="44.22547" lon="5.89265">
        <ele>572.6</ele>
        <time>2017-01-12 13:51:58</time>
      </trkpt>
      <trkpt lat="44.22547" lon="5.89265">
        <ele>572.6</ele>
        <time>2017-01-12 13:51:59</time>
      </trkpt>
      <trkpt lat="44.22552" lon="5.89254">
        <ele>572.9</ele>
        <time>2017-01-12 13:52:00</time>
      </trkpt>
      <trkpt lat="44.22552" lon="5.89254">
        <ele>572.9</ele>
        <time>2017-01-12 13:52:01</time>
      </trkpt>
      <trkpt lat="44.22552" lon="5.89254">
        <ele>572.9</ele>
        <time>2017-01-12 13:52:02</time>
      </trkpt>
      <trkpt lat="44.22552" lon="5.89254">
        <ele>572.9</ele>
        <time>2017-01-12 13:52:03</time>
      </trkpt>
      <trkpt lat="44.22557" lon="5.89244">
        <ele>573</ele>
        <time>2017-01-12 13:52:04</time>
      </trkpt>
      <trkpt lat="44.22557" lon="5.89244">
        <ele>573</ele>
        <time>2017-01-12 13:52:05</time>
      </trkpt>
      <trkpt lat="44.22557" lon="5.89244">
        <ele>573</ele>
        <time>2017-01-12 13:52:06</time>
      </trkpt>
      <trkpt lat="44.22557" lon="5.89244">
        <ele>573</ele>
        <time>2017-01-12 13:52:07</time>
      </trkpt>
      <trkpt lat="44.22562" lon="5.89234">
        <ele>572.5</ele>
        <time>2017-01-12 13:52:08</time>
      </trkpt>
      <trkpt lat="44.22562" lon="5.89234">
        <ele>572.5</ele>
        <time>2017-01-12 13:52:09</time>
      </trkpt>
      <trkpt lat="44.22562" lon="5.89234">
        <ele>572.5</ele>
        <time>2017-01-12 13:52:10</time>
      </trkpt>
      <trkpt lat="44.22562" lon="5.89234">
        <ele>572.5</ele>
        <time>2017-01-12 13:52:11</time>
      </trkpt>
      <trkpt lat="44.22568" lon="5.89224">
        <ele>572.1</ele>
        <time>2017-01-12 13:52:12</time>
      </trkpt>
      <trkpt lat="44.22568" lon="5.89224">
        <ele>572.1</ele>
        <time>2017-01-12 13:52:13</time>
      </trkpt>
      <trkpt lat="44.22568" lon="5.89224">
        <ele>572.1</ele>
        <time>2017-01-12 13:52:14</time>
      </trkpt>
      <trkpt lat="44.22568" lon="5.89224">
        <ele>572.1</ele>
        <time>2017-01-12 13:52:15</time>
      </trkpt>
      <trkpt lat="44.22574" lon="5.89213">
        <ele>572.2</ele>
        <time>2017-01-12 13:52:16</time>
      </trkpt>
      <trkpt lat="44.22574" lon="5.89213">
        <ele>572.2</ele>
        <time>2017-01-12 13:52:17</time>
      </trkpt>
      <trkpt lat="44.22574" lon="5.89213">
        <ele>572.2</ele>
        <time>2017-01-12 13:52:18</time>
      </trkpt>
      <trkpt lat="44.22574" lon="5.89213">
        <ele>572.2</ele>
        <time>2017-01-12 13:52:19</time>
      </trkpt>
      <trkpt lat="44.2258" lon="5.89202">
        <ele>573</ele>
        <time>2017-01-12 13:52:20</time>
      </trkpt>
      <trkpt lat="44.2258" lon="5.89202">
        <ele>573</ele>
        <time>2017-01-12 13:52:21</time>
      </trkpt>
      <trkpt lat="44.2258" lon="5.89202">
        <ele>573</ele>
        <time>2017-01-12 13:52:22</time>
      </trkpt>
      <trkpt lat="44.2258" lon="5.89202">
        <ele>573</ele>
        <time>2017-01-12 13:52:23</time>
      </trkpt>
      <trkpt lat="44.22587" lon="5.89191">
        <ele>573.2</ele>
        <time>2017-01-12 13:52:24</time>
      </trkpt>
      <trkpt lat="44.22587" lon="5.89191">
        <ele>573.2</ele>
        <time>2017-01-12 13:52:25</time>
      </trkpt>
      <trkpt lat="44.22587" lon="5.89191">
        <ele>573.2</ele>
        <time>2017-01-12 13:52:26</time>
      </trkpt>
      <trkpt lat="44.22587" lon="5.89191">
        <ele>573.2</ele>
        <time>2017-01-12 13:52:27</time>
      </trkpt>
      <trkpt lat="44.22593" lon="5.8918">
        <ele>572.2</ele>
        <time>2017-01-12 13:52:28</time>
      </trkpt>
      <trkpt lat="44.22593" lon="5.8918">
        <ele>572.2</ele>
        <time>2017-01-12 13:52:29</time>
      </trkpt>
      <trkpt lat="44.22593" lon="5.8918">
        <ele>572.2</ele>
        <time>2017-01-12 13:52:30</time>
      </trkpt>
      <trkpt lat="44.22593" lon="5.8918">
        <ele>572.2</ele>
        <time>2017-01-12 13:52:31</time>
      </trkpt>
      <trkpt lat="44.22599" lon="5.89169">
        <ele>572.1</ele>
        <time>2017-01-12 13:52:32</time>
      </trkpt>
      <trkpt lat="44.22599" lon="5.89169">
        <ele>572.1</ele>
        <time>2017-01-12 13:52:33</time>
      </trkpt>
      <trkpt lat="44.22599" lon="5.89169">
        <ele>572.1</ele>
        <time>2017-01-12 13:52:34</time>
      </trkpt>
      <trkpt lat="44.22599" lon="5.89169">
        <ele>572.1</ele>
        <time>2017-01-12 13:52:35</time>
      </trkpt>
      <trkpt lat="44.22606" lon="5.89157">
        <ele>572.4</ele>
        <time>2017-01-12 13:52:36</time>
      </trkpt>
      <trkpt lat="44.22606" lon="5.89157">
        <ele>572.4</ele>
        <time>2017-01-12 13:52:37</time>
      </trkpt>
      <trkpt lat="44.22606" lon="5.89157">
        <ele>572.4</ele>
        <time>2017-01-12 13:52:38</time>
      </trkpt>
      <trkpt lat="44.22606" lon="5.89157">
        <ele>572.4</ele>
        <time>2017-01-12 13:52:39</time>
      </trkpt>
      <trkpt lat="44.22612" lon="5.89146">
        <ele>573</ele>
        <time>2017-01-12 13:52:40</time>
      </trkpt>
      <trkpt lat="44.22612" lon="5.89146">
        <ele>573</ele>
        <time>2017-01-12 13:52:41</time>
      </trkpt>
      <trkpt lat="44.22612" lon="5.89146">
        <ele>573</ele>
        <time>2017-01-12 13:52:42</time>
      </trkpt>
      <trkpt lat="44.22612" lon="5.89146">
        <ele>573</ele>
        <time>2017-01-12 13:52:43</time>
      </trkpt>
      <trkpt lat="44.22619" lon="5.89134">
        <ele>572.3</ele>
        <time>2017-01-12 13:52:44</time>
      </trkpt>
      <trkpt lat="44.22619" lon="5.89134">
        <ele>572.3</ele>
        <time>2017-01-12 13:52:45</time>
      </trkpt>
      <trkpt lat="44.22619" lon="5.89134">
        <ele>572.3</ele>
        <time>2017-01-12 13:52:46</time>
      </trkpt>
      <trkpt lat="44.22619" lon="5.89134">
        <ele>572.3</ele>
        <time>2017-01-12 13:52:47</time>
      </trkpt>
      <trkpt lat="44.22625" lon="5.89122">
        <ele>571.7</ele>
        <time>2017-01-12 13:52:48</time>
      </trkpt>
      <trkpt lat="44.22625" lon="5.89122">
        <ele>571.7</ele>
        <time>2017-01-12 13:52:49</time>
      </trkpt>
      <trkpt lat="44.22625" lon="5.89122">
        <ele>571.7</ele>
        <time>2017-01-12 13:52:50</time>
      </trkpt>
      <trkpt lat="44.22625" lon="5.89122">
        <ele>571.7</ele>
        <time>2017-01-12 13:52:51</time>
      </trkpt>
      <trkpt lat="44.22632" lon="5.8911">
        <ele>571.9</ele>
        <time>2017-01-12 13:52:52</time>
      </trkpt>
      <trkpt lat="44.22632" lon="5.8911">
        <ele>571.9</ele>
        <time>2017-01-12 13:52:53</time>
      </trkpt>
      <trkpt lat="44.22632" lon="5.8911">
        <ele>571.9</ele>
        <time>2017-01-12 13:52:54</time>
      </trkpt>
      <trkpt lat="44.22632" lon="5.8911">
        <ele>571.9</ele>
        <time>2017-01-12 13:52:55</time>
      </trkpt>
      <trkpt lat="44.22639" lon="5.89097">
        <ele>572.5</ele>
        <time>2017-01-12 13:52:56</time>
      </trkpt>
      <trkpt lat="44.22639" lon="5.89097">
        <ele>572.5</ele>
        <time>2017-01-12 13:52:57</time>
      </trkpt>
      <trkpt lat="44.22639" lon="5.89097">
        <ele>572.5</ele>
        <time>2017-01-12 13:52:58</time>
      </trkpt>
      <trkpt lat="44.22639" lon="5.89097">
        <ele>572.5</ele>
        <time>2017-01-12 13:52:59</time>
      </trkpt>
      <trkpt lat="44.22646" lon="5.89084">
        <ele>572.2</ele>
        <time>2017-01-12 13:53:00</time>
      </trkpt>
      <trkpt lat="44.22646" lon="5.89084">
        <ele>572.2</ele>
        <time>2017-01-12 13:53:01</time>
      </trkpt>
      <trkpt lat="44.22646" lon="5.89084">
        <ele>572.2</ele>
        <time>2017-01-12 13:53:02</time>
      </trkpt>
      <trkpt lat="44.22646" lon="5.89084">
        <ele>572.2</ele>
        <time>2017-01-12 13:53:03</time>
      </trkpt>
      <trkpt lat="44.22653" lon="5.89071">
        <ele>571.9</ele>
        <time>2017-01-12 13:53:04</time>
      </trkpt>
      <trkpt lat="44.22653" lon="5.89071">
        <ele>571.9</ele>
        <time>2017-01-12 13:53:05</time>
      </trkpt>
      <trkpt lat="44.22653" lon="5.89071">
        <ele>571.9</ele>
        <time>2017-01-12 13:53:06</time>
      </trkpt>
      <trkpt lat="44.22653" lon="5.89071">
        <ele>571.9</ele>
        <time>2017-01-12 13:53:07</time>
      </trkpt>
      <trkpt lat="44.2266" lon="5.89057">
        <ele>573</ele>
        <time>2017-01-12 13:53:08</time>
      </trkpt>
      <trkpt lat="44.2266" lon="5.89057">
        <ele>573</ele>
        <time>2017-01-12 13:53:09</time>
      </trkpt>
      <trkpt lat="44.2266" lon="5.89057">
        <ele>573</ele>
        <time>2017-01-12 13:53:10</time>
      </trkpt>
      <trkpt lat="44.2266" lon="5.89057">
        <ele>573</ele>
        <time>2017-01-12 13:53:11</time>
      </trkpt>
      <trkpt lat="44.22668" lon="5.89043">
        <ele>573.1</ele>
        <time>2017-01-12 13:53:12</time>
      </trkpt>
      <trkpt lat="44.22668" lon="5.89043">
        <ele>573.1</ele>
        <time>2017-01-12 13:53:13</time>
      </trkpt>
      <trkpt lat="44.22668" lon="5.89043">
        <ele>573.1</ele>
        <time>2017-01-12 13:53:14</time>
      </trkpt>
      <trkpt lat="44.22668" lon="5.89043">
        <ele>573.1</ele>
        <time>2017-01-12 13:53:15</time>
      </trkpt>
      <trkpt lat="44.22676" lon="5.8903">
        <ele>571.8</ele>
        <time>2017-01-12 13:53:16</time>
      </trkpt>
      <trkpt lat="44.22676" lon="5.8903">
        <ele>571.8</ele>
        <time>2017-01-12 13:53:17</time>
      </trkpt>
      <trkpt lat="44.22676" lon="5.8903">
        <ele>571.8</ele>
        <time>2017-01-12 13:53:18</time>
      </trkpt>
      <trkpt lat="44.22676" lon="5.8903">
        <ele>571.8</ele>
        <time>2017-01-12 13:53:19</time>
      </trkpt>
      <trkpt lat="44.22684" lon="5.89016">
        <ele>571.9</ele>
        <time>2017-01-12 13:53:20</time>
      </trkpt>
      <trkpt lat="44.22684" lon="5.89016">
        <ele>571.9</ele>
        <time>2017-01-12 13:53:21</time>
      </trkpt>
      <trkpt lat="44.22684" lon="5.89016">
        <ele>571.9</ele>
        <time>2017-01-12 13:53:22</time>
      </trkpt>
      <trkpt lat="44.22684" lon="5.89016">
        <ele>571.9</ele>
        <time>2017-01-12 13:53:23</time>
      </trkpt>
      <trkpt lat="44.22693" lon="5.89002">
        <ele>573.6</ele>
        <time>2017-01-12 13:53:24</time>
      </trkpt>
      <trkpt lat="44.22693" lon="5.89002">
        <ele>573.6</ele>
        <time>2017-01-12 13:53:25</time>
      </trkpt>
      <trkpt lat="44.22693" lon="5.89002">
        <ele>573.6</ele>
        <time>2017-01-12 13:53:26</time>
      </trkpt>
      <trkpt lat="44.22693" lon="5.89002">
        <ele>573.6</ele>
        <time>2017-01-12 13:53:27</time>
      </trkpt>
      <trkpt lat="44.22702" lon="5.88989">
        <ele>572.1</ele>
        <time>2017-01-12 13:53:28</time>
      </trkpt>
      <trkpt lat="44.22702" lon="5.88989">
        <ele>572.1</ele>
        <time>2017-01-12 13:53:29</time>
      </trkpt>
      <trkpt lat="44.22702" lon="5.88989">
        <ele>572.1</ele>
        <time>2017-01-12 13:53:30</time>
      </trkpt>
      <trkpt lat="44.22702" lon="5.88989">
        <ele>572.1</ele>
        <time>2017-01-12 13:53:31</time>
      </trkpt>
      <trkpt lat="44.22711" lon="5.88977">
        <ele>572</ele>
        <time>2017-01-12 13:53:32</time>
      </trkpt>
      <trkpt lat="44.22711" lon="5.88977">
        <ele>572</ele>
        <time>2017-01-12 13:53:33</time>
      </trkpt>
      <trkpt lat="44.22711" lon="5.88977">
        <ele>572</ele>
        <time>2017-01-12 13:53:34</time>
      </trkpt>
      <trkpt lat="44.22711" lon="5.88977">
        <ele>572</ele>
        <time>2017-01-12 13:53:35</time>
      </trkpt>
      <trkpt lat="44.2272" lon="5.88965">
        <ele>572.7</ele>
        <time>2017-01-12 13:53:36</time>
      </trkpt>
      <trkpt lat="44.2272" lon="5.88965">
        <ele>572.7</ele>
        <time>2017-01-12 13:53:37</time>
      </trkpt>
      <trkpt lat="44.2272" lon="5.88965">
        <ele>572.7</ele>
        <time>2017-01-12 13:53:38</time>
      </trkpt>
      <trkpt lat="44.2272" lon="5.88965">
        <ele>572.7</ele>
        <time>2017-01-12 13:53:39</time>
      </trkpt>
      <trkpt lat="44.22729" lon="5.88953">
        <ele>572.2</ele>
        <time>2017-01-12 13:53:40</time>
      </trkpt>
      <trkpt lat="44.22729" lon="5.88953">
        <ele>572.2</ele>
        <time>2017-01-12 13:53:41</time>
      </trkpt>
      <trkpt lat="44.22729" lon="5.88953">
        <ele>572.2</ele>
        <time>2017-01-12 13:53:42</time>
      </trkpt>
      <trkpt lat="44.22729" lon="5.88953">
        <ele>572.2</ele>
        <time>2017-01-12 13:53:43</time>
      </trkpt>
      <trkpt lat="44.22739" lon="5.88942">
        <ele>572.4</ele>
        <time>2017-01-12 13:53:44</time>
      </trkpt>
      <trkpt lat="44.22739" lon="5.88942">
        <ele>572.4</ele>
        <time>2017-01-12 13:53:45</time>
      </trkpt>
      <trkpt lat="44.22739" lon="5.88942">
        <ele>572.4</ele>
        <time>2017-01-12 13:53:46</time>
      </trkpt>
      <trkpt lat="44.22739" lon="5.88942">
        <ele>572.4</ele>
        <time>2017-01-12 13:53:47</time>
      </trkpt>
      <trkpt lat="44.22748" lon="5.88931">
        <ele>572.5</ele>
        <time>2017-01-12 13:53:48</time>
      </trkpt>
      <trkpt lat="44.22748" lon="5.88931">
        <ele>572.5</ele>
        <time>2017-01-12 13:53:49</time>
      </trkpt>
      <trkpt lat="44.22748" lon="5.88931">
        <ele>572.5</ele>
        <time>2017-01-12 13:53:50</time>
      </trkpt>
      <trkpt lat="44.22748" lon="5.88931">
        <ele>572.5</ele>
        <time>2017-01-12 13:53:51</time>
      </trkpt>
      <trkpt lat="44.22758" lon="5.88921">
        <ele>572.5</ele>
        <time>2017-01-12 13:53:52</time>
      </trkpt>
      <trkpt lat="44.22758" lon="5.88921">
        <ele>572.5</ele>
        <time>2017-01-12 13:53:53</time>
      </trkpt>
      <trkpt lat="44.22758" lon="5.88921">
        <ele>572.5</ele>
        <time>2017-01-12 13:53:54</time>
      </trkpt>
      <trkpt lat="44.22758" lon="5.88921">
        <ele>572.5</ele>
        <time>2017-01-12 13:53:55</time>
      </trkpt>
      <trkpt lat="44.22769" lon="5.88911">
        <ele>572.4</ele>
        <time>2017-01-12 13:53:56</time>
      </trkpt>
      <trkpt lat="44.22769" lon="5.88911">
        <ele>572.4</ele>
        <time>2017-01-12 13:53:57</time>
      </trkpt>
      <trkpt lat="44.22769" lon="5.88911">
        <ele>572.4</ele>
        <time>2017-01-12 13:53:58</time>
      </trkpt>
      <trkpt lat="44.22769" lon="5.88911">
        <ele>572.4</ele>
        <time>2017-01-12 13:53:59</time>
      </trkpt>
      <trkpt lat="44.2278" lon="5.88901">
        <ele>572.4</ele>
        <time>2017-01-12 13:54:00</time>
      </trkpt>
      <trkpt lat="44.2278" lon="5.88901">
        <ele>572.4</ele>
        <time>2017-01-12 13:54:01</time>
      </trkpt>
      <trkpt lat="44.2278" lon="5.88901">
        <ele>572.4</ele>
        <time>2017-01-12 13:54:02</time>
      </trkpt>
      <trkpt lat="44.2278" lon="5.88901">
        <ele>572.4</ele>
        <time>2017-01-12 13:54:03</time>
      </trkpt>
      <trkpt lat="44.22791" lon="5.88892">
        <ele>572.5</ele>
        <time>2017-01-12 13:54:04</time>
      </trkpt>
      <trkpt lat="44.22791" lon="5.88892">
        <ele>572.5</ele>
        <time>2017-01-12 13:54:05</time>
      </trkpt>
      <trkpt lat="44.22791" lon="5.88892">
        <ele>572.5</ele>
        <time>2017-01-12 13:54:06</time>
      </trkpt>
      <trkpt lat="44.22791" lon="5.88892">
        <ele>572.5</ele>
        <time>2017-01-12 13:54:07</time>
      </trkpt>
      <trkpt lat="44.22802" lon="5.88882">
        <ele>572.6</ele>
        <time>2017-01-12 13:54:08</time>
      </trkpt>
      <trkpt lat="44.22802" lon="5.88882">
        <ele>572.6</ele>
        <time>2017-01-12 13:54:09</time>
      </trkpt>
      <trkpt lat="44.22802" lon="5.88882">
        <ele>572.6</ele>
        <time>2017-01-12 13:54:10</time>
      </trkpt>
      <trkpt lat="44.22802" lon="5.88882">
        <ele>572.6</ele>
        <time>2017-01-12 13:54:11</time>
      </trkpt>
      <trkpt lat="44.22814" lon="5.88873">
        <ele>572.5</ele>
        <time>2017-01-12 13:54:12</time>
      </trkpt>
      <trkpt lat="44.22814" lon="5.88873">
        <ele>572.5</ele>
        <time>2017-01-12 13:54:13</time>
      </trkpt>
      <trkpt lat="44.22814" lon="5.88873">
        <ele>572.5</ele>
        <time>2017-01-12 13:54:14</time>
      </trkpt>
      <trkpt lat="44.22814" lon="5.88873">
        <ele>572.5</ele>
        <time>2017-01-12 13:54:15</time>
      </trkpt>
      <trkpt lat="44.22825" lon="5.88866">
        <ele>573.1</ele>
        <time>2017-01-12 13:54:16</time>
      </trkpt>
      <trkpt lat="44.22825" lon="5.88866">
        <ele>573.1</ele>
        <time>2017-01-12 13:54:17</time>
      </trkpt>
      <trkpt lat="44.22825" lon="5.88866">
        <ele>573.1</ele>
        <time>2017-01-12 13:54:18</time>
      </trkpt>
      <trkpt lat="44.22825" lon="5.88866">
        <ele>573.1</ele>
        <time>2017-01-12 13:54:19</time>
      </trkpt>
      <trkpt lat="44.22836" lon="5.88858">
        <ele>573.6</ele>
        <time>2017-01-12 13:54:20</time>
      </trkpt>
      <trkpt lat="44.22836" lon="5.88858">
        <ele>573.6</ele>
        <time>2017-01-12 13:54:21</time>
      </trkpt>
      <trkpt lat="44.22836" lon="5.88858">
        <ele>573.6</ele>
        <time>2017-01-12 13:54:22</time>
      </trkpt>
      <trkpt lat="44.22836" lon="5.88858">
        <ele>573.6</ele>
        <time>2017-01-12 13:54:23</time>
      </trkpt>
      <trkpt lat="44.22848" lon="5.88851">
        <ele>572.6</ele>
        <time>2017-01-12 13:54:24</time>
      </trkpt>
      <trkpt lat="44.22848" lon="5.88851">
        <ele>572.6</ele>
        <time>2017-01-12 13:54:25</time>
      </trkpt>
      <trkpt lat="44.22848" lon="5.88851">
        <ele>572.6</ele>
        <time>2017-01-12 13:54:26</time>
      </trkpt>
      <trkpt lat="44.22848" lon="5.88851">
        <ele>572.6</ele>
        <time>2017-01-12 13:54:27</time>
      </trkpt>
      <trkpt lat="44.2286" lon="5.88845">
        <ele>572.4</ele>
        <time>2017-01-12 13:54:28</time>
      </trkpt>
      <trkpt lat="44.2286" lon="5.88845">
        <ele>572.4</ele>
        <time>2017-01-12 13:54:29</time>
      </trkpt>
      <trkpt lat="44.2286" lon="5.88845">
        <ele>572.4</ele>
        <time>2017-01-12 13:54:30</time>
      </trkpt>
      <trkpt lat="44.2286" lon="5.88845">
        <ele>572.4</ele>
        <time>2017-01-12 13:54:31</time>
      </trkpt>
      <trkpt lat="44.22872" lon="5.88839">
        <ele>573</ele>
        <time>2017-01-12 13:54:32</time>
      </trkpt>
      <trkpt lat="44.22872" lon="5.88839">
        <ele>573</ele>
        <time>2017-01-12 13:54:33</time>
      </trkpt>
      <trkpt lat="44.22872" lon="5.88839">
        <ele>573</ele>
        <time>2017-01-12 13:54:34</time>
      </trkpt>
      <trkpt lat="44.22872" lon="5.88839">
        <ele>573</ele>
        <time>2017-01-12 13:54:35</time>
      </trkpt>
      <trkpt lat="44.22883" lon="5.88834">
        <ele>573.8</ele>
        <time>2017-01-12 13:54:36</time>
      </trkpt>
      <trkpt lat="44.22883" lon="5.88834">
        <ele>573.8</ele>
        <time>2017-01-12 13:54:37</time>
      </trkpt>
      <trkpt lat="44.22883" lon="5.88834">
        <ele>573.8</ele>
        <time>2017-01-12 13:54:38</time>
      </trkpt>
      <trkpt lat="44.22883" lon="5.88834">
        <ele>573.8</ele>
        <time>2017-01-12 13:54:39</time>
      </trkpt>
      <trkpt lat="44.22895" lon="5.8883">
        <ele>573.4</ele>
        <time>2017-01-12 13:54:40</time>
      </trkpt>
      <trkpt lat="44.22895" lon="5.8883">
        <ele>573.4</ele>
        <time>2017-01-12 13:54:41</time>
      </trkpt>
      <trkpt lat="44.22895" lon="5.8883">
        <ele>573.4</ele>
        <time>2017-01-12 13:54:42</time>
      </trkpt>
      <trkpt lat="44.22895" lon="5.8883">
        <ele>573.4</ele>
        <time>2017-01-12 13:54:43</time>
      </trkpt>
      <trkpt lat="44.22906" lon="5.88824">
        <ele>572.8</ele>
        <time>2017-01-12 13:54:44</time>
      </trkpt>
      <trkpt lat="44.22906" lon="5.88824">
        <ele>572.8</ele>
        <time>2017-01-12 13:54:45</time>
      </trkpt>
      <trkpt lat="44.22906" lon="5.88824">
        <ele>572.8</ele>
        <time>2017-01-12 13:54:46</time>
      </trkpt>
      <trkpt lat="44.22906" lon="5.88824">
        <ele>572.8</ele>
        <time>2017-01-12 13:54:47</time>
      </trkpt>
      <trkpt lat="44.22917" lon="5.88819">
        <ele>572.5</ele>
        <time>2017-01-12 13:54:48</time>
      </trkpt>
      <trkpt lat="44.22917" lon="5.88819">
        <ele>572.5</ele>
        <time>2017-01-12 13:54:49</time>
      </trkpt>
      <trkpt lat="44.22917" lon="5.88819">
        <ele>572.5</ele>
        <time>2017-01-12 13:54:50</time>
      </trkpt>
      <trkpt lat="44.22917" lon="5.88819">
        <ele>572.5</ele>
        <time>2017-01-12 13:54:51</time>
      </trkpt>
      <trkpt lat="44.22928" lon="5.88814">
        <ele>572.8</ele>
        <time>2017-01-12 13:54:52</time>
      </trkpt>
      <trkpt lat="44.22928" lon="5.88814">
        <ele>572.8</ele>
        <time>2017-01-12 13:54:53</time>
      </trkpt>
      <trkpt lat="44.22928" lon="5.88814">
        <ele>572.8</ele>
        <time>2017-01-12 13:54:54</time>
      </trkpt>
      <trkpt lat="44.22928" lon="5.88814">
        <ele>572.8</ele>
        <time>2017-01-12 13:54:55</time>
      </trkpt>
      <trkpt lat="44.2294" lon="5.88809">
        <ele>573.3</ele>
        <time>2017-01-12 13:54:56</time>
      </trkpt>
      <trkpt lat="44.2294" lon="5.88809">
        <ele>573.3</ele>
        <time>2017-01-12 13:54:57</time>
      </trkpt>
      <trkpt lat="44.2294" lon="5.88809">
        <ele>573.3</ele>
        <time>2017-01-12 13:54:58</time>
      </trkpt>
      <trkpt lat="44.2294" lon="5.88809">
        <ele>573.3</ele>
        <time>2017-01-12 13:54:59</time>
      </trkpt>
      <trkpt lat="44.22951" lon="5.88805">
        <ele>574</ele>
        <time>2017-01-12 13:55:00</time>
      </trkpt>
      <trkpt lat="44.22951" lon="5.88805">
        <ele>574</ele>
        <time>2017-01-12 13:55:01</time>
      </trkpt>
      <trkpt lat="44.22951" lon="5.88805">
        <ele>574</ele>
        <time>2017-01-12 13:55:02</time>
      </trkpt>
      <trkpt lat="44.22951" lon="5.88805">
        <ele>574</ele>
        <time>2017-01-12 13:55:03</time>
      </trkpt>
      <trkpt lat="44.22959" lon="5.88803">
        <ele>574</ele>
        <time>2017-01-12 13:55:04</time>
      </trkpt>
      <trkpt lat="44.22959" lon="5.88803">
        <ele>574</ele>
        <time>2017-01-12 13:55:05</time>
      </trkpt>
      <trkpt lat="44.22959" lon="5.88803">
        <ele>574</ele>
        <time>2017-01-12 13:55:06</time>
      </trkpt>
      <trkpt lat="44.22959" lon="5.88803">
        <ele>574</ele>
        <time>2017-01-12 13:55:07</time>
      </trkpt>
      <trkpt lat="44.22965" lon="5.888">
        <ele>574</ele>
        <time>2017-01-12 13:55:08</time>
      </trkpt>
      <trkpt lat="44.22965" lon="5.888">
        <ele>574</ele>
        <time>2017-01-12 13:55:09</time>
      </trkpt>
      <trkpt lat="44.22965" lon="5.888">
        <ele>574</ele>
        <time>2017-01-12 13:55:10</time>
      </trkpt>
      <trkpt lat="44.22965" lon="5.888">
        <ele>574</ele>
        <time>2017-01-12 13:55:11</time>
      </trkpt>
      <trkpt lat="44.2297" lon="5.88796">
        <ele>574</ele>
        <time>2017-01-12 13:55:12</time>
      </trkpt>
      <trkpt lat="44.2297" lon="5.88796">
        <ele>574</ele>
        <time>2017-01-12 13:55:13</time>
      </trkpt>
      <trkpt lat="44.2297" lon="5.88796">
        <ele>574</ele>
        <time>2017-01-12 13:55:14</time>
      </trkpt>
      <trkpt lat="44.2297" lon="5.88796">
        <ele>574</ele>
        <time>2017-01-12 13:55:15</time>
      </trkpt>
      <trkpt lat="44.22974" lon="5.88797">
        <ele>574</ele>
        <time>2017-01-12 13:55:16</time>
      </trkpt>
      <trkpt lat="44.22974" lon="5.88797">
        <ele>574</ele>
        <time>2017-01-12 13:55:17</time>
      </trkpt>
      <trkpt lat="44.22974" lon="5.88797">
        <ele>574</ele>
        <time>2017-01-12 13:55:18</time>
      </trkpt>
      <trkpt lat="44.22974" lon="5.88797">
        <ele>574</ele>
        <time>2017-01-12 13:55:19</time>
      </trkpt>
      <trkpt lat="44.22975" lon="5.88798">
        <ele>573.9</ele>
        <time>2017-01-12 13:55:20</time>
      </trkpt>
      <trkpt lat="44.22975" lon="5.88798">
        <ele>573.9</ele>
        <time>2017-01-12 13:55:21</time>
      </trkpt>
      <trkpt lat="44.22975" lon="5.88798">
        <ele>573.9</ele>
        <time>2017-01-12 13:55:22</time>
      </trkpt>
      <trkpt lat="44.22975" lon="5.88798">
        <ele>573.9</ele>
        <time>2017-01-12 13:55:23</time>
      </trkpt>
      <trkpt lat="44.22977" lon="5.88802">
        <ele>573.9</ele>
        <time>2017-01-12 13:55:24</time>
      </trkpt>
      <trkpt lat="44.22977" lon="5.88802">
        <ele>573.9</ele>
        <time>2017-01-12 13:55:25</time>
      </trkpt>
      <trkpt lat="44.22977" lon="5.88802">
        <ele>573.9</ele>
        <time>2017-01-12 13:55:26</time>
      </trkpt>
      <trkpt lat="44.22977" lon="5.88802">
        <ele>573.9</ele>
        <time>2017-01-12 13:55:27</time>
      </trkpt>
      <trkpt lat="44.2298" lon="5.88804">
        <ele>573.7</ele>
        <time>2017-01-12 13:55:28</time>
      </trkpt>
      <trkpt lat="44.2298" lon="5.88804">
        <ele>573.7</ele>
        <time>2017-01-12 13:55:29</time>
      </trkpt>
      <trkpt lat="44.2298" lon="5.88804">
        <ele>573.7</ele>
        <time>2017-01-12 13:55:30</time>
      </trkpt>
      <trkpt lat="44.2298" lon="5.88804">
        <ele>573.7</ele>
        <time>2017-01-12 13:55:31</time>
      </trkpt>
      <trkpt lat="44.22982" lon="5.88808">
        <ele>573.4</ele>
        <time>2017-01-12 13:55:32</time>
      </trkpt>
      <trkpt lat="44.22982" lon="5.88808">
        <ele>573.4</ele>
        <time>2017-01-12 13:55:33</time>
      </trkpt>
      <trkpt lat="44.22982" lon="5.88808">
        <ele>573.4</ele>
        <time>2017-01-12 13:55:34</time>
      </trkpt>
      <trkpt lat="44.22982" lon="5.88808">
        <ele>573.4</ele>
        <time>2017-01-12 13:55:35</time>
      </trkpt>
      <trkpt lat="44.22984" lon="5.88816">
        <ele>572.8</ele>
        <time>2017-01-12 13:55:36</time>
      </trkpt>
      <trkpt lat="44.22984" lon="5.88816">
        <ele>572.8</ele>
        <time>2017-01-12 13:55:37</time>
      </trkpt>
      <trkpt lat="44.22984" lon="5.88816">
        <ele>572.8</ele>
        <time>2017-01-12 13:55:38</time>
      </trkpt>
      <trkpt lat="44.22984" lon="5.88816">
        <ele>572.8</ele>
        <time>2017-01-12 13:55:39</time>
      </trkpt>
      <trkpt lat="44.22987" lon="5.88826">
        <ele>572</ele>
        <time>2017-01-12 13:55:40</time>
      </trkpt>
      <trkpt lat="44.22987" lon="5.88826">
        <ele>572</ele>
        <time>2017-01-12 13:55:41</time>
      </trkpt>
      <trkpt lat="44.22987" lon="5.88826">
        <ele>572</ele>
        <time>2017-01-12 13:55:42</time>
      </trkpt>
      <trkpt lat="44.22987" lon="5.88826">
        <ele>572</ele>
        <time>2017-01-12 13:55:43</time>
      </trkpt>
      <trkpt lat="44.2299" lon="5.88839">
        <ele>571.6</ele>
        <time>2017-01-12 13:55:44</time>
      </trkpt>
      <trkpt lat="44.2299" lon="5.88839">
        <ele>571.6</ele>
        <time>2017-01-12 13:55:45</time>
      </trkpt>
      <trkpt lat="44.2299" lon="5.88839">
        <ele>571.6</ele>
        <time>2017-01-12 13:55:46</time>
      </trkpt>
      <trkpt lat="44.2299" lon="5.88839">
        <ele>571.6</ele>
        <time>2017-01-12 13:55:47</time>
      </trkpt>
      <trkpt lat="44.22995" lon="5.88855">
        <ele>571.7</ele>
        <time>2017-01-12 13:55:48</time>
      </trkpt>
      <trkpt lat="44.22995" lon="5.88855">
        <ele>571.7</ele>
        <time>2017-01-12 13:55:49</time>
      </trkpt>
      <trkpt lat="44.22995" lon="5.88855">
        <ele>571.7</ele>
        <time>2017-01-12 13:55:50</time>
      </trkpt>
      <trkpt lat="44.22995" lon="5.88855">
        <ele>571.7</ele>
        <time>2017-01-12 13:55:51</time>
      </trkpt>
      <trkpt lat="44.23" lon="5.88874">
        <ele>572</ele>
        <time>2017-01-12 13:55:52</time>
      </trkpt>
      <trkpt lat="44.23" lon="5.88874">
        <ele>572</ele>
        <time>2017-01-12 13:55:53</time>
      </trkpt>
      <trkpt lat="44.23" lon="5.88874">
        <ele>572</ele>
        <time>2017-01-12 13:55:54</time>
      </trkpt>
      <trkpt lat="44.23" lon="5.88874">
        <ele>572</ele>
        <time>2017-01-12 13:55:55</time>
      </trkpt>
      <trkpt lat="44.23004" lon="5.88896">
        <ele>571.6</ele>
        <time>2017-01-12 13:55:56</time>
      </trkpt>
      <trkpt lat="44.23004" lon="5.88896">
        <ele>571.6</ele>
        <time>2017-01-12 13:55:57</time>
      </trkpt>
      <trkpt lat="44.23004" lon="5.88896">
        <ele>571.6</ele>
        <time>2017-01-12 13:55:58</time>
      </trkpt>
      <trkpt lat="44.23004" lon="5.88896">
        <ele>571.6</ele>
        <time>2017-01-12 13:55:59</time>
      </trkpt>
      <trkpt lat="44.23009" lon="5.88919">
        <ele>571</ele>
        <time>2017-01-12 13:56:00</time>
      </trkpt>
      <trkpt lat="44.23009" lon="5.88919">
        <ele>571</ele>
        <time>2017-01-12 13:56:01</time>
      </trkpt>
      <trkpt lat="44.23009" lon="5.88919">
        <ele>571</ele>
        <time>2017-01-12 13:56:02</time>
      </trkpt>
      <trkpt lat="44.23009" lon="5.88919">
        <ele>571</ele>
        <time>2017-01-12 13:56:03</time>
      </trkpt>
      <trkpt lat="44.23016" lon="5.88945">
        <ele>571</ele>
        <time>2017-01-12 13:56:04</time>
      </trkpt>
      <trkpt lat="44.23016" lon="5.88945">
        <ele>571</ele>
        <time>2017-01-12 13:56:05</time>
      </trkpt>
      <trkpt lat="44.23016" lon="5.88945">
        <ele>571</ele>
        <time>2017-01-12 13:56:06</time>
      </trkpt>
      <trkpt lat="44.23016" lon="5.88945">
        <ele>571</ele>
        <time>2017-01-12 13:56:07</time>
      </trkpt>
      <trkpt lat="44.23024" lon="5.8897">
        <ele>571</ele>
        <time>2017-01-12 13:56:08</time>
      </trkpt>
      <trkpt lat="44.23024" lon="5.8897">
        <ele>571</ele>
        <time>2017-01-12 13:56:09</time>
      </trkpt>
      <trkpt lat="44.23024" lon="5.8897">
        <ele>571</ele>
        <time>2017-01-12 13:56:10</time>
      </trkpt>
      <trkpt lat="44.23024" lon="5.8897">
        <ele>571</ele>
        <time>2017-01-12 13:56:11</time>
      </trkpt>
      <trkpt lat="44.23035" lon="5.88991">
        <ele>570.3</ele>
        <time>2017-01-12 13:56:12</time>
      </trkpt>
      <trkpt lat="44.23035" lon="5.88991">
        <ele>570.3</ele>
        <time>2017-01-12 13:56:13</time>
      </trkpt>
      <trkpt lat="44.23035" lon="5.88991">
        <ele>570.3</ele>
        <time>2017-01-12 13:56:14</time>
      </trkpt>
      <trkpt lat="44.23035" lon="5.88991">
        <ele>570.3</ele>
        <time>2017-01-12 13:56:15</time>
      </trkpt>
      <trkpt lat="44.23048" lon="5.89006">
        <ele>570</ele>
        <time>2017-01-12 13:56:16</time>
      </trkpt>
      <trkpt lat="44.23048" lon="5.89006">
        <ele>570</ele>
        <time>2017-01-12 13:56:17</time>
      </trkpt>
      <trkpt lat="44.23048" lon="5.89006">
        <ele>570</ele>
        <time>2017-01-12 13:56:18</time>
      </trkpt>
      <trkpt lat="44.23048" lon="5.89006">
        <ele>570</ele>
        <time>2017-01-12 13:56:19</time>
      </trkpt>
      <trkpt lat="44.2306" lon="5.89018">
        <ele>570</ele>
        <time>2017-01-12 13:56:20</time>
      </trkpt>
      <trkpt lat="44.2306" lon="5.89018">
        <ele>570</ele>
        <time>2017-01-12 13:56:21</time>
      </trkpt>
      <trkpt lat="44.2306" lon="5.89018">
        <ele>570</ele>
        <time>2017-01-12 13:56:22</time>
      </trkpt>
      <trkpt lat="44.2306" lon="5.89018">
        <ele>570</ele>
        <time>2017-01-12 13:56:23</time>
      </trkpt>
      <trkpt lat="44.23063" lon="5.89038">
        <ele>569.6</ele>
        <time>2017-01-12 13:56:24</time>
      </trkpt>
      <trkpt lat="44.23063" lon="5.89038">
        <ele>569.6</ele>
        <time>2017-01-12 13:56:25</time>
      </trkpt>
      <trkpt lat="44.23063" lon="5.89038">
        <ele>569.6</ele>
        <time>2017-01-12 13:56:26</time>
      </trkpt>
      <trkpt lat="44.23063" lon="5.89038">
        <ele>569.6</ele>
        <time>2017-01-12 13:56:27</time>
      </trkpt>
      <trkpt lat="44.23053" lon="5.8906">
        <ele>568.8</ele>
        <time>2017-01-12 13:56:28</time>
      </trkpt>
      <trkpt lat="44.23053" lon="5.8906">
        <ele>568.8</ele>
        <time>2017-01-12 13:56:29</time>
      </trkpt>
      <trkpt lat="44.23053" lon="5.8906">
        <ele>568.8</ele>
        <time>2017-01-12 13:56:30</time>
      </trkpt>
      <trkpt lat="44.23053" lon="5.8906">
        <ele>568.8</ele>
        <time>2017-01-12 13:56:31</time>
      </trkpt>
      <trkpt lat="44.23047" lon="5.89085">
        <ele>568</ele>
        <time>2017-01-12 13:56:32</time>
      </trkpt>
      <trkpt lat="44.23047" lon="5.89085">
        <ele>568</ele>
        <time>2017-01-12 13:56:33</time>
      </trkpt>
      <trkpt lat="44.23047" lon="5.89085">
        <ele>568</ele>
        <time>2017-01-12 13:56:34</time>
      </trkpt>
      <trkpt lat="44.23047" lon="5.89085">
        <ele>568</ele>
        <time>2017-01-12 13:56:35</time>
      </trkpt>
      <trkpt lat="44.23046" lon="5.8911">
        <ele>568</ele>
        <time>2017-01-12 13:56:36</time>
      </trkpt>
      <trkpt lat="44.23046" lon="5.8911">
        <ele>568</ele>
        <time>2017-01-12 13:56:37</time>
      </trkpt>
      <trkpt lat="44.23046" lon="5.8911">
        <ele>568</ele>
        <time>2017-01-12 13:56:38</time>
      </trkpt>
      <trkpt lat="44.23046" lon="5.8911">
        <ele>568</ele>
        <time>2017-01-12 13:56:39</time>
      </trkpt>
      <trkpt lat="44.23045" lon="5.89131">
        <ele>568</ele>
        <time>2017-01-12 13:56:40</time>
      </trkpt>
      <trkpt lat="44.23045" lon="5.89131">
        <ele>568</ele>
        <time>2017-01-12 13:56:41</time>
      </trkpt>
      <trkpt lat="44.23045" lon="5.89131">
        <ele>568</ele>
        <time>2017-01-12 13:56:42</time>
      </trkpt>
      <trkpt lat="44.23045" lon="5.89131">
        <ele>568</ele>
        <time>2017-01-12 13:56:43</time>
      </trkpt>
      <trkpt lat="44.23051" lon="5.89142">
        <ele>567.9</ele>
        <time>2017-01-12 13:56:44</time>
      </trkpt>
      <trkpt lat="44.23051" lon="5.89142">
        <ele>567.9</ele>
        <time>2017-01-12 13:56:45</time>
      </trkpt>
      <trkpt lat="44.23051" lon="5.89142">
        <ele>567.9</ele>
        <time>2017-01-12 13:56:46</time>
      </trkpt>
      <trkpt lat="44.23051" lon="5.89142">
        <ele>567.9</ele>
        <time>2017-01-12 13:56:47</time>
      </trkpt>
      <trkpt lat="44.23064" lon="5.89138">
        <ele>568</ele>
        <time>2017-01-12 13:56:48</time>
      </trkpt>
      <trkpt lat="44.23064" lon="5.89138">
        <ele>568</ele>
        <time>2017-01-12 13:56:49</time>
      </trkpt>
      <trkpt lat="44.23064" lon="5.89138">
        <ele>568</ele>
        <time>2017-01-12 13:56:50</time>
      </trkpt>
      <trkpt lat="44.23064" lon="5.89138">
        <ele>568</ele>
        <time>2017-01-12 13:56:51</time>
      </trkpt>
      <trkpt lat="44.23076" lon="5.89132">
        <ele>568</ele>
        <time>2017-01-12 13:56:52</time>
      </trkpt>
      <trkpt lat="44.23076" lon="5.89132">
        <ele>568</ele>
        <time>2017-01-12 13:56:53</time>
      </trkpt>
      <trkpt lat="44.23076" lon="5.89132">
        <ele>568</ele>
        <time>2017-01-12 13:56:54</time>
      </trkpt>
      <trkpt lat="44.23076" lon="5.89132">
        <ele>568</ele>
        <time>2017-01-12 13:56:55</time>
      </trkpt>
      <trkpt lat="44.23088" lon="5.89131">
        <ele>568</ele>
        <time>2017-01-12 13:56:56</time>
      </trkpt>
      <trkpt lat="44.23088" lon="5.89131">
        <ele>568</ele>
        <time>2017-01-12 13:56:57</time>
      </trkpt>
      <trkpt lat="44.23088" lon="5.89131">
        <ele>568</ele>
        <time>2017-01-12 13:56:58</time>
      </trkpt>
      <trkpt lat="44.23088" lon="5.89131">
        <ele>568</ele>
        <time>2017-01-12 13:56:59</time>
      </trkpt>
      <trkpt lat="44.23103" lon="5.89135">
        <ele>568</ele>
        <time>2017-01-12 13:57:00</time>
      </trkpt>
      <trkpt lat="44.23103" lon="5.89135">
        <ele>568</ele>
        <time>2017-01-12 13:57:01</time>
      </trkpt>
      <trkpt lat="44.23103" lon="5.89135">
        <ele>568</ele>
        <time>2017-01-12 13:57:02</time>
      </trkpt>
      <trkpt lat="44.23103" lon="5.89135">
        <ele>568</ele>
        <time>2017-01-12 13:57:03</time>
      </trkpt>
      <trkpt lat="44.23116" lon="5.8914">
        <ele>568</ele>
        <time>2017-01-12 13:57:04</time>
      </trkpt>
      <trkpt lat="44.23116" lon="5.8914">
        <ele>568</ele>
        <time>2017-01-12 13:57:05</time>
      </trkpt>
      <trkpt lat="44.23116" lon="5.8914">
        <ele>568</ele>
        <time>2017-01-12 13:57:06</time>
      </trkpt>
      <trkpt lat="44.23116" lon="5.8914">
        <ele>568</ele>
        <time>2017-01-12 13:57:07</time>
      </trkpt>
      <trkpt lat="44.23126" lon="5.89149">
        <ele>567.6</ele>
        <time>2017-01-12 13:57:08</time>
      </trkpt>
      <trkpt lat="44.23126" lon="5.89149">
        <ele>567.6</ele>
        <time>2017-01-12 13:57:09</time>
      </trkpt>
      <trkpt lat="44.23126" lon="5.89149">
        <ele>567.6</ele>
        <time>2017-01-12 13:57:10</time>
      </trkpt>
      <trkpt lat="44.23126" lon="5.89149">
        <ele>567.6</ele>
        <time>2017-01-12 13:57:11</time>
      </trkpt>
      <trkpt lat="44.23135" lon="5.8916">
        <ele>567.2</ele>
        <time>2017-01-12 13:57:12</time>
      </trkpt>
      <trkpt lat="44.23135" lon="5.8916">
        <ele>567.2</ele>
        <time>2017-01-12 13:57:13</time>
      </trkpt>
      <trkpt lat="44.23135" lon="5.8916">
        <ele>567.2</ele>
        <time>2017-01-12 13:57:14</time>
      </trkpt>
      <trkpt lat="44.23135" lon="5.8916">
        <ele>567.2</ele>
        <time>2017-01-12 13:57:15</time>
      </trkpt>
      <trkpt lat="44.23148" lon="5.89175">
        <ele>567.2</ele>
        <time>2017-01-12 13:57:16</time>
      </trkpt>
      <trkpt lat="44.23148" lon="5.89175">
        <ele>567.2</ele>
        <time>2017-01-12 13:57:17</time>
      </trkpt>
      <trkpt lat="44.23148" lon="5.89175">
        <ele>567.2</ele>
        <time>2017-01-12 13:57:18</time>
      </trkpt>
      <trkpt lat="44.23148" lon="5.89175">
        <ele>567.2</ele>
        <time>2017-01-12 13:57:19</time>
      </trkpt>
      <trkpt lat="44.23162" lon="5.89191">
        <ele>567.1</ele>
        <time>2017-01-12 13:57:20</time>
      </trkpt>
      <trkpt lat="44.23162" lon="5.89191">
        <ele>567.1</ele>
        <time>2017-01-12 13:57:21</time>
      </trkpt>
      <trkpt lat="44.23162" lon="5.89191">
        <ele>567.1</ele>
        <time>2017-01-12 13:57:22</time>
      </trkpt>
      <trkpt lat="44.23162" lon="5.89191">
        <ele>567.1</ele>
        <time>2017-01-12 13:57:23</time>
      </trkpt>
      <trkpt lat="44.23177" lon="5.8921">
        <ele>566.2</ele>
        <time>2017-01-12 13:57:24</time>
      </trkpt>
      <trkpt lat="44.23177" lon="5.8921">
        <ele>566.2</ele>
        <time>2017-01-12 13:57:25</time>
      </trkpt>
      <trkpt lat="44.23177" lon="5.8921">
        <ele>566.2</ele>
        <time>2017-01-12 13:57:26</time>
      </trkpt>
      <trkpt lat="44.23177" lon="5.8921">
        <ele>566.2</ele>
        <time>2017-01-12 13:57:27</time>
      </trkpt>
      <trkpt lat="44.2319" lon="5.89231">
        <ele>564.9</ele>
        <time>2017-01-12 13:57:28</time>
      </trkpt>
      <trkpt lat="44.2319" lon="5.89231">
        <ele>564.9</ele>
        <time>2017-01-12 13:57:29</time>
      </trkpt>
      <trkpt lat="44.2319" lon="5.89231">
        <ele>564.9</ele>
        <time>2017-01-12 13:57:30</time>
      </trkpt>
      <trkpt lat="44.2319" lon="5.89231">
        <ele>564.9</ele>
        <time>2017-01-12 13:57:31</time>
      </trkpt>
      <trkpt lat="44.23208" lon="5.89253">
        <ele>563.9</ele>
        <time>2017-01-12 13:57:32</time>
      </trkpt>
      <trkpt lat="44.23208" lon="5.89253">
        <ele>563.9</ele>
        <time>2017-01-12 13:57:33</time>
      </trkpt>
      <trkpt lat="44.23208" lon="5.89253">
        <ele>563.9</ele>
        <time>2017-01-12 13:57:34</time>
      </trkpt>
      <trkpt lat="44.23208" lon="5.89253">
        <ele>563.9</ele>
        <time>2017-01-12 13:57:35</time>
      </trkpt>
      <trkpt lat="44.23231" lon="5.89276">
        <ele>563.1</ele>
        <time>2017-01-12 13:57:36</time>
      </trkpt>
      <trkpt lat="44.23231" lon="5.89276">
        <ele>563.1</ele>
        <time>2017-01-12 13:57:37</time>
      </trkpt>
      <trkpt lat="44.23231" lon="5.89276">
        <ele>563.1</ele>
        <time>2017-01-12 13:57:38</time>
      </trkpt>
      <trkpt lat="44.23231" lon="5.89276">
        <ele>563.1</ele>
        <time>2017-01-12 13:57:39</time>
      </trkpt>
      <trkpt lat="44.23252" lon="5.89299">
        <ele>563</ele>
        <time>2017-01-12 13:57:40</time>
      </trkpt>
      <trkpt lat="44.23252" lon="5.89299">
        <ele>563</ele>
        <time>2017-01-12 13:57:41</time>
      </trkpt>
      <trkpt lat="44.23252" lon="5.89299">
        <ele>563</ele>
        <time>2017-01-12 13:57:42</time>
      </trkpt>
      <trkpt lat="44.23252" lon="5.89299">
        <ele>563</ele>
        <time>2017-01-12 13:57:43</time>
      </trkpt>
      <trkpt lat="44.23273" lon="5.8932">
        <ele>563</ele>
        <time>2017-01-12 13:57:44</time>
      </trkpt>
      <trkpt lat="44.23273" lon="5.8932">
        <ele>563</ele>
        <time>2017-01-12 13:57:45</time>
      </trkpt>
      <trkpt lat="44.23273" lon="5.8932">
        <ele>563</ele>
        <time>2017-01-12 13:57:46</time>
      </trkpt>
      <trkpt lat="44.23273" lon="5.8932">
        <ele>563</ele>
        <time>2017-01-12 13:57:47</time>
      </trkpt>
      <trkpt lat="44.23291" lon="5.89338">
        <ele>562.5</ele>
        <time>2017-01-12 13:57:48</time>
      </trkpt>
      <trkpt lat="44.23291" lon="5.89338">
        <ele>562.5</ele>
        <time>2017-01-12 13:57:49</time>
      </trkpt>
      <trkpt lat="44.23291" lon="5.89338">
        <ele>562.5</ele>
        <time>2017-01-12 13:57:50</time>
      </trkpt>
      <trkpt lat="44.23291" lon="5.89338">
        <ele>562.5</ele>
        <time>2017-01-12 13:57:51</time>
      </trkpt>
      <trkpt lat="44.23309" lon="5.8936">
        <ele>560.8</ele>
        <time>2017-01-12 13:57:52</time>
      </trkpt>
      <trkpt lat="44.23309" lon="5.8936">
        <ele>560.8</ele>
        <time>2017-01-12 13:57:53</time>
      </trkpt>
      <trkpt lat="44.23309" lon="5.8936">
        <ele>560.8</ele>
        <time>2017-01-12 13:57:54</time>
      </trkpt>
      <trkpt lat="44.23309" lon="5.8936">
        <ele>560.8</ele>
        <time>2017-01-12 13:57:55</time>
      </trkpt>
      <trkpt lat="44.23322" lon="5.8939">
        <ele>559.3</ele>
        <time>2017-01-12 13:57:56</time>
      </trkpt>
      <trkpt lat="44.23322" lon="5.8939">
        <ele>559.3</ele>
        <time>2017-01-12 13:57:57</time>
      </trkpt>
      <trkpt lat="44.23322" lon="5.8939">
        <ele>559.3</ele>
        <time>2017-01-12 13:57:58</time>
      </trkpt>
      <trkpt lat="44.23322" lon="5.8939">
        <ele>559.3</ele>
        <time>2017-01-12 13:57:59</time>
      </trkpt>
      <trkpt lat="44.23331" lon="5.89423">
        <ele>557.3</ele>
        <time>2017-01-12 13:58:00</time>
      </trkpt>
      <trkpt lat="44.23331" lon="5.89423">
        <ele>557.3</ele>
        <time>2017-01-12 13:58:01</time>
      </trkpt>
      <trkpt lat="44.23331" lon="5.89423">
        <ele>557.3</ele>
        <time>2017-01-12 13:58:02</time>
      </trkpt>
      <trkpt lat="44.23331" lon="5.89423">
        <ele>557.3</ele>
        <time>2017-01-12 13:58:03</time>
      </trkpt>
      <trkpt lat="44.23339" lon="5.89458">
        <ele>554.2</ele>
        <time>2017-01-12 13:58:04</time>
      </trkpt>
      <trkpt lat="44.23339" lon="5.89458">
        <ele>554.2</ele>
        <time>2017-01-12 13:58:05</time>
      </trkpt>
      <trkpt lat="44.23339" lon="5.89458">
        <ele>554.2</ele>
        <time>2017-01-12 13:58:06</time>
      </trkpt>
      <trkpt lat="44.23339" lon="5.89458">
        <ele>554.2</ele>
        <time>2017-01-12 13:58:07</time>
      </trkpt>
      <trkpt lat="44.23344" lon="5.89488">
        <ele>551.1</ele>
        <time>2017-01-12 13:58:08</time>
      </trkpt>
      <trkpt lat="44.23344" lon="5.89488">
        <ele>551.1</ele>
        <time>2017-01-12 13:58:09</time>
      </trkpt>
      <trkpt lat="44.23344" lon="5.89488">
        <ele>551.1</ele>
        <time>2017-01-12 13:58:10</time>
      </trkpt>
      <trkpt lat="44.23344" lon="5.89488">
        <ele>551.1</ele>
        <time>2017-01-12 13:58:11</time>
      </trkpt>
      <trkpt lat="44.2334" lon="5.89521">
        <ele>548.8</ele>
        <time>2017-01-12 13:58:12</time>
      </trkpt>
      <trkpt lat="44.2334" lon="5.89521">
        <ele>548.8</ele>
        <time>2017-01-12 13:58:13</time>
      </trkpt>
      <trkpt lat="44.2334" lon="5.89521">
        <ele>548.8</ele>
        <time>2017-01-12 13:58:14</time>
      </trkpt>
      <trkpt lat="44.2334" lon="5.89521">
        <ele>548.8</ele>
        <time>2017-01-12 13:58:15</time>
      </trkpt>
      <trkpt lat="44.23331" lon="5.89565">
        <ele>545.1</ele>
        <time>2017-01-12 13:58:16</time>
      </trkpt>
      <trkpt lat="44.23331" lon="5.89565">
        <ele>545.1</ele>
        <time>2017-01-12 13:58:17</time>
      </trkpt>
      <trkpt lat="44.23331" lon="5.89565">
        <ele>545.1</ele>
        <time>2017-01-12 13:58:18</time>
      </trkpt>
      <trkpt lat="44.23331" lon="5.89565">
        <ele>545.1</ele>
        <time>2017-01-12 13:58:19</time>
      </trkpt>
      <trkpt lat="44.23314" lon="5.89611">
        <ele>541.2</ele>
        <time>2017-01-12 13:58:20</time>
      </trkpt>
      <trkpt lat="44.23314" lon="5.89611">
        <ele>541.2</ele>
        <time>2017-01-12 13:58:21</time>
      </trkpt>
      <trkpt lat="44.23314" lon="5.89611">
        <ele>541.2</ele>
        <time>2017-01-12 13:58:22</time>
      </trkpt>
      <trkpt lat="44.23314" lon="5.89611">
        <ele>541.2</ele>
        <time>2017-01-12 13:58:23</time>
      </trkpt>
      <trkpt lat="44.23291" lon="5.89658">
        <ele>538.8</ele>
        <time>2017-01-12 13:58:24</time>
      </trkpt>
      <trkpt lat="44.23291" lon="5.89658">
        <ele>538.8</ele>
        <time>2017-01-12 13:58:25</time>
      </trkpt>
      <trkpt lat="44.23291" lon="5.89658">
        <ele>538.8</ele>
        <time>2017-01-12 13:58:26</time>
      </trkpt>
      <trkpt lat="44.23291" lon="5.89658">
        <ele>538.8</ele>
        <time>2017-01-12 13:58:27</time>
      </trkpt>
      <trkpt lat="44.23264" lon="5.89706">
        <ele>535.3</ele>
        <time>2017-01-12 13:58:28</time>
      </trkpt>
      <trkpt lat="44.23264" lon="5.89706">
        <ele>535.3</ele>
        <time>2017-01-12 13:58:29</time>
      </trkpt>
      <trkpt lat="44.23264" lon="5.89706">
        <ele>535.3</ele>
        <time>2017-01-12 13:58:30</time>
      </trkpt>
      <trkpt lat="44.23264" lon="5.89706">
        <ele>535.3</ele>
        <time>2017-01-12 13:58:31</time>
      </trkpt>
      <trkpt lat="44.23236" lon="5.89752">
        <ele>531.8</ele>
        <time>2017-01-12 13:58:32</time>
      </trkpt>
      <trkpt lat="44.23236" lon="5.89752">
        <ele>531.8</ele>
        <time>2017-01-12 13:58:33</time>
      </trkpt>
      <trkpt lat="44.23236" lon="5.89752">
        <ele>531.8</ele>
        <time>2017-01-12 13:58:34</time>
      </trkpt>
      <trkpt lat="44.23236" lon="5.89752">
        <ele>531.8</ele>
        <time>2017-01-12 13:58:35</time>
      </trkpt>
      <trkpt lat="44.23209" lon="5.89796">
        <ele>529.9</ele>
        <time>2017-01-12 13:58:36</time>
      </trkpt>
      <trkpt lat="44.23209" lon="5.89796">
        <ele>529.9</ele>
        <time>2017-01-12 13:58:37</time>
      </trkpt>
      <trkpt lat="44.23209" lon="5.89796">
        <ele>529.9</ele>
        <time>2017-01-12 13:58:38</time>
      </trkpt>
      <trkpt lat="44.23209" lon="5.89796">
        <ele>529.9</ele>
        <time>2017-01-12 13:58:39</time>
      </trkpt>
      <trkpt lat="44.23188" lon="5.89838">
        <ele>527.4</ele>
        <time>2017-01-12 13:58:40</time>
      </trkpt>
      <trkpt lat="44.23188" lon="5.89838">
        <ele>527.4</ele>
        <time>2017-01-12 13:58:41</time>
      </trkpt>
      <trkpt lat="44.23188" lon="5.89838">
        <ele>527.4</ele>
        <time>2017-01-12 13:58:42</time>
      </trkpt>
      <trkpt lat="44.23188" lon="5.89838">
        <ele>527.4</ele>
        <time>2017-01-12 13:58:43</time>
      </trkpt>
      <trkpt lat="44.23185" lon="5.89888">
        <ele>524.7</ele>
        <time>2017-01-12 13:58:44</time>
      </trkpt>
      <trkpt lat="44.23185" lon="5.89888">
        <ele>524.7</ele>
        <time>2017-01-12 13:58:45</time>
      </trkpt>
      <trkpt lat="44.23185" lon="5.89888">
        <ele>524.7</ele>
        <time>2017-01-12 13:58:46</time>
      </trkpt>
      <trkpt lat="44.23185" lon="5.89888">
        <ele>524.7</ele>
        <time>2017-01-12 13:58:47</time>
      </trkpt>
      <trkpt lat="44.23201" lon="5.89934">
        <ele>523</ele>
        <time>2017-01-12 13:58:48</time>
      </trkpt>
      <trkpt lat="44.23201" lon="5.89934">
        <ele>523</ele>
        <time>2017-01-12 13:58:49</time>
      </trkpt>
      <trkpt lat="44.23201" lon="5.89934">
        <ele>523</ele>
        <time>2017-01-12 13:58:50</time>
      </trkpt>
      <trkpt lat="44.23201" lon="5.89934">
        <ele>523</ele>
        <time>2017-01-12 13:58:51</time>
      </trkpt>
      <trkpt lat="44.23221" lon="5.89977">
        <ele>521.8</ele>
        <time>2017-01-12 13:58:52</time>
      </trkpt>
      <trkpt lat="44.23221" lon="5.89977">
        <ele>521.8</ele>
        <time>2017-01-12 13:58:53</time>
      </trkpt>
      <trkpt lat="44.23221" lon="5.89977">
        <ele>521.8</ele>
        <time>2017-01-12 13:58:54</time>
      </trkpt>
      <trkpt lat="44.23221" lon="5.89977">
        <ele>521.8</ele>
        <time>2017-01-12 13:58:55</time>
      </trkpt>
      <trkpt lat="44.23241" lon="5.90021">
        <ele>520.5</ele>
        <time>2017-01-12 13:58:56</time>
      </trkpt>
      <trkpt lat="44.23241" lon="5.90021">
        <ele>520.5</ele>
        <time>2017-01-12 13:58:57</time>
      </trkpt>
      <trkpt lat="44.23241" lon="5.90021">
        <ele>520.5</ele>
        <time>2017-01-12 13:58:58</time>
      </trkpt>
      <trkpt lat="44.23241" lon="5.90021">
        <ele>520.5</ele>
        <time>2017-01-12 13:58:59</time>
      </trkpt>
      <trkpt lat="44.2326" lon="5.90066">
        <ele>518.6</ele>
        <time>2017-01-12 13:59:00</time>
      </trkpt>
      <trkpt lat="44.2326" lon="5.90066">
        <ele>518.6</ele>
        <time>2017-01-12 13:59:01</time>
      </trkpt>
      <trkpt lat="44.2326" lon="5.90066">
        <ele>518.6</ele>
        <time>2017-01-12 13:59:02</time>
      </trkpt>
      <trkpt lat="44.2326" lon="5.90066">
        <ele>518.6</ele>
        <time>2017-01-12 13:59:03</time>
      </trkpt>
      <trkpt lat="44.23278" lon="5.90114">
        <ele>515</ele>
        <time>2017-01-12 13:59:04</time>
      </trkpt>
      <trkpt lat="44.23278" lon="5.90114">
        <ele>515</ele>
        <time>2017-01-12 13:59:05</time>
      </trkpt>
      <trkpt lat="44.23278" lon="5.90114">
        <ele>515</ele>
        <time>2017-01-12 13:59:06</time>
      </trkpt>
      <trkpt lat="44.23278" lon="5.90114">
        <ele>515</ele>
        <time>2017-01-12 13:59:07</time>
      </trkpt>
      <trkpt lat="44.23298" lon="5.90165">
        <ele>513.7</ele>
        <time>2017-01-12 13:59:08</time>
      </trkpt>
      <trkpt lat="44.23298" lon="5.90165">
        <ele>513.7</ele>
        <time>2017-01-12 13:59:09</time>
      </trkpt>
      <trkpt lat="44.23298" lon="5.90165">
        <ele>513.7</ele>
        <time>2017-01-12 13:59:10</time>
      </trkpt>
      <trkpt lat="44.23298" lon="5.90165">
        <ele>513.7</ele>
        <time>2017-01-12 13:59:11</time>
      </trkpt>
      <trkpt lat="44.23313" lon="5.90213">
        <ele>513.1</ele>
        <time>2017-01-12 13:59:12</time>
      </trkpt>
      <trkpt lat="44.23313" lon="5.90213">
        <ele>513.1</ele>
        <time>2017-01-12 13:59:13</time>
      </trkpt>
      <trkpt lat="44.23313" lon="5.90213">
        <ele>513.1</ele>
        <time>2017-01-12 13:59:14</time>
      </trkpt>
      <trkpt lat="44.23313" lon="5.90213">
        <ele>513.1</ele>
        <time>2017-01-12 13:59:15</time>
      </trkpt>
      <trkpt lat="44.2332" lon="5.90259">
        <ele>512.2</ele>
        <time>2017-01-12 13:59:16</time>
      </trkpt>
      <trkpt lat="44.2332" lon="5.90259">
        <ele>512.2</ele>
        <time>2017-01-12 13:59:17</time>
      </trkpt>
      <trkpt lat="44.2332" lon="5.90259">
        <ele>512.2</ele>
        <time>2017-01-12 13:59:18</time>
      </trkpt>
      <trkpt lat="44.2332" lon="5.90259">
        <ele>512.2</ele>
        <time>2017-01-12 13:59:19</time>
      </trkpt>
      <trkpt lat="44.2333" lon="5.90299">
        <ele>512</ele>
        <time>2017-01-12 13:59:20</time>
      </trkpt>
      <trkpt lat="44.2333" lon="5.90299">
        <ele>512</ele>
        <time>2017-01-12 13:59:21</time>
      </trkpt>
      <trkpt lat="44.2333" lon="5.90299">
        <ele>512</ele>
        <time>2017-01-12 13:59:22</time>
      </trkpt>
      <trkpt lat="44.2333" lon="5.90299">
        <ele>512</ele>
        <time>2017-01-12 13:59:23</time>
      </trkpt>
      <trkpt lat="44.23328" lon="5.90335">
        <ele>512.6</ele>
        <time>2017-01-12 13:59:24</time>
      </trkpt>
      <trkpt lat="44.23328" lon="5.90335">
        <ele>512.6</ele>
        <time>2017-01-12 13:59:25</time>
      </trkpt>
      <trkpt lat="44.23328" lon="5.90335">
        <ele>512.6</ele>
        <time>2017-01-12 13:59:26</time>
      </trkpt>
      <trkpt lat="44.23328" lon="5.90335">
        <ele>512.6</ele>
        <time>2017-01-12 13:59:27</time>
      </trkpt>
      <trkpt lat="44.23309" lon="5.90361">
        <ele>512.1</ele>
        <time>2017-01-12 13:59:28</time>
      </trkpt>
      <trkpt lat="44.23309" lon="5.90361">
        <ele>512.1</ele>
        <time>2017-01-12 13:59:29</time>
      </trkpt>
      <trkpt lat="44.23309" lon="5.90361">
        <ele>512.1</ele>
        <time>2017-01-12 13:59:30</time>
      </trkpt>
      <trkpt lat="44.23309" lon="5.90361">
        <ele>512.1</ele>
        <time>2017-01-12 13:59:31</time>
      </trkpt>
      <trkpt lat="44.233" lon="5.9037">
        <ele>511.9</ele>
        <time>2017-01-12 13:59:32</time>
      </trkpt>
      <trkpt lat="44.233" lon="5.9037">
        <ele>511.9</ele>
        <time>2017-01-12 13:59:33</time>
      </trkpt>
      <trkpt lat="44.233" lon="5.9037">
        <ele>511.9</ele>
        <time>2017-01-12 13:59:34</time>
      </trkpt>
      <trkpt lat="44.233" lon="5.9037">
        <ele>511.9</ele>
        <time>2017-01-12 13:59:35</time>
      </trkpt>
      <trkpt lat="44.23298" lon="5.90373">
        <ele>511.8</ele>
        <time>2017-01-12 13:59:36</time>
      </trkpt>
      <trkpt lat="44.23298" lon="5.90373">
        <ele>511.8</ele>
        <time>2017-01-12 13:59:37</time>
      </trkpt>
      <trkpt lat="44.23298" lon="5.90373">
        <ele>511.8</ele>
        <time>2017-01-12 13:59:38</time>
      </trkpt>
      <trkpt lat="44.23298" lon="5.90373">
        <ele>511.8</ele>
        <time>2017-01-12 13:59:39</time>
      </trkpt>
      <trkpt lat="44.23299" lon="5.90376">
        <ele>511.9</ele>
        <time>2017-01-12 13:59:40</time>
      </trkpt>
      <trkpt lat="44.23299" lon="5.90376">
        <ele>511.9</ele>
        <time>2017-01-12 13:59:41</time>
      </trkpt>
      <trkpt lat="44.23299" lon="5.90376">
        <ele>511.9</ele>
        <time>2017-01-12 13:59:42</time>
      </trkpt>
      <trkpt lat="44.23299" lon="5.90376">
        <ele>511.9</ele>
        <time>2017-01-12 13:59:43</time>
      </trkpt>
      <trkpt lat="44.23303" lon="5.90375">
        <ele>512</ele>
        <time>2017-01-12 13:59:44</time>
      </trkpt>
      <trkpt lat="44.23303" lon="5.90375">
        <ele>512</ele>
        <time>2017-01-12 13:59:45</time>
      </trkpt>
      <trkpt lat="44.23303" lon="5.90375">
        <ele>512</ele>
        <time>2017-01-12 13:59:46</time>
      </trkpt>
      <trkpt lat="44.23303" lon="5.90375">
        <ele>512</ele>
        <time>2017-01-12 13:59:47</time>
      </trkpt>
      <trkpt lat="44.23304" lon="5.90375">
        <ele>512</ele>
        <time>2017-01-12 13:59:48</time>
      </trkpt>
      <trkpt lat="44.23304" lon="5.90375">
        <ele>512</ele>
        <time>2017-01-12 13:59:49</time>
      </trkpt>
      <trkpt lat="44.23304" lon="5.90375">
        <ele>512</ele>
        <time>2017-01-12 13:59:50</time>
      </trkpt>
      <trkpt lat="44.23304" lon="5.90375">
        <ele>512</ele>
        <time>2017-01-12 13:59:51</time>
      </trkpt>
      <trkpt lat="44.23305" lon="5.90377">
        <ele>512</ele>
        <time>2017-01-12 13:59:52</time>
      </trkpt>
      <trkpt lat="44.23305" lon="5.90377">
        <ele>512</ele>
        <time>2017-01-12 13:59:53</time>
      </trkpt>
      <trkpt lat="44.23305" lon="5.90377">
        <ele>512</ele>
        <time>2017-01-12 13:59:54</time>
      </trkpt>
      <trkpt lat="44.23305" lon="5.90377">
        <ele>512</ele>
        <time>2017-01-12 13:59:55</time>
      </trkpt>
      <trkpt lat="44.23307" lon="5.90382">
        <ele>512</ele>
        <time>2017-01-12 13:59:56</time>
      </trkpt>
      <trkpt lat="44.23307" lon="5.90382">
        <ele>512</ele>
        <time>2017-01-12 13:59:57</time>
      </trkpt>
      <trkpt lat="44.23307" lon="5.90382">
        <ele>512</ele>
        <time>2017-01-12 13:59:58</time>
      </trkpt>
      <trkpt lat="44.23307" lon="5.90382">
        <ele>512</ele>
        <time>2017-01-12 13:59:59</time>
      </trkpt>
      <trkpt lat="44.23308" lon="5.90388">
        <ele>512</ele>
        <time>2017-01-12 14:00:00</time>
      </trkpt>
      <trkpt lat="44.23308" lon="5.90388">
        <ele>512</ele>
        <time>2017-01-12 14:00:01</time>
      </trkpt>
      <trkpt lat="44.23308" lon="5.90388">
        <ele>512</ele>
        <time>2017-01-12 14:00:02</time>
      </trkpt>
      <trkpt lat="44.23308" lon="5.90388">
        <ele>512</ele>
        <time>2017-01-12 14:00:03</time>
      </trkpt>
      <trkpt lat="44.23308" lon="5.9039">
        <ele>512</ele>
        <time>2017-01-12 14:00:04</time>
      </trkpt>
      <trkpt lat="44.23308" lon="5.9039">
        <ele>512</ele>
        <time>2017-01-12 14:00:05</time>
      </trkpt>
      <trkpt lat="44.23308" lon="5.9039">
        <ele>512</ele>
        <time>2017-01-12 14:00:06</time>
      </trkpt>
      <trkpt lat="44.23308" lon="5.9039">
        <ele>512</ele>
        <time>2017-01-12 14:00:07</time>
      </trkpt>
      <trkpt lat="44.23305" lon="5.90394">
        <ele>511.8</ele>
        <time>2017-01-12 14:00:08</time>
      </trkpt>
      <trkpt lat="44.23305" lon="5.90394">
        <ele>511.8</ele>
        <time>2017-01-12 14:00:09</time>
      </trkpt>
      <trkpt lat="44.23305" lon="5.90394">
        <ele>511.8</ele>
        <time>2017-01-12 14:00:10</time>
      </trkpt>
      <trkpt lat="44.23305" lon="5.90394">
        <ele>511.8</ele>
        <time>2017-01-12 14:00:11</time>
      </trkpt>
      <trkpt lat="44.23299" lon="5.90401">
        <ele>511.7</ele>
        <time>2017-01-12 14:00:12</time>
      </trkpt>
      <trkpt lat="44.23299" lon="5.90401">
        <ele>511.7</ele>
        <time>2017-01-12 14:00:13</time>
      </trkpt>
      <trkpt lat="44.23299" lon="5.90401">
        <ele>511.7</ele>
        <time>2017-01-12 14:00:14</time>
      </trkpt>
      <trkpt lat="44.23299" lon="5.90401">
        <ele>511.7</ele>
        <time>2017-01-12 14:00:15</time>
      </trkpt>
      <trkpt lat="44.23297" lon="5.90403">
        <ele>511.6</ele>
        <time>2017-01-12 14:00:16</time>
      </trkpt>
      <trkpt lat="44.23297" lon="5.90403">
        <ele>511.6</ele>
        <time>2017-01-12 14:00:17</time>
      </trkpt>
      <trkpt lat="44.23297" lon="5.90403">
        <ele>511.6</ele>
        <time>2017-01-12 14:00:18</time>
      </trkpt>
      <trkpt lat="44.23297" lon="5.90403">
        <ele>511.6</ele>
        <time>2017-01-12 14:00:19</time>
      </trkpt>
      <trkpt lat="44.23297" lon="5.90403">
        <ele>511.6</ele>
        <time>2017-01-12 14:00:20</time>
      </trkpt>
      <trkpt lat="44.23297" lon="5.90403">
        <ele>511.6</ele>
        <time>2017-01-12 14:00:21</time>
      </trkpt>
      <trkpt lat="44.23297" lon="5.90403">
        <ele>511.6</ele>
        <time>2017-01-12 14:00:22</time>
      </trkpt>
      <trkpt lat="44.23297" lon="5.90403">
        <ele>511.6</ele>
        <time>2017-01-12 14:00:23</time>
      </trkpt>
      <trkpt lat="44.23296" lon="5.90401">
        <ele>511.7</ele>
        <time>2017-01-12 14:00:24</time>
      </trkpt>
      <trkpt lat="44.23296" lon="5.90401">
        <ele>511.7</ele>
        <time>2017-01-12 14:00:25</time>
      </trkpt>
      <trkpt lat="44.23296" lon="5.90401">
        <ele>511.7</ele>
        <time>2017-01-12 14:00:26</time>
      </trkpt>
      <trkpt lat="44.23296" lon="5.90401">
        <ele>511.7</ele>
        <time>2017-01-12 14:00:27</time>
      </trkpt>
      <trkpt lat="44.23296" lon="5.90401">
        <ele>511.7</ele>
        <time>2017-01-12 14:00:28</time>
      </trkpt>
      <trkpt lat="44.23296" lon="5.90401">
        <ele>511.7</ele>
        <time>2017-01-12 14:00:29</time>
      </trkpt>
      <trkpt lat="44.23296" lon="5.90401">
        <ele>511.7</ele>
        <time>2017-01-12 14:00:30</time>
      </trkpt>
      <trkpt lat="44.23296" lon="5.90401">
        <ele>511.7</ele>
        <time>2017-01-12 14:00:31</time>
      </trkpt>
      <trkpt lat="44.23296" lon="5.90401">
        <ele>511.7</ele>
        <time>2017-01-12 14:00:32</time>
      </trkpt>
      <trkpt lat="44.23296" lon="5.90401">
        <ele>511.7</ele>
        <time>2017-01-12 14:00:33</time>
      </trkpt>
      <trkpt lat="44.23296" lon="5.90401">
        <ele>511.7</ele>
        <time>2017-01-12 14:00:34</time>
      </trkpt>
      <trkpt lat="44.23296" lon="5.90401">
        <ele>511.7</ele>
        <time>2017-01-12 14:00:35</time>
      </trkpt>
      <trkpt lat="44.23295" lon="5.90408">
        <ele>511.6</ele>
        <time>2017-01-12 14:00:36</time>
      </trkpt>
      <trkpt lat="44.23295" lon="5.90408">
        <ele>511.6</ele>
        <time>2017-01-12 14:00:37</time>
      </trkpt>
      <trkpt lat="44.23295" lon="5.90408">
        <ele>511.6</ele>
        <time>2017-01-12 14:00:38</time>
      </trkpt>
      <trkpt lat="44.23295" lon="5.90408">
        <ele>511.6</ele>
        <time>2017-01-12 14:00:39</time>
      </trkpt>
      <trkpt lat="44.23296" lon="5.9042">
        <ele>511.3</ele>
        <time>2017-01-12 14:00:40</time>
      </trkpt>
      <trkpt lat="44.23296" lon="5.9042">
        <ele>511.3</ele>
        <time>2017-01-12 14:00:41</time>
      </trkpt>
      <trkpt lat="44.23296" lon="5.9042">
        <ele>511.3</ele>
        <time>2017-01-12 14:00:42</time>
      </trkpt>
      <trkpt lat="44.23296" lon="5.9042">
        <ele>511.3</ele>
        <time>2017-01-12 14:00:43</time>
      </trkpt>
      <trkpt lat="44.23294" lon="5.90433">
        <ele>511.4</ele>
        <time>2017-01-12 14:00:44</time>
      </trkpt>
      <trkpt lat="44.23294" lon="5.90433">
        <ele>511.4</ele>
        <time>2017-01-12 14:00:45</time>
      </trkpt>
      <trkpt lat="44.23294" lon="5.90433">
        <ele>511.4</ele>
        <time>2017-01-12 14:00:46</time>
      </trkpt>
      <trkpt lat="44.23294" lon="5.90433">
        <ele>511.4</ele>
        <time>2017-01-12 14:00:47</time>
      </trkpt>
      <trkpt lat="44.23291" lon="5.90447">
        <ele>511.5</ele>
        <time>2017-01-12 14:00:48</time>
      </trkpt>
      <trkpt lat="44.23291" lon="5.90447">
        <ele>511.5</ele>
        <time>2017-01-12 14:00:49</time>
      </trkpt>
      <trkpt lat="44.23291" lon="5.90447">
        <ele>511.5</ele>
        <time>2017-01-12 14:00:50</time>
      </trkpt>
      <trkpt lat="44.23291" lon="5.90447">
        <ele>511.5</ele>
        <time>2017-01-12 14:00:51</time>
      </trkpt>
      <trkpt lat="44.23292" lon="5.90459">
        <ele>511.2</ele>
        <time>2017-01-12 14:00:52</time>
      </trkpt>
      <trkpt lat="44.23292" lon="5.90459">
        <ele>511.2</ele>
        <time>2017-01-12 14:00:53</time>
      </trkpt>
      <trkpt lat="44.23292" lon="5.90459">
        <ele>511.2</ele>
        <time>2017-01-12 14:00:54</time>
      </trkpt>
      <trkpt lat="44.23292" lon="5.90459">
        <ele>511.2</ele>
        <time>2017-01-12 14:00:55</time>
      </trkpt>
      <trkpt lat="44.23299" lon="5.90466">
        <ele>511.1</ele>
        <time>2017-01-12 14:00:56</time>
      </trkpt>
      <trkpt lat="44.23299" lon="5.90466">
        <ele>511.1</ele>
        <time>2017-01-12 14:00:57</time>
      </trkpt>
      <trkpt lat="44.23299" lon="5.90466">
        <ele>511.1</ele>
        <time>2017-01-12 14:00:58</time>
      </trkpt>
      <trkpt lat="44.23299" lon="5.90466">
        <ele>511.1</ele>
        <time>2017-01-12 14:00:59</time>
      </trkpt>
      <trkpt lat="44.2331" lon="5.90467">
        <ele>511.1</ele>
        <time>2017-01-12 14:01:00</time>
      </trkpt>
      <trkpt lat="44.2331" lon="5.90467">
        <ele>511.1</ele>
        <time>2017-01-12 14:01:01</time>
      </trkpt>
      <trkpt lat="44.2331" lon="5.90467">
        <ele>511.1</ele>
        <time>2017-01-12 14:01:02</time>
      </trkpt>
      <trkpt lat="44.2331" lon="5.90467">
        <ele>511.1</ele>
        <time>2017-01-12 14:01:03</time>
      </trkpt>
      <trkpt lat="44.23318" lon="5.90477">
        <ele>511.5</ele>
        <time>2017-01-12 14:01:04</time>
      </trkpt>
      <trkpt lat="44.23318" lon="5.90477">
        <ele>511.5</ele>
        <time>2017-01-12 14:01:05</time>
      </trkpt>
      <trkpt lat="44.23318" lon="5.90477">
        <ele>511.5</ele>
        <time>2017-01-12 14:01:06</time>
      </trkpt>
      <trkpt lat="44.23318" lon="5.90477">
        <ele>511.5</ele>
        <time>2017-01-12 14:01:07</time>
      </trkpt>
      <trkpt lat="44.2333" lon="5.90489">
        <ele>512</ele>
        <time>2017-01-12 14:01:08</time>
      </trkpt>
      <trkpt lat="44.2333" lon="5.90489">
        <ele>512</ele>
        <time>2017-01-12 14:01:09</time>
      </trkpt>
      <trkpt lat="44.2333" lon="5.90489">
        <ele>512</ele>
        <time>2017-01-12 14:01:10</time>
      </trkpt>
      <trkpt lat="44.2333" lon="5.90489">
        <ele>512</ele>
        <time>2017-01-12 14:01:11</time>
      </trkpt>
      <trkpt lat="44.23343" lon="5.905">
        <ele>512</ele>
        <time>2017-01-12 14:01:12</time>
      </trkpt>
      <trkpt lat="44.23343" lon="5.905">
        <ele>512</ele>
        <time>2017-01-12 14:01:13</time>
      </trkpt>
      <trkpt lat="44.23343" lon="5.905">
        <ele>512</ele>
        <time>2017-01-12 14:01:14</time>
      </trkpt>
      <trkpt lat="44.23343" lon="5.905">
        <ele>512</ele>
        <time>2017-01-12 14:01:15</time>
      </trkpt>
      <trkpt lat="44.23356" lon="5.90509">
        <ele>512</ele>
        <time>2017-01-12 14:01:16</time>
      </trkpt>
      <trkpt lat="44.23356" lon="5.90509">
        <ele>512</ele>
        <time>2017-01-12 14:01:17</time>
      </trkpt>
      <trkpt lat="44.23356" lon="5.90509">
        <ele>512</ele>
        <time>2017-01-12 14:01:18</time>
      </trkpt>
      <trkpt lat="44.23356" lon="5.90509">
        <ele>512</ele>
        <time>2017-01-12 14:01:19</time>
      </trkpt>
      <trkpt lat="44.23368" lon="5.90519">
        <ele>512</ele>
        <time>2017-01-12 14:01:20</time>
      </trkpt>
      <trkpt lat="44.23368" lon="5.90519">
        <ele>512</ele>
        <time>2017-01-12 14:01:21</time>
      </trkpt>
      <trkpt lat="44.23368" lon="5.90519">
        <ele>512</ele>
        <time>2017-01-12 14:01:22</time>
      </trkpt>
      <trkpt lat="44.23368" lon="5.90519">
        <ele>512</ele>
        <time>2017-01-12 14:01:23</time>
      </trkpt>
      <trkpt lat="44.2338" lon="5.90533">
        <ele>512</ele>
        <time>2017-01-12 14:01:24</time>
      </trkpt>
      <trkpt lat="44.2338" lon="5.90533">
        <ele>512</ele>
        <time>2017-01-12 14:01:25</time>
      </trkpt>
      <trkpt lat="44.2338" lon="5.90533">
        <ele>512</ele>
        <time>2017-01-12 14:01:26</time>
      </trkpt>
      <trkpt lat="44.2338" lon="5.90533">
        <ele>512</ele>
        <time>2017-01-12 14:01:27</time>
      </trkpt>
      <trkpt lat="44.23391" lon="5.90549">
        <ele>512</ele>
        <time>2017-01-12 14:01:28</time>
      </trkpt>
      <trkpt lat="44.23391" lon="5.90549">
        <ele>512</ele>
        <time>2017-01-12 14:01:29</time>
      </trkpt>
      <trkpt lat="44.23391" lon="5.90549">
        <ele>512</ele>
        <time>2017-01-12 14:01:30</time>
      </trkpt>
      <trkpt lat="44.23391" lon="5.90549">
        <ele>512</ele>
        <time>2017-01-12 14:01:31</time>
      </trkpt>
      <trkpt lat="44.234" lon="5.90564">
        <ele>511.5</ele>
        <time>2017-01-12 14:01:32</time>
      </trkpt>
      <trkpt lat="44.234" lon="5.90564">
        <ele>511.5</ele>
        <time>2017-01-12 14:01:33</time>
      </trkpt>
      <trkpt lat="44.234" lon="5.90564">
        <ele>511.5</ele>
        <time>2017-01-12 14:01:34</time>
      </trkpt>
      <trkpt lat="44.234" lon="5.90564">
        <ele>511.5</ele>
        <time>2017-01-12 14:01:35</time>
      </trkpt>
      <trkpt lat="44.23409" lon="5.9058">
        <ele>510.8</ele>
        <time>2017-01-12 14:01:36</time>
      </trkpt>
      <trkpt lat="44.23409" lon="5.9058">
        <ele>510.8</ele>
        <time>2017-01-12 14:01:37</time>
      </trkpt>
      <trkpt lat="44.23409" lon="5.9058">
        <ele>510.8</ele>
        <time>2017-01-12 14:01:38</time>
      </trkpt>
      <trkpt lat="44.23409" lon="5.9058">
        <ele>510.8</ele>
        <time>2017-01-12 14:01:39</time>
      </trkpt>
      <trkpt lat="44.23415" lon="5.906">
        <ele>509.7</ele>
        <time>2017-01-12 14:01:40</time>
      </trkpt>
      <trkpt lat="44.23415" lon="5.906">
        <ele>509.7</ele>
        <time>2017-01-12 14:01:41</time>
      </trkpt>
      <trkpt lat="44.23415" lon="5.906">
        <ele>509.7</ele>
        <time>2017-01-12 14:01:42</time>
      </trkpt>
      <trkpt lat="44.23415" lon="5.906">
        <ele>509.7</ele>
        <time>2017-01-12 14:01:43</time>
      </trkpt>
      <trkpt lat="44.23415" lon="5.90623">
        <ele>508.5</ele>
        <time>2017-01-12 14:01:44</time>
      </trkpt>
      <trkpt lat="44.23415" lon="5.90623">
        <ele>508.5</ele>
        <time>2017-01-12 14:01:45</time>
      </trkpt>
      <trkpt lat="44.23415" lon="5.90623">
        <ele>508.5</ele>
        <time>2017-01-12 14:01:46</time>
      </trkpt>
      <trkpt lat="44.23415" lon="5.90623">
        <ele>508.5</ele>
        <time>2017-01-12 14:01:47</time>
      </trkpt>
      <trkpt lat="44.23416" lon="5.90643">
        <ele>508</ele>
        <time>2017-01-12 14:01:48</time>
      </trkpt>
      <trkpt lat="44.23416" lon="5.90643">
        <ele>508</ele>
        <time>2017-01-12 14:01:49</time>
      </trkpt>
      <trkpt lat="44.23416" lon="5.90643">
        <ele>508</ele>
        <time>2017-01-12 14:01:50</time>
      </trkpt>
      <trkpt lat="44.23416" lon="5.90643">
        <ele>508</ele>
        <time>2017-01-12 14:01:51</time>
      </trkpt>
      <trkpt lat="44.2342" lon="5.90664">
        <ele>508</ele>
        <time>2017-01-12 14:01:52</time>
      </trkpt>
      <trkpt lat="44.2342" lon="5.90664">
        <ele>508</ele>
        <time>2017-01-12 14:01:53</time>
      </trkpt>
      <trkpt lat="44.2342" lon="5.90664">
        <ele>508</ele>
        <time>2017-01-12 14:01:54</time>
      </trkpt>
      <trkpt lat="44.2342" lon="5.90664">
        <ele>508</ele>
        <time>2017-01-12 14:01:55</time>
      </trkpt>
      <trkpt lat="44.23425" lon="5.90684">
        <ele>508.6</ele>
        <time>2017-01-12 14:01:56</time>
      </trkpt>
      <trkpt lat="44.23425" lon="5.90684">
        <ele>508.6</ele>
        <time>2017-01-12 14:01:57</time>
      </trkpt>
      <trkpt lat="44.23425" lon="5.90684">
        <ele>508.6</ele>
        <time>2017-01-12 14:01:58</time>
      </trkpt>
      <trkpt lat="44.23425" lon="5.90684">
        <ele>508.6</ele>
        <time>2017-01-12 14:01:59</time>
      </trkpt>
      <trkpt lat="44.23431" lon="5.90704">
        <ele>509</ele>
        <time>2017-01-12 14:02:00</time>
      </trkpt>
      <trkpt lat="44.23431" lon="5.90704">
        <ele>509</ele>
        <time>2017-01-12 14:02:01</time>
      </trkpt>
      <trkpt lat="44.23431" lon="5.90704">
        <ele>509</ele>
        <time>2017-01-12 14:02:02</time>
      </trkpt>
      <trkpt lat="44.23431" lon="5.90704">
        <ele>509</ele>
        <time>2017-01-12 14:02:03</time>
      </trkpt>
      <trkpt lat="44.23436" lon="5.90724">
        <ele>509</ele>
        <time>2017-01-12 14:02:04</time>
      </trkpt>
      <trkpt lat="44.23436" lon="5.90724">
        <ele>509</ele>
        <time>2017-01-12 14:02:05</time>
      </trkpt>
      <trkpt lat="44.23436" lon="5.90724">
        <ele>509</ele>
        <time>2017-01-12 14:02:06</time>
      </trkpt>
      <trkpt lat="44.23436" lon="5.90724">
        <ele>509</ele>
        <time>2017-01-12 14:02:07</time>
      </trkpt>
      <trkpt lat="44.23441" lon="5.90745">
        <ele>509</ele>
        <time>2017-01-12 14:02:08</time>
      </trkpt>
      <trkpt lat="44.23441" lon="5.90745">
        <ele>509</ele>
        <time>2017-01-12 14:02:09</time>
      </trkpt>
      <trkpt lat="44.23441" lon="5.90745">
        <ele>509</ele>
        <time>2017-01-12 14:02:10</time>
      </trkpt>
      <trkpt lat="44.23441" lon="5.90745">
        <ele>509</ele>
        <time>2017-01-12 14:02:11</time>
      </trkpt>
      <trkpt lat="44.23446" lon="5.90766">
        <ele>509.6</ele>
        <time>2017-01-12 14:02:12</time>
      </trkpt>
      <trkpt lat="44.23446" lon="5.90766">
        <ele>509.6</ele>
        <time>2017-01-12 14:02:13</time>
      </trkpt>
      <trkpt lat="44.23446" lon="5.90766">
        <ele>509.6</ele>
        <time>2017-01-12 14:02:14</time>
      </trkpt>
      <trkpt lat="44.23446" lon="5.90766">
        <ele>509.6</ele>
        <time>2017-01-12 14:02:15</time>
      </trkpt>
      <trkpt lat="44.23452" lon="5.90787">
        <ele>510</ele>
        <time>2017-01-12 14:02:16</time>
      </trkpt>
      <trkpt lat="44.23452" lon="5.90787">
        <ele>510</ele>
        <time>2017-01-12 14:02:17</time>
      </trkpt>
      <trkpt lat="44.23452" lon="5.90787">
        <ele>510</ele>
        <time>2017-01-12 14:02:18</time>
      </trkpt>
      <trkpt lat="44.23452" lon="5.90787">
        <ele>510</ele>
        <time>2017-01-12 14:02:19</time>
      </trkpt>
      <trkpt lat="44.23458" lon="5.90809">
        <ele>509.9</ele>
        <time>2017-01-12 14:02:20</time>
      </trkpt>
      <trkpt lat="44.23458" lon="5.90809">
        <ele>509.9</ele>
        <time>2017-01-12 14:02:21</time>
      </trkpt>
      <trkpt lat="44.23458" lon="5.90809">
        <ele>509.9</ele>
        <time>2017-01-12 14:02:22</time>
      </trkpt>
      <trkpt lat="44.23458" lon="5.90809">
        <ele>509.9</ele>
        <time>2017-01-12 14:02:23</time>
      </trkpt>
      <trkpt lat="44.23468" lon="5.90824">
        <ele>509.3</ele>
        <time>2017-01-12 14:02:24</time>
      </trkpt>
      <trkpt lat="44.23468" lon="5.90824">
        <ele>509.3</ele>
        <time>2017-01-12 14:02:25</time>
      </trkpt>
      <trkpt lat="44.23468" lon="5.90824">
        <ele>509.3</ele>
        <time>2017-01-12 14:02:26</time>
      </trkpt>
      <trkpt lat="44.23468" lon="5.90824">
        <ele>509.3</ele>
        <time>2017-01-12 14:02:27</time>
      </trkpt>
      <trkpt lat="44.23483" lon="5.90825">
        <ele>509.3</ele>
        <time>2017-01-12 14:02:28</time>
      </trkpt>
      <trkpt lat="44.23483" lon="5.90825">
        <ele>509.3</ele>
        <time>2017-01-12 14:02:29</time>
      </trkpt>
      <trkpt lat="44.23483" lon="5.90825">
        <ele>509.3</ele>
        <time>2017-01-12 14:02:30</time>
      </trkpt>
      <trkpt lat="44.23483" lon="5.90825">
        <ele>509.3</ele>
        <time>2017-01-12 14:02:31</time>
      </trkpt>
      <trkpt lat="44.23493" lon="5.90837">
        <ele>509</ele>
        <time>2017-01-12 14:02:32</time>
      </trkpt>
      <trkpt lat="44.23493" lon="5.90837">
        <ele>509</ele>
        <time>2017-01-12 14:02:33</time>
      </trkpt>
      <trkpt lat="44.23493" lon="5.90837">
        <ele>509</ele>
        <time>2017-01-12 14:02:34</time>
      </trkpt>
      <trkpt lat="44.23493" lon="5.90837">
        <ele>509</ele>
        <time>2017-01-12 14:02:35</time>
      </trkpt>
      <trkpt lat="44.23497" lon="5.90857">
        <ele>509</ele>
        <time>2017-01-12 14:02:36</time>
      </trkpt>
      <trkpt lat="44.23497" lon="5.90857">
        <ele>509</ele>
        <time>2017-01-12 14:02:37</time>
      </trkpt>
      <trkpt lat="44.23497" lon="5.90857">
        <ele>509</ele>
        <time>2017-01-12 14:02:38</time>
      </trkpt>
      <trkpt lat="44.23497" lon="5.90857">
        <ele>509</ele>
        <time>2017-01-12 14:02:39</time>
      </trkpt>
      <trkpt lat="44.23502" lon="5.90879">
        <ele>508.3</ele>
        <time>2017-01-12 14:02:40</time>
      </trkpt>
      <trkpt lat="44.23502" lon="5.90879">
        <ele>508.3</ele>
        <time>2017-01-12 14:02:41</time>
      </trkpt>
      <trkpt lat="44.23502" lon="5.90879">
        <ele>508.3</ele>
        <time>2017-01-12 14:02:42</time>
      </trkpt>
      <trkpt lat="44.23502" lon="5.90879">
        <ele>508.3</ele>
        <time>2017-01-12 14:02:43</time>
      </trkpt>
      <trkpt lat="44.23508" lon="5.90901">
        <ele>507.9</ele>
        <time>2017-01-12 14:02:44</time>
      </trkpt>
      <trkpt lat="44.23508" lon="5.90901">
        <ele>507.9</ele>
        <time>2017-01-12 14:02:45</time>
      </trkpt>
      <trkpt lat="44.23508" lon="5.90901">
        <ele>507.9</ele>
        <time>2017-01-12 14:02:46</time>
      </trkpt>
      <trkpt lat="44.23508" lon="5.90901">
        <ele>507.9</ele>
        <time>2017-01-12 14:02:47</time>
      </trkpt>
      <trkpt lat="44.23512" lon="5.90921">
        <ele>507.5</ele>
        <time>2017-01-12 14:02:48</time>
      </trkpt>
      <trkpt lat="44.23512" lon="5.90921">
        <ele>507.5</ele>
        <time>2017-01-12 14:02:49</time>
      </trkpt>
      <trkpt lat="44.23512" lon="5.90921">
        <ele>507.5</ele>
        <time>2017-01-12 14:02:50</time>
      </trkpt>
      <trkpt lat="44.23512" lon="5.90921">
        <ele>507.5</ele>
        <time>2017-01-12 14:02:51</time>
      </trkpt>
      <trkpt lat="44.23516" lon="5.9094">
        <ele>507.1</ele>
        <time>2017-01-12 14:02:52</time>
      </trkpt>
      <trkpt lat="44.23516" lon="5.9094">
        <ele>507.1</ele>
        <time>2017-01-12 14:02:53</time>
      </trkpt>
      <trkpt lat="44.23516" lon="5.9094">
        <ele>507.1</ele>
        <time>2017-01-12 14:02:54</time>
      </trkpt>
      <trkpt lat="44.23516" lon="5.9094">
        <ele>507.1</ele>
        <time>2017-01-12 14:02:55</time>
      </trkpt>
      <trkpt lat="44.23521" lon="5.9096">
        <ele>507</ele>
        <time>2017-01-12 14:02:56</time>
      </trkpt>
      <trkpt lat="44.23521" lon="5.9096">
        <ele>507</ele>
        <time>2017-01-12 14:02:57</time>
      </trkpt>
      <trkpt lat="44.23521" lon="5.9096">
        <ele>507</ele>
        <time>2017-01-12 14:02:58</time>
      </trkpt>
      <trkpt lat="44.23521" lon="5.9096">
        <ele>507</ele>
        <time>2017-01-12 14:02:59</time>
      </trkpt>
      <trkpt lat="44.23526" lon="5.90981">
        <ele>507.3</ele>
        <time>2017-01-12 14:03:00</time>
      </trkpt>
      <trkpt lat="44.23526" lon="5.90981">
        <ele>507.3</ele>
        <time>2017-01-12 14:03:01</time>
      </trkpt>
      <trkpt lat="44.23526" lon="5.90981">
        <ele>507.3</ele>
        <time>2017-01-12 14:03:02</time>
      </trkpt>
      <trkpt lat="44.23526" lon="5.90981">
        <ele>507.3</ele>
        <time>2017-01-12 14:03:03</time>
      </trkpt>
      <trkpt lat="44.23532" lon="5.91002">
        <ele>508</ele>
        <time>2017-01-12 14:03:04</time>
      </trkpt>
      <trkpt lat="44.23532" lon="5.91002">
        <ele>508</ele>
        <time>2017-01-12 14:03:05</time>
      </trkpt>
      <trkpt lat="44.23532" lon="5.91002">
        <ele>508</ele>
        <time>2017-01-12 14:03:06</time>
      </trkpt>
      <trkpt lat="44.23532" lon="5.91002">
        <ele>508</ele>
        <time>2017-01-12 14:03:07</time>
      </trkpt>
      <trkpt lat="44.23537" lon="5.91024">
        <ele>508</ele>
        <time>2017-01-12 14:03:08</time>
      </trkpt>
      <trkpt lat="44.23537" lon="5.91024">
        <ele>508</ele>
        <time>2017-01-12 14:03:09</time>
      </trkpt>
      <trkpt lat="44.23537" lon="5.91024">
        <ele>508</ele>
        <time>2017-01-12 14:03:10</time>
      </trkpt>
      <trkpt lat="44.23537" lon="5.91024">
        <ele>508</ele>
        <time>2017-01-12 14:03:11</time>
      </trkpt>
      <trkpt lat="44.23542" lon="5.91045">
        <ele>508.3</ele>
        <time>2017-01-12 14:03:12</time>
      </trkpt>
      <trkpt lat="44.23542" lon="5.91045">
        <ele>508.3</ele>
        <time>2017-01-12 14:03:13</time>
      </trkpt>
      <trkpt lat="44.23542" lon="5.91045">
        <ele>508.3</ele>
        <time>2017-01-12 14:03:14</time>
      </trkpt>
      <trkpt lat="44.23542" lon="5.91045">
        <ele>508.3</ele>
        <time>2017-01-12 14:03:15</time>
      </trkpt>
      <trkpt lat="44.23548" lon="5.91065">
        <ele>508.4</ele>
        <time>2017-01-12 14:03:16</time>
      </trkpt>
      <trkpt lat="44.23548" lon="5.91065">
        <ele>508.4</ele>
        <time>2017-01-12 14:03:17</time>
      </trkpt>
      <trkpt lat="44.23548" lon="5.91065">
        <ele>508.4</ele>
        <time>2017-01-12 14:03:18</time>
      </trkpt>
      <trkpt lat="44.23548" lon="5.91065">
        <ele>508.4</ele>
        <time>2017-01-12 14:03:19</time>
      </trkpt>
      <trkpt lat="44.23566" lon="5.91072">
        <ele>508.3</ele>
        <time>2017-01-12 14:03:20</time>
      </trkpt>
      <trkpt lat="44.23566" lon="5.91072">
        <ele>508.3</ele>
        <time>2017-01-12 14:03:21</time>
      </trkpt>
      <trkpt lat="44.23566" lon="5.91072">
        <ele>508.3</ele>
        <time>2017-01-12 14:03:22</time>
      </trkpt>
      <trkpt lat="44.23566" lon="5.91072">
        <ele>508.3</ele>
        <time>2017-01-12 14:03:23</time>
      </trkpt>
      <trkpt lat="44.23586" lon="5.91071">
        <ele>508</ele>
        <time>2017-01-12 14:03:24</time>
      </trkpt>
      <trkpt lat="44.23586" lon="5.91071">
        <ele>508</ele>
        <time>2017-01-12 14:03:25</time>
      </trkpt>
      <trkpt lat="44.23586" lon="5.91071">
        <ele>508</ele>
        <time>2017-01-12 14:03:26</time>
      </trkpt>
      <trkpt lat="44.23586" lon="5.91071">
        <ele>508</ele>
        <time>2017-01-12 14:03:27</time>
      </trkpt>
      <trkpt lat="44.23598" lon="5.91077">
        <ele>508.8</ele>
        <time>2017-01-12 14:03:28</time>
      </trkpt>
      <trkpt lat="44.23598" lon="5.91077">
        <ele>508.8</ele>
        <time>2017-01-12 14:03:29</time>
      </trkpt>
      <trkpt lat="44.23598" lon="5.91077">
        <ele>508.8</ele>
        <time>2017-01-12 14:03:30</time>
      </trkpt>
      <trkpt lat="44.23598" lon="5.91077">
        <ele>508.8</ele>
        <time>2017-01-12 14:03:31</time>
      </trkpt>
      <trkpt lat="44.23604" lon="5.91091">
        <ele>509.2</ele>
        <time>2017-01-12 14:03:32</time>
      </trkpt>
      <trkpt lat="44.23604" lon="5.91091">
        <ele>509.2</ele>
        <time>2017-01-12 14:03:33</time>
      </trkpt>
      <trkpt lat="44.23604" lon="5.91091">
        <ele>509.2</ele>
        <time>2017-01-12 14:03:34</time>
      </trkpt>
      <trkpt lat="44.23604" lon="5.91091">
        <ele>509.2</ele>
        <time>2017-01-12 14:03:35</time>
      </trkpt>
      <trkpt lat="44.23614" lon="5.91105">
        <ele>509.3</ele>
        <time>2017-01-12 14:03:36</time>
      </trkpt>
      <trkpt lat="44.23614" lon="5.91105">
        <ele>509.3</ele>
        <time>2017-01-12 14:03:37</time>
      </trkpt>
      <trkpt lat="44.23614" lon="5.91105">
        <ele>509.3</ele>
        <time>2017-01-12 14:03:38</time>
      </trkpt>
      <trkpt lat="44.23614" lon="5.91105">
        <ele>509.3</ele>
        <time>2017-01-12 14:03:39</time>
      </trkpt>
      <trkpt lat="44.23629" lon="5.91105">
        <ele>509.6</ele>
        <time>2017-01-12 14:03:40</time>
      </trkpt>
      <trkpt lat="44.23629" lon="5.91105">
        <ele>509.6</ele>
        <time>2017-01-12 14:03:41</time>
      </trkpt>
      <trkpt lat="44.23629" lon="5.91105">
        <ele>509.6</ele>
        <time>2017-01-12 14:03:42</time>
      </trkpt>
      <trkpt lat="44.23629" lon="5.91105">
        <ele>509.6</ele>
        <time>2017-01-12 14:03:43</time>
      </trkpt>
      <trkpt lat="44.23646" lon="5.91098">
        <ele>509.4</ele>
        <time>2017-01-12 14:03:44</time>
      </trkpt>
      <trkpt lat="44.23646" lon="5.91098">
        <ele>509.4</ele>
        <time>2017-01-12 14:03:45</time>
      </trkpt>
      <trkpt lat="44.23646" lon="5.91098">
        <ele>509.4</ele>
        <time>2017-01-12 14:03:46</time>
      </trkpt>
      <trkpt lat="44.23646" lon="5.91098">
        <ele>509.4</ele>
        <time>2017-01-12 14:03:47</time>
      </trkpt>
      <trkpt lat="44.23664" lon="5.91107">
        <ele>509.1</ele>
        <time>2017-01-12 14:03:48</time>
      </trkpt>
      <trkpt lat="44.23664" lon="5.91107">
        <ele>509.1</ele>
        <time>2017-01-12 14:03:49</time>
      </trkpt>
      <trkpt lat="44.23664" lon="5.91107">
        <ele>509.1</ele>
        <time>2017-01-12 14:03:50</time>
      </trkpt>
      <trkpt lat="44.23664" lon="5.91107">
        <ele>509.1</ele>
        <time>2017-01-12 14:03:51</time>
      </trkpt>
      <trkpt lat="44.23681" lon="5.91122">
        <ele>509.2</ele>
        <time>2017-01-12 14:03:52</time>
      </trkpt>
      <trkpt lat="44.23681" lon="5.91122">
        <ele>509.2</ele>
        <time>2017-01-12 14:03:53</time>
      </trkpt>
      <trkpt lat="44.23681" lon="5.91122">
        <ele>509.2</ele>
        <time>2017-01-12 14:03:54</time>
      </trkpt>
      <trkpt lat="44.23681" lon="5.91122">
        <ele>509.2</ele>
        <time>2017-01-12 14:03:55</time>
      </trkpt>
      <trkpt lat="44.23693" lon="5.91143">
        <ele>509.2</ele>
        <time>2017-01-12 14:03:56</time>
      </trkpt>
      <trkpt lat="44.23693" lon="5.91143">
        <ele>509.2</ele>
        <time>2017-01-12 14:03:57</time>
      </trkpt>
      <trkpt lat="44.23693" lon="5.91143">
        <ele>509.2</ele>
        <time>2017-01-12 14:03:58</time>
      </trkpt>
      <trkpt lat="44.23693" lon="5.91143">
        <ele>509.2</ele>
        <time>2017-01-12 14:03:59</time>
      </trkpt>
      <trkpt lat="44.23702" lon="5.91168">
        <ele>510</ele>
        <time>2017-01-12 14:04:00</time>
      </trkpt>
      <trkpt lat="44.23702" lon="5.91168">
        <ele>510</ele>
        <time>2017-01-12 14:04:01</time>
      </trkpt>
      <trkpt lat="44.23702" lon="5.91168">
        <ele>510</ele>
        <time>2017-01-12 14:04:02</time>
      </trkpt>
      <trkpt lat="44.23702" lon="5.91168">
        <ele>510</ele>
        <time>2017-01-12 14:04:03</time>
      </trkpt>
      <trkpt lat="44.23706" lon="5.91193">
        <ele>510</ele>
        <time>2017-01-12 14:04:04</time>
      </trkpt>
      <trkpt lat="44.23706" lon="5.91193">
        <ele>510</ele>
        <time>2017-01-12 14:04:05</time>
      </trkpt>
      <trkpt lat="44.23706" lon="5.91193">
        <ele>510</ele>
        <time>2017-01-12 14:04:06</time>
      </trkpt>
      <trkpt lat="44.23706" lon="5.91193">
        <ele>510</ele>
        <time>2017-01-12 14:04:07</time>
      </trkpt>
      <trkpt lat="44.23707" lon="5.91209">
        <ele>510.3</ele>
        <time>2017-01-12 14:04:08</time>
      </trkpt>
      <trkpt lat="44.23707" lon="5.91209">
        <ele>510.3</ele>
        <time>2017-01-12 14:04:09</time>
      </trkpt>
      <trkpt lat="44.23707" lon="5.91209">
        <ele>510.3</ele>
        <time>2017-01-12 14:04:10</time>
      </trkpt>
      <trkpt lat="44.23707" lon="5.91209">
        <ele>510.3</ele>
        <time>2017-01-12 14:04:11</time>
      </trkpt>
      <trkpt lat="44.2371" lon="5.91217">
        <ele>510.4</ele>
        <time>2017-01-12 14:04:12</time>
      </trkpt>
      <trkpt lat="44.2371" lon="5.91217">
        <ele>510.4</ele>
        <time>2017-01-12 14:04:13</time>
      </trkpt>
      <trkpt lat="44.2371" lon="5.91217">
        <ele>510.4</ele>
        <time>2017-01-12 14:04:14</time>
      </trkpt>
      <trkpt lat="44.2371" lon="5.91217">
        <ele>510.4</ele>
        <time>2017-01-12 14:04:15</time>
      </trkpt>
      <trkpt lat="44.23719" lon="5.91219">
        <ele>510.1</ele>
        <time>2017-01-12 14:04:16</time>
      </trkpt>
      <trkpt lat="44.23719" lon="5.91219">
        <ele>510.1</ele>
        <time>2017-01-12 14:04:17</time>
      </trkpt>
      <trkpt lat="44.23719" lon="5.91219">
        <ele>510.1</ele>
        <time>2017-01-12 14:04:18</time>
      </trkpt>
      <trkpt lat="44.23719" lon="5.91219">
        <ele>510.1</ele>
        <time>2017-01-12 14:04:19</time>
      </trkpt>
      <trkpt lat="44.23728" lon="5.91228">
        <ele>510</ele>
        <time>2017-01-12 14:04:20</time>
      </trkpt>
      <trkpt lat="44.23728" lon="5.91228">
        <ele>510</ele>
        <time>2017-01-12 14:04:21</time>
      </trkpt>
      <trkpt lat="44.23728" lon="5.91228">
        <ele>510</ele>
        <time>2017-01-12 14:04:22</time>
      </trkpt>
      <trkpt lat="44.23728" lon="5.91228">
        <ele>510</ele>
        <time>2017-01-12 14:04:23</time>
      </trkpt>
      <trkpt lat="44.23735" lon="5.91245">
        <ele>510</ele>
        <time>2017-01-12 14:04:24</time>
      </trkpt>
      <trkpt lat="44.23735" lon="5.91245">
        <ele>510</ele>
        <time>2017-01-12 14:04:25</time>
      </trkpt>
      <trkpt lat="44.23735" lon="5.91245">
        <ele>510</ele>
        <time>2017-01-12 14:04:26</time>
      </trkpt>
      <trkpt lat="44.23735" lon="5.91245">
        <ele>510</ele>
        <time>2017-01-12 14:04:27</time>
      </trkpt>
      <trkpt lat="44.23739" lon="5.91261">
        <ele>510</ele>
        <time>2017-01-12 14:04:28</time>
      </trkpt>
      <trkpt lat="44.23739" lon="5.91261">
        <ele>510</ele>
        <time>2017-01-12 14:04:29</time>
      </trkpt>
      <trkpt lat="44.23739" lon="5.91261">
        <ele>510</ele>
        <time>2017-01-12 14:04:30</time>
      </trkpt>
      <trkpt lat="44.23739" lon="5.91261">
        <ele>510</ele>
        <time>2017-01-12 14:04:31</time>
      </trkpt>
      <trkpt lat="44.23742" lon="5.91275">
        <ele>510</ele>
        <time>2017-01-12 14:04:32</time>
      </trkpt>
      <trkpt lat="44.23742" lon="5.91275">
        <ele>510</ele>
        <time>2017-01-12 14:04:33</time>
      </trkpt>
      <trkpt lat="44.23742" lon="5.91275">
        <ele>510</ele>
        <time>2017-01-12 14:04:34</time>
      </trkpt>
      <trkpt lat="44.23742" lon="5.91275">
        <ele>510</ele>
        <time>2017-01-12 14:04:35</time>
      </trkpt>
      <trkpt lat="44.23745" lon="5.91288">
        <ele>510</ele>
        <time>2017-01-12 14:04:36</time>
      </trkpt>
      <trkpt lat="44.23745" lon="5.91288">
        <ele>510</ele>
        <time>2017-01-12 14:04:37</time>
      </trkpt>
      <trkpt lat="44.23745" lon="5.91288">
        <ele>510</ele>
        <time>2017-01-12 14:04:38</time>
      </trkpt>
      <trkpt lat="44.23745" lon="5.91288">
        <ele>510</ele>
        <time>2017-01-12 14:04:39</time>
      </trkpt>
      <trkpt lat="44.23747" lon="5.91299">
        <ele>510</ele>
        <time>2017-01-12 14:04:40</time>
      </trkpt>
      <trkpt lat="44.23747" lon="5.91299">
        <ele>510</ele>
        <time>2017-01-12 14:04:41</time>
      </trkpt>
      <trkpt lat="44.23747" lon="5.91299">
        <ele>510</ele>
        <time>2017-01-12 14:04:42</time>
      </trkpt>
      <trkpt lat="44.23747" lon="5.91299">
        <ele>510</ele>
        <time>2017-01-12 14:04:43</time>
      </trkpt>
      <trkpt lat="44.23747" lon="5.9131">
        <ele>510.2</ele>
        <time>2017-01-12 14:04:44</time>
      </trkpt>
      <trkpt lat="44.23747" lon="5.9131">
        <ele>510.2</ele>
        <time>2017-01-12 14:04:45</time>
      </trkpt>
      <trkpt lat="44.23747" lon="5.9131">
        <ele>510.2</ele>
        <time>2017-01-12 14:04:46</time>
      </trkpt>
      <trkpt lat="44.23747" lon="5.9131">
        <ele>510.2</ele>
        <time>2017-01-12 14:04:47</time>
      </trkpt>
      <trkpt lat="44.23743" lon="5.91321">
        <ele>510.5</ele>
        <time>2017-01-12 14:04:48</time>
      </trkpt>
      <trkpt lat="44.23743" lon="5.91321">
        <ele>510.5</ele>
        <time>2017-01-12 14:04:49</time>
      </trkpt>
      <trkpt lat="44.23743" lon="5.91321">
        <ele>510.5</ele>
        <time>2017-01-12 14:04:50</time>
      </trkpt>
      <trkpt lat="44.23743" lon="5.91321">
        <ele>510.5</ele>
        <time>2017-01-12 14:04:51</time>
      </trkpt>
      <trkpt lat="44.23739" lon="5.91332">
        <ele>510.9</ele>
        <time>2017-01-12 14:04:52</time>
      </trkpt>
      <trkpt lat="44.23739" lon="5.91332">
        <ele>510.9</ele>
        <time>2017-01-12 14:04:53</time>
      </trkpt>
      <trkpt lat="44.23739" lon="5.91332">
        <ele>510.9</ele>
        <time>2017-01-12 14:04:54</time>
      </trkpt>
      <trkpt lat="44.23739" lon="5.91332">
        <ele>510.9</ele>
        <time>2017-01-12 14:04:55</time>
      </trkpt>
      <trkpt lat="44.23736" lon="5.91341">
        <ele>511.4</ele>
        <time>2017-01-12 14:04:56</time>
      </trkpt>
      <trkpt lat="44.23736" lon="5.91341">
        <ele>511.4</ele>
        <time>2017-01-12 14:04:57</time>
      </trkpt>
      <trkpt lat="44.23736" lon="5.91341">
        <ele>511.4</ele>
        <time>2017-01-12 14:04:58</time>
      </trkpt>
      <trkpt lat="44.23736" lon="5.91341">
        <ele>511.4</ele>
        <time>2017-01-12 14:04:59</time>
      </trkpt>
      <trkpt lat="44.23739" lon="5.91348">
        <ele>511.8</ele>
        <time>2017-01-12 14:05:00</time>
      </trkpt>
      <trkpt lat="44.23739" lon="5.91348">
        <ele>511.8</ele>
        <time>2017-01-12 14:05:01</time>
      </trkpt>
      <trkpt lat="44.23739" lon="5.91348">
        <ele>511.8</ele>
        <time>2017-01-12 14:05:02</time>
      </trkpt>
      <trkpt lat="44.23739" lon="5.91348">
        <ele>511.8</ele>
        <time>2017-01-12 14:05:03</time>
      </trkpt>
      <trkpt lat="44.23746" lon="5.9135">
        <ele>512.1</ele>
        <time>2017-01-12 14:05:04</time>
      </trkpt>
      <trkpt lat="44.23746" lon="5.9135">
        <ele>512.1</ele>
        <time>2017-01-12 14:05:05</time>
      </trkpt>
      <trkpt lat="44.23746" lon="5.9135">
        <ele>512.1</ele>
        <time>2017-01-12 14:05:06</time>
      </trkpt>
      <trkpt lat="44.23746" lon="5.9135">
        <ele>512.1</ele>
        <time>2017-01-12 14:05:07</time>
      </trkpt>
      <trkpt lat="44.23753" lon="5.91348">
        <ele>512.1</ele>
        <time>2017-01-12 14:05:08</time>
      </trkpt>
      <trkpt lat="44.23753" lon="5.91348">
        <ele>512.1</ele>
        <time>2017-01-12 14:05:09</time>
      </trkpt>
      <trkpt lat="44.23753" lon="5.91348">
        <ele>512.1</ele>
        <time>2017-01-12 14:05:10</time>
      </trkpt>
      <trkpt lat="44.23753" lon="5.91348">
        <ele>512.1</ele>
        <time>2017-01-12 14:05:11</time>
      </trkpt>
      <trkpt lat="44.23759" lon="5.91347">
        <ele>512.2</ele>
        <time>2017-01-12 14:05:12</time>
      </trkpt>
      <trkpt lat="44.23759" lon="5.91347">
        <ele>512.2</ele>
        <time>2017-01-12 14:05:13</time>
      </trkpt>
      <trkpt lat="44.23759" lon="5.91347">
        <ele>512.2</ele>
        <time>2017-01-12 14:05:14</time>
      </trkpt>
      <trkpt lat="44.23759" lon="5.91347">
        <ele>512.2</ele>
        <time>2017-01-12 14:05:15</time>
      </trkpt>
      <trkpt lat="44.23761" lon="5.91348">
        <ele>512.2</ele>
        <time>2017-01-12 14:05:16</time>
      </trkpt>
      <trkpt lat="44.23761" lon="5.91348">
        <ele>512.2</ele>
        <time>2017-01-12 14:05:17</time>
      </trkpt>
      <trkpt lat="44.23761" lon="5.91348">
        <ele>512.2</ele>
        <time>2017-01-12 14:05:18</time>
      </trkpt>
      <trkpt lat="44.23761" lon="5.91348">
        <ele>512.2</ele>
        <time>2017-01-12 14:05:19</time>
      </trkpt>
      <trkpt lat="44.23762" lon="5.91348">
        <ele>512.2</ele>
        <time>2017-01-12 14:05:20</time>
      </trkpt>
      <trkpt lat="44.23762" lon="5.91348">
        <ele>512.2</ele>
        <time>2017-01-12 14:05:21</time>
      </trkpt>
      <trkpt lat="44.23762" lon="5.91348">
        <ele>512.2</ele>
        <time>2017-01-12 14:05:22</time>
      </trkpt>
      <trkpt lat="44.23762" lon="5.91348">
        <ele>512.2</ele>
        <time>2017-01-12 14:05:23</time>
      </trkpt>
      <trkpt lat="44.23763" lon="5.91337">
        <ele>511.7</ele>
        <time>2017-01-12 14:05:24</time>
      </trkpt>
      <trkpt lat="44.23763" lon="5.91337">
        <ele>511.7</ele>
        <time>2017-01-12 14:05:25</time>
      </trkpt>
      <trkpt lat="44.23763" lon="5.91337">
        <ele>511.7</ele>
        <time>2017-01-12 14:05:26</time>
      </trkpt>
      <trkpt lat="44.23763" lon="5.91337">
        <ele>511.7</ele>
        <time>2017-01-12 14:05:27</time>
      </trkpt>
      <trkpt lat="44.23766" lon="5.91322">
        <ele>511.4</ele>
        <time>2017-01-12 14:05:28</time>
      </trkpt>
      <trkpt lat="44.23766" lon="5.91322">
        <ele>511.4</ele>
        <time>2017-01-12 14:05:29</time>
      </trkpt>
      <trkpt lat="44.23766" lon="5.91322">
        <ele>511.4</ele>
        <time>2017-01-12 14:05:30</time>
      </trkpt>
      <trkpt lat="44.23766" lon="5.91322">
        <ele>511.4</ele>
        <time>2017-01-12 14:05:31</time>
      </trkpt>
      <trkpt lat="44.23768" lon="5.91305">
        <ele>511.3</ele>
        <time>2017-01-12 14:05:32</time>
      </trkpt>
      <trkpt lat="44.23768" lon="5.91305">
        <ele>511.3</ele>
        <time>2017-01-12 14:05:33</time>
      </trkpt>
      <trkpt lat="44.23768" lon="5.91305">
        <ele>511.3</ele>
        <time>2017-01-12 14:05:34</time>
      </trkpt>
      <trkpt lat="44.23768" lon="5.91305">
        <ele>511.3</ele>
        <time>2017-01-12 14:05:35</time>
      </trkpt>
      <trkpt lat="44.23772" lon="5.91287">
        <ele>511.6</ele>
        <time>2017-01-12 14:05:36</time>
      </trkpt>
      <trkpt lat="44.23772" lon="5.91287">
        <ele>511.6</ele>
        <time>2017-01-12 14:05:37</time>
      </trkpt>
      <trkpt lat="44.23772" lon="5.91287">
        <ele>511.6</ele>
        <time>2017-01-12 14:05:38</time>
      </trkpt>
      <trkpt lat="44.23772" lon="5.91287">
        <ele>511.6</ele>
        <time>2017-01-12 14:05:39</time>
      </trkpt>
      <trkpt lat="44.23777" lon="5.9127">
        <ele>512</ele>
        <time>2017-01-12 14:05:40</time>
      </trkpt>
      <trkpt lat="44.23777" lon="5.9127">
        <ele>512</ele>
        <time>2017-01-12 14:05:41</time>
      </trkpt>
      <trkpt lat="44.23777" lon="5.9127">
        <ele>512</ele>
        <time>2017-01-12 14:05:42</time>
      </trkpt>
      <trkpt lat="44.23777" lon="5.9127">
        <ele>512</ele>
        <time>2017-01-12 14:05:43</time>
      </trkpt>
      <trkpt lat="44.23781" lon="5.91249">
        <ele>511.7</ele>
        <time>2017-01-12 14:05:44</time>
      </trkpt>
      <trkpt lat="44.23781" lon="5.91249">
        <ele>511.7</ele>
        <time>2017-01-12 14:05:45</time>
      </trkpt>
      <trkpt lat="44.23781" lon="5.91249">
        <ele>511.7</ele>
        <time>2017-01-12 14:05:46</time>
      </trkpt>
      <trkpt lat="44.23781" lon="5.91249">
        <ele>511.7</ele>
        <time>2017-01-12 14:05:47</time>
      </trkpt>
      <trkpt lat="44.23786" lon="5.91226">
        <ele>511</ele>
        <time>2017-01-12 14:05:48</time>
      </trkpt>
      <trkpt lat="44.23786" lon="5.91226">
        <ele>511</ele>
        <time>2017-01-12 14:05:49</time>
      </trkpt>
      <trkpt lat="44.23786" lon="5.91226">
        <ele>511</ele>
        <time>2017-01-12 14:05:50</time>
      </trkpt>
      <trkpt lat="44.23786" lon="5.91226">
        <ele>511</ele>
        <time>2017-01-12 14:05:51</time>
      </trkpt>
      <trkpt lat="44.23794" lon="5.91205">
        <ele>510.7</ele>
        <time>2017-01-12 14:05:52</time>
      </trkpt>
      <trkpt lat="44.23794" lon="5.91205">
        <ele>510.7</ele>
        <time>2017-01-12 14:05:53</time>
      </trkpt>
      <trkpt lat="44.23794" lon="5.91205">
        <ele>510.7</ele>
        <time>2017-01-12 14:05:54</time>
      </trkpt>
      <trkpt lat="44.23794" lon="5.91205">
        <ele>510.7</ele>
        <time>2017-01-12 14:05:55</time>
      </trkpt>
      <trkpt lat="44.23806" lon="5.91187">
        <ele>511</ele>
        <time>2017-01-12 14:05:56</time>
      </trkpt>
      <trkpt lat="44.23806" lon="5.91187">
        <ele>511</ele>
        <time>2017-01-12 14:05:57</time>
      </trkpt>
      <trkpt lat="44.23806" lon="5.91187">
        <ele>511</ele>
        <time>2017-01-12 14:05:58</time>
      </trkpt>
      <trkpt lat="44.23806" lon="5.91187">
        <ele>511</ele>
        <time>2017-01-12 14:05:59</time>
      </trkpt>
      <trkpt lat="44.2382" lon="5.91173">
        <ele>511.2</ele>
        <time>2017-01-12 14:06:00</time>
      </trkpt>
      <trkpt lat="44.2382" lon="5.91173">
        <ele>511.2</ele>
        <time>2017-01-12 14:06:01</time>
      </trkpt>
      <trkpt lat="44.2382" lon="5.91173">
        <ele>511.2</ele>
        <time>2017-01-12 14:06:02</time>
      </trkpt>
      <trkpt lat="44.2382" lon="5.91173">
        <ele>511.2</ele>
        <time>2017-01-12 14:06:03</time>
      </trkpt>
      <trkpt lat="44.23837" lon="5.91164">
        <ele>511.9</ele>
        <time>2017-01-12 14:06:04</time>
      </trkpt>
      <trkpt lat="44.23837" lon="5.91164">
        <ele>511.9</ele>
        <time>2017-01-12 14:06:05</time>
      </trkpt>
      <trkpt lat="44.23837" lon="5.91164">
        <ele>511.9</ele>
        <time>2017-01-12 14:06:06</time>
      </trkpt>
      <trkpt lat="44.23837" lon="5.91164">
        <ele>511.9</ele>
        <time>2017-01-12 14:06:07</time>
      </trkpt>
      <trkpt lat="44.23854" lon="5.91159">
        <ele>511.7</ele>
        <time>2017-01-12 14:06:08</time>
      </trkpt>
      <trkpt lat="44.23854" lon="5.91159">
        <ele>511.7</ele>
        <time>2017-01-12 14:06:09</time>
      </trkpt>
      <trkpt lat="44.23854" lon="5.91159">
        <ele>511.7</ele>
        <time>2017-01-12 14:06:10</time>
      </trkpt>
      <trkpt lat="44.23854" lon="5.91159">
        <ele>511.7</ele>
        <time>2017-01-12 14:06:11</time>
      </trkpt>
      <trkpt lat="44.23872" lon="5.91162">
        <ele>512.1</ele>
        <time>2017-01-12 14:06:12</time>
      </trkpt>
      <trkpt lat="44.23872" lon="5.91162">
        <ele>512.1</ele>
        <time>2017-01-12 14:06:13</time>
      </trkpt>
      <trkpt lat="44.23872" lon="5.91162">
        <ele>512.1</ele>
        <time>2017-01-12 14:06:14</time>
      </trkpt>
      <trkpt lat="44.23872" lon="5.91162">
        <ele>512.1</ele>
        <time>2017-01-12 14:06:15</time>
      </trkpt>
      <trkpt lat="44.23889" lon="5.9117">
        <ele>512.7</ele>
        <time>2017-01-12 14:06:16</time>
      </trkpt>
      <trkpt lat="44.23889" lon="5.9117">
        <ele>512.7</ele>
        <time>2017-01-12 14:06:17</time>
      </trkpt>
      <trkpt lat="44.23889" lon="5.9117">
        <ele>512.7</ele>
        <time>2017-01-12 14:06:18</time>
      </trkpt>
      <trkpt lat="44.23889" lon="5.9117">
        <ele>512.7</ele>
        <time>2017-01-12 14:06:19</time>
      </trkpt>
      <trkpt lat="44.23904" lon="5.91183">
        <ele>512.1</ele>
        <time>2017-01-12 14:06:20</time>
      </trkpt>
      <trkpt lat="44.23904" lon="5.91183">
        <ele>512.1</ele>
        <time>2017-01-12 14:06:21</time>
      </trkpt>
      <trkpt lat="44.23904" lon="5.91183">
        <ele>512.1</ele>
        <time>2017-01-12 14:06:22</time>
      </trkpt>
      <trkpt lat="44.23904" lon="5.91183">
        <ele>512.1</ele>
        <time>2017-01-12 14:06:23</time>
      </trkpt>
      <trkpt lat="44.23915" lon="5.91199">
        <ele>513.8</ele>
        <time>2017-01-12 14:06:24</time>
      </trkpt>
      <trkpt lat="44.23915" lon="5.91199">
        <ele>513.8</ele>
        <time>2017-01-12 14:06:25</time>
      </trkpt>
      <trkpt lat="44.23915" lon="5.91199">
        <ele>513.8</ele>
        <time>2017-01-12 14:06:26</time>
      </trkpt>
      <trkpt lat="44.23915" lon="5.91199">
        <ele>513.8</ele>
        <time>2017-01-12 14:06:27</time>
      </trkpt>
      <trkpt lat="44.23923" lon="5.91219">
        <ele>513.3</ele>
        <time>2017-01-12 14:06:28</time>
      </trkpt>
      <trkpt lat="44.23923" lon="5.91219">
        <ele>513.3</ele>
        <time>2017-01-12 14:06:29</time>
      </trkpt>
      <trkpt lat="44.23923" lon="5.91219">
        <ele>513.3</ele>
        <time>2017-01-12 14:06:30</time>
      </trkpt>
      <trkpt lat="44.23923" lon="5.91219">
        <ele>513.3</ele>
        <time>2017-01-12 14:06:31</time>
      </trkpt>
      <trkpt lat="44.23929" lon="5.91238">
        <ele>512.3</ele>
        <time>2017-01-12 14:06:32</time>
      </trkpt>
      <trkpt lat="44.23929" lon="5.91238">
        <ele>512.3</ele>
        <time>2017-01-12 14:06:33</time>
      </trkpt>
      <trkpt lat="44.23929" lon="5.91238">
        <ele>512.3</ele>
        <time>2017-01-12 14:06:34</time>
      </trkpt>
      <trkpt lat="44.23929" lon="5.91238">
        <ele>512.3</ele>
        <time>2017-01-12 14:06:35</time>
      </trkpt>
      <trkpt lat="44.23932" lon="5.91255">
        <ele>512.2</ele>
        <time>2017-01-12 14:06:36</time>
      </trkpt>
      <trkpt lat="44.23932" lon="5.91255">
        <ele>512.2</ele>
        <time>2017-01-12 14:06:37</time>
      </trkpt>
      <trkpt lat="44.23932" lon="5.91255">
        <ele>512.2</ele>
        <time>2017-01-12 14:06:38</time>
      </trkpt>
      <trkpt lat="44.23932" lon="5.91255">
        <ele>512.2</ele>
        <time>2017-01-12 14:06:39</time>
      </trkpt>
      <trkpt lat="44.23935" lon="5.91271">
        <ele>513.3</ele>
        <time>2017-01-12 14:06:40</time>
      </trkpt>
      <trkpt lat="44.23935" lon="5.91271">
        <ele>513.3</ele>
        <time>2017-01-12 14:06:41</time>
      </trkpt>
      <trkpt lat="44.23935" lon="5.91271">
        <ele>513.3</ele>
        <time>2017-01-12 14:06:42</time>
      </trkpt>
      <trkpt lat="44.23935" lon="5.91271">
        <ele>513.3</ele>
        <time>2017-01-12 14:06:43</time>
      </trkpt>
      <trkpt lat="44.23938" lon="5.91287">
        <ele>514.8</ele>
        <time>2017-01-12 14:06:44</time>
      </trkpt>
      <trkpt lat="44.23938" lon="5.91287">
        <ele>514.8</ele>
        <time>2017-01-12 14:06:45</time>
      </trkpt>
      <trkpt lat="44.23938" lon="5.91287">
        <ele>514.8</ele>
        <time>2017-01-12 14:06:46</time>
      </trkpt>
      <trkpt lat="44.23938" lon="5.91287">
        <ele>514.8</ele>
        <time>2017-01-12 14:06:47</time>
      </trkpt>
      <trkpt lat="44.23942" lon="5.91302">
        <ele>516.9</ele>
        <time>2017-01-12 14:06:48</time>
      </trkpt>
      <trkpt lat="44.23942" lon="5.91302">
        <ele>516.9</ele>
        <time>2017-01-12 14:06:49</time>
      </trkpt>
      <trkpt lat="44.23942" lon="5.91302">
        <ele>516.9</ele>
        <time>2017-01-12 14:06:50</time>
      </trkpt>
      <trkpt lat="44.23942" lon="5.91302">
        <ele>516.9</ele>
        <time>2017-01-12 14:06:51</time>
      </trkpt>
      <trkpt lat="44.23945" lon="5.91318">
        <ele>517.9</ele>
        <time>2017-01-12 14:06:52</time>
      </trkpt>
      <trkpt lat="44.23945" lon="5.91318">
        <ele>517.9</ele>
        <time>2017-01-12 14:06:53</time>
      </trkpt>
      <trkpt lat="44.23945" lon="5.91318">
        <ele>517.9</ele>
        <time>2017-01-12 14:06:54</time>
      </trkpt>
      <trkpt lat="44.23945" lon="5.91318">
        <ele>517.9</ele>
        <time>2017-01-12 14:06:55</time>
      </trkpt>
      <trkpt lat="44.23948" lon="5.91334">
        <ele>517.1</ele>
        <time>2017-01-12 14:06:56</time>
      </trkpt>
      <trkpt lat="44.23948" lon="5.91334">
        <ele>517.1</ele>
        <time>2017-01-12 14:06:57</time>
      </trkpt>
      <trkpt lat="44.23948" lon="5.91334">
        <ele>517.1</ele>
        <time>2017-01-12 14:06:58</time>
      </trkpt>
      <trkpt lat="44.23948" lon="5.91334">
        <ele>517.1</ele>
        <time>2017-01-12 14:06:59</time>
      </trkpt>
      <trkpt lat="44.23951" lon="5.91349">
        <ele>514.6</ele>
        <time>2017-01-12 14:07:00</time>
      </trkpt>
      <trkpt lat="44.23951" lon="5.91349">
        <ele>514.6</ele>
        <time>2017-01-12 14:07:01</time>
      </trkpt>
      <trkpt lat="44.23951" lon="5.91349">
        <ele>514.6</ele>
        <time>2017-01-12 14:07:02</time>
      </trkpt>
      <trkpt lat="44.23951" lon="5.91349">
        <ele>514.6</ele>
        <time>2017-01-12 14:07:03</time>
      </trkpt>
      <trkpt lat="44.23955" lon="5.91364">
        <ele>512.8</ele>
        <time>2017-01-12 14:07:04</time>
      </trkpt>
      <trkpt lat="44.23955" lon="5.91364">
        <ele>512.8</ele>
        <time>2017-01-12 14:07:05</time>
      </trkpt>
      <trkpt lat="44.23955" lon="5.91364">
        <ele>512.8</ele>
        <time>2017-01-12 14:07:06</time>
      </trkpt>
      <trkpt lat="44.23955" lon="5.91364">
        <ele>512.8</ele>
        <time>2017-01-12 14:07:07</time>
      </trkpt>
      <trkpt lat="44.23958" lon="5.9138">
        <ele>512</ele>
        <time>2017-01-12 14:07:08</time>
      </trkpt>
      <trkpt lat="44.23958" lon="5.9138">
        <ele>512</ele>
        <time>2017-01-12 14:07:09</time>
      </trkpt>
      <trkpt lat="44.23958" lon="5.9138">
        <ele>512</ele>
        <time>2017-01-12 14:07:10</time>
      </trkpt>
      <trkpt lat="44.23958" lon="5.9138">
        <ele>512</ele>
        <time>2017-01-12 14:07:11</time>
      </trkpt>
      <trkpt lat="44.23961" lon="5.91397">
        <ele>512</ele>
        <time>2017-01-12 14:07:12</time>
      </trkpt>
      <trkpt lat="44.23961" lon="5.91397">
        <ele>512</ele>
        <time>2017-01-12 14:07:13</time>
      </trkpt>
      <trkpt lat="44.23961" lon="5.91397">
        <ele>512</ele>
        <time>2017-01-12 14:07:14</time>
      </trkpt>
      <trkpt lat="44.23961" lon="5.91397">
        <ele>512</ele>
        <time>2017-01-12 14:07:15</time>
      </trkpt>
      <trkpt lat="44.23965" lon="5.91414">
        <ele>512.9</ele>
        <time>2017-01-12 14:07:16</time>
      </trkpt>
      <trkpt lat="44.23965" lon="5.91414">
        <ele>512.9</ele>
        <time>2017-01-12 14:07:17</time>
      </trkpt>
      <trkpt lat="44.23965" lon="5.91414">
        <ele>512.9</ele>
        <time>2017-01-12 14:07:18</time>
      </trkpt>
      <trkpt lat="44.23965" lon="5.91414">
        <ele>512.9</ele>
        <time>2017-01-12 14:07:19</time>
      </trkpt>
      <trkpt lat="44.23969" lon="5.91432">
        <ele>514.9</ele>
        <time>2017-01-12 14:07:20</time>
      </trkpt>
      <trkpt lat="44.23969" lon="5.91432">
        <ele>514.9</ele>
        <time>2017-01-12 14:07:21</time>
      </trkpt>
      <trkpt lat="44.23969" lon="5.91432">
        <ele>514.9</ele>
        <time>2017-01-12 14:07:22</time>
      </trkpt>
      <trkpt lat="44.23969" lon="5.91432">
        <ele>514.9</ele>
        <time>2017-01-12 14:07:23</time>
      </trkpt>
      <trkpt lat="44.23973" lon="5.9145">
        <ele>516.9</ele>
        <time>2017-01-12 14:07:24</time>
      </trkpt>
      <trkpt lat="44.23973" lon="5.9145">
        <ele>516.9</ele>
        <time>2017-01-12 14:07:25</time>
      </trkpt>
      <trkpt lat="44.23973" lon="5.9145">
        <ele>516.9</ele>
        <time>2017-01-12 14:07:26</time>
      </trkpt>
      <trkpt lat="44.23973" lon="5.9145">
        <ele>516.9</ele>
        <time>2017-01-12 14:07:27</time>
      </trkpt>
      <trkpt lat="44.23976" lon="5.91472">
        <ele>516.3</ele>
        <time>2017-01-12 14:07:28</time>
      </trkpt>
      <trkpt lat="44.23976" lon="5.91472">
        <ele>516.3</ele>
        <time>2017-01-12 14:07:29</time>
      </trkpt>
      <trkpt lat="44.23976" lon="5.91472">
        <ele>516.3</ele>
        <time>2017-01-12 14:07:30</time>
      </trkpt>
      <trkpt lat="44.23976" lon="5.91472">
        <ele>516.3</ele>
        <time>2017-01-12 14:07:31</time>
      </trkpt>
      <trkpt lat="44.23981" lon="5.91496">
        <ele>515.1</ele>
        <time>2017-01-12 14:07:32</time>
      </trkpt>
      <trkpt lat="44.23981" lon="5.91496">
        <ele>515.1</ele>
        <time>2017-01-12 14:07:33</time>
      </trkpt>
      <trkpt lat="44.23981" lon="5.91496">
        <ele>515.1</ele>
        <time>2017-01-12 14:07:34</time>
      </trkpt>
      <trkpt lat="44.23981" lon="5.91496">
        <ele>515.1</ele>
        <time>2017-01-12 14:07:35</time>
      </trkpt>
      <trkpt lat="44.23988" lon="5.91522">
        <ele>514.1</ele>
        <time>2017-01-12 14:07:36</time>
      </trkpt>
      <trkpt lat="44.23988" lon="5.91522">
        <ele>514.1</ele>
        <time>2017-01-12 14:07:37</time>
      </trkpt>
      <trkpt lat="44.23988" lon="5.91522">
        <ele>514.1</ele>
        <time>2017-01-12 14:07:38</time>
      </trkpt>
      <trkpt lat="44.23988" lon="5.91522">
        <ele>514.1</ele>
        <time>2017-01-12 14:07:39</time>
      </trkpt>
      <trkpt lat="44.23999" lon="5.9155">
        <ele>513.9</ele>
        <time>2017-01-12 14:07:40</time>
      </trkpt>
      <trkpt lat="44.23999" lon="5.9155">
        <ele>513.9</ele>
        <time>2017-01-12 14:07:41</time>
      </trkpt>
      <trkpt lat="44.23999" lon="5.9155">
        <ele>513.9</ele>
        <time>2017-01-12 14:07:42</time>
      </trkpt>
      <trkpt lat="44.23999" lon="5.9155">
        <ele>513.9</ele>
        <time>2017-01-12 14:07:43</time>
      </trkpt>
      <trkpt lat="44.24013" lon="5.91578">
        <ele>512.2</ele>
        <time>2017-01-12 14:07:44</time>
      </trkpt>
      <trkpt lat="44.24013" lon="5.91578">
        <ele>512.2</ele>
        <time>2017-01-12 14:07:45</time>
      </trkpt>
      <trkpt lat="44.24013" lon="5.91578">
        <ele>512.2</ele>
        <time>2017-01-12 14:07:46</time>
      </trkpt>
      <trkpt lat="44.24013" lon="5.91578">
        <ele>512.2</ele>
        <time>2017-01-12 14:07:47</time>
      </trkpt>
      <trkpt lat="44.24026" lon="5.91599">
        <ele>511.9</ele>
        <time>2017-01-12 14:07:48</time>
      </trkpt>
      <trkpt lat="44.24026" lon="5.91599">
        <ele>511.9</ele>
        <time>2017-01-12 14:07:49</time>
      </trkpt>
      <trkpt lat="44.24026" lon="5.91599">
        <ele>511.9</ele>
        <time>2017-01-12 14:07:50</time>
      </trkpt>
      <trkpt lat="44.24026" lon="5.91599">
        <ele>511.9</ele>
        <time>2017-01-12 14:07:51</time>
      </trkpt>
      <trkpt lat="44.24019" lon="5.91616">
        <ele>511.3</ele>
        <time>2017-01-12 14:07:52</time>
      </trkpt>
      <trkpt lat="44.24019" lon="5.91616">
        <ele>511.3</ele>
        <time>2017-01-12 14:07:53</time>
      </trkpt>
      <trkpt lat="44.24019" lon="5.91616">
        <ele>511.3</ele>
        <time>2017-01-12 14:07:54</time>
      </trkpt>
      <trkpt lat="44.24019" lon="5.91616">
        <ele>511.3</ele>
        <time>2017-01-12 14:07:55</time>
      </trkpt>
      <trkpt lat="44.24001" lon="5.91623">
        <ele>510.5</ele>
        <time>2017-01-12 14:07:56</time>
      </trkpt>
      <trkpt lat="44.24001" lon="5.91623">
        <ele>510.5</ele>
        <time>2017-01-12 14:07:57</time>
      </trkpt>
      <trkpt lat="44.24001" lon="5.91623">
        <ele>510.5</ele>
        <time>2017-01-12 14:07:58</time>
      </trkpt>
      <trkpt lat="44.24001" lon="5.91623">
        <ele>510.5</ele>
        <time>2017-01-12 14:07:59</time>
      </trkpt>
      <trkpt lat="44.23982" lon="5.91625">
        <ele>510.8</ele>
        <time>2017-01-12 14:08:00</time>
      </trkpt>
      <trkpt lat="44.23982" lon="5.91625">
        <ele>510.8</ele>
        <time>2017-01-12 14:08:01</time>
      </trkpt>
      <trkpt lat="44.23982" lon="5.91625">
        <ele>510.8</ele>
        <time>2017-01-12 14:08:02</time>
      </trkpt>
      <trkpt lat="44.23982" lon="5.91625">
        <ele>510.8</ele>
        <time>2017-01-12 14:08:03</time>
      </trkpt>
      <trkpt lat="44.23967" lon="5.91612">
        <ele>510.8</ele>
        <time>2017-01-12 14:08:04</time>
      </trkpt>
      <trkpt lat="44.23967" lon="5.91612">
        <ele>510.8</ele>
        <time>2017-01-12 14:08:05</time>
      </trkpt>
      <trkpt lat="44.23967" lon="5.91612">
        <ele>510.8</ele>
        <time>2017-01-12 14:08:06</time>
      </trkpt>
      <trkpt lat="44.23967" lon="5.91612">
        <ele>510.8</ele>
        <time>2017-01-12 14:08:07</time>
      </trkpt>
      <trkpt lat="44.23959" lon="5.9159">
        <ele>511.3</ele>
        <time>2017-01-12 14:08:08</time>
      </trkpt>
      <trkpt lat="44.23959" lon="5.9159">
        <ele>511.3</ele>
        <time>2017-01-12 14:08:09</time>
      </trkpt>
      <trkpt lat="44.23959" lon="5.9159">
        <ele>511.3</ele>
        <time>2017-01-12 14:08:10</time>
      </trkpt>
      <trkpt lat="44.23959" lon="5.9159">
        <ele>511.3</ele>
        <time>2017-01-12 14:08:11</time>
      </trkpt>
      <trkpt lat="44.23952" lon="5.91569">
        <ele>511.5</ele>
        <time>2017-01-12 14:08:12</time>
      </trkpt>
      <trkpt lat="44.23952" lon="5.91569">
        <ele>511.5</ele>
        <time>2017-01-12 14:08:13</time>
      </trkpt>
      <trkpt lat="44.23952" lon="5.91569">
        <ele>511.5</ele>
        <time>2017-01-12 14:08:14</time>
      </trkpt>
      <trkpt lat="44.23952" lon="5.91569">
        <ele>511.5</ele>
        <time>2017-01-12 14:08:15</time>
      </trkpt>
      <trkpt lat="44.23944" lon="5.91548">
        <ele>512</ele>
        <time>2017-01-12 14:08:16</time>
      </trkpt>
      <trkpt lat="44.23944" lon="5.91548">
        <ele>512</ele>
        <time>2017-01-12 14:08:17</time>
      </trkpt>
      <trkpt lat="44.23944" lon="5.91548">
        <ele>512</ele>
        <time>2017-01-12 14:08:18</time>
      </trkpt>
      <trkpt lat="44.23944" lon="5.91548">
        <ele>512</ele>
        <time>2017-01-12 14:08:19</time>
      </trkpt>
      <trkpt lat="44.23935" lon="5.91531">
        <ele>511.7</ele>
        <time>2017-01-12 14:08:20</time>
      </trkpt>
      <trkpt lat="44.23935" lon="5.91531">
        <ele>511.7</ele>
        <time>2017-01-12 14:08:21</time>
      </trkpt>
      <trkpt lat="44.23935" lon="5.91531">
        <ele>511.7</ele>
        <time>2017-01-12 14:08:22</time>
      </trkpt>
      <trkpt lat="44.23935" lon="5.91531">
        <ele>511.7</ele>
        <time>2017-01-12 14:08:23</time>
      </trkpt>
      <trkpt lat="44.23922" lon="5.91517">
        <ele>511.5</ele>
        <time>2017-01-12 14:08:24</time>
      </trkpt>
      <trkpt lat="44.23922" lon="5.91517">
        <ele>511.5</ele>
        <time>2017-01-12 14:08:25</time>
      </trkpt>
      <trkpt lat="44.23922" lon="5.91517">
        <ele>511.5</ele>
        <time>2017-01-12 14:08:26</time>
      </trkpt>
      <trkpt lat="44.23922" lon="5.91517">
        <ele>511.5</ele>
        <time>2017-01-12 14:08:27</time>
      </trkpt>
      <trkpt lat="44.23906" lon="5.91509">
        <ele>511.7</ele>
        <time>2017-01-12 14:08:28</time>
      </trkpt>
      <trkpt lat="44.23906" lon="5.91509">
        <ele>511.7</ele>
        <time>2017-01-12 14:08:29</time>
      </trkpt>
      <trkpt lat="44.23906" lon="5.91509">
        <ele>511.7</ele>
        <time>2017-01-12 14:08:30</time>
      </trkpt>
      <trkpt lat="44.23906" lon="5.91509">
        <ele>511.7</ele>
        <time>2017-01-12 14:08:31</time>
      </trkpt>
      <trkpt lat="44.2389" lon="5.91508">
        <ele>511.7</ele>
        <time>2017-01-12 14:08:32</time>
      </trkpt>
      <trkpt lat="44.2389" lon="5.91508">
        <ele>511.7</ele>
        <time>2017-01-12 14:08:33</time>
      </trkpt>
      <trkpt lat="44.2389" lon="5.91508">
        <ele>511.7</ele>
        <time>2017-01-12 14:08:34</time>
      </trkpt>
      <trkpt lat="44.2389" lon="5.91508">
        <ele>511.7</ele>
        <time>2017-01-12 14:08:35</time>
      </trkpt>
      <trkpt lat="44.23877" lon="5.91512">
        <ele>511.6</ele>
        <time>2017-01-12 14:08:36</time>
      </trkpt>
      <trkpt lat="44.23877" lon="5.91512">
        <ele>511.6</ele>
        <time>2017-01-12 14:08:37</time>
      </trkpt>
      <trkpt lat="44.23877" lon="5.91512">
        <ele>511.6</ele>
        <time>2017-01-12 14:08:38</time>
      </trkpt>
      <trkpt lat="44.23877" lon="5.91512">
        <ele>511.6</ele>
        <time>2017-01-12 14:08:39</time>
      </trkpt>
      <trkpt lat="44.23866" lon="5.91515">
        <ele>511.5</ele>
        <time>2017-01-12 14:08:40</time>
      </trkpt>
      <trkpt lat="44.23866" lon="5.91515">
        <ele>511.5</ele>
        <time>2017-01-12 14:08:41</time>
      </trkpt>
      <trkpt lat="44.23866" lon="5.91515">
        <ele>511.5</ele>
        <time>2017-01-12 14:08:42</time>
      </trkpt>
      <trkpt lat="44.23866" lon="5.91515">
        <ele>511.5</ele>
        <time>2017-01-12 14:08:43</time>
      </trkpt>
      <trkpt lat="44.23854" lon="5.91519">
        <ele>511.2</ele>
        <time>2017-01-12 14:08:44</time>
      </trkpt>
      <trkpt lat="44.23854" lon="5.91519">
        <ele>511.2</ele>
        <time>2017-01-12 14:08:45</time>
      </trkpt>
      <trkpt lat="44.23854" lon="5.91519">
        <ele>511.2</ele>
        <time>2017-01-12 14:08:46</time>
      </trkpt>
      <trkpt lat="44.23854" lon="5.91519">
        <ele>511.2</ele>
        <time>2017-01-12 14:08:47</time>
      </trkpt>
      <trkpt lat="44.23841" lon="5.91523">
        <ele>511.1</ele>
        <time>2017-01-12 14:08:48</time>
      </trkpt>
      <trkpt lat="44.23841" lon="5.91523">
        <ele>511.1</ele>
        <time>2017-01-12 14:08:49</time>
      </trkpt>
      <trkpt lat="44.23841" lon="5.91523">
        <ele>511.1</ele>
        <time>2017-01-12 14:08:50</time>
      </trkpt>
      <trkpt lat="44.23841" lon="5.91523">
        <ele>511.1</ele>
        <time>2017-01-12 14:08:51</time>
      </trkpt>
      <trkpt lat="44.23827" lon="5.91526">
        <ele>511</ele>
        <time>2017-01-12 14:08:52</time>
      </trkpt>
      <trkpt lat="44.23827" lon="5.91526">
        <ele>511</ele>
        <time>2017-01-12 14:08:53</time>
      </trkpt>
      <trkpt lat="44.23827" lon="5.91526">
        <ele>511</ele>
        <time>2017-01-12 14:08:54</time>
      </trkpt>
      <trkpt lat="44.23827" lon="5.91526">
        <ele>511</ele>
        <time>2017-01-12 14:08:55</time>
      </trkpt>
      <trkpt lat="44.23812" lon="5.9153">
        <ele>510.9</ele>
        <time>2017-01-12 14:08:56</time>
      </trkpt>
      <trkpt lat="44.23812" lon="5.9153">
        <ele>510.9</ele>
        <time>2017-01-12 14:08:57</time>
      </trkpt>
      <trkpt lat="44.23812" lon="5.9153">
        <ele>510.9</ele>
        <time>2017-01-12 14:08:58</time>
      </trkpt>
      <trkpt lat="44.23812" lon="5.9153">
        <ele>510.9</ele>
        <time>2017-01-12 14:08:59</time>
      </trkpt>
      <trkpt lat="44.23798" lon="5.91534">
        <ele>510.8</ele>
        <time>2017-01-12 14:09:00</time>
      </trkpt>
      <trkpt lat="44.23798" lon="5.91534">
        <ele>510.8</ele>
        <time>2017-01-12 14:09:01</time>
      </trkpt>
      <trkpt lat="44.23798" lon="5.91534">
        <ele>510.8</ele>
        <time>2017-01-12 14:09:02</time>
      </trkpt>
      <trkpt lat="44.23798" lon="5.91534">
        <ele>510.8</ele>
        <time>2017-01-12 14:09:03</time>
      </trkpt>
      <trkpt lat="44.23782" lon="5.91539">
        <ele>510.6</ele>
        <time>2017-01-12 14:09:04</time>
      </trkpt>
      <trkpt lat="44.23782" lon="5.91539">
        <ele>510.6</ele>
        <time>2017-01-12 14:09:05</time>
      </trkpt>
      <trkpt lat="44.23782" lon="5.91539">
        <ele>510.6</ele>
        <time>2017-01-12 14:09:06</time>
      </trkpt>
      <trkpt lat="44.23782" lon="5.91539">
        <ele>510.6</ele>
        <time>2017-01-12 14:09:07</time>
      </trkpt>
      <trkpt lat="44.23768" lon="5.91544">
        <ele>510.4</ele>
        <time>2017-01-12 14:09:08</time>
      </trkpt>
      <trkpt lat="44.23768" lon="5.91544">
        <ele>510.4</ele>
        <time>2017-01-12 14:09:09</time>
      </trkpt>
      <trkpt lat="44.23768" lon="5.91544">
        <ele>510.4</ele>
        <time>2017-01-12 14:09:10</time>
      </trkpt>
      <trkpt lat="44.23768" lon="5.91544">
        <ele>510.4</ele>
        <time>2017-01-12 14:09:11</time>
      </trkpt>
      <trkpt lat="44.23753" lon="5.91548">
        <ele>510.3</ele>
        <time>2017-01-12 14:09:12</time>
      </trkpt>
      <trkpt lat="44.23753" lon="5.91548">
        <ele>510.3</ele>
        <time>2017-01-12 14:09:13</time>
      </trkpt>
      <trkpt lat="44.23753" lon="5.91548">
        <ele>510.3</ele>
        <time>2017-01-12 14:09:14</time>
      </trkpt>
      <trkpt lat="44.23753" lon="5.91548">
        <ele>510.3</ele>
        <time>2017-01-12 14:09:15</time>
      </trkpt>
      <trkpt lat="44.23738" lon="5.91554">
        <ele>510.5</ele>
        <time>2017-01-12 14:09:16</time>
      </trkpt>
      <trkpt lat="44.23738" lon="5.91554">
        <ele>510.5</ele>
        <time>2017-01-12 14:09:17</time>
      </trkpt>
      <trkpt lat="44.23738" lon="5.91554">
        <ele>510.5</ele>
        <time>2017-01-12 14:09:18</time>
      </trkpt>
      <trkpt lat="44.23738" lon="5.91554">
        <ele>510.5</ele>
        <time>2017-01-12 14:09:19</time>
      </trkpt>
      <trkpt lat="44.23723" lon="5.91559">
        <ele>510.7</ele>
        <time>2017-01-12 14:09:20</time>
      </trkpt>
      <trkpt lat="44.23723" lon="5.91559">
        <ele>510.7</ele>
        <time>2017-01-12 14:09:21</time>
      </trkpt>
      <trkpt lat="44.23723" lon="5.91559">
        <ele>510.7</ele>
        <time>2017-01-12 14:09:22</time>
      </trkpt>
      <trkpt lat="44.23723" lon="5.91559">
        <ele>510.7</ele>
        <time>2017-01-12 14:09:23</time>
      </trkpt>
      <trkpt lat="44.23708" lon="5.91565">
        <ele>510</ele>
        <time>2017-01-12 14:09:24</time>
      </trkpt>
      <trkpt lat="44.23708" lon="5.91565">
        <ele>510</ele>
        <time>2017-01-12 14:09:25</time>
      </trkpt>
      <trkpt lat="44.23708" lon="5.91565">
        <ele>510</ele>
        <time>2017-01-12 14:09:26</time>
      </trkpt>
      <trkpt lat="44.23708" lon="5.91565">
        <ele>510</ele>
        <time>2017-01-12 14:09:27</time>
      </trkpt>
      <trkpt lat="44.23691" lon="5.91571">
        <ele>509.5</ele>
        <time>2017-01-12 14:09:28</time>
      </trkpt>
      <trkpt lat="44.23691" lon="5.91571">
        <ele>509.5</ele>
        <time>2017-01-12 14:09:29</time>
      </trkpt>
      <trkpt lat="44.23691" lon="5.91571">
        <ele>509.5</ele>
        <time>2017-01-12 14:09:30</time>
      </trkpt>
      <trkpt lat="44.23691" lon="5.91571">
        <ele>509.5</ele>
        <time>2017-01-12 14:09:31</time>
      </trkpt>
      <trkpt lat="44.23674" lon="5.91578">
        <ele>509.8</ele>
        <time>2017-01-12 14:09:32</time>
      </trkpt>
      <trkpt lat="44.23674" lon="5.91578">
        <ele>509.8</ele>
        <time>2017-01-12 14:09:33</time>
      </trkpt>
      <trkpt lat="44.23674" lon="5.91578">
        <ele>509.8</ele>
        <time>2017-01-12 14:09:34</time>
      </trkpt>
      <trkpt lat="44.23674" lon="5.91578">
        <ele>509.8</ele>
        <time>2017-01-12 14:09:35</time>
      </trkpt>
      <trkpt lat="44.23657" lon="5.91585">
        <ele>509.9</ele>
        <time>2017-01-12 14:09:36</time>
      </trkpt>
      <trkpt lat="44.23657" lon="5.91585">
        <ele>509.9</ele>
        <time>2017-01-12 14:09:37</time>
      </trkpt>
      <trkpt lat="44.23657" lon="5.91585">
        <ele>509.9</ele>
        <time>2017-01-12 14:09:38</time>
      </trkpt>
      <trkpt lat="44.23657" lon="5.91585">
        <ele>509.9</ele>
        <time>2017-01-12 14:09:39</time>
      </trkpt>
      <trkpt lat="44.23639" lon="5.91592">
        <ele>509.7</ele>
        <time>2017-01-12 14:09:40</time>
      </trkpt>
      <trkpt lat="44.23639" lon="5.91592">
        <ele>509.7</ele>
        <time>2017-01-12 14:09:41</time>
      </trkpt>
      <trkpt lat="44.23639" lon="5.91592">
        <ele>509.7</ele>
        <time>2017-01-12 14:09:42</time>
      </trkpt>
      <trkpt lat="44.23639" lon="5.91592">
        <ele>509.7</ele>
        <time>2017-01-12 14:09:43</time>
      </trkpt>
      <trkpt lat="44.23622" lon="5.91599">
        <ele>509.4</ele>
        <time>2017-01-12 14:09:44</time>
      </trkpt>
      <trkpt lat="44.23622" lon="5.91599">
        <ele>509.4</ele>
        <time>2017-01-12 14:09:45</time>
      </trkpt>
      <trkpt lat="44.23622" lon="5.91599">
        <ele>509.4</ele>
        <time>2017-01-12 14:09:46</time>
      </trkpt>
      <trkpt lat="44.23622" lon="5.91599">
        <ele>509.4</ele>
        <time>2017-01-12 14:09:47</time>
      </trkpt>
      <trkpt lat="44.23604" lon="5.91606">
        <ele>509.2</ele>
        <time>2017-01-12 14:09:48</time>
      </trkpt>
      <trkpt lat="44.23604" lon="5.91606">
        <ele>509.2</ele>
        <time>2017-01-12 14:09:49</time>
      </trkpt>
      <trkpt lat="44.23604" lon="5.91606">
        <ele>509.2</ele>
        <time>2017-01-12 14:09:50</time>
      </trkpt>
      <trkpt lat="44.23604" lon="5.91606">
        <ele>509.2</ele>
        <time>2017-01-12 14:09:51</time>
      </trkpt>
      <trkpt lat="44.23586" lon="5.91613">
        <ele>508.9</ele>
        <time>2017-01-12 14:09:52</time>
      </trkpt>
      <trkpt lat="44.23586" lon="5.91613">
        <ele>508.9</ele>
        <time>2017-01-12 14:09:53</time>
      </trkpt>
      <trkpt lat="44.23586" lon="5.91613">
        <ele>508.9</ele>
        <time>2017-01-12 14:09:54</time>
      </trkpt>
      <trkpt lat="44.23586" lon="5.91613">
        <ele>508.9</ele>
        <time>2017-01-12 14:09:55</time>
      </trkpt>
      <trkpt lat="44.23568" lon="5.9162">
        <ele>508.7</ele>
        <time>2017-01-12 14:09:56</time>
      </trkpt>
      <trkpt lat="44.23568" lon="5.9162">
        <ele>508.7</ele>
        <time>2017-01-12 14:09:57</time>
      </trkpt>
      <trkpt lat="44.23568" lon="5.9162">
        <ele>508.7</ele>
        <time>2017-01-12 14:09:58</time>
      </trkpt>
      <trkpt lat="44.23568" lon="5.9162">
        <ele>508.7</ele>
        <time>2017-01-12 14:09:59</time>
      </trkpt>
      <trkpt lat="44.23549" lon="5.91626">
        <ele>508.6</ele>
        <time>2017-01-12 14:10:00</time>
      </trkpt>
      <trkpt lat="44.23549" lon="5.91626">
        <ele>508.6</ele>
        <time>2017-01-12 14:10:01</time>
      </trkpt>
      <trkpt lat="44.23549" lon="5.91626">
        <ele>508.6</ele>
        <time>2017-01-12 14:10:02</time>
      </trkpt>
      <trkpt lat="44.23549" lon="5.91626">
        <ele>508.6</ele>
        <time>2017-01-12 14:10:03</time>
      </trkpt>
      <trkpt lat="44.23531" lon="5.91633">
        <ele>508.9</ele>
        <time>2017-01-12 14:10:04</time>
      </trkpt>
      <trkpt lat="44.23531" lon="5.91633">
        <ele>508.9</ele>
        <time>2017-01-12 14:10:05</time>
      </trkpt>
      <trkpt lat="44.23531" lon="5.91633">
        <ele>508.9</ele>
        <time>2017-01-12 14:10:06</time>
      </trkpt>
      <trkpt lat="44.23531" lon="5.91633">
        <ele>508.9</ele>
        <time>2017-01-12 14:10:07</time>
      </trkpt>
      <trkpt lat="44.23513" lon="5.91639">
        <ele>509</ele>
        <time>2017-01-12 14:10:08</time>
      </trkpt>
      <trkpt lat="44.23513" lon="5.91639">
        <ele>509</ele>
        <time>2017-01-12 14:10:09</time>
      </trkpt>
      <trkpt lat="44.23513" lon="5.91639">
        <ele>509</ele>
        <time>2017-01-12 14:10:10</time>
      </trkpt>
      <trkpt lat="44.23513" lon="5.91639">
        <ele>509</ele>
        <time>2017-01-12 14:10:11</time>
      </trkpt>
      <trkpt lat="44.23495" lon="5.91646">
        <ele>508.7</ele>
        <time>2017-01-12 14:10:12</time>
      </trkpt>
      <trkpt lat="44.23495" lon="5.91646">
        <ele>508.7</ele>
        <time>2017-01-12 14:10:13</time>
      </trkpt>
      <trkpt lat="44.23495" lon="5.91646">
        <ele>508.7</ele>
        <time>2017-01-12 14:10:14</time>
      </trkpt>
      <trkpt lat="44.23495" lon="5.91646">
        <ele>508.7</ele>
        <time>2017-01-12 14:10:15</time>
      </trkpt>
      <trkpt lat="44.23477" lon="5.91653">
        <ele>508.5</ele>
        <time>2017-01-12 14:10:16</time>
      </trkpt>
      <trkpt lat="44.23477" lon="5.91653">
        <ele>508.5</ele>
        <time>2017-01-12 14:10:17</time>
      </trkpt>
      <trkpt lat="44.23477" lon="5.91653">
        <ele>508.5</ele>
        <time>2017-01-12 14:10:18</time>
      </trkpt>
      <trkpt lat="44.23477" lon="5.91653">
        <ele>508.5</ele>
        <time>2017-01-12 14:10:19</time>
      </trkpt>
      <trkpt lat="44.2346" lon="5.9166">
        <ele>508.7</ele>
        <time>2017-01-12 14:10:20</time>
      </trkpt>
      <trkpt lat="44.2346" lon="5.9166">
        <ele>508.7</ele>
        <time>2017-01-12 14:10:21</time>
      </trkpt>
      <trkpt lat="44.2346" lon="5.9166">
        <ele>508.7</ele>
        <time>2017-01-12 14:10:22</time>
      </trkpt>
      <trkpt lat="44.2346" lon="5.9166">
        <ele>508.7</ele>
        <time>2017-01-12 14:10:23</time>
      </trkpt>
      <trkpt lat="44.23443" lon="5.91666">
        <ele>509</ele>
        <time>2017-01-12 14:10:24</time>
      </trkpt>
      <trkpt lat="44.23443" lon="5.91666">
        <ele>509</ele>
        <time>2017-01-12 14:10:25</time>
      </trkpt>
      <trkpt lat="44.23443" lon="5.91666">
        <ele>509</ele>
        <time>2017-01-12 14:10:26</time>
      </trkpt>
      <trkpt lat="44.23443" lon="5.91666">
        <ele>509</ele>
        <time>2017-01-12 14:10:27</time>
      </trkpt>
      <trkpt lat="44.23426" lon="5.91673">
        <ele>508.8</ele>
        <time>2017-01-12 14:10:28</time>
      </trkpt>
      <trkpt lat="44.23426" lon="5.91673">
        <ele>508.8</ele>
        <time>2017-01-12 14:10:29</time>
      </trkpt>
      <trkpt lat="44.23426" lon="5.91673">
        <ele>508.8</ele>
        <time>2017-01-12 14:10:30</time>
      </trkpt>
      <trkpt lat="44.23426" lon="5.91673">
        <ele>508.8</ele>
        <time>2017-01-12 14:10:31</time>
      </trkpt>
      <trkpt lat="44.23409" lon="5.9168">
        <ele>508.4</ele>
        <time>2017-01-12 14:10:32</time>
      </trkpt>
      <trkpt lat="44.23409" lon="5.9168">
        <ele>508.4</ele>
        <time>2017-01-12 14:10:33</time>
      </trkpt>
      <trkpt lat="44.23409" lon="5.9168">
        <ele>508.4</ele>
        <time>2017-01-12 14:10:34</time>
      </trkpt>
      <trkpt lat="44.23409" lon="5.9168">
        <ele>508.4</ele>
        <time>2017-01-12 14:10:35</time>
      </trkpt>
      <trkpt lat="44.23392" lon="5.91687">
        <ele>508</ele>
        <time>2017-01-12 14:10:36</time>
      </trkpt>
      <trkpt lat="44.23392" lon="5.91687">
        <ele>508</ele>
        <time>2017-01-12 14:10:37</time>
      </trkpt>
      <trkpt lat="44.23392" lon="5.91687">
        <ele>508</ele>
        <time>2017-01-12 14:10:38</time>
      </trkpt>
      <trkpt lat="44.23392" lon="5.91687">
        <ele>508</ele>
        <time>2017-01-12 14:10:39</time>
      </trkpt>
      <trkpt lat="44.23375" lon="5.91693">
        <ele>508</ele>
        <time>2017-01-12 14:10:40</time>
      </trkpt>
      <trkpt lat="44.23375" lon="5.91693">
        <ele>508</ele>
        <time>2017-01-12 14:10:41</time>
      </trkpt>
      <trkpt lat="44.23375" lon="5.91693">
        <ele>508</ele>
        <time>2017-01-12 14:10:42</time>
      </trkpt>
      <trkpt lat="44.23375" lon="5.91693">
        <ele>508</ele>
        <time>2017-01-12 14:10:43</time>
      </trkpt>
      <trkpt lat="44.23359" lon="5.91699">
        <ele>508</ele>
        <time>2017-01-12 14:10:44</time>
      </trkpt>
      <trkpt lat="44.23359" lon="5.91699">
        <ele>508</ele>
        <time>2017-01-12 14:10:45</time>
      </trkpt>
      <trkpt lat="44.23359" lon="5.91699">
        <ele>508</ele>
        <time>2017-01-12 14:10:46</time>
      </trkpt>
      <trkpt lat="44.23359" lon="5.91699">
        <ele>508</ele>
        <time>2017-01-12 14:10:47</time>
      </trkpt>
      <trkpt lat="44.23341" lon="5.91706">
        <ele>508</ele>
        <time>2017-01-12 14:10:48</time>
      </trkpt>
      <trkpt lat="44.23341" lon="5.91706">
        <ele>508</ele>
        <time>2017-01-12 14:10:49</time>
      </trkpt>
      <trkpt lat="44.23341" lon="5.91706">
        <ele>508</ele>
        <time>2017-01-12 14:10:50</time>
      </trkpt>
      <trkpt lat="44.23341" lon="5.91706">
        <ele>508</ele>
        <time>2017-01-12 14:10:51</time>
      </trkpt>
      <trkpt lat="44.23323" lon="5.91713">
        <ele>508</ele>
        <time>2017-01-12 14:10:52</time>
      </trkpt>
      <trkpt lat="44.23323" lon="5.91713">
        <ele>508</ele>
        <time>2017-01-12 14:10:53</time>
      </trkpt>
      <trkpt lat="44.23323" lon="5.91713">
        <ele>508</ele>
        <time>2017-01-12 14:10:54</time>
      </trkpt>
      <trkpt lat="44.23323" lon="5.91713">
        <ele>508</ele>
        <time>2017-01-12 14:10:55</time>
      </trkpt>
      <trkpt lat="44.23305" lon="5.9172">
        <ele>508</ele>
        <time>2017-01-12 14:10:56</time>
      </trkpt>
      <trkpt lat="44.23305" lon="5.9172">
        <ele>508</ele>
        <time>2017-01-12 14:10:57</time>
      </trkpt>
      <trkpt lat="44.23305" lon="5.9172">
        <ele>508</ele>
        <time>2017-01-12 14:10:58</time>
      </trkpt>
      <trkpt lat="44.23305" lon="5.9172">
        <ele>508</ele>
        <time>2017-01-12 14:10:59</time>
      </trkpt>
      <trkpt lat="44.23287" lon="5.91727">
        <ele>507.8</ele>
        <time>2017-01-12 14:11:00</time>
      </trkpt>
      <trkpt lat="44.23287" lon="5.91727">
        <ele>507.8</ele>
        <time>2017-01-12 14:11:01</time>
      </trkpt>
      <trkpt lat="44.23287" lon="5.91727">
        <ele>507.8</ele>
        <time>2017-01-12 14:11:02</time>
      </trkpt>
      <trkpt lat="44.23287" lon="5.91727">
        <ele>507.8</ele>
        <time>2017-01-12 14:11:03</time>
      </trkpt>
      <trkpt lat="44.23269" lon="5.91734">
        <ele>507.4</ele>
        <time>2017-01-12 14:11:04</time>
      </trkpt>
      <trkpt lat="44.23269" lon="5.91734">
        <ele>507.4</ele>
        <time>2017-01-12 14:11:05</time>
      </trkpt>
      <trkpt lat="44.23269" lon="5.91734">
        <ele>507.4</ele>
        <time>2017-01-12 14:11:06</time>
      </trkpt>
      <trkpt lat="44.23269" lon="5.91734">
        <ele>507.4</ele>
        <time>2017-01-12 14:11:07</time>
      </trkpt>
      <trkpt lat="44.2325" lon="5.9174">
        <ele>507</ele>
        <time>2017-01-12 14:11:08</time>
      </trkpt>
      <trkpt lat="44.2325" lon="5.9174">
        <ele>507</ele>
        <time>2017-01-12 14:11:09</time>
      </trkpt>
      <trkpt lat="44.2325" lon="5.9174">
        <ele>507</ele>
        <time>2017-01-12 14:11:10</time>
      </trkpt>
      <trkpt lat="44.2325" lon="5.9174">
        <ele>507</ele>
        <time>2017-01-12 14:11:11</time>
      </trkpt>
      <trkpt lat="44.23231" lon="5.91747">
        <ele>507.1</ele>
        <time>2017-01-12 14:11:12</time>
      </trkpt>
      <trkpt lat="44.23231" lon="5.91747">
        <ele>507.1</ele>
        <time>2017-01-12 14:11:13</time>
      </trkpt>
      <trkpt lat="44.23231" lon="5.91747">
        <ele>507.1</ele>
        <time>2017-01-12 14:11:14</time>
      </trkpt>
      <trkpt lat="44.23231" lon="5.91747">
        <ele>507.1</ele>
        <time>2017-01-12 14:11:15</time>
      </trkpt>
      <trkpt lat="44.23213" lon="5.91755">
        <ele>507</ele>
        <time>2017-01-12 14:11:16</time>
      </trkpt>
      <trkpt lat="44.23213" lon="5.91755">
        <ele>507</ele>
        <time>2017-01-12 14:11:17</time>
      </trkpt>
      <trkpt lat="44.23213" lon="5.91755">
        <ele>507</ele>
        <time>2017-01-12 14:11:18</time>
      </trkpt>
      <trkpt lat="44.23213" lon="5.91755">
        <ele>507</ele>
        <time>2017-01-12 14:11:19</time>
      </trkpt>
      <trkpt lat="44.23194" lon="5.91762">
        <ele>507</ele>
        <time>2017-01-12 14:11:20</time>
      </trkpt>
      <trkpt lat="44.23194" lon="5.91762">
        <ele>507</ele>
        <time>2017-01-12 14:11:21</time>
      </trkpt>
      <trkpt lat="44.23194" lon="5.91762">
        <ele>507</ele>
        <time>2017-01-12 14:11:22</time>
      </trkpt>
      <trkpt lat="44.23194" lon="5.91762">
        <ele>507</ele>
        <time>2017-01-12 14:11:23</time>
      </trkpt>
      <trkpt lat="44.23174" lon="5.91769">
        <ele>507</ele>
        <time>2017-01-12 14:11:24</time>
      </trkpt>
      <trkpt lat="44.23174" lon="5.91769">
        <ele>507</ele>
        <time>2017-01-12 14:11:25</time>
      </trkpt>
      <trkpt lat="44.23174" lon="5.91769">
        <ele>507</ele>
        <time>2017-01-12 14:11:26</time>
      </trkpt>
      <trkpt lat="44.23174" lon="5.91769">
        <ele>507</ele>
        <time>2017-01-12 14:11:27</time>
      </trkpt>
      <trkpt lat="44.23155" lon="5.91776">
        <ele>507</ele>
        <time>2017-01-12 14:11:28</time>
      </trkpt>
      <trkpt lat="44.23155" lon="5.91776">
        <ele>507</ele>
        <time>2017-01-12 14:11:29</time>
      </trkpt>
      <trkpt lat="44.23155" lon="5.91776">
        <ele>507</ele>
        <time>2017-01-12 14:11:30</time>
      </trkpt>
      <trkpt lat="44.23155" lon="5.91776">
        <ele>507</ele>
        <time>2017-01-12 14:11:31</time>
      </trkpt>
      <trkpt lat="44.23137" lon="5.91783">
        <ele>506.9</ele>
        <time>2017-01-12 14:11:32</time>
      </trkpt>
      <trkpt lat="44.23137" lon="5.91783">
        <ele>506.9</ele>
        <time>2017-01-12 14:11:33</time>
      </trkpt>
      <trkpt lat="44.23137" lon="5.91783">
        <ele>506.9</ele>
        <time>2017-01-12 14:11:34</time>
      </trkpt>
      <trkpt lat="44.23137" lon="5.91783">
        <ele>506.9</ele>
        <time>2017-01-12 14:11:35</time>
      </trkpt>
      <trkpt lat="44.23119" lon="5.9179">
        <ele>506.6</ele>
        <time>2017-01-12 14:11:36</time>
      </trkpt>
      <trkpt lat="44.23119" lon="5.9179">
        <ele>506.6</ele>
        <time>2017-01-12 14:11:37</time>
      </trkpt>
      <trkpt lat="44.23119" lon="5.9179">
        <ele>506.6</ele>
        <time>2017-01-12 14:11:38</time>
      </trkpt>
      <trkpt lat="44.23119" lon="5.9179">
        <ele>506.6</ele>
        <time>2017-01-12 14:11:39</time>
      </trkpt>
      <trkpt lat="44.23102" lon="5.91798">
        <ele>506.8</ele>
        <time>2017-01-12 14:11:40</time>
      </trkpt>
      <trkpt lat="44.23102" lon="5.91798">
        <ele>506.8</ele>
        <time>2017-01-12 14:11:41</time>
      </trkpt>
      <trkpt lat="44.23102" lon="5.91798">
        <ele>506.8</ele>
        <time>2017-01-12 14:11:42</time>
      </trkpt>
      <trkpt lat="44.23102" lon="5.91798">
        <ele>506.8</ele>
        <time>2017-01-12 14:11:43</time>
      </trkpt>
      <trkpt lat="44.23084" lon="5.91805">
        <ele>507</ele>
        <time>2017-01-12 14:11:44</time>
      </trkpt>
      <trkpt lat="44.23084" lon="5.91805">
        <ele>507</ele>
        <time>2017-01-12 14:11:45</time>
      </trkpt>
      <trkpt lat="44.23084" lon="5.91805">
        <ele>507</ele>
        <time>2017-01-12 14:11:46</time>
      </trkpt>
      <trkpt lat="44.23084" lon="5.91805">
        <ele>507</ele>
        <time>2017-01-12 14:11:47</time>
      </trkpt>
      <trkpt lat="44.23067" lon="5.91813">
        <ele>507</ele>
        <time>2017-01-12 14:11:48</time>
      </trkpt>
      <trkpt lat="44.23067" lon="5.91813">
        <ele>507</ele>
        <time>2017-01-12 14:11:49</time>
      </trkpt>
      <trkpt lat="44.23067" lon="5.91813">
        <ele>507</ele>
        <time>2017-01-12 14:11:50</time>
      </trkpt>
      <trkpt lat="44.23067" lon="5.91813">
        <ele>507</ele>
        <time>2017-01-12 14:11:51</time>
      </trkpt>
      <trkpt lat="44.23052" lon="5.91819">
        <ele>506.9</ele>
        <time>2017-01-12 14:11:52</time>
      </trkpt>
      <trkpt lat="44.23052" lon="5.91819">
        <ele>506.9</ele>
        <time>2017-01-12 14:11:53</time>
      </trkpt>
      <trkpt lat="44.23052" lon="5.91819">
        <ele>506.9</ele>
        <time>2017-01-12 14:11:54</time>
      </trkpt>
      <trkpt lat="44.23052" lon="5.91819">
        <ele>506.9</ele>
        <time>2017-01-12 14:11:55</time>
      </trkpt>
      <trkpt lat="44.23038" lon="5.91823">
        <ele>506.8</ele>
        <time>2017-01-12 14:11:56</time>
      </trkpt>
      <trkpt lat="44.23038" lon="5.91823">
        <ele>506.8</ele>
        <time>2017-01-12 14:11:57</time>
      </trkpt>
      <trkpt lat="44.23038" lon="5.91823">
        <ele>506.8</ele>
        <time>2017-01-12 14:11:58</time>
      </trkpt>
      <trkpt lat="44.23038" lon="5.91823">
        <ele>506.8</ele>
        <time>2017-01-12 14:11:59</time>
      </trkpt>
      <trkpt lat="44.23024" lon="5.91828">
        <ele>506.8</ele>
        <time>2017-01-12 14:12:00</time>
      </trkpt>
      <trkpt lat="44.23024" lon="5.91828">
        <ele>506.8</ele>
        <time>2017-01-12 14:12:01</time>
      </trkpt>
      <trkpt lat="44.23024" lon="5.91828">
        <ele>506.8</ele>
        <time>2017-01-12 14:12:02</time>
      </trkpt>
      <trkpt lat="44.23024" lon="5.91828">
        <ele>506.8</ele>
        <time>2017-01-12 14:12:03</time>
      </trkpt>
      <trkpt lat="44.23008" lon="5.91833">
        <ele>507</ele>
        <time>2017-01-12 14:12:04</time>
      </trkpt>
      <trkpt lat="44.23008" lon="5.91833">
        <ele>507</ele>
        <time>2017-01-12 14:12:05</time>
      </trkpt>
      <trkpt lat="44.23008" lon="5.91833">
        <ele>507</ele>
        <time>2017-01-12 14:12:06</time>
      </trkpt>
      <trkpt lat="44.23008" lon="5.91833">
        <ele>507</ele>
        <time>2017-01-12 14:12:07</time>
      </trkpt>
      <trkpt lat="44.22993" lon="5.9184">
        <ele>506.6</ele>
        <time>2017-01-12 14:12:08</time>
      </trkpt>
      <trkpt lat="44.22993" lon="5.9184">
        <ele>506.6</ele>
        <time>2017-01-12 14:12:09</time>
      </trkpt>
      <trkpt lat="44.22993" lon="5.9184">
        <ele>506.6</ele>
        <time>2017-01-12 14:12:10</time>
      </trkpt>
      <trkpt lat="44.22993" lon="5.9184">
        <ele>506.6</ele>
        <time>2017-01-12 14:12:11</time>
      </trkpt>
      <trkpt lat="44.22977" lon="5.91847">
        <ele>506.1</ele>
        <time>2017-01-12 14:12:12</time>
      </trkpt>
      <trkpt lat="44.22977" lon="5.91847">
        <ele>506.1</ele>
        <time>2017-01-12 14:12:13</time>
      </trkpt>
      <trkpt lat="44.22977" lon="5.91847">
        <ele>506.1</ele>
        <time>2017-01-12 14:12:14</time>
      </trkpt>
      <trkpt lat="44.22977" lon="5.91847">
        <ele>506.1</ele>
        <time>2017-01-12 14:12:15</time>
      </trkpt>
      <trkpt lat="44.22961" lon="5.91853">
        <ele>506.1</ele>
        <time>2017-01-12 14:12:16</time>
      </trkpt>
      <trkpt lat="44.22961" lon="5.91853">
        <ele>506.1</ele>
        <time>2017-01-12 14:12:17</time>
      </trkpt>
      <trkpt lat="44.22961" lon="5.91853">
        <ele>506.1</ele>
        <time>2017-01-12 14:12:18</time>
      </trkpt>
      <trkpt lat="44.22961" lon="5.91853">
        <ele>506.1</ele>
        <time>2017-01-12 14:12:19</time>
      </trkpt>
      <trkpt lat="44.22945" lon="5.9186">
        <ele>506</ele>
        <time>2017-01-12 14:12:20</time>
      </trkpt>
      <trkpt lat="44.22945" lon="5.9186">
        <ele>506</ele>
        <time>2017-01-12 14:12:21</time>
      </trkpt>
      <trkpt lat="44.22945" lon="5.9186">
        <ele>506</ele>
        <time>2017-01-12 14:12:22</time>
      </trkpt>
      <trkpt lat="44.22945" lon="5.9186">
        <ele>506</ele>
        <time>2017-01-12 14:12:23</time>
      </trkpt>
      <trkpt lat="44.22929" lon="5.91867">
        <ele>505.8</ele>
        <time>2017-01-12 14:12:24</time>
      </trkpt>
      <trkpt lat="44.22929" lon="5.91867">
        <ele>505.8</ele>
        <time>2017-01-12 14:12:25</time>
      </trkpt>
      <trkpt lat="44.22929" lon="5.91867">
        <ele>505.8</ele>
        <time>2017-01-12 14:12:26</time>
      </trkpt>
      <trkpt lat="44.22929" lon="5.91867">
        <ele>505.8</ele>
        <time>2017-01-12 14:12:27</time>
      </trkpt>
      <trkpt lat="44.22914" lon="5.91873">
        <ele>505.6</ele>
        <time>2017-01-12 14:12:28</time>
      </trkpt>
      <trkpt lat="44.22914" lon="5.91873">
        <ele>505.6</ele>
        <time>2017-01-12 14:12:29</time>
      </trkpt>
      <trkpt lat="44.22914" lon="5.91873">
        <ele>505.6</ele>
        <time>2017-01-12 14:12:30</time>
      </trkpt>
      <trkpt lat="44.22914" lon="5.91873">
        <ele>505.6</ele>
        <time>2017-01-12 14:12:31</time>
      </trkpt>
      <trkpt lat="44.22899" lon="5.91879">
        <ele>505.4</ele>
        <time>2017-01-12 14:12:32</time>
      </trkpt>
      <trkpt lat="44.22899" lon="5.91879">
        <ele>505.4</ele>
        <time>2017-01-12 14:12:33</time>
      </trkpt>
      <trkpt lat="44.22899" lon="5.91879">
        <ele>505.4</ele>
        <time>2017-01-12 14:12:34</time>
      </trkpt>
      <trkpt lat="44.22899" lon="5.91879">
        <ele>505.4</ele>
        <time>2017-01-12 14:12:35</time>
      </trkpt>
      <trkpt lat="44.22884" lon="5.91884">
        <ele>505.3</ele>
        <time>2017-01-12 14:12:36</time>
      </trkpt>
      <trkpt lat="44.22884" lon="5.91884">
        <ele>505.3</ele>
        <time>2017-01-12 14:12:37</time>
      </trkpt>
      <trkpt lat="44.22884" lon="5.91884">
        <ele>505.3</ele>
        <time>2017-01-12 14:12:38</time>
      </trkpt>
      <trkpt lat="44.22884" lon="5.91884">
        <ele>505.3</ele>
        <time>2017-01-12 14:12:39</time>
      </trkpt>
      <trkpt lat="44.22869" lon="5.9189">
        <ele>505.7</ele>
        <time>2017-01-12 14:12:40</time>
      </trkpt>
      <trkpt lat="44.22869" lon="5.9189">
        <ele>505.7</ele>
        <time>2017-01-12 14:12:41</time>
      </trkpt>
      <trkpt lat="44.22869" lon="5.9189">
        <ele>505.7</ele>
        <time>2017-01-12 14:12:42</time>
      </trkpt>
      <trkpt lat="44.22869" lon="5.9189">
        <ele>505.7</ele>
        <time>2017-01-12 14:12:43</time>
      </trkpt>
      <trkpt lat="44.22853" lon="5.91896">
        <ele>505.5</ele>
        <time>2017-01-12 14:12:44</time>
      </trkpt>
      <trkpt lat="44.22853" lon="5.91896">
        <ele>505.5</ele>
        <time>2017-01-12 14:12:45</time>
      </trkpt>
      <trkpt lat="44.22853" lon="5.91896">
        <ele>505.5</ele>
        <time>2017-01-12 14:12:46</time>
      </trkpt>
      <trkpt lat="44.22853" lon="5.91896">
        <ele>505.5</ele>
        <time>2017-01-12 14:12:47</time>
      </trkpt>
      <trkpt lat="44.22837" lon="5.91902">
        <ele>505.1</ele>
        <time>2017-01-12 14:12:48</time>
      </trkpt>
      <trkpt lat="44.22837" lon="5.91902">
        <ele>505.1</ele>
        <time>2017-01-12 14:12:49</time>
      </trkpt>
      <trkpt lat="44.22837" lon="5.91902">
        <ele>505.1</ele>
        <time>2017-01-12 14:12:50</time>
      </trkpt>
      <trkpt lat="44.22837" lon="5.91902">
        <ele>505.1</ele>
        <time>2017-01-12 14:12:51</time>
      </trkpt>
      <trkpt lat="44.22822" lon="5.91906">
        <ele>505</ele>
        <time>2017-01-12 14:12:52</time>
      </trkpt>
      <trkpt lat="44.22822" lon="5.91906">
        <ele>505</ele>
        <time>2017-01-12 14:12:53</time>
      </trkpt>
      <trkpt lat="44.22822" lon="5.91906">
        <ele>505</ele>
        <time>2017-01-12 14:12:54</time>
      </trkpt>
      <trkpt lat="44.22822" lon="5.91906">
        <ele>505</ele>
        <time>2017-01-12 14:12:55</time>
      </trkpt>
      <trkpt lat="44.22807" lon="5.91909">
        <ele>505</ele>
        <time>2017-01-12 14:12:56</time>
      </trkpt>
      <trkpt lat="44.22807" lon="5.91909">
        <ele>505</ele>
        <time>2017-01-12 14:12:57</time>
      </trkpt>
      <trkpt lat="44.22807" lon="5.91909">
        <ele>505</ele>
        <time>2017-01-12 14:12:58</time>
      </trkpt>
      <trkpt lat="44.22807" lon="5.91909">
        <ele>505</ele>
        <time>2017-01-12 14:12:59</time>
      </trkpt>
      <trkpt lat="44.22791" lon="5.91912">
        <ele>505</ele>
        <time>2017-01-12 14:13:00</time>
      </trkpt>
      <trkpt lat="44.22791" lon="5.91912">
        <ele>505</ele>
        <time>2017-01-12 14:13:01</time>
      </trkpt>
      <trkpt lat="44.22791" lon="5.91912">
        <ele>505</ele>
        <time>2017-01-12 14:13:02</time>
      </trkpt>
      <trkpt lat="44.22791" lon="5.91912">
        <ele>505</ele>
        <time>2017-01-12 14:13:03</time>
      </trkpt>
      <trkpt lat="44.22775" lon="5.91914">
        <ele>505.1</ele>
        <time>2017-01-12 14:13:04</time>
      </trkpt>
      <trkpt lat="44.22775" lon="5.91914">
        <ele>505.1</ele>
        <time>2017-01-12 14:13:05</time>
      </trkpt>
      <trkpt lat="44.22775" lon="5.91914">
        <ele>505.1</ele>
        <time>2017-01-12 14:13:06</time>
      </trkpt>
      <trkpt lat="44.22775" lon="5.91914">
        <ele>505.1</ele>
        <time>2017-01-12 14:13:07</time>
      </trkpt>
      <trkpt lat="44.22759" lon="5.91915">
        <ele>505.6</ele>
        <time>2017-01-12 14:13:08</time>
      </trkpt>
      <trkpt lat="44.22759" lon="5.91915">
        <ele>505.6</ele>
        <time>2017-01-12 14:13:09</time>
      </trkpt>
      <trkpt lat="44.22759" lon="5.91915">
        <ele>505.6</ele>
        <time>2017-01-12 14:13:10</time>
      </trkpt>
      <trkpt lat="44.22759" lon="5.91915">
        <ele>505.6</ele>
        <time>2017-01-12 14:13:11</time>
      </trkpt>
      <trkpt lat="44.22742" lon="5.91916">
        <ele>505.7</ele>
        <time>2017-01-12 14:13:12</time>
      </trkpt>
      <trkpt lat="44.22742" lon="5.91916">
        <ele>505.7</ele>
        <time>2017-01-12 14:13:13</time>
      </trkpt>
      <trkpt lat="44.22742" lon="5.91916">
        <ele>505.7</ele>
        <time>2017-01-12 14:13:14</time>
      </trkpt>
      <trkpt lat="44.22742" lon="5.91916">
        <ele>505.7</ele>
        <time>2017-01-12 14:13:15</time>
      </trkpt>
      <trkpt lat="44.22726" lon="5.91917">
        <ele>505.1</ele>
        <time>2017-01-12 14:13:16</time>
      </trkpt>
      <trkpt lat="44.22726" lon="5.91917">
        <ele>505.1</ele>
        <time>2017-01-12 14:13:17</time>
      </trkpt>
      <trkpt lat="44.22726" lon="5.91917">
        <ele>505.1</ele>
        <time>2017-01-12 14:13:18</time>
      </trkpt>
      <trkpt lat="44.22726" lon="5.91917">
        <ele>505.1</ele>
        <time>2017-01-12 14:13:19</time>
      </trkpt>
      <trkpt lat="44.2271" lon="5.91918">
        <ele>505</ele>
        <time>2017-01-12 14:13:20</time>
      </trkpt>
      <trkpt lat="44.2271" lon="5.91918">
        <ele>505</ele>
        <time>2017-01-12 14:13:21</time>
      </trkpt>
      <trkpt lat="44.2271" lon="5.91918">
        <ele>505</ele>
        <time>2017-01-12 14:13:22</time>
      </trkpt>
      <trkpt lat="44.2271" lon="5.91918">
        <ele>505</ele>
        <time>2017-01-12 14:13:23</time>
      </trkpt>
      <trkpt lat="44.22693" lon="5.91919">
        <ele>505</ele>
        <time>2017-01-12 14:13:24</time>
      </trkpt>
      <trkpt lat="44.22693" lon="5.91919">
        <ele>505</ele>
        <time>2017-01-12 14:13:25</time>
      </trkpt>
      <trkpt lat="44.22693" lon="5.91919">
        <ele>505</ele>
        <time>2017-01-12 14:13:26</time>
      </trkpt>
      <trkpt lat="44.22693" lon="5.91919">
        <ele>505</ele>
        <time>2017-01-12 14:13:27</time>
      </trkpt>
      <trkpt lat="44.22676" lon="5.9192">
        <ele>505.5</ele>
        <time>2017-01-12 14:13:28</time>
      </trkpt>
      <trkpt lat="44.22676" lon="5.9192">
        <ele>505.5</ele>
        <time>2017-01-12 14:13:29</time>
      </trkpt>
      <trkpt lat="44.22676" lon="5.9192">
        <ele>505.5</ele>
        <time>2017-01-12 14:13:30</time>
      </trkpt>
      <trkpt lat="44.22676" lon="5.9192">
        <ele>505.5</ele>
        <time>2017-01-12 14:13:31</time>
      </trkpt>
      <trkpt lat="44.22658" lon="5.91922">
        <ele>505.6</ele>
        <time>2017-01-12 14:13:32</time>
      </trkpt>
      <trkpt lat="44.22658" lon="5.91922">
        <ele>505.6</ele>
        <time>2017-01-12 14:13:33</time>
      </trkpt>
      <trkpt lat="44.22658" lon="5.91922">
        <ele>505.6</ele>
        <time>2017-01-12 14:13:34</time>
      </trkpt>
      <trkpt lat="44.22658" lon="5.91922">
        <ele>505.6</ele>
        <time>2017-01-12 14:13:35</time>
      </trkpt>
      <trkpt lat="44.22642" lon="5.91923">
        <ele>505.6</ele>
        <time>2017-01-12 14:13:36</time>
      </trkpt>
      <trkpt lat="44.22642" lon="5.91923">
        <ele>505.6</ele>
        <time>2017-01-12 14:13:37</time>
      </trkpt>
      <trkpt lat="44.22642" lon="5.91923">
        <ele>505.6</ele>
        <time>2017-01-12 14:13:38</time>
      </trkpt>
      <trkpt lat="44.22642" lon="5.91923">
        <ele>505.6</ele>
        <time>2017-01-12 14:13:39</time>
      </trkpt>
      <trkpt lat="44.22625" lon="5.91925">
        <ele>504.7</ele>
        <time>2017-01-12 14:13:40</time>
      </trkpt>
      <trkpt lat="44.22625" lon="5.91925">
        <ele>504.7</ele>
        <time>2017-01-12 14:13:41</time>
      </trkpt>
      <trkpt lat="44.22625" lon="5.91925">
        <ele>504.7</ele>
        <time>2017-01-12 14:13:42</time>
      </trkpt>
      <trkpt lat="44.22625" lon="5.91925">
        <ele>504.7</ele>
        <time>2017-01-12 14:13:43</time>
      </trkpt>
      <trkpt lat="44.2261" lon="5.91927">
        <ele>504</ele>
        <time>2017-01-12 14:13:44</time>
      </trkpt>
      <trkpt lat="44.2261" lon="5.91927">
        <ele>504</ele>
        <time>2017-01-12 14:13:45</time>
      </trkpt>
      <trkpt lat="44.2261" lon="5.91927">
        <ele>504</ele>
        <time>2017-01-12 14:13:46</time>
      </trkpt>
      <trkpt lat="44.2261" lon="5.91927">
        <ele>504</ele>
        <time>2017-01-12 14:13:47</time>
      </trkpt>
      <trkpt lat="44.22595" lon="5.91928">
        <ele>504</ele>
        <time>2017-01-12 14:13:48</time>
      </trkpt>
      <trkpt lat="44.22595" lon="5.91928">
        <ele>504</ele>
        <time>2017-01-12 14:13:49</time>
      </trkpt>
      <trkpt lat="44.22595" lon="5.91928">
        <ele>504</ele>
        <time>2017-01-12 14:13:50</time>
      </trkpt>
      <trkpt lat="44.22595" lon="5.91928">
        <ele>504</ele>
        <time>2017-01-12 14:13:51</time>
      </trkpt>
      <trkpt lat="44.2258" lon="5.91929">
        <ele>504.1</ele>
        <time>2017-01-12 14:13:52</time>
      </trkpt>
      <trkpt lat="44.2258" lon="5.91929">
        <ele>504.1</ele>
        <time>2017-01-12 14:13:53</time>
      </trkpt>
      <trkpt lat="44.2258" lon="5.91929">
        <ele>504.1</ele>
        <time>2017-01-12 14:13:54</time>
      </trkpt>
      <trkpt lat="44.2258" lon="5.91929">
        <ele>504.1</ele>
        <time>2017-01-12 14:13:55</time>
      </trkpt>
      <trkpt lat="44.22565" lon="5.9193">
        <ele>504.3</ele>
        <time>2017-01-12 14:13:56</time>
      </trkpt>
      <trkpt lat="44.22565" lon="5.9193">
        <ele>504.3</ele>
        <time>2017-01-12 14:13:57</time>
      </trkpt>
      <trkpt lat="44.22565" lon="5.9193">
        <ele>504.3</ele>
        <time>2017-01-12 14:13:58</time>
      </trkpt>
      <trkpt lat="44.22565" lon="5.9193">
        <ele>504.3</ele>
        <time>2017-01-12 14:13:59</time>
      </trkpt>
      <trkpt lat="44.22549" lon="5.91931">
        <ele>504.5</ele>
        <time>2017-01-12 14:14:00</time>
      </trkpt>
      <trkpt lat="44.22549" lon="5.91931">
        <ele>504.5</ele>
        <time>2017-01-12 14:14:01</time>
      </trkpt>
      <trkpt lat="44.22549" lon="5.91931">
        <ele>504.5</ele>
        <time>2017-01-12 14:14:02</time>
      </trkpt>
      <trkpt lat="44.22549" lon="5.91931">
        <ele>504.5</ele>
        <time>2017-01-12 14:14:03</time>
      </trkpt>
      <trkpt lat="44.22534" lon="5.91932">
        <ele>504.4</ele>
        <time>2017-01-12 14:14:04</time>
      </trkpt>
      <trkpt lat="44.22534" lon="5.91932">
        <ele>504.4</ele>
        <time>2017-01-12 14:14:05</time>
      </trkpt>
      <trkpt lat="44.22534" lon="5.91932">
        <ele>504.4</ele>
        <time>2017-01-12 14:14:06</time>
      </trkpt>
      <trkpt lat="44.22534" lon="5.91932">
        <ele>504.4</ele>
        <time>2017-01-12 14:14:07</time>
      </trkpt>
      <trkpt lat="44.22519" lon="5.91934">
        <ele>504.5</ele>
        <time>2017-01-12 14:14:08</time>
      </trkpt>
      <trkpt lat="44.22519" lon="5.91934">
        <ele>504.5</ele>
        <time>2017-01-12 14:14:09</time>
      </trkpt>
      <trkpt lat="44.22519" lon="5.91934">
        <ele>504.5</ele>
        <time>2017-01-12 14:14:10</time>
      </trkpt>
      <trkpt lat="44.22519" lon="5.91934">
        <ele>504.5</ele>
        <time>2017-01-12 14:14:11</time>
      </trkpt>
      <trkpt lat="44.22505" lon="5.91936">
        <ele>504.6</ele>
        <time>2017-01-12 14:14:12</time>
      </trkpt>
      <trkpt lat="44.22505" lon="5.91936">
        <ele>504.6</ele>
        <time>2017-01-12 14:14:13</time>
      </trkpt>
      <trkpt lat="44.22505" lon="5.91936">
        <ele>504.6</ele>
        <time>2017-01-12 14:14:14</time>
      </trkpt>
      <trkpt lat="44.22505" lon="5.91936">
        <ele>504.6</ele>
        <time>2017-01-12 14:14:15</time>
      </trkpt>
      <trkpt lat="44.22493" lon="5.91939">
        <ele>504.8</ele>
        <time>2017-01-12 14:14:16</time>
      </trkpt>
      <trkpt lat="44.22493" lon="5.91939">
        <ele>504.8</ele>
        <time>2017-01-12 14:14:17</time>
      </trkpt>
      <trkpt lat="44.22493" lon="5.91939">
        <ele>504.8</ele>
        <time>2017-01-12 14:14:18</time>
      </trkpt>
      <trkpt lat="44.22493" lon="5.91939">
        <ele>504.8</ele>
        <time>2017-01-12 14:14:19</time>
      </trkpt>
      <trkpt lat="44.22481" lon="5.91944">
        <ele>505</ele>
        <time>2017-01-12 14:14:20</time>
      </trkpt>
      <trkpt lat="44.22481" lon="5.91944">
        <ele>505</ele>
        <time>2017-01-12 14:14:21</time>
      </trkpt>
      <trkpt lat="44.22481" lon="5.91944">
        <ele>505</ele>
        <time>2017-01-12 14:14:22</time>
      </trkpt>
      <trkpt lat="44.22481" lon="5.91944">
        <ele>505</ele>
        <time>2017-01-12 14:14:23</time>
      </trkpt>
      <trkpt lat="44.22467" lon="5.9195">
        <ele>504.7</ele>
        <time>2017-01-12 14:14:24</time>
      </trkpt>
      <trkpt lat="44.22467" lon="5.9195">
        <ele>504.7</ele>
        <time>2017-01-12 14:14:25</time>
      </trkpt>
      <trkpt lat="44.22467" lon="5.9195">
        <ele>504.7</ele>
        <time>2017-01-12 14:14:26</time>
      </trkpt>
      <trkpt lat="44.22467" lon="5.9195">
        <ele>504.7</ele>
        <time>2017-01-12 14:14:27</time>
      </trkpt>
      <trkpt lat="44.22454" lon="5.91955">
        <ele>504.2</ele>
        <time>2017-01-12 14:14:28</time>
      </trkpt>
      <trkpt lat="44.22454" lon="5.91955">
        <ele>504.2</ele>
        <time>2017-01-12 14:14:29</time>
      </trkpt>
      <trkpt lat="44.22454" lon="5.91955">
        <ele>504.2</ele>
        <time>2017-01-12 14:14:30</time>
      </trkpt>
      <trkpt lat="44.22454" lon="5.91955">
        <ele>504.2</ele>
        <time>2017-01-12 14:14:31</time>
      </trkpt>
      <trkpt lat="44.22439" lon="5.91961">
        <ele>504.1</ele>
        <time>2017-01-12 14:14:32</time>
      </trkpt>
      <trkpt lat="44.22439" lon="5.91961">
        <ele>504.1</ele>
        <time>2017-01-12 14:14:33</time>
      </trkpt>
      <trkpt lat="44.22439" lon="5.91961">
        <ele>504.1</ele>
        <time>2017-01-12 14:14:34</time>
      </trkpt>
      <trkpt lat="44.22439" lon="5.91961">
        <ele>504.1</ele>
        <time>2017-01-12 14:14:35</time>
      </trkpt>
      <trkpt lat="44.22424" lon="5.91967">
        <ele>504.6</ele>
        <time>2017-01-12 14:14:36</time>
      </trkpt>
      <trkpt lat="44.22424" lon="5.91967">
        <ele>504.6</ele>
        <time>2017-01-12 14:14:37</time>
      </trkpt>
      <trkpt lat="44.22424" lon="5.91967">
        <ele>504.6</ele>
        <time>2017-01-12 14:14:38</time>
      </trkpt>
      <trkpt lat="44.22424" lon="5.91967">
        <ele>504.6</ele>
        <time>2017-01-12 14:14:39</time>
      </trkpt>
      <trkpt lat="44.22408" lon="5.91972">
        <ele>505</ele>
        <time>2017-01-12 14:14:40</time>
      </trkpt>
      <trkpt lat="44.22408" lon="5.91972">
        <ele>505</ele>
        <time>2017-01-12 14:14:41</time>
      </trkpt>
      <trkpt lat="44.22408" lon="5.91972">
        <ele>505</ele>
        <time>2017-01-12 14:14:42</time>
      </trkpt>
      <trkpt lat="44.22408" lon="5.91972">
        <ele>505</ele>
        <time>2017-01-12 14:14:43</time>
      </trkpt>
      <trkpt lat="44.22392" lon="5.91979">
        <ele>504.7</ele>
        <time>2017-01-12 14:14:44</time>
      </trkpt>
      <trkpt lat="44.22392" lon="5.91979">
        <ele>504.7</ele>
        <time>2017-01-12 14:14:45</time>
      </trkpt>
      <trkpt lat="44.22392" lon="5.91979">
        <ele>504.7</ele>
        <time>2017-01-12 14:14:46</time>
      </trkpt>
      <trkpt lat="44.22392" lon="5.91979">
        <ele>504.7</ele>
        <time>2017-01-12 14:14:47</time>
      </trkpt>
      <trkpt lat="44.22376" lon="5.91986">
        <ele>504.3</ele>
        <time>2017-01-12 14:14:48</time>
      </trkpt>
      <trkpt lat="44.22376" lon="5.91986">
        <ele>504.3</ele>
        <time>2017-01-12 14:14:49</time>
      </trkpt>
      <trkpt lat="44.22376" lon="5.91986">
        <ele>504.3</ele>
        <time>2017-01-12 14:14:50</time>
      </trkpt>
      <trkpt lat="44.22376" lon="5.91986">
        <ele>504.3</ele>
        <time>2017-01-12 14:14:51</time>
      </trkpt>
      <trkpt lat="44.22361" lon="5.91993">
        <ele>504</ele>
        <time>2017-01-12 14:14:52</time>
      </trkpt>
      <trkpt lat="44.22361" lon="5.91993">
        <ele>504</ele>
        <time>2017-01-12 14:14:53</time>
      </trkpt>
      <trkpt lat="44.22361" lon="5.91993">
        <ele>504</ele>
        <time>2017-01-12 14:14:54</time>
      </trkpt>
      <trkpt lat="44.22361" lon="5.91993">
        <ele>504</ele>
        <time>2017-01-12 14:14:55</time>
      </trkpt>
      <trkpt lat="44.22346" lon="5.91999">
        <ele>504</ele>
        <time>2017-01-12 14:14:56</time>
      </trkpt>
      <trkpt lat="44.22346" lon="5.91999">
        <ele>504</ele>
        <time>2017-01-12 14:14:57</time>
      </trkpt>
      <trkpt lat="44.22346" lon="5.91999">
        <ele>504</ele>
        <time>2017-01-12 14:14:58</time>
      </trkpt>
      <trkpt lat="44.22346" lon="5.91999">
        <ele>504</ele>
        <time>2017-01-12 14:14:59</time>
      </trkpt>
      <trkpt lat="44.22329" lon="5.92005">
        <ele>503.8</ele>
        <time>2017-01-12 14:15:00</time>
      </trkpt>
      <trkpt lat="44.22329" lon="5.92005">
        <ele>503.8</ele>
        <time>2017-01-12 14:15:01</time>
      </trkpt>
      <trkpt lat="44.22329" lon="5.92005">
        <ele>503.8</ele>
        <time>2017-01-12 14:15:02</time>
      </trkpt>
      <trkpt lat="44.22329" lon="5.92005">
        <ele>503.8</ele>
        <time>2017-01-12 14:15:03</time>
      </trkpt>
      <trkpt lat="44.22312" lon="5.92011">
        <ele>503.2</ele>
        <time>2017-01-12 14:15:04</time>
      </trkpt>
      <trkpt lat="44.22312" lon="5.92011">
        <ele>503.2</ele>
        <time>2017-01-12 14:15:05</time>
      </trkpt>
      <trkpt lat="44.22312" lon="5.92011">
        <ele>503.2</ele>
        <time>2017-01-12 14:15:06</time>
      </trkpt>
      <trkpt lat="44.22312" lon="5.92011">
        <ele>503.2</ele>
        <time>2017-01-12 14:15:07</time>
      </trkpt>
      <trkpt lat="44.22296" lon="5.92018">
        <ele>502.8</ele>
        <time>2017-01-12 14:15:08</time>
      </trkpt>
      <trkpt lat="44.22296" lon="5.92018">
        <ele>502.8</ele>
        <time>2017-01-12 14:15:09</time>
      </trkpt>
      <trkpt lat="44.22296" lon="5.92018">
        <ele>502.8</ele>
        <time>2017-01-12 14:15:10</time>
      </trkpt>
      <trkpt lat="44.22296" lon="5.92018">
        <ele>502.8</ele>
        <time>2017-01-12 14:15:11</time>
      </trkpt>
      <trkpt lat="44.22279" lon="5.92025">
        <ele>502.2</ele>
        <time>2017-01-12 14:15:12</time>
      </trkpt>
      <trkpt lat="44.22279" lon="5.92025">
        <ele>502.2</ele>
        <time>2017-01-12 14:15:13</time>
      </trkpt>
      <trkpt lat="44.22279" lon="5.92025">
        <ele>502.2</ele>
        <time>2017-01-12 14:15:14</time>
      </trkpt>
      <trkpt lat="44.22279" lon="5.92025">
        <ele>502.2</ele>
        <time>2017-01-12 14:15:15</time>
      </trkpt>
      <trkpt lat="44.22261" lon="5.92032">
        <ele>501.7</ele>
        <time>2017-01-12 14:15:16</time>
      </trkpt>
      <trkpt lat="44.22261" lon="5.92032">
        <ele>501.7</ele>
        <time>2017-01-12 14:15:17</time>
      </trkpt>
      <trkpt lat="44.22261" lon="5.92032">
        <ele>501.7</ele>
        <time>2017-01-12 14:15:18</time>
      </trkpt>
      <trkpt lat="44.22261" lon="5.92032">
        <ele>501.7</ele>
        <time>2017-01-12 14:15:19</time>
      </trkpt>
      <trkpt lat="44.2224" lon="5.9204">
        <ele>500.7</ele>
        <time>2017-01-12 14:15:20</time>
      </trkpt>
      <trkpt lat="44.2224" lon="5.9204">
        <ele>500.7</ele>
        <time>2017-01-12 14:15:21</time>
      </trkpt>
      <trkpt lat="44.2224" lon="5.9204">
        <ele>500.7</ele>
        <time>2017-01-12 14:15:22</time>
      </trkpt>
      <trkpt lat="44.2224" lon="5.9204">
        <ele>500.7</ele>
        <time>2017-01-12 14:15:23</time>
      </trkpt>
      <trkpt lat="44.22221" lon="5.92049">
        <ele>500</ele>
        <time>2017-01-12 14:15:24</time>
      </trkpt>
      <trkpt lat="44.22221" lon="5.92049">
        <ele>500</ele>
        <time>2017-01-12 14:15:25</time>
      </trkpt>
      <trkpt lat="44.22221" lon="5.92049">
        <ele>500</ele>
        <time>2017-01-12 14:15:26</time>
      </trkpt>
      <trkpt lat="44.22221" lon="5.92049">
        <ele>500</ele>
        <time>2017-01-12 14:15:27</time>
      </trkpt>
      <trkpt lat="44.22201" lon="5.92055">
        <ele>500.8</ele>
        <time>2017-01-12 14:15:28</time>
      </trkpt>
      <trkpt lat="44.22201" lon="5.92055">
        <ele>500.8</ele>
        <time>2017-01-12 14:15:29</time>
      </trkpt>
      <trkpt lat="44.22201" lon="5.92055">
        <ele>500.8</ele>
        <time>2017-01-12 14:15:30</time>
      </trkpt>
      <trkpt lat="44.22201" lon="5.92055">
        <ele>500.8</ele>
        <time>2017-01-12 14:15:31</time>
      </trkpt>
      <trkpt lat="44.22184" lon="5.92062">
        <ele>500.3</ele>
        <time>2017-01-12 14:15:32</time>
      </trkpt>
      <trkpt lat="44.22184" lon="5.92062">
        <ele>500.3</ele>
        <time>2017-01-12 14:15:33</time>
      </trkpt>
      <trkpt lat="44.22184" lon="5.92062">
        <ele>500.3</ele>
        <time>2017-01-12 14:15:34</time>
      </trkpt>
      <trkpt lat="44.22184" lon="5.92062">
        <ele>500.3</ele>
        <time>2017-01-12 14:15:35</time>
      </trkpt>
      <trkpt lat="44.22167" lon="5.92068">
        <ele>499.6</ele>
        <time>2017-01-12 14:15:36</time>
      </trkpt>
      <trkpt lat="44.22167" lon="5.92068">
        <ele>499.6</ele>
        <time>2017-01-12 14:15:37</time>
      </trkpt>
      <trkpt lat="44.22167" lon="5.92068">
        <ele>499.6</ele>
        <time>2017-01-12 14:15:38</time>
      </trkpt>
      <trkpt lat="44.22167" lon="5.92068">
        <ele>499.6</ele>
        <time>2017-01-12 14:15:39</time>
      </trkpt>
      <trkpt lat="44.22151" lon="5.92074">
        <ele>499.5</ele>
        <time>2017-01-12 14:15:40</time>
      </trkpt>
      <trkpt lat="44.22151" lon="5.92074">
        <ele>499.5</ele>
        <time>2017-01-12 14:15:41</time>
      </trkpt>
      <trkpt lat="44.22151" lon="5.92074">
        <ele>499.5</ele>
        <time>2017-01-12 14:15:42</time>
      </trkpt>
      <trkpt lat="44.22151" lon="5.92074">
        <ele>499.5</ele>
        <time>2017-01-12 14:15:43</time>
      </trkpt>
      <trkpt lat="44.22135" lon="5.92078">
        <ele>499.8</ele>
        <time>2017-01-12 14:15:44</time>
      </trkpt>
      <trkpt lat="44.22135" lon="5.92078">
        <ele>499.8</ele>
        <time>2017-01-12 14:15:45</time>
      </trkpt>
      <trkpt lat="44.22135" lon="5.92078">
        <ele>499.8</ele>
        <time>2017-01-12 14:15:46</time>
      </trkpt>
      <trkpt lat="44.22135" lon="5.92078">
        <ele>499.8</ele>
        <time>2017-01-12 14:15:47</time>
      </trkpt>
      <trkpt lat="44.22119" lon="5.92083">
        <ele>500</ele>
        <time>2017-01-12 14:15:48</time>
      </trkpt>
      <trkpt lat="44.22119" lon="5.92083">
        <ele>500</ele>
        <time>2017-01-12 14:15:49</time>
      </trkpt>
      <trkpt lat="44.22119" lon="5.92083">
        <ele>500</ele>
        <time>2017-01-12 14:15:50</time>
      </trkpt>
      <trkpt lat="44.22119" lon="5.92083">
        <ele>500</ele>
        <time>2017-01-12 14:15:51</time>
      </trkpt>
      <trkpt lat="44.22102" lon="5.92085">
        <ele>500</ele>
        <time>2017-01-12 14:15:52</time>
      </trkpt>
      <trkpt lat="44.22102" lon="5.92085">
        <ele>500</ele>
        <time>2017-01-12 14:15:53</time>
      </trkpt>
      <trkpt lat="44.22102" lon="5.92085">
        <ele>500</ele>
        <time>2017-01-12 14:15:54</time>
      </trkpt>
      <trkpt lat="44.22102" lon="5.92085">
        <ele>500</ele>
        <time>2017-01-12 14:15:55</time>
      </trkpt>
      <trkpt lat="44.22085" lon="5.92086">
        <ele>500</ele>
        <time>2017-01-12 14:15:56</time>
      </trkpt>
      <trkpt lat="44.22085" lon="5.92086">
        <ele>500</ele>
        <time>2017-01-12 14:15:57</time>
      </trkpt>
      <trkpt lat="44.22085" lon="5.92086">
        <ele>500</ele>
        <time>2017-01-12 14:15:58</time>
      </trkpt>
      <trkpt lat="44.22085" lon="5.92086">
        <ele>500</ele>
        <time>2017-01-12 14:15:59</time>
      </trkpt>
      <trkpt lat="44.22068" lon="5.92083">
        <ele>500.5</ele>
        <time>2017-01-12 14:16:00</time>
      </trkpt>
      <trkpt lat="44.22068" lon="5.92083">
        <ele>500.5</ele>
        <time>2017-01-12 14:16:01</time>
      </trkpt>
      <trkpt lat="44.22068" lon="5.92083">
        <ele>500.5</ele>
        <time>2017-01-12 14:16:02</time>
      </trkpt>
      <trkpt lat="44.22068" lon="5.92083">
        <ele>500.5</ele>
        <time>2017-01-12 14:16:03</time>
      </trkpt>
      <trkpt lat="44.22052" lon="5.9208">
        <ele>500.8</ele>
        <time>2017-01-12 14:16:04</time>
      </trkpt>
      <trkpt lat="44.22052" lon="5.9208">
        <ele>500.8</ele>
        <time>2017-01-12 14:16:05</time>
      </trkpt>
      <trkpt lat="44.22052" lon="5.9208">
        <ele>500.8</ele>
        <time>2017-01-12 14:16:06</time>
      </trkpt>
      <trkpt lat="44.22052" lon="5.9208">
        <ele>500.8</ele>
        <time>2017-01-12 14:16:07</time>
      </trkpt>
      <trkpt lat="44.22036" lon="5.92076">
        <ele>500.2</ele>
        <time>2017-01-12 14:16:08</time>
      </trkpt>
      <trkpt lat="44.22036" lon="5.92076">
        <ele>500.2</ele>
        <time>2017-01-12 14:16:09</time>
      </trkpt>
      <trkpt lat="44.22036" lon="5.92076">
        <ele>500.2</ele>
        <time>2017-01-12 14:16:10</time>
      </trkpt>
      <trkpt lat="44.22036" lon="5.92076">
        <ele>500.2</ele>
        <time>2017-01-12 14:16:11</time>
      </trkpt>
      <trkpt lat="44.2202" lon="5.92073">
        <ele>500</ele>
        <time>2017-01-12 14:16:12</time>
      </trkpt>
      <trkpt lat="44.2202" lon="5.92073">
        <ele>500</ele>
        <time>2017-01-12 14:16:13</time>
      </trkpt>
      <trkpt lat="44.2202" lon="5.92073">
        <ele>500</ele>
        <time>2017-01-12 14:16:14</time>
      </trkpt>
      <trkpt lat="44.2202" lon="5.92073">
        <ele>500</ele>
        <time>2017-01-12 14:16:15</time>
      </trkpt>
      <trkpt lat="44.22007" lon="5.92069">
        <ele>500</ele>
        <time>2017-01-12 14:16:16</time>
      </trkpt>
      <trkpt lat="44.22007" lon="5.92069">
        <ele>500</ele>
        <time>2017-01-12 14:16:17</time>
      </trkpt>
      <trkpt lat="44.22007" lon="5.92069">
        <ele>500</ele>
        <time>2017-01-12 14:16:18</time>
      </trkpt>
      <trkpt lat="44.22007" lon="5.92069">
        <ele>500</ele>
        <time>2017-01-12 14:16:19</time>
      </trkpt>
      <trkpt lat="44.21996" lon="5.92067">
        <ele>500.1</ele>
        <time>2017-01-12 14:16:20</time>
      </trkpt>
      <trkpt lat="44.21996" lon="5.92067">
        <ele>500.1</ele>
        <time>2017-01-12 14:16:21</time>
      </trkpt>
      <trkpt lat="44.21996" lon="5.92067">
        <ele>500.1</ele>
        <time>2017-01-12 14:16:22</time>
      </trkpt>
      <trkpt lat="44.21996" lon="5.92067">
        <ele>500.1</ele>
        <time>2017-01-12 14:16:23</time>
      </trkpt>
      <trkpt lat="44.21986" lon="5.92063">
        <ele>500.4</ele>
        <time>2017-01-12 14:16:24</time>
      </trkpt>
      <trkpt lat="44.21986" lon="5.92063">
        <ele>500.4</ele>
        <time>2017-01-12 14:16:25</time>
      </trkpt>
      <trkpt lat="44.21986" lon="5.92063">
        <ele>500.4</ele>
        <time>2017-01-12 14:16:26</time>
      </trkpt>
      <trkpt lat="44.21986" lon="5.92063">
        <ele>500.4</ele>
        <time>2017-01-12 14:16:27</time>
      </trkpt>
      <trkpt lat="44.21974" lon="5.92059">
        <ele>500.8</ele>
        <time>2017-01-12 14:16:28</time>
      </trkpt>
      <trkpt lat="44.21974" lon="5.92059">
        <ele>500.8</ele>
        <time>2017-01-12 14:16:29</time>
      </trkpt>
      <trkpt lat="44.21974" lon="5.92059">
        <ele>500.8</ele>
        <time>2017-01-12 14:16:30</time>
      </trkpt>
      <trkpt lat="44.21974" lon="5.92059">
        <ele>500.8</ele>
        <time>2017-01-12 14:16:31</time>
      </trkpt>
      <trkpt lat="44.21966" lon="5.92049">
        <ele>500.3</ele>
        <time>2017-01-12 14:16:32</time>
      </trkpt>
      <trkpt lat="44.21966" lon="5.92049">
        <ele>500.3</ele>
        <time>2017-01-12 14:16:33</time>
      </trkpt>
      <trkpt lat="44.21966" lon="5.92049">
        <ele>500.3</ele>
        <time>2017-01-12 14:16:34</time>
      </trkpt>
      <trkpt lat="44.21966" lon="5.92049">
        <ele>500.3</ele>
        <time>2017-01-12 14:16:35</time>
      </trkpt>
      <trkpt lat="44.21962" lon="5.92033">
        <ele>499</ele>
        <time>2017-01-12 14:16:36</time>
      </trkpt>
      <trkpt lat="44.21962" lon="5.92033">
        <ele>499</ele>
        <time>2017-01-12 14:16:37</time>
      </trkpt>
      <trkpt lat="44.21962" lon="5.92033">
        <ele>499</ele>
        <time>2017-01-12 14:16:38</time>
      </trkpt>
      <trkpt lat="44.21962" lon="5.92033">
        <ele>499</ele>
        <time>2017-01-12 14:16:39</time>
      </trkpt>
      <trkpt lat="44.21957" lon="5.92008">
        <ele>498.8</ele>
        <time>2017-01-12 14:16:40</time>
      </trkpt>
      <trkpt lat="44.21957" lon="5.92008">
        <ele>498.8</ele>
        <time>2017-01-12 14:16:41</time>
      </trkpt>
      <trkpt lat="44.21957" lon="5.92008">
        <ele>498.8</ele>
        <time>2017-01-12 14:16:42</time>
      </trkpt>
      <trkpt lat="44.21957" lon="5.92008">
        <ele>498.8</ele>
        <time>2017-01-12 14:16:43</time>
      </trkpt>
      <trkpt lat="44.2195" lon="5.91978">
        <ele>499.8</ele>
        <time>2017-01-12 14:16:44</time>
      </trkpt>
      <trkpt lat="44.2195" lon="5.91978">
        <ele>499.8</ele>
        <time>2017-01-12 14:16:45</time>
      </trkpt>
      <trkpt lat="44.2195" lon="5.91978">
        <ele>499.8</ele>
        <time>2017-01-12 14:16:46</time>
      </trkpt>
      <trkpt lat="44.2195" lon="5.91978">
        <ele>499.8</ele>
        <time>2017-01-12 14:16:47</time>
      </trkpt>
      <trkpt lat="44.21945" lon="5.91949">
        <ele>501.6</ele>
        <time>2017-01-12 14:16:48</time>
      </trkpt>
      <trkpt lat="44.21945" lon="5.91949">
        <ele>501.6</ele>
        <time>2017-01-12 14:16:49</time>
      </trkpt>
      <trkpt lat="44.21945" lon="5.91949">
        <ele>501.6</ele>
        <time>2017-01-12 14:16:50</time>
      </trkpt>
      <trkpt lat="44.21945" lon="5.91949">
        <ele>501.6</ele>
        <time>2017-01-12 14:16:51</time>
      </trkpt>
      <trkpt lat="44.21943" lon="5.91926">
        <ele>500.1</ele>
        <time>2017-01-12 14:16:52</time>
      </trkpt>
      <trkpt lat="44.21943" lon="5.91926">
        <ele>500.1</ele>
        <time>2017-01-12 14:16:53</time>
      </trkpt>
      <trkpt lat="44.21943" lon="5.91926">
        <ele>500.1</ele>
        <time>2017-01-12 14:16:54</time>
      </trkpt>
      <trkpt lat="44.21943" lon="5.91926">
        <ele>500.1</ele>
        <time>2017-01-12 14:16:55</time>
      </trkpt>
      <trkpt lat="44.21947" lon="5.91908">
        <ele>499.8</ele>
        <time>2017-01-12 14:16:56</time>
      </trkpt>
      <trkpt lat="44.21947" lon="5.91908">
        <ele>499.8</ele>
        <time>2017-01-12 14:16:57</time>
      </trkpt>
      <trkpt lat="44.21947" lon="5.91908">
        <ele>499.8</ele>
        <time>2017-01-12 14:16:58</time>
      </trkpt>
      <trkpt lat="44.21947" lon="5.91908">
        <ele>499.8</ele>
        <time>2017-01-12 14:16:59</time>
      </trkpt>
      <trkpt lat="44.21958" lon="5.91895">
        <ele>500.5</ele>
        <time>2017-01-12 14:17:00</time>
      </trkpt>
      <trkpt lat="44.21958" lon="5.91895">
        <ele>500.5</ele>
        <time>2017-01-12 14:17:01</time>
      </trkpt>
      <trkpt lat="44.21958" lon="5.91895">
        <ele>500.5</ele>
        <time>2017-01-12 14:17:02</time>
      </trkpt>
      <trkpt lat="44.21958" lon="5.91895">
        <ele>500.5</ele>
        <time>2017-01-12 14:17:03</time>
      </trkpt>
      <trkpt lat="44.2197" lon="5.91885">
        <ele>500.3</ele>
        <time>2017-01-12 14:17:04</time>
      </trkpt>
      <trkpt lat="44.2197" lon="5.91885">
        <ele>500.3</ele>
        <time>2017-01-12 14:17:05</time>
      </trkpt>
      <trkpt lat="44.2197" lon="5.91885">
        <ele>500.3</ele>
        <time>2017-01-12 14:17:06</time>
      </trkpt>
      <trkpt lat="44.2197" lon="5.91885">
        <ele>500.3</ele>
        <time>2017-01-12 14:17:07</time>
      </trkpt>
      <trkpt lat="44.21982" lon="5.91878">
        <ele>501.1</ele>
        <time>2017-01-12 14:17:08</time>
      </trkpt>
      <trkpt lat="44.21982" lon="5.91878">
        <ele>501.1</ele>
        <time>2017-01-12 14:17:09</time>
      </trkpt>
      <trkpt lat="44.21982" lon="5.91878">
        <ele>501.1</ele>
        <time>2017-01-12 14:17:10</time>
      </trkpt>
      <trkpt lat="44.21982" lon="5.91878">
        <ele>501.1</ele>
        <time>2017-01-12 14:17:11</time>
      </trkpt>
      <trkpt lat="44.21994" lon="5.9187">
        <ele>501.3</ele>
        <time>2017-01-12 14:17:12</time>
      </trkpt>
      <trkpt lat="44.21994" lon="5.9187">
        <ele>501.3</ele>
        <time>2017-01-12 14:17:13</time>
      </trkpt>
      <trkpt lat="44.21994" lon="5.9187">
        <ele>501.3</ele>
        <time>2017-01-12 14:17:14</time>
      </trkpt>
      <trkpt lat="44.21994" lon="5.9187">
        <ele>501.3</ele>
        <time>2017-01-12 14:17:15</time>
      </trkpt>
      <trkpt lat="44.22008" lon="5.91862">
        <ele>501</ele>
        <time>2017-01-12 14:17:16</time>
      </trkpt>
      <trkpt lat="44.22008" lon="5.91862">
        <ele>501</ele>
        <time>2017-01-12 14:17:17</time>
      </trkpt>
      <trkpt lat="44.22008" lon="5.91862">
        <ele>501</ele>
        <time>2017-01-12 14:17:18</time>
      </trkpt>
      <trkpt lat="44.22008" lon="5.91862">
        <ele>501</ele>
        <time>2017-01-12 14:17:19</time>
      </trkpt>
      <trkpt lat="44.2202" lon="5.91854">
        <ele>501.3</ele>
        <time>2017-01-12 14:17:20</time>
      </trkpt>
      <trkpt lat="44.2202" lon="5.91854">
        <ele>501.3</ele>
        <time>2017-01-12 14:17:21</time>
      </trkpt>
      <trkpt lat="44.2202" lon="5.91854">
        <ele>501.3</ele>
        <time>2017-01-12 14:17:22</time>
      </trkpt>
      <trkpt lat="44.2202" lon="5.91854">
        <ele>501.3</ele>
        <time>2017-01-12 14:17:23</time>
      </trkpt>
      <trkpt lat="44.2203" lon="5.91843">
        <ele>501.7</ele>
        <time>2017-01-12 14:17:24</time>
      </trkpt>
      <trkpt lat="44.2203" lon="5.91843">
        <ele>501.7</ele>
        <time>2017-01-12 14:17:25</time>
      </trkpt>
      <trkpt lat="44.2203" lon="5.91843">
        <ele>501.7</ele>
        <time>2017-01-12 14:17:26</time>
      </trkpt>
      <trkpt lat="44.2203" lon="5.91843">
        <ele>501.7</ele>
        <time>2017-01-12 14:17:27</time>
      </trkpt>
      <trkpt lat="44.22035" lon="5.9183">
        <ele>502</ele>
        <time>2017-01-12 14:17:28</time>
      </trkpt>
      <trkpt lat="44.22035" lon="5.9183">
        <ele>502</ele>
        <time>2017-01-12 14:17:29</time>
      </trkpt>
      <trkpt lat="44.22035" lon="5.9183">
        <ele>502</ele>
        <time>2017-01-12 14:17:30</time>
      </trkpt>
      <trkpt lat="44.22035" lon="5.9183">
        <ele>502</ele>
        <time>2017-01-12 14:17:31</time>
      </trkpt>
      <trkpt lat="44.22039" lon="5.91818">
        <ele>502</ele>
        <time>2017-01-12 14:17:32</time>
      </trkpt>
      <trkpt lat="44.22039" lon="5.91818">
        <ele>502</ele>
        <time>2017-01-12 14:17:33</time>
      </trkpt>
      <trkpt lat="44.22039" lon="5.91818">
        <ele>502</ele>
        <time>2017-01-12 14:17:34</time>
      </trkpt>
      <trkpt lat="44.22039" lon="5.91818">
        <ele>502</ele>
        <time>2017-01-12 14:17:35</time>
      </trkpt>
      <trkpt lat="44.22044" lon="5.91806">
        <ele>502</ele>
        <time>2017-01-12 14:17:36</time>
      </trkpt>
      <trkpt lat="44.22044" lon="5.91806">
        <ele>502</ele>
        <time>2017-01-12 14:17:37</time>
      </trkpt>
      <trkpt lat="44.22044" lon="5.91806">
        <ele>502</ele>
        <time>2017-01-12 14:17:38</time>
      </trkpt>
      <trkpt lat="44.22044" lon="5.91806">
        <ele>502</ele>
        <time>2017-01-12 14:17:39</time>
      </trkpt>
      <trkpt lat="44.22052" lon="5.91797">
        <ele>502</ele>
        <time>2017-01-12 14:17:40</time>
      </trkpt>
      <trkpt lat="44.22052" lon="5.91797">
        <ele>502</ele>
        <time>2017-01-12 14:17:41</time>
      </trkpt>
      <trkpt lat="44.22052" lon="5.91797">
        <ele>502</ele>
        <time>2017-01-12 14:17:42</time>
      </trkpt>
      <trkpt lat="44.22052" lon="5.91797">
        <ele>502</ele>
        <time>2017-01-12 14:17:43</time>
      </trkpt>
      <trkpt lat="44.2206" lon="5.91788">
        <ele>502</ele>
        <time>2017-01-12 14:17:44</time>
      </trkpt>
      <trkpt lat="44.2206" lon="5.91788">
        <ele>502</ele>
        <time>2017-01-12 14:17:45</time>
      </trkpt>
      <trkpt lat="44.2206" lon="5.91788">
        <ele>502</ele>
        <time>2017-01-12 14:17:46</time>
      </trkpt>
      <trkpt lat="44.2206" lon="5.91788">
        <ele>502</ele>
        <time>2017-01-12 14:17:47</time>
      </trkpt>
      <trkpt lat="44.22071" lon="5.91775">
        <ele>502</ele>
        <time>2017-01-12 14:17:48</time>
      </trkpt>
      <trkpt lat="44.22071" lon="5.91775">
        <ele>502</ele>
        <time>2017-01-12 14:17:49</time>
      </trkpt>
      <trkpt lat="44.22071" lon="5.91775">
        <ele>502</ele>
        <time>2017-01-12 14:17:50</time>
      </trkpt>
      <trkpt lat="44.22071" lon="5.91775">
        <ele>502</ele>
        <time>2017-01-12 14:17:51</time>
      </trkpt>
      <trkpt lat="44.22083" lon="5.91762">
        <ele>502</ele>
        <time>2017-01-12 14:17:52</time>
      </trkpt>
      <trkpt lat="44.22083" lon="5.91762">
        <ele>502</ele>
        <time>2017-01-12 14:17:53</time>
      </trkpt>
      <trkpt lat="44.22083" lon="5.91762">
        <ele>502</ele>
        <time>2017-01-12 14:17:54</time>
      </trkpt>
      <trkpt lat="44.22083" lon="5.91762">
        <ele>502</ele>
        <time>2017-01-12 14:17:55</time>
      </trkpt>
      <trkpt lat="44.22095" lon="5.91749">
        <ele>502</ele>
        <time>2017-01-12 14:17:56</time>
      </trkpt>
      <trkpt lat="44.22095" lon="5.91749">
        <ele>502</ele>
        <time>2017-01-12 14:17:57</time>
      </trkpt>
      <trkpt lat="44.22095" lon="5.91749">
        <ele>502</ele>
        <time>2017-01-12 14:17:58</time>
      </trkpt>
      <trkpt lat="44.22095" lon="5.91749">
        <ele>502</ele>
        <time>2017-01-12 14:17:59</time>
      </trkpt>
      <trkpt lat="44.22108" lon="5.91735">
        <ele>502.4</ele>
        <time>2017-01-12 14:18:00</time>
      </trkpt>
      <trkpt lat="44.22108" lon="5.91735">
        <ele>502.4</ele>
        <time>2017-01-12 14:18:01</time>
      </trkpt>
      <trkpt lat="44.22108" lon="5.91735">
        <ele>502.4</ele>
        <time>2017-01-12 14:18:02</time>
      </trkpt>
      <trkpt lat="44.22108" lon="5.91735">
        <ele>502.4</ele>
        <time>2017-01-12 14:18:03</time>
      </trkpt>
      <trkpt lat="44.22121" lon="5.91721">
        <ele>502.6</ele>
        <time>2017-01-12 14:18:04</time>
      </trkpt>
      <trkpt lat="44.22121" lon="5.91721">
        <ele>502.6</ele>
        <time>2017-01-12 14:18:05</time>
      </trkpt>
      <trkpt lat="44.22121" lon="5.91721">
        <ele>502.6</ele>
        <time>2017-01-12 14:18:06</time>
      </trkpt>
      <trkpt lat="44.22121" lon="5.91721">
        <ele>502.6</ele>
        <time>2017-01-12 14:18:07</time>
      </trkpt>
      <trkpt lat="44.22134" lon="5.91707">
        <ele>502.1</ele>
        <time>2017-01-12 14:18:08</time>
      </trkpt>
      <trkpt lat="44.22134" lon="5.91707">
        <ele>502.1</ele>
        <time>2017-01-12 14:18:09</time>
      </trkpt>
      <trkpt lat="44.22134" lon="5.91707">
        <ele>502.1</ele>
        <time>2017-01-12 14:18:10</time>
      </trkpt>
      <trkpt lat="44.22134" lon="5.91707">
        <ele>502.1</ele>
        <time>2017-01-12 14:18:11</time>
      </trkpt>
      <trkpt lat="44.22147" lon="5.91693">
        <ele>502</ele>
        <time>2017-01-12 14:18:12</time>
      </trkpt>
      <trkpt lat="44.22147" lon="5.91693">
        <ele>502</ele>
        <time>2017-01-12 14:18:13</time>
      </trkpt>
      <trkpt lat="44.22147" lon="5.91693">
        <ele>502</ele>
        <time>2017-01-12 14:18:14</time>
      </trkpt>
      <trkpt lat="44.22147" lon="5.91693">
        <ele>502</ele>
        <time>2017-01-12 14:18:15</time>
      </trkpt>
      <trkpt lat="44.22161" lon="5.91678">
        <ele>502.3</ele>
        <time>2017-01-12 14:18:16</time>
      </trkpt>
      <trkpt lat="44.22161" lon="5.91678">
        <ele>502.3</ele>
        <time>2017-01-12 14:18:17</time>
      </trkpt>
      <trkpt lat="44.22161" lon="5.91678">
        <ele>502.3</ele>
        <time>2017-01-12 14:18:18</time>
      </trkpt>
      <trkpt lat="44.22161" lon="5.91678">
        <ele>502.3</ele>
        <time>2017-01-12 14:18:19</time>
      </trkpt>
      <trkpt lat="44.22174" lon="5.91664">
        <ele>502.7</ele>
        <time>2017-01-12 14:18:20</time>
      </trkpt>
      <trkpt lat="44.22174" lon="5.91664">
        <ele>502.7</ele>
        <time>2017-01-12 14:18:21</time>
      </trkpt>
      <trkpt lat="44.22174" lon="5.91664">
        <ele>502.7</ele>
        <time>2017-01-12 14:18:22</time>
      </trkpt>
      <trkpt lat="44.22174" lon="5.91664">
        <ele>502.7</ele>
        <time>2017-01-12 14:18:23</time>
      </trkpt>
      <trkpt lat="44.22188" lon="5.91649">
        <ele>502.6</ele>
        <time>2017-01-12 14:18:24</time>
      </trkpt>
      <trkpt lat="44.22188" lon="5.91649">
        <ele>502.6</ele>
        <time>2017-01-12 14:18:25</time>
      </trkpt>
      <trkpt lat="44.22188" lon="5.91649">
        <ele>502.6</ele>
        <time>2017-01-12 14:18:26</time>
      </trkpt>
      <trkpt lat="44.22188" lon="5.91649">
        <ele>502.6</ele>
        <time>2017-01-12 14:18:27</time>
      </trkpt>
      <trkpt lat="44.22202" lon="5.91634">
        <ele>502.6</ele>
        <time>2017-01-12 14:18:28</time>
      </trkpt>
      <trkpt lat="44.22202" lon="5.91634">
        <ele>502.6</ele>
        <time>2017-01-12 14:18:29</time>
      </trkpt>
      <trkpt lat="44.22202" lon="5.91634">
        <ele>502.6</ele>
        <time>2017-01-12 14:18:30</time>
      </trkpt>
      <trkpt lat="44.22202" lon="5.91634">
        <ele>502.6</ele>
        <time>2017-01-12 14:18:31</time>
      </trkpt>
      <trkpt lat="44.22216" lon="5.91618">
        <ele>502.7</ele>
        <time>2017-01-12 14:18:32</time>
      </trkpt>
      <trkpt lat="44.22216" lon="5.91618">
        <ele>502.7</ele>
        <time>2017-01-12 14:18:33</time>
      </trkpt>
      <trkpt lat="44.22216" lon="5.91618">
        <ele>502.7</ele>
        <time>2017-01-12 14:18:34</time>
      </trkpt>
      <trkpt lat="44.22216" lon="5.91618">
        <ele>502.7</ele>
        <time>2017-01-12 14:18:35</time>
      </trkpt>
      <trkpt lat="44.22231" lon="5.91601">
        <ele>502.6</ele>
        <time>2017-01-12 14:18:36</time>
      </trkpt>
      <trkpt lat="44.22231" lon="5.91601">
        <ele>502.6</ele>
        <time>2017-01-12 14:18:37</time>
      </trkpt>
      <trkpt lat="44.22231" lon="5.91601">
        <ele>502.6</ele>
        <time>2017-01-12 14:18:38</time>
      </trkpt>
      <trkpt lat="44.22231" lon="5.91601">
        <ele>502.6</ele>
        <time>2017-01-12 14:18:39</time>
      </trkpt>
      <trkpt lat="44.22246" lon="5.91584">
        <ele>502</ele>
        <time>2017-01-12 14:18:40</time>
      </trkpt>
      <trkpt lat="44.22246" lon="5.91584">
        <ele>502</ele>
        <time>2017-01-12 14:18:41</time>
      </trkpt>
      <trkpt lat="44.22246" lon="5.91584">
        <ele>502</ele>
        <time>2017-01-12 14:18:42</time>
      </trkpt>
      <trkpt lat="44.22246" lon="5.91584">
        <ele>502</ele>
        <time>2017-01-12 14:18:43</time>
      </trkpt>
      <trkpt lat="44.22261" lon="5.91566">
        <ele>502.2</ele>
        <time>2017-01-12 14:18:44</time>
      </trkpt>
      <trkpt lat="44.22261" lon="5.91566">
        <ele>502.2</ele>
        <time>2017-01-12 14:18:45</time>
      </trkpt>
      <trkpt lat="44.22261" lon="5.91566">
        <ele>502.2</ele>
        <time>2017-01-12 14:18:46</time>
      </trkpt>
      <trkpt lat="44.22261" lon="5.91566">
        <ele>502.2</ele>
        <time>2017-01-12 14:18:47</time>
      </trkpt>
      <trkpt lat="44.22276" lon="5.91549">
        <ele>502</ele>
        <time>2017-01-12 14:18:48</time>
      </trkpt>
      <trkpt lat="44.22276" lon="5.91549">
        <ele>502</ele>
        <time>2017-01-12 14:18:49</time>
      </trkpt>
      <trkpt lat="44.22276" lon="5.91549">
        <ele>502</ele>
        <time>2017-01-12 14:18:50</time>
      </trkpt>
      <trkpt lat="44.22276" lon="5.91549">
        <ele>502</ele>
        <time>2017-01-12 14:18:51</time>
      </trkpt>
      <trkpt lat="44.2229" lon="5.91532">
        <ele>502.1</ele>
        <time>2017-01-12 14:18:52</time>
      </trkpt>
      <trkpt lat="44.2229" lon="5.91532">
        <ele>502.1</ele>
        <time>2017-01-12 14:18:53</time>
      </trkpt>
      <trkpt lat="44.2229" lon="5.91532">
        <ele>502.1</ele>
        <time>2017-01-12 14:18:54</time>
      </trkpt>
      <trkpt lat="44.2229" lon="5.91532">
        <ele>502.1</ele>
        <time>2017-01-12 14:18:55</time>
      </trkpt>
      <trkpt lat="44.22305" lon="5.91515">
        <ele>502.5</ele>
        <time>2017-01-12 14:18:56</time>
      </trkpt>
      <trkpt lat="44.22305" lon="5.91515">
        <ele>502.5</ele>
        <time>2017-01-12 14:18:57</time>
      </trkpt>
      <trkpt lat="44.22305" lon="5.91515">
        <ele>502.5</ele>
        <time>2017-01-12 14:18:58</time>
      </trkpt>
      <trkpt lat="44.22305" lon="5.91515">
        <ele>502.5</ele>
        <time>2017-01-12 14:18:59</time>
      </trkpt>
      <trkpt lat="44.2232" lon="5.91498">
        <ele>502.5</ele>
        <time>2017-01-12 14:19:00</time>
      </trkpt>
      <trkpt lat="44.2232" lon="5.91498">
        <ele>502.5</ele>
        <time>2017-01-12 14:19:01</time>
      </trkpt>
      <trkpt lat="44.2232" lon="5.91498">
        <ele>502.5</ele>
        <time>2017-01-12 14:19:02</time>
      </trkpt>
      <trkpt lat="44.2232" lon="5.91498">
        <ele>502.5</ele>
        <time>2017-01-12 14:19:03</time>
      </trkpt>
      <trkpt lat="44.22335" lon="5.91482">
        <ele>502.6</ele>
        <time>2017-01-12 14:19:04</time>
      </trkpt>
      <trkpt lat="44.22335" lon="5.91482">
        <ele>502.6</ele>
        <time>2017-01-12 14:19:05</time>
      </trkpt>
      <trkpt lat="44.22335" lon="5.91482">
        <ele>502.6</ele>
        <time>2017-01-12 14:19:06</time>
      </trkpt>
      <trkpt lat="44.22335" lon="5.91482">
        <ele>502.6</ele>
        <time>2017-01-12 14:19:07</time>
      </trkpt>
      <trkpt lat="44.22351" lon="5.91466">
        <ele>502.5</ele>
        <time>2017-01-12 14:19:08</time>
      </trkpt>
      <trkpt lat="44.22351" lon="5.91466">
        <ele>502.5</ele>
        <time>2017-01-12 14:19:09</time>
      </trkpt>
      <trkpt lat="44.22351" lon="5.91466">
        <ele>502.5</ele>
        <time>2017-01-12 14:19:10</time>
      </trkpt>
      <trkpt lat="44.22351" lon="5.91466">
        <ele>502.5</ele>
        <time>2017-01-12 14:19:11</time>
      </trkpt>
      <trkpt lat="44.22366" lon="5.91449">
        <ele>502.7</ele>
        <time>2017-01-12 14:19:12</time>
      </trkpt>
      <trkpt lat="44.22366" lon="5.91449">
        <ele>502.7</ele>
        <time>2017-01-12 14:19:13</time>
      </trkpt>
      <trkpt lat="44.22366" lon="5.91449">
        <ele>502.7</ele>
        <time>2017-01-12 14:19:14</time>
      </trkpt>
      <trkpt lat="44.22366" lon="5.91449">
        <ele>502.7</ele>
        <time>2017-01-12 14:19:15</time>
      </trkpt>
      <trkpt lat="44.22381" lon="5.91432">
        <ele>502.6</ele>
        <time>2017-01-12 14:19:16</time>
      </trkpt>
      <trkpt lat="44.22381" lon="5.91432">
        <ele>502.6</ele>
        <time>2017-01-12 14:19:17</time>
      </trkpt>
      <trkpt lat="44.22381" lon="5.91432">
        <ele>502.6</ele>
        <time>2017-01-12 14:19:18</time>
      </trkpt>
      <trkpt lat="44.22381" lon="5.91432">
        <ele>502.6</ele>
        <time>2017-01-12 14:19:19</time>
      </trkpt>
      <trkpt lat="44.22396" lon="5.91417">
        <ele>502.7</ele>
        <time>2017-01-12 14:19:20</time>
      </trkpt>
      <trkpt lat="44.22396" lon="5.91417">
        <ele>502.7</ele>
        <time>2017-01-12 14:19:21</time>
      </trkpt>
      <trkpt lat="44.22396" lon="5.91417">
        <ele>502.7</ele>
        <time>2017-01-12 14:19:22</time>
      </trkpt>
      <trkpt lat="44.22396" lon="5.91417">
        <ele>502.7</ele>
        <time>2017-01-12 14:19:23</time>
      </trkpt>
      <trkpt lat="44.22411" lon="5.91405">
        <ele>502.9</ele>
        <time>2017-01-12 14:19:24</time>
      </trkpt>
      <trkpt lat="44.22411" lon="5.91405">
        <ele>502.9</ele>
        <time>2017-01-12 14:19:25</time>
      </trkpt>
      <trkpt lat="44.22411" lon="5.91405">
        <ele>502.9</ele>
        <time>2017-01-12 14:19:26</time>
      </trkpt>
      <trkpt lat="44.22411" lon="5.91405">
        <ele>502.9</ele>
        <time>2017-01-12 14:19:27</time>
      </trkpt>
      <trkpt lat="44.22425" lon="5.91394">
        <ele>503.7</ele>
        <time>2017-01-12 14:19:28</time>
      </trkpt>
      <trkpt lat="44.22425" lon="5.91394">
        <ele>503.7</ele>
        <time>2017-01-12 14:19:29</time>
      </trkpt>
      <trkpt lat="44.22425" lon="5.91394">
        <ele>503.7</ele>
        <time>2017-01-12 14:19:30</time>
      </trkpt>
      <trkpt lat="44.22425" lon="5.91394">
        <ele>503.7</ele>
        <time>2017-01-12 14:19:31</time>
      </trkpt>
      <trkpt lat="44.22439" lon="5.91385">
        <ele>504</ele>
        <time>2017-01-12 14:19:32</time>
      </trkpt>
      <trkpt lat="44.22439" lon="5.91385">
        <ele>504</ele>
        <time>2017-01-12 14:19:33</time>
      </trkpt>
      <trkpt lat="44.22439" lon="5.91385">
        <ele>504</ele>
        <time>2017-01-12 14:19:34</time>
      </trkpt>
      <trkpt lat="44.22439" lon="5.91385">
        <ele>504</ele>
        <time>2017-01-12 14:19:35</time>
      </trkpt>
      <trkpt lat="44.22453" lon="5.91383">
        <ele>504.3</ele>
        <time>2017-01-12 14:19:36</time>
      </trkpt>
      <trkpt lat="44.22453" lon="5.91383">
        <ele>504.3</ele>
        <time>2017-01-12 14:19:37</time>
      </trkpt>
      <trkpt lat="44.22453" lon="5.91383">
        <ele>504.3</ele>
        <time>2017-01-12 14:19:38</time>
      </trkpt>
      <trkpt lat="44.22453" lon="5.91383">
        <ele>504.3</ele>
        <time>2017-01-12 14:19:39</time>
      </trkpt>
      <trkpt lat="44.22464" lon="5.9139">
        <ele>504.7</ele>
        <time>2017-01-12 14:19:40</time>
      </trkpt>
      <trkpt lat="44.22464" lon="5.9139">
        <ele>504.7</ele>
        <time>2017-01-12 14:19:41</time>
      </trkpt>
      <trkpt lat="44.22464" lon="5.9139">
        <ele>504.7</ele>
        <time>2017-01-12 14:19:42</time>
      </trkpt>
      <trkpt lat="44.22464" lon="5.9139">
        <ele>504.7</ele>
        <time>2017-01-12 14:19:43</time>
      </trkpt>
      <trkpt lat="44.22472" lon="5.91403">
        <ele>504.5</ele>
        <time>2017-01-12 14:19:44</time>
      </trkpt>
      <trkpt lat="44.22472" lon="5.91403">
        <ele>504.5</ele>
        <time>2017-01-12 14:19:45</time>
      </trkpt>
      <trkpt lat="44.22472" lon="5.91403">
        <ele>504.5</ele>
        <time>2017-01-12 14:19:46</time>
      </trkpt>
      <trkpt lat="44.22472" lon="5.91403">
        <ele>504.5</ele>
        <time>2017-01-12 14:19:47</time>
      </trkpt>
      <trkpt lat="44.22481" lon="5.91414">
        <ele>504.4</ele>
        <time>2017-01-12 14:19:48</time>
      </trkpt>
      <trkpt lat="44.22481" lon="5.91414">
        <ele>504.4</ele>
        <time>2017-01-12 14:19:49</time>
      </trkpt>
      <trkpt lat="44.22481" lon="5.91414">
        <ele>504.4</ele>
        <time>2017-01-12 14:19:50</time>
      </trkpt>
      <trkpt lat="44.22481" lon="5.91414">
        <ele>504.4</ele>
        <time>2017-01-12 14:19:51</time>
      </trkpt>
      <trkpt lat="44.22492" lon="5.91419">
        <ele>504.7</ele>
        <time>2017-01-12 14:19:52</time>
      </trkpt>
      <trkpt lat="44.22492" lon="5.91419">
        <ele>504.7</ele>
        <time>2017-01-12 14:19:53</time>
      </trkpt>
      <trkpt lat="44.22492" lon="5.91419">
        <ele>504.7</ele>
        <time>2017-01-12 14:19:54</time>
      </trkpt>
      <trkpt lat="44.22492" lon="5.91419">
        <ele>504.7</ele>
        <time>2017-01-12 14:19:55</time>
      </trkpt>
      <trkpt lat="44.22506" lon="5.91417">
        <ele>505</ele>
        <time>2017-01-12 14:19:56</time>
      </trkpt>
      <trkpt lat="44.22506" lon="5.91417">
        <ele>505</ele>
        <time>2017-01-12 14:19:57</time>
      </trkpt>
      <trkpt lat="44.22506" lon="5.91417">
        <ele>505</ele>
        <time>2017-01-12 14:19:58</time>
      </trkpt>
      <trkpt lat="44.22506" lon="5.91417">
        <ele>505</ele>
        <time>2017-01-12 14:19:59</time>
      </trkpt>
      <trkpt lat="44.22518" lon="5.9141">
        <ele>504.9</ele>
        <time>2017-01-12 14:20:00</time>
      </trkpt>
      <trkpt lat="44.22518" lon="5.9141">
        <ele>504.9</ele>
        <time>2017-01-12 14:20:01</time>
      </trkpt>
      <trkpt lat="44.22518" lon="5.9141">
        <ele>504.9</ele>
        <time>2017-01-12 14:20:02</time>
      </trkpt>
      <trkpt lat="44.22518" lon="5.9141">
        <ele>504.9</ele>
        <time>2017-01-12 14:20:03</time>
      </trkpt>
      <trkpt lat="44.22528" lon="5.91396">
        <ele>504.2</ele>
        <time>2017-01-12 14:20:04</time>
      </trkpt>
      <trkpt lat="44.22528" lon="5.91396">
        <ele>504.2</ele>
        <time>2017-01-12 14:20:05</time>
      </trkpt>
      <trkpt lat="44.22528" lon="5.91396">
        <ele>504.2</ele>
        <time>2017-01-12 14:20:06</time>
      </trkpt>
      <trkpt lat="44.22528" lon="5.91396">
        <ele>504.2</ele>
        <time>2017-01-12 14:20:07</time>
      </trkpt>
      <trkpt lat="44.22533" lon="5.91376">
        <ele>504.4</ele>
        <time>2017-01-12 14:20:08</time>
      </trkpt>
      <trkpt lat="44.22533" lon="5.91376">
        <ele>504.4</ele>
        <time>2017-01-12 14:20:09</time>
      </trkpt>
      <trkpt lat="44.22533" lon="5.91376">
        <ele>504.4</ele>
        <time>2017-01-12 14:20:10</time>
      </trkpt>
      <trkpt lat="44.22533" lon="5.91376">
        <ele>504.4</ele>
        <time>2017-01-12 14:20:11</time>
      </trkpt>
      <trkpt lat="44.22542" lon="5.91361">
        <ele>504.5</ele>
        <time>2017-01-12 14:20:12</time>
      </trkpt>
      <trkpt lat="44.22542" lon="5.91361">
        <ele>504.5</ele>
        <time>2017-01-12 14:20:13</time>
      </trkpt>
      <trkpt lat="44.22542" lon="5.91361">
        <ele>504.5</ele>
        <time>2017-01-12 14:20:14</time>
      </trkpt>
      <trkpt lat="44.22542" lon="5.91361">
        <ele>504.5</ele>
        <time>2017-01-12 14:20:15</time>
      </trkpt>
      <trkpt lat="44.22558" lon="5.9136">
        <ele>504</ele>
        <time>2017-01-12 14:20:16</time>
      </trkpt>
      <trkpt lat="44.22558" lon="5.9136">
        <ele>504</ele>
        <time>2017-01-12 14:20:17</time>
      </trkpt>
      <trkpt lat="44.22558" lon="5.9136">
        <ele>504</ele>
        <time>2017-01-12 14:20:18</time>
      </trkpt>
      <trkpt lat="44.22558" lon="5.9136">
        <ele>504</ele>
        <time>2017-01-12 14:20:19</time>
      </trkpt>
      <trkpt lat="44.2257" lon="5.91377">
        <ele>504</ele>
        <time>2017-01-12 14:20:20</time>
      </trkpt>
      <trkpt lat="44.2257" lon="5.91377">
        <ele>504</ele>
        <time>2017-01-12 14:20:21</time>
      </trkpt>
      <trkpt lat="44.2257" lon="5.91377">
        <ele>504</ele>
        <time>2017-01-12 14:20:22</time>
      </trkpt>
      <trkpt lat="44.2257" lon="5.91377">
        <ele>504</ele>
        <time>2017-01-12 14:20:23</time>
      </trkpt>
      <trkpt lat="44.22581" lon="5.91392">
        <ele>504</ele>
        <time>2017-01-12 14:20:24</time>
      </trkpt>
      <trkpt lat="44.22581" lon="5.91392">
        <ele>504</ele>
        <time>2017-01-12 14:20:25</time>
      </trkpt>
      <trkpt lat="44.22581" lon="5.91392">
        <ele>504</ele>
        <time>2017-01-12 14:20:26</time>
      </trkpt>
      <trkpt lat="44.22581" lon="5.91392">
        <ele>504</ele>
        <time>2017-01-12 14:20:27</time>
      </trkpt>
      <trkpt lat="44.22593" lon="5.91392">
        <ele>504</ele>
        <time>2017-01-12 14:20:28</time>
      </trkpt>
      <trkpt lat="44.22593" lon="5.91392">
        <ele>504</ele>
        <time>2017-01-12 14:20:29</time>
      </trkpt>
      <trkpt lat="44.22593" lon="5.91392">
        <ele>504</ele>
        <time>2017-01-12 14:20:30</time>
      </trkpt>
      <trkpt lat="44.22593" lon="5.91392">
        <ele>504</ele>
        <time>2017-01-12 14:20:31</time>
      </trkpt>
      <trkpt lat="44.22605" lon="5.91386">
        <ele>504</ele>
        <time>2017-01-12 14:20:32</time>
      </trkpt>
      <trkpt lat="44.22605" lon="5.91386">
        <ele>504</ele>
        <time>2017-01-12 14:20:33</time>
      </trkpt>
      <trkpt lat="44.22605" lon="5.91386">
        <ele>504</ele>
        <time>2017-01-12 14:20:34</time>
      </trkpt>
      <trkpt lat="44.22605" lon="5.91386">
        <ele>504</ele>
        <time>2017-01-12 14:20:35</time>
      </trkpt>
      <trkpt lat="44.22619" lon="5.9138">
        <ele>504.1</ele>
        <time>2017-01-12 14:20:36</time>
      </trkpt>
      <trkpt lat="44.22619" lon="5.9138">
        <ele>504.1</ele>
        <time>2017-01-12 14:20:37</time>
      </trkpt>
      <trkpt lat="44.22619" lon="5.9138">
        <ele>504.1</ele>
        <time>2017-01-12 14:20:38</time>
      </trkpt>
      <trkpt lat="44.22619" lon="5.9138">
        <ele>504.1</ele>
        <time>2017-01-12 14:20:39</time>
      </trkpt>
      <trkpt lat="44.22633" lon="5.91373">
        <ele>504.5</ele>
        <time>2017-01-12 14:20:40</time>
      </trkpt>
      <trkpt lat="44.22633" lon="5.91373">
        <ele>504.5</ele>
        <time>2017-01-12 14:20:41</time>
      </trkpt>
      <trkpt lat="44.22633" lon="5.91373">
        <ele>504.5</ele>
        <time>2017-01-12 14:20:42</time>
      </trkpt>
      <trkpt lat="44.22633" lon="5.91373">
        <ele>504.5</ele>
        <time>2017-01-12 14:20:43</time>
      </trkpt>
      <trkpt lat="44.22648" lon="5.91366">
        <ele>504.9</ele>
        <time>2017-01-12 14:20:44</time>
      </trkpt>
      <trkpt lat="44.22648" lon="5.91366">
        <ele>504.9</ele>
        <time>2017-01-12 14:20:45</time>
      </trkpt>
      <trkpt lat="44.22648" lon="5.91366">
        <ele>504.9</ele>
        <time>2017-01-12 14:20:46</time>
      </trkpt>
      <trkpt lat="44.22648" lon="5.91366">
        <ele>504.9</ele>
        <time>2017-01-12 14:20:47</time>
      </trkpt>
      <trkpt lat="44.22663" lon="5.91358">
        <ele>505</ele>
        <time>2017-01-12 14:20:48</time>
      </trkpt>
      <trkpt lat="44.22663" lon="5.91358">
        <ele>505</ele>
        <time>2017-01-12 14:20:49</time>
      </trkpt>
      <trkpt lat="44.22663" lon="5.91358">
        <ele>505</ele>
        <time>2017-01-12 14:20:50</time>
      </trkpt>
      <trkpt lat="44.22663" lon="5.91358">
        <ele>505</ele>
        <time>2017-01-12 14:20:51</time>
      </trkpt>
      <trkpt lat="44.22678" lon="5.91351">
        <ele>505</ele>
        <time>2017-01-12 14:20:52</time>
      </trkpt>
      <trkpt lat="44.22678" lon="5.91351">
        <ele>505</ele>
        <time>2017-01-12 14:20:53</time>
      </trkpt>
      <trkpt lat="44.22678" lon="5.91351">
        <ele>505</ele>
        <time>2017-01-12 14:20:54</time>
      </trkpt>
      <trkpt lat="44.22678" lon="5.91351">
        <ele>505</ele>
        <time>2017-01-12 14:20:55</time>
      </trkpt>
      <trkpt lat="44.22693" lon="5.91343">
        <ele>505</ele>
        <time>2017-01-12 14:20:56</time>
      </trkpt>
      <trkpt lat="44.22693" lon="5.91343">
        <ele>505</ele>
        <time>2017-01-12 14:20:57</time>
      </trkpt>
      <trkpt lat="44.22693" lon="5.91343">
        <ele>505</ele>
        <time>2017-01-12 14:20:58</time>
      </trkpt>
      <trkpt lat="44.22693" lon="5.91343">
        <ele>505</ele>
        <time>2017-01-12 14:20:59</time>
      </trkpt>
      <trkpt lat="44.22706" lon="5.91336">
        <ele>505</ele>
        <time>2017-01-12 14:21:00</time>
      </trkpt>
      <trkpt lat="44.22706" lon="5.91336">
        <ele>505</ele>
        <time>2017-01-12 14:21:01</time>
      </trkpt>
      <trkpt lat="44.22706" lon="5.91336">
        <ele>505</ele>
        <time>2017-01-12 14:21:02</time>
      </trkpt>
      <trkpt lat="44.22706" lon="5.91336">
        <ele>505</ele>
        <time>2017-01-12 14:21:03</time>
      </trkpt>
      <trkpt lat="44.2272" lon="5.91329">
        <ele>505</ele>
        <time>2017-01-12 14:21:04</time>
      </trkpt>
      <trkpt lat="44.2272" lon="5.91329">
        <ele>505</ele>
        <time>2017-01-12 14:21:05</time>
      </trkpt>
      <trkpt lat="44.2272" lon="5.91329">
        <ele>505</ele>
        <time>2017-01-12 14:21:06</time>
      </trkpt>
      <trkpt lat="44.2272" lon="5.91329">
        <ele>505</ele>
        <time>2017-01-12 14:21:07</time>
      </trkpt>
      <trkpt lat="44.22734" lon="5.91322">
        <ele>505.4</ele>
        <time>2017-01-12 14:21:08</time>
      </trkpt>
      <trkpt lat="44.22734" lon="5.91322">
        <ele>505.4</ele>
        <time>2017-01-12 14:21:09</time>
      </trkpt>
      <trkpt lat="44.22734" lon="5.91322">
        <ele>505.4</ele>
        <time>2017-01-12 14:21:10</time>
      </trkpt>
      <trkpt lat="44.22734" lon="5.91322">
        <ele>505.4</ele>
        <time>2017-01-12 14:21:11</time>
      </trkpt>
      <trkpt lat="44.22747" lon="5.91314">
        <ele>505.9</ele>
        <time>2017-01-12 14:21:12</time>
      </trkpt>
      <trkpt lat="44.22747" lon="5.91314">
        <ele>505.9</ele>
        <time>2017-01-12 14:21:13</time>
      </trkpt>
      <trkpt lat="44.22747" lon="5.91314">
        <ele>505.9</ele>
        <time>2017-01-12 14:21:14</time>
      </trkpt>
      <trkpt lat="44.22747" lon="5.91314">
        <ele>505.9</ele>
        <time>2017-01-12 14:21:15</time>
      </trkpt>
      <trkpt lat="44.22762" lon="5.91306">
        <ele>506</ele>
        <time>2017-01-12 14:21:16</time>
      </trkpt>
      <trkpt lat="44.22762" lon="5.91306">
        <ele>506</ele>
        <time>2017-01-12 14:21:17</time>
      </trkpt>
      <trkpt lat="44.22762" lon="5.91306">
        <ele>506</ele>
        <time>2017-01-12 14:21:18</time>
      </trkpt>
      <trkpt lat="44.22762" lon="5.91306">
        <ele>506</ele>
        <time>2017-01-12 14:21:19</time>
      </trkpt>
      <trkpt lat="44.22777" lon="5.91299">
        <ele>505.8</ele>
        <time>2017-01-12 14:21:20</time>
      </trkpt>
      <trkpt lat="44.22777" lon="5.91299">
        <ele>505.8</ele>
        <time>2017-01-12 14:21:21</time>
      </trkpt>
      <trkpt lat="44.22777" lon="5.91299">
        <ele>505.8</ele>
        <time>2017-01-12 14:21:22</time>
      </trkpt>
      <trkpt lat="44.22777" lon="5.91299">
        <ele>505.8</ele>
        <time>2017-01-12 14:21:23</time>
      </trkpt>
      <trkpt lat="44.22791" lon="5.91291">
        <ele>505.7</ele>
        <time>2017-01-12 14:21:24</time>
      </trkpt>
      <trkpt lat="44.22791" lon="5.91291">
        <ele>505.7</ele>
        <time>2017-01-12 14:21:25</time>
      </trkpt>
      <trkpt lat="44.22791" lon="5.91291">
        <ele>505.7</ele>
        <time>2017-01-12 14:21:26</time>
      </trkpt>
      <trkpt lat="44.22791" lon="5.91291">
        <ele>505.7</ele>
        <time>2017-01-12 14:21:27</time>
      </trkpt>
      <trkpt lat="44.22807" lon="5.91283">
        <ele>506</ele>
        <time>2017-01-12 14:21:28</time>
      </trkpt>
      <trkpt lat="44.22807" lon="5.91283">
        <ele>506</ele>
        <time>2017-01-12 14:21:29</time>
      </trkpt>
      <trkpt lat="44.22807" lon="5.91283">
        <ele>506</ele>
        <time>2017-01-12 14:21:30</time>
      </trkpt>
      <trkpt lat="44.22807" lon="5.91283">
        <ele>506</ele>
        <time>2017-01-12 14:21:31</time>
      </trkpt>
      <trkpt lat="44.22821" lon="5.91276">
        <ele>505.9</ele>
        <time>2017-01-12 14:21:32</time>
      </trkpt>
      <trkpt lat="44.22821" lon="5.91276">
        <ele>505.9</ele>
        <time>2017-01-12 14:21:33</time>
      </trkpt>
      <trkpt lat="44.22821" lon="5.91276">
        <ele>505.9</ele>
        <time>2017-01-12 14:21:34</time>
      </trkpt>
      <trkpt lat="44.22821" lon="5.91276">
        <ele>505.9</ele>
        <time>2017-01-12 14:21:35</time>
      </trkpt>
      <trkpt lat="44.22835" lon="5.91269">
        <ele>505.7</ele>
        <time>2017-01-12 14:21:36</time>
      </trkpt>
      <trkpt lat="44.22835" lon="5.91269">
        <ele>505.7</ele>
        <time>2017-01-12 14:21:37</time>
      </trkpt>
      <trkpt lat="44.22835" lon="5.91269">
        <ele>505.7</ele>
        <time>2017-01-12 14:21:38</time>
      </trkpt>
      <trkpt lat="44.22835" lon="5.91269">
        <ele>505.7</ele>
        <time>2017-01-12 14:21:39</time>
      </trkpt>
      <trkpt lat="44.22849" lon="5.91262">
        <ele>505.8</ele>
        <time>2017-01-12 14:21:40</time>
      </trkpt>
      <trkpt lat="44.22849" lon="5.91262">
        <ele>505.8</ele>
        <time>2017-01-12 14:21:41</time>
      </trkpt>
      <trkpt lat="44.22849" lon="5.91262">
        <ele>505.8</ele>
        <time>2017-01-12 14:21:42</time>
      </trkpt>
      <trkpt lat="44.22849" lon="5.91262">
        <ele>505.8</ele>
        <time>2017-01-12 14:21:43</time>
      </trkpt>
      <trkpt lat="44.22863" lon="5.91255">
        <ele>506</ele>
        <time>2017-01-12 14:21:44</time>
      </trkpt>
      <trkpt lat="44.22863" lon="5.91255">
        <ele>506</ele>
        <time>2017-01-12 14:21:45</time>
      </trkpt>
      <trkpt lat="44.22863" lon="5.91255">
        <ele>506</ele>
        <time>2017-01-12 14:21:46</time>
      </trkpt>
      <trkpt lat="44.22863" lon="5.91255">
        <ele>506</ele>
        <time>2017-01-12 14:21:47</time>
      </trkpt>
      <trkpt lat="44.2288" lon="5.91246">
        <ele>505.9</ele>
        <time>2017-01-12 14:21:48</time>
      </trkpt>
      <trkpt lat="44.2288" lon="5.91246">
        <ele>505.9</ele>
        <time>2017-01-12 14:21:49</time>
      </trkpt>
      <trkpt lat="44.2288" lon="5.91246">
        <ele>505.9</ele>
        <time>2017-01-12 14:21:50</time>
      </trkpt>
      <trkpt lat="44.2288" lon="5.91246">
        <ele>505.9</ele>
        <time>2017-01-12 14:21:51</time>
      </trkpt>
      <trkpt lat="44.22898" lon="5.91237">
        <ele>505.5</ele>
        <time>2017-01-12 14:21:52</time>
      </trkpt>
      <trkpt lat="44.22898" lon="5.91237">
        <ele>505.5</ele>
        <time>2017-01-12 14:21:53</time>
      </trkpt>
      <trkpt lat="44.22898" lon="5.91237">
        <ele>505.5</ele>
        <time>2017-01-12 14:21:54</time>
      </trkpt>
      <trkpt lat="44.22898" lon="5.91237">
        <ele>505.5</ele>
        <time>2017-01-12 14:21:55</time>
      </trkpt>
      <trkpt lat="44.22915" lon="5.91226">
        <ele>505.1</ele>
        <time>2017-01-12 14:21:56</time>
      </trkpt>
      <trkpt lat="44.22915" lon="5.91226">
        <ele>505.1</ele>
        <time>2017-01-12 14:21:57</time>
      </trkpt>
      <trkpt lat="44.22915" lon="5.91226">
        <ele>505.1</ele>
        <time>2017-01-12 14:21:58</time>
      </trkpt>
      <trkpt lat="44.22915" lon="5.91226">
        <ele>505.1</ele>
        <time>2017-01-12 14:21:59</time>
      </trkpt>
      <trkpt lat="44.22932" lon="5.91217">
        <ele>505.5</ele>
        <time>2017-01-12 14:22:00</time>
      </trkpt>
      <trkpt lat="44.22932" lon="5.91217">
        <ele>505.5</ele>
        <time>2017-01-12 14:22:01</time>
      </trkpt>
      <trkpt lat="44.22932" lon="5.91217">
        <ele>505.5</ele>
        <time>2017-01-12 14:22:02</time>
      </trkpt>
      <trkpt lat="44.22932" lon="5.91217">
        <ele>505.5</ele>
        <time>2017-01-12 14:22:03</time>
      </trkpt>
      <trkpt lat="44.22949" lon="5.91209">
        <ele>505.6</ele>
        <time>2017-01-12 14:22:04</time>
      </trkpt>
      <trkpt lat="44.22949" lon="5.91209">
        <ele>505.6</ele>
        <time>2017-01-12 14:22:05</time>
      </trkpt>
      <trkpt lat="44.22949" lon="5.91209">
        <ele>505.6</ele>
        <time>2017-01-12 14:22:06</time>
      </trkpt>
      <trkpt lat="44.22949" lon="5.91209">
        <ele>505.6</ele>
        <time>2017-01-12 14:22:07</time>
      </trkpt>
      <trkpt lat="44.22965" lon="5.91201">
        <ele>505.8</ele>
        <time>2017-01-12 14:22:08</time>
      </trkpt>
      <trkpt lat="44.22965" lon="5.91201">
        <ele>505.8</ele>
        <time>2017-01-12 14:22:09</time>
      </trkpt>
      <trkpt lat="44.22965" lon="5.91201">
        <ele>505.8</ele>
        <time>2017-01-12 14:22:10</time>
      </trkpt>
      <trkpt lat="44.22965" lon="5.91201">
        <ele>505.8</ele>
        <time>2017-01-12 14:22:11</time>
      </trkpt>
      <trkpt lat="44.22982" lon="5.91192">
        <ele>506</ele>
        <time>2017-01-12 14:22:12</time>
      </trkpt>
      <trkpt lat="44.22982" lon="5.91192">
        <ele>506</ele>
        <time>2017-01-12 14:22:13</time>
      </trkpt>
      <trkpt lat="44.22982" lon="5.91192">
        <ele>506</ele>
        <time>2017-01-12 14:22:14</time>
      </trkpt>
      <trkpt lat="44.22982" lon="5.91192">
        <ele>506</ele>
        <time>2017-01-12 14:22:15</time>
      </trkpt>
      <trkpt lat="44.22995" lon="5.91183">
        <ele>506</ele>
        <time>2017-01-12 14:22:16</time>
      </trkpt>
      <trkpt lat="44.22995" lon="5.91183">
        <ele>506</ele>
        <time>2017-01-12 14:22:17</time>
      </trkpt>
      <trkpt lat="44.22995" lon="5.91183">
        <ele>506</ele>
        <time>2017-01-12 14:22:18</time>
      </trkpt>
      <trkpt lat="44.22995" lon="5.91183">
        <ele>506</ele>
        <time>2017-01-12 14:22:19</time>
      </trkpt>
      <trkpt lat="44.23005" lon="5.91175">
        <ele>506</ele>
        <time>2017-01-12 14:22:20</time>
      </trkpt>
      <trkpt lat="44.23005" lon="5.91175">
        <ele>506</ele>
        <time>2017-01-12 14:22:21</time>
      </trkpt>
      <trkpt lat="44.23005" lon="5.91175">
        <ele>506</ele>
        <time>2017-01-12 14:22:22</time>
      </trkpt>
      <trkpt lat="44.23005" lon="5.91175">
        <ele>506</ele>
        <time>2017-01-12 14:22:23</time>
      </trkpt>
      <trkpt lat="44.23014" lon="5.91168">
        <ele>506</ele>
        <time>2017-01-12 14:22:24</time>
      </trkpt>
      <trkpt lat="44.23014" lon="5.91168">
        <ele>506</ele>
        <time>2017-01-12 14:22:25</time>
      </trkpt>
      <trkpt lat="44.23014" lon="5.91168">
        <ele>506</ele>
        <time>2017-01-12 14:22:26</time>
      </trkpt>
      <trkpt lat="44.23014" lon="5.91168">
        <ele>506</ele>
        <time>2017-01-12 14:22:27</time>
      </trkpt>
      <trkpt lat="44.23021" lon="5.91163">
        <ele>506.1</ele>
        <time>2017-01-12 14:22:28</time>
      </trkpt>
      <trkpt lat="44.23021" lon="5.91163">
        <ele>506.1</ele>
        <time>2017-01-12 14:22:29</time>
      </trkpt>
      <trkpt lat="44.23021" lon="5.91163">
        <ele>506.1</ele>
        <time>2017-01-12 14:22:30</time>
      </trkpt>
      <trkpt lat="44.23021" lon="5.91163">
        <ele>506.1</ele>
        <time>2017-01-12 14:22:31</time>
      </trkpt>
      <trkpt lat="44.23028" lon="5.91158">
        <ele>506.3</ele>
        <time>2017-01-12 14:22:32</time>
      </trkpt>
      <trkpt lat="44.23028" lon="5.91158">
        <ele>506.3</ele>
        <time>2017-01-12 14:22:33</time>
      </trkpt>
      <trkpt lat="44.23028" lon="5.91158">
        <ele>506.3</ele>
        <time>2017-01-12 14:22:34</time>
      </trkpt>
      <trkpt lat="44.23028" lon="5.91158">
        <ele>506.3</ele>
        <time>2017-01-12 14:22:35</time>
      </trkpt>
      <trkpt lat="44.2303" lon="5.91153">
        <ele>506.4</ele>
        <time>2017-01-12 14:22:36</time>
      </trkpt>
      <trkpt lat="44.2303" lon="5.91153">
        <ele>506.4</ele>
        <time>2017-01-12 14:22:37</time>
      </trkpt>
      <trkpt lat="44.2303" lon="5.91153">
        <ele>506.4</ele>
        <time>2017-01-12 14:22:38</time>
      </trkpt>
      <trkpt lat="44.2303" lon="5.91153">
        <ele>506.4</ele>
        <time>2017-01-12 14:22:39</time>
      </trkpt>
      <trkpt lat="44.2303" lon="5.91156">
        <ele>506.4</ele>
        <time>2017-01-12 14:22:40</time>
      </trkpt>
      <trkpt lat="44.2303" lon="5.91156">
        <ele>506.4</ele>
        <time>2017-01-12 14:22:41</time>
      </trkpt>
      <trkpt lat="44.2303" lon="5.91156">
        <ele>506.4</ele>
        <time>2017-01-12 14:22:42</time>
      </trkpt>
      <trkpt lat="44.2303" lon="5.91156">
        <ele>506.4</ele>
        <time>2017-01-12 14:22:43</time>
      </trkpt>
      <trkpt lat="44.2303" lon="5.91151">
        <ele>506.5</ele>
        <time>2017-01-12 14:22:44</time>
      </trkpt>
      <trkpt lat="44.2303" lon="5.91151">
        <ele>506.5</ele>
        <time>2017-01-12 14:22:45</time>
      </trkpt>
      <trkpt lat="44.2303" lon="5.91151">
        <ele>506.5</ele>
        <time>2017-01-12 14:22:46</time>
      </trkpt>
      <trkpt lat="44.2303" lon="5.91151">
        <ele>506.5</ele>
        <time>2017-01-12 14:22:47</time>
      </trkpt>
      <trkpt lat="44.23028" lon="5.91147">
        <ele>506.7</ele>
        <time>2017-01-12 14:22:48</time>
      </trkpt>
      <trkpt lat="44.23028" lon="5.91147">
        <ele>506.7</ele>
        <time>2017-01-12 14:22:49</time>
      </trkpt>
      <trkpt lat="44.23028" lon="5.91147">
        <ele>506.7</ele>
        <time>2017-01-12 14:22:50</time>
      </trkpt>
      <trkpt lat="44.23028" lon="5.91147">
        <ele>506.7</ele>
        <time>2017-01-12 14:22:51</time>
      </trkpt>
      <trkpt lat="44.23027" lon="5.91144">
        <ele>506.8</ele>
        <time>2017-01-12 14:22:52</time>
      </trkpt>
      <trkpt lat="44.23027" lon="5.91144">
        <ele>506.8</ele>
        <time>2017-01-12 14:22:53</time>
      </trkpt>
      <trkpt lat="44.23027" lon="5.91144">
        <ele>506.8</ele>
        <time>2017-01-12 14:22:54</time>
      </trkpt>
      <trkpt lat="44.23027" lon="5.91144">
        <ele>506.8</ele>
        <time>2017-01-12 14:22:55</time>
      </trkpt>
      <trkpt lat="44.23025" lon="5.91145">
        <ele>506.8</ele>
        <time>2017-01-12 14:22:56</time>
      </trkpt>
      <trkpt lat="44.23025" lon="5.91145">
        <ele>506.8</ele>
        <time>2017-01-12 14:22:57</time>
      </trkpt>
      <trkpt lat="44.23025" lon="5.91145">
        <ele>506.8</ele>
        <time>2017-01-12 14:22:58</time>
      </trkpt>
      <trkpt lat="44.23025" lon="5.91145">
        <ele>506.8</ele>
        <time>2017-01-12 14:22:59</time>
      </trkpt>
      <trkpt lat="44.2302" lon="5.91149">
        <ele>506.6</ele>
        <time>2017-01-12 14:23:00</time>
      </trkpt>
      <trkpt lat="44.2302" lon="5.91149">
        <ele>506.6</ele>
        <time>2017-01-12 14:23:01</time>
      </trkpt>
      <trkpt lat="44.2302" lon="5.91149">
        <ele>506.6</ele>
        <time>2017-01-12 14:23:02</time>
      </trkpt>
      <trkpt lat="44.2302" lon="5.91149">
        <ele>506.6</ele>
        <time>2017-01-12 14:23:03</time>
      </trkpt>
      <trkpt lat="44.23018" lon="5.91154">
        <ele>506.4</ele>
        <time>2017-01-12 14:23:04</time>
      </trkpt>
      <trkpt lat="44.23018" lon="5.91154">
        <ele>506.4</ele>
        <time>2017-01-12 14:23:05</time>
      </trkpt>
      <trkpt lat="44.23018" lon="5.91154">
        <ele>506.4</ele>
        <time>2017-01-12 14:23:06</time>
      </trkpt>
      <trkpt lat="44.23018" lon="5.91154">
        <ele>506.4</ele>
        <time>2017-01-12 14:23:07</time>
      </trkpt>
      <trkpt lat="44.2302" lon="5.91154">
        <ele>506.4</ele>
        <time>2017-01-12 14:23:08</time>
      </trkpt>
      <trkpt lat="44.2302" lon="5.91154">
        <ele>506.4</ele>
        <time>2017-01-12 14:23:09</time>
      </trkpt>
      <trkpt lat="44.2302" lon="5.91154">
        <ele>506.4</ele>
        <time>2017-01-12 14:23:10</time>
      </trkpt>
      <trkpt lat="44.2302" lon="5.91154">
        <ele>506.4</ele>
        <time>2017-01-12 14:23:11</time>
      </trkpt>
      <trkpt lat="44.23023" lon="5.9115">
        <ele>506.6</ele>
        <time>2017-01-12 14:23:12</time>
      </trkpt>
      <trkpt lat="44.23023" lon="5.9115">
        <ele>506.6</ele>
        <time>2017-01-12 14:23:13</time>
      </trkpt>
      <trkpt lat="44.23023" lon="5.9115">
        <ele>506.6</ele>
        <time>2017-01-12 14:23:14</time>
      </trkpt>
      <trkpt lat="44.23023" lon="5.9115">
        <ele>506.6</ele>
        <time>2017-01-12 14:23:15</time>
      </trkpt>
      <trkpt lat="44.23027" lon="5.91149">
        <ele>506.6</ele>
        <time>2017-01-12 14:23:16</time>
      </trkpt>
      <trkpt lat="44.23027" lon="5.91149">
        <ele>506.6</ele>
        <time>2017-01-12 14:23:17</time>
      </trkpt>
      <trkpt lat="44.23027" lon="5.91149">
        <ele>506.6</ele>
        <time>2017-01-12 14:23:18</time>
      </trkpt>
      <trkpt lat="44.23027" lon="5.91149">
        <ele>506.6</ele>
        <time>2017-01-12 14:23:19</time>
      </trkpt>
      <trkpt lat="44.23027" lon="5.91144">
        <ele>506.8</ele>
        <time>2017-01-12 14:23:20</time>
      </trkpt>
      <trkpt lat="44.23027" lon="5.91144">
        <ele>506.8</ele>
        <time>2017-01-12 14:23:21</time>
      </trkpt>
      <trkpt lat="44.23027" lon="5.91144">
        <ele>506.8</ele>
        <time>2017-01-12 14:23:22</time>
      </trkpt>
      <trkpt lat="44.23027" lon="5.91144">
        <ele>506.8</ele>
        <time>2017-01-12 14:23:23</time>
      </trkpt>
      <trkpt lat="44.23025" lon="5.91139">
        <ele>507</ele>
        <time>2017-01-12 14:23:24</time>
      </trkpt>
      <trkpt lat="44.23025" lon="5.91139">
        <ele>507</ele>
        <time>2017-01-12 14:23:25</time>
      </trkpt>
      <trkpt lat="44.23025" lon="5.91139">
        <ele>507</ele>
        <time>2017-01-12 14:23:26</time>
      </trkpt>
      <trkpt lat="44.23025" lon="5.91139">
        <ele>507</ele>
        <time>2017-01-12 14:23:27</time>
      </trkpt>
      <trkpt lat="44.23025" lon="5.91135">
        <ele>507.1</ele>
        <time>2017-01-12 14:23:28</time>
      </trkpt>
      <trkpt lat="44.23025" lon="5.91135">
        <ele>507.1</ele>
        <time>2017-01-12 14:23:29</time>
      </trkpt>
      <trkpt lat="44.23025" lon="5.91135">
        <ele>507.1</ele>
        <time>2017-01-12 14:23:30</time>
      </trkpt>
      <trkpt lat="44.23025" lon="5.91135">
        <ele>507.1</ele>
        <time>2017-01-12 14:23:31</time>
      </trkpt>
      <trkpt lat="44.23024" lon="5.91135">
        <ele>507.1</ele>
        <time>2017-01-12 14:23:32</time>
      </trkpt>
      <trkpt lat="44.23024" lon="5.91135">
        <ele>507.1</ele>
        <time>2017-01-12 14:23:33</time>
      </trkpt>
      <trkpt lat="44.23024" lon="5.91135">
        <ele>507.1</ele>
        <time>2017-01-12 14:23:34</time>
      </trkpt>
      <trkpt lat="44.23024" lon="5.91135">
        <ele>507.1</ele>
        <time>2017-01-12 14:23:35</time>
      </trkpt>
      <trkpt lat="44.23022" lon="5.91138">
        <ele>507</ele>
        <time>2017-01-12 14:23:36</time>
      </trkpt>
      <trkpt lat="44.23022" lon="5.91138">
        <ele>507</ele>
        <time>2017-01-12 14:23:37</time>
      </trkpt>
      <trkpt lat="44.23022" lon="5.91138">
        <ele>507</ele>
        <time>2017-01-12 14:23:38</time>
      </trkpt>
      <trkpt lat="44.23022" lon="5.91138">
        <ele>507</ele>
        <time>2017-01-12 14:23:39</time>
      </trkpt>
      <trkpt lat="44.2302" lon="5.91142">
        <ele>506.9</ele>
        <time>2017-01-12 14:23:40</time>
      </trkpt>
      <trkpt lat="44.2302" lon="5.91142">
        <ele>506.9</ele>
        <time>2017-01-12 14:23:41</time>
      </trkpt>
      <trkpt lat="44.2302" lon="5.91142">
        <ele>506.9</ele>
        <time>2017-01-12 14:23:42</time>
      </trkpt>
      <trkpt lat="44.2302" lon="5.91142">
        <ele>506.9</ele>
        <time>2017-01-12 14:23:43</time>
      </trkpt>
      <trkpt lat="44.23021" lon="5.91148">
        <ele>506.7</ele>
        <time>2017-01-12 14:23:44</time>
      </trkpt>
      <trkpt lat="44.23021" lon="5.91148">
        <ele>506.7</ele>
        <time>2017-01-12 14:23:45</time>
      </trkpt>
      <trkpt lat="44.23021" lon="5.91148">
        <ele>506.7</ele>
        <time>2017-01-12 14:23:46</time>
      </trkpt>
      <trkpt lat="44.23021" lon="5.91148">
        <ele>506.7</ele>
        <time>2017-01-12 14:23:47</time>
      </trkpt>
      <trkpt lat="44.23023" lon="5.91143">
        <ele>506.9</ele>
        <time>2017-01-12 14:23:48</time>
      </trkpt>
      <trkpt lat="44.23023" lon="5.91143">
        <ele>506.9</ele>
        <time>2017-01-12 14:23:49</time>
      </trkpt>
      <trkpt lat="44.23023" lon="5.91143">
        <ele>506.9</ele>
        <time>2017-01-12 14:23:50</time>
      </trkpt>
      <trkpt lat="44.23023" lon="5.91143">
        <ele>506.9</ele>
        <time>2017-01-12 14:23:51</time>
      </trkpt>
      <trkpt lat="44.23021" lon="5.91133">
        <ele>507.2</ele>
        <time>2017-01-12 14:23:52</time>
      </trkpt>
      <trkpt lat="44.23021" lon="5.91133">
        <ele>507.2</ele>
        <time>2017-01-12 14:23:53</time>
      </trkpt>
      <trkpt lat="44.23021" lon="5.91133">
        <ele>507.2</ele>
        <time>2017-01-12 14:23:54</time>
      </trkpt>
      <trkpt lat="44.23021" lon="5.91133">
        <ele>507.2</ele>
        <time>2017-01-12 14:23:55</time>
      </trkpt>
      <trkpt lat="44.23018" lon="5.9112">
        <ele>507.5</ele>
        <time>2017-01-12 14:23:56</time>
      </trkpt>
      <trkpt lat="44.23018" lon="5.9112">
        <ele>507.5</ele>
        <time>2017-01-12 14:23:57</time>
      </trkpt>
      <trkpt lat="44.23018" lon="5.9112">
        <ele>507.5</ele>
        <time>2017-01-12 14:23:58</time>
      </trkpt>
      <trkpt lat="44.23018" lon="5.9112">
        <ele>507.5</ele>
        <time>2017-01-12 14:23:59</time>
      </trkpt>
      <trkpt lat="44.23013" lon="5.91104">
        <ele>507.6</ele>
        <time>2017-01-12 14:24:00</time>
      </trkpt>
      <trkpt lat="44.23013" lon="5.91104">
        <ele>507.6</ele>
        <time>2017-01-12 14:24:01</time>
      </trkpt>
      <trkpt lat="44.23013" lon="5.91104">
        <ele>507.6</ele>
        <time>2017-01-12 14:24:02</time>
      </trkpt>
      <trkpt lat="44.23013" lon="5.91104">
        <ele>507.6</ele>
        <time>2017-01-12 14:24:03</time>
      </trkpt>
      <trkpt lat="44.23009" lon="5.9109">
        <ele>507.8</ele>
        <time>2017-01-12 14:24:04</time>
      </trkpt>
      <trkpt lat="44.23009" lon="5.9109">
        <ele>507.8</ele>
        <time>2017-01-12 14:24:05</time>
      </trkpt>
      <trkpt lat="44.23009" lon="5.9109">
        <ele>507.8</ele>
        <time>2017-01-12 14:24:06</time>
      </trkpt>
      <trkpt lat="44.23009" lon="5.9109">
        <ele>507.8</ele>
        <time>2017-01-12 14:24:07</time>
      </trkpt>
      <trkpt lat="44.23005" lon="5.91078">
        <ele>508</ele>
        <time>2017-01-12 14:24:08</time>
      </trkpt>
      <trkpt lat="44.23005" lon="5.91078">
        <ele>508</ele>
        <time>2017-01-12 14:24:09</time>
      </trkpt>
      <trkpt lat="44.23005" lon="5.91078">
        <ele>508</ele>
        <time>2017-01-12 14:24:10</time>
      </trkpt>
      <trkpt lat="44.23005" lon="5.91078">
        <ele>508</ele>
        <time>2017-01-12 14:24:11</time>
      </trkpt>
      <trkpt lat="44.23002" lon="5.91064">
        <ele>508</ele>
        <time>2017-01-12 14:24:12</time>
      </trkpt>
      <trkpt lat="44.23002" lon="5.91064">
        <ele>508</ele>
        <time>2017-01-12 14:24:13</time>
      </trkpt>
      <trkpt lat="44.23002" lon="5.91064">
        <ele>508</ele>
        <time>2017-01-12 14:24:14</time>
      </trkpt>
      <trkpt lat="44.23002" lon="5.91064">
        <ele>508</ele>
        <time>2017-01-12 14:24:15</time>
      </trkpt>
      <trkpt lat="44.23" lon="5.91049">
        <ele>508</ele>
        <time>2017-01-12 14:24:16</time>
      </trkpt>
      <trkpt lat="44.23" lon="5.91049">
        <ele>508</ele>
        <time>2017-01-12 14:24:17</time>
      </trkpt>
      <trkpt lat="44.23" lon="5.91049">
        <ele>508</ele>
        <time>2017-01-12 14:24:18</time>
      </trkpt>
      <trkpt lat="44.23" lon="5.91049">
        <ele>508</ele>
        <time>2017-01-12 14:24:19</time>
      </trkpt>
      <trkpt lat="44.23002" lon="5.91035">
        <ele>508</ele>
        <time>2017-01-12 14:24:20</time>
      </trkpt>
      <trkpt lat="44.23002" lon="5.91035">
        <ele>508</ele>
        <time>2017-01-12 14:24:21</time>
      </trkpt>
      <trkpt lat="44.23002" lon="5.91035">
        <ele>508</ele>
        <time>2017-01-12 14:24:22</time>
      </trkpt>
      <trkpt lat="44.23002" lon="5.91035">
        <ele>508</ele>
        <time>2017-01-12 14:24:23</time>
      </trkpt>
      <trkpt lat="44.23009" lon="5.91024">
        <ele>508</ele>
        <time>2017-01-12 14:24:24</time>
      </trkpt>
      <trkpt lat="44.23009" lon="5.91024">
        <ele>508</ele>
        <time>2017-01-12 14:24:25</time>
      </trkpt>
      <trkpt lat="44.23009" lon="5.91024">
        <ele>508</ele>
        <time>2017-01-12 14:24:26</time>
      </trkpt>
      <trkpt lat="44.23009" lon="5.91024">
        <ele>508</ele>
        <time>2017-01-12 14:24:27</time>
      </trkpt>
      <trkpt lat="44.23015" lon="5.91017">
        <ele>508.2</ele>
        <time>2017-01-12 14:24:28</time>
      </trkpt>
      <trkpt lat="44.23015" lon="5.91017">
        <ele>508.2</ele>
        <time>2017-01-12 14:24:29</time>
      </trkpt>
      <trkpt lat="44.23015" lon="5.91017">
        <ele>508.2</ele>
        <time>2017-01-12 14:24:30</time>
      </trkpt>
      <trkpt lat="44.23015" lon="5.91017">
        <ele>508.2</ele>
        <time>2017-01-12 14:24:31</time>
      </trkpt>
      <trkpt lat="44.2302" lon="5.91011">
        <ele>508.4</ele>
        <time>2017-01-12 14:24:32</time>
      </trkpt>
      <trkpt lat="44.2302" lon="5.91011">
        <ele>508.4</ele>
        <time>2017-01-12 14:24:33</time>
      </trkpt>
      <trkpt lat="44.2302" lon="5.91011">
        <ele>508.4</ele>
        <time>2017-01-12 14:24:34</time>
      </trkpt>
      <trkpt lat="44.2302" lon="5.91011">
        <ele>508.4</ele>
        <time>2017-01-12 14:24:35</time>
      </trkpt>
      <trkpt lat="44.2302" lon="5.91006">
        <ele>508.6</ele>
        <time>2017-01-12 14:24:36</time>
      </trkpt>
      <trkpt lat="44.2302" lon="5.91006">
        <ele>508.6</ele>
        <time>2017-01-12 14:24:37</time>
      </trkpt>
      <trkpt lat="44.2302" lon="5.91006">
        <ele>508.6</ele>
        <time>2017-01-12 14:24:38</time>
      </trkpt>
      <trkpt lat="44.2302" lon="5.91006">
        <ele>508.6</ele>
        <time>2017-01-12 14:24:39</time>
      </trkpt>
      <trkpt lat="44.23018" lon="5.91006">
        <ele>508.5</ele>
        <time>2017-01-12 14:24:40</time>
      </trkpt>
      <trkpt lat="44.23018" lon="5.91006">
        <ele>508.5</ele>
        <time>2017-01-12 14:24:41</time>
      </trkpt>
      <trkpt lat="44.23018" lon="5.91006">
        <ele>508.5</ele>
        <time>2017-01-12 14:24:42</time>
      </trkpt>
      <trkpt lat="44.23018" lon="5.91006">
        <ele>508.5</ele>
        <time>2017-01-12 14:24:43</time>
      </trkpt>
      <trkpt lat="44.23014" lon="5.91002">
        <ele>508.5</ele>
        <time>2017-01-12 14:24:44</time>
      </trkpt>
      <trkpt lat="44.23014" lon="5.91002">
        <ele>508.5</ele>
        <time>2017-01-12 14:24:45</time>
      </trkpt>
      <trkpt lat="44.23014" lon="5.91002">
        <ele>508.5</ele>
        <time>2017-01-12 14:24:46</time>
      </trkpt>
      <trkpt lat="44.23014" lon="5.91002">
        <ele>508.5</ele>
        <time>2017-01-12 14:24:47</time>
      </trkpt>
      <trkpt lat="44.2301" lon="5.90998">
        <ele>508.3</ele>
        <time>2017-01-12 14:24:48</time>
      </trkpt>
      <trkpt lat="44.2301" lon="5.90998">
        <ele>508.3</ele>
        <time>2017-01-12 14:24:49</time>
      </trkpt>
      <trkpt lat="44.2301" lon="5.90998">
        <ele>508.3</ele>
        <time>2017-01-12 14:24:50</time>
      </trkpt>
      <trkpt lat="44.2301" lon="5.90998">
        <ele>508.3</ele>
        <time>2017-01-12 14:24:51</time>
      </trkpt>
      <trkpt lat="44.23" lon="5.91002">
        <ele>508</ele>
        <time>2017-01-12 14:24:52</time>
      </trkpt>
      <trkpt lat="44.23" lon="5.91002">
        <ele>508</ele>
        <time>2017-01-12 14:24:53</time>
      </trkpt>
      <trkpt lat="44.23" lon="5.91002">
        <ele>508</ele>
        <time>2017-01-12 14:24:54</time>
      </trkpt>
      <trkpt lat="44.23" lon="5.91002">
        <ele>508</ele>
        <time>2017-01-12 14:24:55</time>
      </trkpt>
      <trkpt lat="44.2299" lon="5.91008">
        <ele>508</ele>
        <time>2017-01-12 14:24:56</time>
      </trkpt>
      <trkpt lat="44.2299" lon="5.91008">
        <ele>508</ele>
        <time>2017-01-12 14:24:57</time>
      </trkpt>
      <trkpt lat="44.2299" lon="5.91008">
        <ele>508</ele>
        <time>2017-01-12 14:24:58</time>
      </trkpt>
      <trkpt lat="44.2299" lon="5.91008">
        <ele>508</ele>
        <time>2017-01-12 14:24:59</time>
      </trkpt>
      <trkpt lat="44.2298" lon="5.91013">
        <ele>508</ele>
        <time>2017-01-12 14:25:00</time>
      </trkpt>
      <trkpt lat="44.2298" lon="5.91013">
        <ele>508</ele>
        <time>2017-01-12 14:25:01</time>
      </trkpt>
      <trkpt lat="44.2298" lon="5.91013">
        <ele>508</ele>
        <time>2017-01-12 14:25:02</time>
      </trkpt>
      <trkpt lat="44.2298" lon="5.91013">
        <ele>508</ele>
        <time>2017-01-12 14:25:03</time>
      </trkpt>
      <trkpt lat="44.22969" lon="5.91016">
        <ele>508</ele>
        <time>2017-01-12 14:25:04</time>
      </trkpt>
      <trkpt lat="44.22969" lon="5.91016">
        <ele>508</ele>
        <time>2017-01-12 14:25:05</time>
      </trkpt>
      <trkpt lat="44.22969" lon="5.91016">
        <ele>508</ele>
        <time>2017-01-12 14:25:06</time>
      </trkpt>
      <trkpt lat="44.22969" lon="5.91016">
        <ele>508</ele>
        <time>2017-01-12 14:25:07</time>
      </trkpt>
      <trkpt lat="44.2296" lon="5.91015">
        <ele>508</ele>
        <time>2017-01-12 14:25:08</time>
      </trkpt>
      <trkpt lat="44.2296" lon="5.91015">
        <ele>508</ele>
        <time>2017-01-12 14:25:09</time>
      </trkpt>
      <trkpt lat="44.2296" lon="5.91015">
        <ele>508</ele>
        <time>2017-01-12 14:25:10</time>
      </trkpt>
      <trkpt lat="44.2296" lon="5.91015">
        <ele>508</ele>
        <time>2017-01-12 14:25:11</time>
      </trkpt>
      <trkpt lat="44.22955" lon="5.91004">
        <ele>508</ele>
        <time>2017-01-12 14:25:12</time>
      </trkpt>
      <trkpt lat="44.22955" lon="5.91004">
        <ele>508</ele>
        <time>2017-01-12 14:25:13</time>
      </trkpt>
      <trkpt lat="44.22955" lon="5.91004">
        <ele>508</ele>
        <time>2017-01-12 14:25:14</time>
      </trkpt>
      <trkpt lat="44.22955" lon="5.91004">
        <ele>508</ele>
        <time>2017-01-12 14:25:15</time>
      </trkpt>
      <trkpt lat="44.22955" lon="5.90991">
        <ele>507.8</ele>
        <time>2017-01-12 14:25:16</time>
      </trkpt>
      <trkpt lat="44.22955" lon="5.90991">
        <ele>507.8</ele>
        <time>2017-01-12 14:25:17</time>
      </trkpt>
      <trkpt lat="44.22955" lon="5.90991">
        <ele>507.8</ele>
        <time>2017-01-12 14:25:18</time>
      </trkpt>
      <trkpt lat="44.22955" lon="5.90991">
        <ele>507.8</ele>
        <time>2017-01-12 14:25:19</time>
      </trkpt>
      <trkpt lat="44.22962" lon="5.90981">
        <ele>507.8</ele>
        <time>2017-01-12 14:25:20</time>
      </trkpt>
      <trkpt lat="44.22962" lon="5.90981">
        <ele>507.8</ele>
        <time>2017-01-12 14:25:21</time>
      </trkpt>
      <trkpt lat="44.22962" lon="5.90981">
        <ele>507.8</ele>
        <time>2017-01-12 14:25:22</time>
      </trkpt>
      <trkpt lat="44.22962" lon="5.90981">
        <ele>507.8</ele>
        <time>2017-01-12 14:25:23</time>
      </trkpt>
      <trkpt lat="44.22967" lon="5.90974">
        <ele>507.8</ele>
        <time>2017-01-12 14:25:24</time>
      </trkpt>
      <trkpt lat="44.22967" lon="5.90974">
        <ele>507.8</ele>
        <time>2017-01-12 14:25:25</time>
      </trkpt>
      <trkpt lat="44.22967" lon="5.90974">
        <ele>507.8</ele>
        <time>2017-01-12 14:25:26</time>
      </trkpt>
      <trkpt lat="44.22967" lon="5.90974">
        <ele>507.8</ele>
        <time>2017-01-12 14:25:27</time>
      </trkpt>
      <trkpt lat="44.22968" lon="5.90974">
        <ele>507.8</ele>
        <time>2017-01-12 14:25:28</time>
      </trkpt>
      <trkpt lat="44.22968" lon="5.90974">
        <ele>507.8</ele>
        <time>2017-01-12 14:25:29</time>
      </trkpt>
      <trkpt lat="44.22968" lon="5.90974">
        <ele>507.8</ele>
        <time>2017-01-12 14:25:30</time>
      </trkpt>
      <trkpt lat="44.22968" lon="5.90974">
        <ele>507.8</ele>
        <time>2017-01-12 14:25:31</time>
      </trkpt>
      <trkpt lat="44.22968" lon="5.90974">
        <ele>507.8</ele>
        <time>2017-01-12 14:25:32</time>
      </trkpt>
      <trkpt lat="44.22968" lon="5.90974">
        <ele>507.8</ele>
        <time>2017-01-12 14:25:33</time>
      </trkpt>
      <trkpt lat="44.22968" lon="5.90974">
        <ele>507.8</ele>
        <time>2017-01-12 14:25:34</time>
      </trkpt>
      <trkpt lat="44.22968" lon="5.90974">
        <ele>507.8</ele>
        <time>2017-01-12 14:25:35</time>
      </trkpt>
      <trkpt lat="44.22968" lon="5.90975">
        <ele>507.9</ele>
        <time>2017-01-12 14:25:36</time>
      </trkpt>
      <trkpt lat="44.22968" lon="5.90975">
        <ele>507.9</ele>
        <time>2017-01-12 14:25:37</time>
      </trkpt>
      <trkpt lat="44.22968" lon="5.90975">
        <ele>507.9</ele>
        <time>2017-01-12 14:25:38</time>
      </trkpt>
      <trkpt lat="44.22968" lon="5.90975">
        <ele>507.9</ele>
        <time>2017-01-12 14:25:39</time>
      </trkpt>
      <trkpt lat="44.22968" lon="5.90975">
        <ele>507.9</ele>
        <time>2017-01-12 14:25:40</time>
      </trkpt>
      <trkpt lat="44.22968" lon="5.90975">
        <ele>507.9</ele>
        <time>2017-01-12 14:25:41</time>
      </trkpt>
      <trkpt lat="44.22968" lon="5.90975">
        <ele>507.9</ele>
        <time>2017-01-12 14:25:42</time>
      </trkpt>
      <trkpt lat="44.22968" lon="5.90975">
        <ele>507.9</ele>
        <time>2017-01-12 14:25:43</time>
      </trkpt>
      <trkpt lat="44.22968" lon="5.90975">
        <ele>507.9</ele>
        <time>2017-01-12 14:25:44</time>
      </trkpt>
      <trkpt lat="44.22968" lon="5.90975">
        <ele>507.9</ele>
        <time>2017-01-12 14:25:45</time>
      </trkpt>
      <trkpt lat="44.22968" lon="5.90975">
        <ele>507.9</ele>
        <time>2017-01-12 14:25:46</time>
      </trkpt>
      <trkpt lat="44.22968" lon="5.90975">
        <ele>507.9</ele>
        <time>2017-01-12 14:25:47</time>
      </trkpt>
      <trkpt lat="44.22968" lon="5.90975">
        <ele>507.9</ele>
        <time>2017-01-12 14:25:48</time>
      </trkpt>
      <trkpt lat="44.22968" lon="5.90975">
        <ele>507.9</ele>
        <time>2017-01-12 14:25:49</time>
      </trkpt>
      <trkpt lat="44.22968" lon="5.90975">
        <ele>507.9</ele>
        <time>2017-01-12 14:25:50</time>
      </trkpt>
      <trkpt lat="44.22968" lon="5.90975">
        <ele>507.9</ele>
        <time>2017-01-12 14:25:51</time>
      </trkpt>
      <trkpt lat="44.2297" lon="5.90976">
        <ele>507.9</ele>
        <time>2017-01-12 14:25:52</time>
      </trkpt>
      <trkpt lat="44.2297" lon="5.90976">
        <ele>507.9</ele>
        <time>2017-01-12 14:25:53</time>
      </trkpt>
      <trkpt lat="44.2297" lon="5.90976">
        <ele>507.9</ele>
        <time>2017-01-12 14:25:54</time>
      </trkpt>
      <trkpt lat="44.2297" lon="5.90976">
        <ele>507.9</ele>
        <time>2017-01-12 14:25:55</time>
      </trkpt>
    </trkseg>
  </trk>
</gpx>